# Wetter Temperatur Luftdruck Luftfeuchtigkeit Sichtweite Windgeschwindigkeit Windrichtung Zeit
1 Clouds 25 1012 78 10000 4.1 140 07:36 11.07.2020
2 Clouds 25 1012 78 10000 4.1 140 07:18 11.07.2020
3 Rain 24 1013 83 10000 6.7 120 06:24 11.07.2020
4 Rain 24 1013 83 10000 6.7 120 05:54 11.07.2020
5 Clouds 26 1013 78 10000 4.1 150 05:18 11.07.2020
6 Clouds 26 1013 78 10000 4.1 150 04:39 11.07.2020
7 Rain 24 1014 83 10000 6.7 130 04:19 11.07.2020
8 Rain 24 1014 86 0 6.89 116 02:52 11.07.2020
9 Clouds 25 1015 78 10000 6.7 120 01:56 11.07.2020
10 Clouds 24 1015 88 10000 3.6 140 01:21 11.07.2020
11 Rain 23 1015 86 0 6.93 116 00:41 11.07.2020
12 Rain 24 1016 86 0 6.79 112 00:23 11.07.2020
13 Rain 24 1016 86 0 6.79 112 23:58 10.07.2020
14 Rain 24 1016 86 0 6.79 112 23:40 10.07.2020
15 Rain 24 1016 83 10000 4.6 130 23:21 10.07.2020
16 Rain 24 1016 83 10000 4.6 130 22:49 10.07.2020
17 Rain 24 1016 83 10000 4.6 130 22:24 10.07.2020
18 Rain 23 1015 88 10000 4.1 130 21:59 10.07.2020
19 Rain 23 1015 88 10000 4.1 130 21:38 10.07.2020
20 Rain 23 1015 88 10000 4.1 130 21:20 10.07.2020
21 Rain 23 1015 88 10000 3.1 130 20:43 10.07.2020
22 Rain 23 1015 88 10000 3.1 130 20:24 10.07.2020
23 Rain 23 1015 88 10000 2.1 130 19:59 10.07.2020
24 Rain 22 1015 94 8000 2.6 150 19:41 10.07.2020
25 Rain 22 1015 94 8000 2.6 150 19:21 10.07.2020
26 Clouds 24 1015 83 10000 4.1 140 18:54 10.07.2020
27 Clouds 24 1015 83 10000 4.1 140 18:36 10.07.2020
28 Clouds 24 1015 83 10000 4.1 140 18:18 10.07.2020
29 Clouds 24 1015 83 10000 3.6 140 17:41 10.07.2020
30 Clouds 24 1015 83 10000 3.6 140 17:22 10.07.2020
31 Clouds 24 1015 83 10000 4.6 130 16:57 10.07.2020
32 Clouds 24 1015 83 10000 4.6 130 16:39 10.07.2020
33 Clouds 24 1015 83 10000 4.6 130 16:18 10.07.2020
34 Rain 24 1016 83 10000 3.6 130 15:43 10.07.2020
35 Rain 24 1016 83 10000 3.6 130 15:20 10.07.2020
36 Rain 24 1016 83 10000 3.1 140 14:43 10.07.2020
37 Rain 24 1016 83 10000 3.1 140 14:23 10.07.2020
38 Clouds 24 1016 83 10000 3.1 130 13:58 10.07.2020
39 Clouds 24 1016 83 10000 3.1 130 13:58 10.07.2020
40 Clouds 24 1016 83 10000 3.1 130 13:40 10.07.2020
41 Clouds 24 1016 88 10000 2.6 150 13:22 10.07.2020
42 Clouds 24 1016 88 10000 2.6 150 12:59 10.07.2020
43 Clouds 23 1016 86 0 4.74 117 12:40 10.07.2020
44 Clouds 25 1016 83 10000 2.6 150 12:22 10.07.2020
45 Clouds 25 1016 83 10000 2.6 150 11:43 10.07.2020
46 Clouds 25 1015 83 10000 3.1 130 11:24 10.07.2020
47 Clouds 25 1015 83 10000 3.1 130 10:59 10.07.2020
48 Clouds 25 1015 83 10000 3.1 130 10:59 10.07.2020
49 Clouds 25 1015 83 10000 3.1 130 10:41 10.07.2020
50 Clouds 25 1015 83 10000 2.6 150 10:21 10.07.2020
51 Clouds 25 1015 83 10000 2.6 150 09:55 10.07.2020
52 Rain 23 1016 86 0 5.21 118 09:36 10.07.2020
53 Clouds 23 1015 86 0 5.4 127 09:18 10.07.2020
54 Clouds 23 1015 86 0 5.4 127 08:43 10.07.2020
55 Clouds 26 1014 78 10000 3.6 150 08:25 10.07.2020
56 Clouds 26 1014 78 10000 3.6 150 07:58 10.07.2020
57 Clouds 26 1014 78 10000 4.1 150 07:39 10.07.2020
58 Clouds 26 1014 78 10000 4.1 150 07:19 10.07.2020
59 Clouds 23 1015 82 0 5.35 135 06:43 10.07.2020
60 Clouds 26 1014 74 10000 4.1 140 05:50 10.07.2020
61 Rain 27 1015 74 10000 5.1 130 04:29 10.07.2020
62 Rain 26 1016 83 10000 3.1 130 02:55 10.07.2020
63 Rain 26 1016 83 10000 3.1 130 02:35 10.07.2020
64 Rain 26 1017 78 10000 4.1 140 00:56 10.07.2020
65 Rain 26 1017 78 10000 4.1 140 00:38 10.07.2020
66 Rain 26 1017 78 10000 4.1 140 00:18 10.07.2020
67 Rain 26 1017 78 10000 3.6 130 23:38 09.07.2020
68 Rain 26 1017 78 10000 3.6 130 23:19 09.07.2020
69 Clouds 25 1016 83 10000 2.6 130 22:56 09.07.2020
70 Clouds 25 1016 83 10000 2.6 130 22:38 09.07.2020
71 Clouds 25 1016 83 10000 2.6 130 22:20 09.07.2020
72 Clouds 25 1015 83 10000 2.1 130 21:55 09.07.2020
73 Clouds 25 1015 83 10000 2.1 130 21:36 09.07.2020
74 Clouds 25 1015 83 10000 2.1 130 21:36 09.07.2020
75 Clouds 25 1015 83 10000 2.1 130 21:18 09.07.2020
76 Clouds 25 1015 83 10000 2.6 130 20:41 09.07.2020
77 Clouds 25 1015 83 10000 2.6 130 20:23 09.07.2020
78 Clouds 25 1015 83 10000 3.1 140 19:43 09.07.2020
79 Clouds 25 1015 83 10000 3.1 140 19:22 09.07.2020
80 Clouds 25 1014 83 10000 2.6 140 18:59 09.07.2020
81 Clouds 25 1014 83 10000 2.6 140 18:41 09.07.2020
82 Clouds 25 1014 83 10000 2.6 140 18:19 09.07.2020
83 Clouds 25 1015 78 10000 2.6 140 17:43 09.07.2020
84 Clouds 25 1015 78 10000 2.6 140 17:24 09.07.2020
85 Clouds 25 1015 83 10000 2.6 130 16:58 09.07.2020
86 Clouds 25 1015 83 10000 2.6 130 16:39 09.07.2020
87 Clouds 25 1015 83 10000 2.6 130 16:19 09.07.2020
88 Clouds 25 1015 83 10000 2.6 130 16:19 09.07.2020
89 Clouds 25 1016 83 10000 2.6 140 15:59 09.07.2020
90 Clouds 25 1016 83 10000 2.6 140 15:38 09.07.2020
91 Clouds 25 1016 83 10000 2.6 140 15:20 09.07.2020
92 Clouds 25 1016 83 10000 2.6 130 14:58 09.07.2020
93 Clouds 25 1016 83 10000 2.6 130 14:40 09.07.2020
94 Clouds 25 1016 83 10000 2.6 130 14:21 09.07.2020
95 Clouds 25 1016 83 10000 3.6 140 13:56 09.07.2020
96 Clouds 25 1016 83 10000 3.6 140 13:56 09.07.2020
97 Clouds 25 1016 83 10000 3.6 140 13:38 09.07.2020
98 Clouds 25 1016 83 10000 3.6 140 13:19 09.07.2020
99 Clouds 25 1017 83 10000 3.1 140 12:42 09.07.2020
100 Clouds 25 1017 83 10000 3.1 140 12:23 09.07.2020
101 Clouds 25 1017 83 10000 3.1 140 12:23 09.07.2020
102 Clouds 25 1017 83 10000 3.6 130 11:58 09.07.2020
103 Clouds 25 1017 83 10000 3.6 130 11:40 09.07.2020
104 Clouds 25 1017 83 10000 3.6 130 11:19 09.07.2020
105 Clouds 25 1016 83 10000 2.6 140 10:56 09.07.2020
106 Clouds 25 1016 83 10000 2.6 140 10:38 09.07.2020
107 Clouds 25 1016 83 10000 2.6 140 10:19 09.07.2020
108 Clouds 25 1016 83 10000 2.6 140 10:19 09.07.2020
109 Clouds 25 1016 83 10000 3.6 130 09:43 09.07.2020
110 Clouds 25 1016 83 10000 3.6 130 09:23 09.07.2020
111 Rain 25 1015 83 10000 3.6 130 08:49 09.07.2020
112 Rain 25 1015 83 10000 3.6 130 08:26 09.07.2020
113 Rain 25 1015 83 10000 3.6 150 07:56 09.07.2020
114 Rain 25 1015 83 10000 3.6 150 07:37 09.07.2020
115 Rain 25 1015 83 10000 3.6 150 07:19 09.07.2020
116 Rain 26 1015 83 10000 3.6 140 06:20 09.07.2020
117 Rain 26 1014 83 10000 3.6 150 05:50 09.07.2020
118 Clouds 26 1015 83 10000 3.1 140 04:29 09.07.2020
119 Clouds 26 1015 83 10000 3.6 140 03:19 09.07.2020
120 Clouds 26 1015 83 10000 3.6 140 03:19 09.07.2020
121 Clouds 27 1016 83 10000 4.1 150 01:55 09.07.2020
122 Clouds 27 1017 83 10000 3.6 140 00:59 09.07.2020
123 Clouds 27 1017 83 10000 3.6 140 00:38 09.07.2020
124 Clouds 27 1017 83 10000 3.6 140 00:19 09.07.2020
125 Clouds 26 1016 88 10000 2.6 140 23:43 08.07.2020
126 Clouds 25 1016 94 10000 1.5 150 23:24 08.07.2020
127 Clouds 25 1016 94 10000 1.5 150 22:55 08.07.2020
128 Clouds 24 1015 94 10000 1 0 22:36 08.07.2020
129 Clouds 24 1015 94 10000 1 0 22:18 08.07.2020
130 Clouds 24 1015 94 10000 1 0 21:39 08.07.2020
131 Clouds 24 1015 94 10000 1 0 21:39 08.07.2020
132 Clouds 24 1015 87 0 3.26 98 21:21 08.07.2020
133 Clouds 24 1015 87 0 3.12 82 20:59 08.07.2020
134 Clouds 24 1015 87 0 3.12 82 20:41 08.07.2020
135 Clouds 24 1014 94 10000 1 120 20:23 08.07.2020
136 Clouds 24 1014 94 10000 1 120 19:43 08.07.2020
137 Clouds 24 1014 94 10000 1.5 150 19:25 08.07.2020
138 Clouds 24 1014 94 10000 1.5 150 18:59 08.07.2020
139 Clouds 24 1014 94 10000 1.5 150 18:40 08.07.2020
140 Clouds 24 1014 100 10000 1.5 150 18:21 08.07.2020
141 Clouds 24 1014 100 10000 1.5 150 17:56 08.07.2020
142 Clouds 24 1014 100 10000 1.5 150 17:38 08.07.2020
143 Clouds 24 1015 100 10000 1 0 17:20 08.07.2020
144 Clouds 24 1015 100 10000 1 0 16:55 08.07.2020
145 Clouds 24 1015 100 10000 4.29 114 16:36 08.07.2020
146 Clouds 24 1015 100 10000 4.75 125 16:18 08.07.2020
147 Clouds 24 1015 100 10000 4.75 125 15:56 08.07.2020
148 Clouds 24 1015 94 10000 1 0 15:37 08.07.2020
149 Clouds 24 1015 94 10000 1 0 15:18 08.07.2020
150 Clouds 24 1015 94 10000 1 0 14:42 08.07.2020
151 Clouds 24 1015 100 10000 5.86 145 14:20 08.07.2020
152 Clouds 24 1015 100 10000 5.86 145 13:45 08.07.2020
153 Clouds 24 1015 100 10000 6.32 152 13:27 08.07.2020
154 Clouds 24 1015 100 10000 6.32 152 12:58 08.07.2020
155 Clouds 24 1015 100 10000 6.32 152 12:38 08.07.2020
156 Clouds 24 1015 100 10000 7.01 157 12:19 08.07.2020
157 Clouds 24 1015 100 10000 7.01 157 11:39 08.07.2020
158 Clouds 24 1016 100 10000 6.97 158 11:20 08.07.2020
159 Clouds 24 1016 100 10000 6.97 158 10:56 08.07.2020
160 Clouds 24 1016 100 10000 6.97 158 10:56 08.07.2020
161 Clouds 24 1016 100 10000 6.97 158 10:38 08.07.2020
162 Rain 24 1015 100 10000 2.1 60 10:19 08.07.2020
163 Rain 24 1015 100 10000 2.1 60 09:41 08.07.2020
164 Rain 24 1015 100 5000 3.1 80 09:23 08.07.2020
165 Rain 24 1014 100 8000 2.1 100 08:43 08.07.2020
166 Rain 24 1014 100 8000 2.1 100 08:24 08.07.2020
167 Rain 25 1014 94 5000 5.63 156 07:48 08.07.2020
168 Rain 26 1013 88 10000 2.1 120 07:24 08.07.2020
169 Rain 26 1013 88 10000 2.1 120 06:55 08.07.2020
170 Rain 26 1013 94 10000 2.1 130 06:36 08.07.2020
171 Rain 26 1013 94 10000 2.1 130 05:55 08.07.2020
172 Rain 25 1014 94 10000 2.1 170 05:24 08.07.2020
173 Rain 25 1015 94 10000 3.1 150 04:36 08.07.2020
174 Rain 25 1014 91 0 4.09 130 02:48 08.07.2020
175 Rain 26 1016 88 10000 3.1 140 01:52 08.07.2020
176 Rain 26 1016 88 10000 3.1 140 01:32 08.07.2020
177 Clouds 27 1015 83 10000 3.1 150 00:28 08.07.2020
178 Clouds 26 1015 88 10000 4.1 130 23:59 07.07.2020
179 Clouds 26 1015 88 10000 4.1 130 23:40 07.07.2020
180 Clouds 26 1015 88 10000 4.1 130 23:19 07.07.2020
181 Clouds 25 1015 94 10000 2.1 130 22:43 07.07.2020
182 Clouds 25 1015 94 10000 4.05 125 22:23 07.07.2020
183 Clouds 25 1015 94 10000 4.05 125 21:59 07.07.2020
184 Clouds 25 1015 94 10000 4.05 125 21:40 07.07.2020
185 Rain 24 1015 91 0 4.31 130 21:21 07.07.2020
186 Rain 24 1015 91 0 4.31 130 20:57 07.07.2020
187 Clouds 24 1014 100 10000 4.31 130 20:39 07.07.2020
188 Clouds 24 1014 100 10000 3.89 128 20:20 07.07.2020
189 Rain 24 1014 91 0 3.89 128 19:41 07.07.2020
190 Clouds 25 1014 88 10000 2.1 140 19:21 07.07.2020
191 Clouds 25 1014 88 10000 2.1 140 18:57 07.07.2020
192 Clouds 24 1014 94 10000 3.94 127 18:38 07.07.2020
193 Clouds 24 1014 94 10000 3.93 125 18:20 07.07.2020
194 Clouds 24 1014 94 10000 3.93 125 17:58 07.07.2020
195 Clouds 24 1014 94 10000 3.93 125 17:38 07.07.2020
196 Clouds 24 1014 100 10000 4.11 122 17:20 07.07.2020
197 Clouds 24 1014 100 10000 4.11 122 17:20 07.07.2020
198 Clouds 24 1014 100 10000 4.11 122 16:43 07.07.2020
199 Clouds 25 1015 88 10000 2.1 140 16:24 07.07.2020
200 Clouds 25 1015 88 10000 2.1 140 15:58 07.07.2020
201 Clouds 25 1015 88 10000 2.1 140 15:39 07.07.2020
202 Rain 24 1014 91 0 4.45 134 15:20 07.07.2020
203 Rain 24 1014 91 0 4.45 134 15:20 07.07.2020
204 Rain 24 1014 91 0 4.45 134 14:46 07.07.2020
205 Clouds 25 1015 94 10000 1.5 150 14:25 07.07.2020
206 Clouds 25 1015 94 10000 1.5 150 14:25 07.07.2020
207 Clouds 25 1015 94 10000 1.5 150 13:47 07.07.2020
208 Clouds 25 1015 94 10000 2.1 140 13:22 07.07.2020
209 Clouds 25 1015 94 10000 2.1 140 12:59 07.07.2020
210 Rain 24 1015 100 10000 3.1 160 12:40 07.07.2020
211 Rain 24 1015 100 10000 3.1 160 12:22 07.07.2020
212 Rain 24 1015 100 10000 3.1 160 11:49 07.07.2020
213 Clouds 25 1014 94 10000 2.1 150 11:25 07.07.2020
214 Clouds 25 1014 94 10000 2.1 150 10:59 07.07.2020
215 Clouds 25 1014 94 10000 2.1 150 10:41 07.07.2020
216 Clouds 25 1014 94 10000 2.6 160 10:21 07.07.2020
217 Clouds 25 1014 94 10000 2.6 160 09:55 07.07.2020
218 Clouds 25 1014 94 10000 2.6 160 09:37 07.07.2020
219 Rain 25 1013 94 10000 2.1 140 09:18 07.07.2020
220 Rain 25 1013 94 10000 2.1 140 08:41 07.07.2020
221 Rain 25 1013 94 10000 2.1 140 08:22 07.07.2020
222 Clouds 26 1013 88 10000 2.6 150 07:42 07.07.2020
223 Clouds 26 1013 88 10000 2.6 150 07:22 07.07.2020
224 Clouds 26 1013 88 10000 3.6 160 06:49 07.07.2020
225 Clouds 26 1013 88 10000 3.6 160 06:28 07.07.2020
226 Clouds 25 1013 94 10000 3.1 150 05:51 07.07.2020
227 Clouds 25 1013 94 10000 3.1 150 05:21 07.07.2020
228 Clouds 26 1013 88 10000 2.6 160 04:38 07.07.2020
229 Rain 25 1013 91 0 4.3 141 03:35 07.07.2020
230 Rain 25 1016 100 10000 2.1 140 02:21 07.07.2020
231 Rain 25 1015 88 0 3.31 146 01:22 07.07.2020
232 Rain 25 1015 88 0 3.31 146 00:42 07.07.2020
233 Rain 25 1016 94 10000 1.5 160 00:23 07.07.2020
234 Rain 25 1016 94 10000 1.5 160 23:46 06.07.2020
235 Clouds 25 1015 94 10000 2.1 140 23:26 06.07.2020
236 Clouds 25 1015 94 10000 2.1 140 22:59 06.07.2020
237 Clouds 24 1015 100 10000 3.09 139 22:40 06.07.2020
238 Clouds 25 1015 94 10000 2.1 140 22:40 06.07.2020
239 Clouds 24 1015 100 10000 2.5 144 22:19 06.07.2020
240 Clouds 24 1015 100 10000 2.5 144 21:57 06.07.2020
241 Clouds 24 1015 100 10000 2.5 144 21:37 06.07.2020
242 Rain 24 1015 89 0 1.22 149 21:19 06.07.2020
243 Rain 24 1015 89 0 1.22 149 20:55 06.07.2020
244 Rain 24 1015 89 0 1.22 149 20:36 06.07.2020
245 Rain 24 1014 89 0 1.19 173 20:18 06.07.2020
246 Rain 24 1014 89 0 1.19 173 19:54 06.07.2020
247 Clouds 24 1013 100 10000 1.19 173 19:36 06.07.2020
248 Clouds 24 1013 100 10000 1.22 180 19:18 06.07.2020
249 Clouds 24 1014 90 0 1.22 180 18:41 06.07.2020
250 Clouds 25 1014 94 10000 1.34 164 18:23 06.07.2020
251 Clouds 25 1014 94 10000 1.34 164 17:58 06.07.2020
252 Clouds 24 1015 100 10000 1.34 164 17:39 06.07.2020
253 Clouds 24 1015 100 10000 1.22 139 17:20 06.07.2020
254 Clouds 24 1015 100 10000 1.22 139 16:43 06.07.2020
255 Clouds 24 1015 100 10000 1.39 117 16:24 06.07.2020
256 Clouds 24 1015 100 10000 1.39 117 16:24 06.07.2020
257 Clouds 24 1015 100 10000 1.39 117 15:57 06.07.2020
258 Clouds 24 1015 100 10000 1.39 117 15:39 06.07.2020
259 Clouds 24 1015 90 0 1.36 116 15:20 06.07.2020
260 Clouds 24 1015 90 0 1.36 116 14:55 06.07.2020
261 Rain 25 1016 94 10000 1.36 116 14:36 06.07.2020
262 Rain 25 1016 94 10000 0.97 114 14:18 06.07.2020
263 Clouds 24 1015 90 0 0.97 114 13:43 06.07.2020
264 Clouds 24 1015 100 10000 1.04 109 13:24 06.07.2020
265 Clouds 24 1015 100 10000 1.04 109 12:54 06.07.2020
266 Clouds 25 1015 94 10000 1.04 109 12:36 06.07.2020
267 Clouds 25 1015 94 10000 1.46 95 12:18 06.07.2020
268 Clouds 25 1014 94 10000 1.46 95 11:41 06.07.2020
269 Clouds 25 1014 94 10000 1.66 86 11:23 06.07.2020
270 Clouds 25 1014 94 10000 1.66 86 10:59 06.07.2020
271 Clouds 25 1014 94 10000 1.66 86 10:40 06.07.2020
272 Clouds 26 1014 88 10000 1.6 77 10:20 06.07.2020
273 Clouds 26 1014 88 10000 1.6 77 09:54 06.07.2020
274 Clouds 24 1015 90 0 1.6 77 09:36 06.07.2020
275 Clouds 24 1014 90 0 1.99 82 09:18 06.07.2020
276 Rain 24 1014 90 0 1.74 72 08:40 06.07.2020
277 Clouds 27 1013 83 10000 3.1 100 08:22 06.07.2020
278 Clouds 27 1013 83 10000 3.1 100 07:48 06.07.2020
279 Clouds 27 1013 83 10000 3.6 110 07:29 06.07.2020
280 Clouds 27 1013 83 10000 3.6 110 06:55 06.07.2020
281 Clouds 28 1013 78 10000 3.1 100 06:36 06.07.2020
282 Clouds 28 1013 78 10000 3.1 100 05:53 06.07.2020
283 Clouds 29 1013 74 10000 4.1 90 05:26 06.07.2020
284 Clouds 28 1014 74 10000 4.1 100 03:58 06.07.2020
285 Clouds 28 1015 78 10000 3.1 150 02:32 06.07.2020
286 Clouds 28 1015 78 10000 3.1 150 01:54 06.07.2020
287 Clouds 28 1016 83 10000 1.5 150 00:49 06.07.2020
288 Clouds 26 1016 79 0 2.78 79 00:23 06.07.2020
289 Clouds 26 1016 79 0 2.78 79 23:56 05.07.2020
290 Clouds 22 1016 100 10000 1 320 23:38 05.07.2020
291 Clouds 22 1016 100 10000 1 320 23:19 05.07.2020
292 Clouds 22 1016 100 10000 1 320 22:41 05.07.2020
293 Clouds 22 1016 100 10000 1 320 22:21 05.07.2020
294 Fog 22 1015 94 10000 1.5 310 21:58 05.07.2020
295 Fog 22 1015 94 10000 1.5 310 21:40 05.07.2020
296 Fog 22 1015 94 10000 1.5 310 21:19 05.07.2020
297 Clouds 21 1015 100 10000 1.5 310 20:58 05.07.2020
298 Clouds 21 1015 100 10000 1.5 310 20:58 05.07.2020
299 Clouds 21 1015 100 10000 1.5 310 20:39 05.07.2020
300 Clouds 21 1015 100 10000 1.5 310 20:21 05.07.2020
301 Clouds 22 1014 94 10000 1 330 19:55 05.07.2020
302 Clouds 22 1014 94 10000 1 330 19:36 05.07.2020
303 Clouds 22 1014 94 10000 1 330 19:18 05.07.2020
304 Clouds 22 1014 100 10000 1 300 18:41 05.07.2020
305 Clouds 22 1014 100 10000 1 300 18:21 05.07.2020
306 Clouds 22 1014 100 10000 1 320 17:56 05.07.2020
307 Clouds 22 1014 100 10000 1 320 17:37 05.07.2020
308 Clouds 22 1014 100 10000 1 320 17:18 05.07.2020
309 Clouds 22 1015 100 10000 1 290 16:43 05.07.2020
310 Clouds 22 1015 100 10000 1 290 16:24 05.07.2020
311 Clouds 22 1016 100 10000 1 320 15:55 05.07.2020
312 Clouds 22 1016 100 10000 1 320 15:37 05.07.2020
313 Clouds 22 1016 100 10000 1 320 15:18 05.07.2020
314 Clouds 22 1016 100 10000 2 66 14:41 05.07.2020
315 Clouds 22 1016 100 10000 1.54 56 14:22 05.07.2020
316 Clouds 22 1016 100 10000 1 270 13:42 05.07.2020
317 Clouds 22 1016 100 10000 1 270 13:24 05.07.2020
318 Clouds 23 1015 94 10000 1.99 41 12:56 05.07.2020
319 Clouds 24 1015 88 10000 1.99 41 12:38 05.07.2020
320 Clouds 24 1015 88 10000 2.57 42 12:19 05.07.2020
321 Clouds 24 1015 88 10000 2.57 42 11:40 05.07.2020
322 Clouds 23 1015 94 10000 2.84 47 11:21 05.07.2020
323 Clouds 23 1015 94 10000 2.84 47 10:59 05.07.2020
324 Clouds 24 1014 88 10000 2.84 47 10:40 05.07.2020
325 Clouds 24 1014 88 10000 2.59 60 10:19 05.07.2020
326 Clouds 24 1014 88 10000 2.59 60 09:56 05.07.2020
327 Clouds 24 1014 88 10000 2.59 60 09:37 05.07.2020
328 Clouds 23 1015 84 0 2.86 70 09:19 05.07.2020
329 Clouds 23 1015 84 0 2.86 70 08:46 05.07.2020
330 Clouds 23 1015 84 0 2.86 70 08:45 05.07.2020
331 Clouds 26 1013 78 10000 2.6 90 08:27 05.07.2020
332 Clouds 26 1013 78 10000 2.6 90 07:47 05.07.2020
333 Clouds 27 1013 74 10000 3.1 60 07:29 05.07.2020
334 Clouds 27 1013 74 10000 3.1 60 06:50 05.07.2020
335 Clouds 26 1014 78 10000 3.1 50 05:29 05.07.2020
336 Rain 27 1015 74 10000 4.6 60 03:24 05.07.2020
337 Rain 26 1015 83 10000 2.6 60 02:41 05.07.2020
338 Clouds 26 1016 83 10000 2.1 30 01:59 05.07.2020
339 Clouds 26 1016 83 10000 2.1 30 01:32 05.07.2020
340 Rain 24 1016 94 10000 1.5 290 00:57 05.07.2020
341 Rain 24 1016 94 10000 1.5 290 00:38 05.07.2020
342 Rain 24 1016 94 10000 1.5 290 00:19 05.07.2020
343 Rain 23 1016 94 10000 1.5 330 23:41 04.07.2020
344 Rain 23 1016 94 10000 1.5 330 23:23 04.07.2020
345 Clouds 22 1016 94 10000 1.5 320 22:54 04.07.2020
346 Clouds 22 1016 94 10000 1.5 320 22:36 04.07.2020
347 Clouds 22 1016 94 10000 1.5 320 22:18 04.07.2020
348 Clouds 21 1015 100 10000 1.5 320 21:40 04.07.2020
349 Clouds 21 1015 100 10000 1.5 320 21:22 04.07.2020
350 Clouds 22 1013 94 10000 1.5 330 20:55 04.07.2020
351 Clouds 22 1013 94 10000 1.5 330 20:36 04.07.2020
352 Clouds 22 1013 94 10000 1.5 330 20:18 04.07.2020
353 Clouds 22 1013 94 10000 2.1 300 19:42 04.07.2020
354 Clouds 22 1013 100 10000 4.47 77 19:21 04.07.2020
355 Clouds 22 1013 100 10000 4.47 77 18:55 04.07.2020
356 Clouds 22 1013 100 10000 4.47 77 18:37 04.07.2020
357 Rain 22 1014 94 10000 2.1 320 18:18 04.07.2020
358 Rain 22 1014 94 10000 2.1 320 17:42 04.07.2020
359 Rain 22 1014 94 10000 2.1 320 17:42 04.07.2020
360 Rain 22 1014 94 10000 2.1 320 17:22 04.07.2020
361 Clouds 22 1014 94 10000 4.6 83 16:56 04.07.2020
362 Clouds 22 1015 94 10000 4.6 83 16:37 04.07.2020
363 Clouds 22 1015 94 10000 4.6 83 16:37 04.07.2020
364 Clouds 22 1015 94 10000 4.6 83 16:37 04.07.2020
365 Clouds 22 1015 94 10000 4.53 84 16:18 04.07.2020
366 Clouds 22 1015 94 10000 4.53 84 15:45 04.07.2020
367 Clouds 22 1015 94 10000 4.34 83 15:26 04.07.2020
368 Rain 22 1015 94 10000 2.1 20 14:59 04.07.2020
369 Rain 22 1015 94 10000 2.1 20 14:37 04.07.2020
370 Rain 22 1015 94 10000 2.1 20 14:19 04.07.2020
371 Rain 22 1015 94 10000 4.59 82 13:56 04.07.2020
372 Rain 22 1015 94 10000 4.59 82 13:37 04.07.2020
373 Rain 22 1015 94 10000 4.42 82 13:18 04.07.2020
374 Clouds 22 1016 94 10000 4.42 82 12:41 04.07.2020
375 Clouds 22 1016 94 10000 4.35 86 12:20 04.07.2020
376 Clouds 22 1016 94 10000 4.35 86 11:46 04.07.2020
377 Clouds 22 1016 94 10000 4.35 95 11:25 04.07.2020
378 Rain 21 1016 100 10000 2.6 40 10:59 04.07.2020
379 Rain 21 1016 100 10000 2.6 40 10:39 04.07.2020
380 Rain 21 1016 100 10000 2.6 40 10:21 04.07.2020
381 Rain 22 1016 94 10000 3.1 80 09:55 04.07.2020
382 Rain 22 1016 94 10000 3.1 80 09:36 04.07.2020
383 Rain 22 1016 94 10000 3.1 80 09:18 04.07.2020
384 Rain 22 1015 88 10000 1.5 130 08:45 04.07.2020
385 Rain 22 1015 88 10000 1.5 130 08:26 04.07.2020
386 Rain 24 1015 69 10000 2.1 120 07:43 04.07.2020
387 Rain 24 1015 69 10000 2.1 120 07:25 04.07.2020
388 Clouds 25 1014 65 10000 3.6 120 06:48 04.07.2020
389 Clouds 25 1014 65 10000 3.6 120 06:20 04.07.2020
390 Clouds 25 1014 61 10000 4.6 110 05:32 04.07.2020
391 Clouds 26 1014 61 10000 4.1 120 04:23 04.07.2020
392 Clouds 26 1016 57 10000 4.6 110 02:48 04.07.2020
393 Clouds 25 1017 61 10000 4.1 120 01:54 04.07.2020
394 Clouds 26 1018 54 10000 5.1 100 00:59 04.07.2020
395 Clouds 26 1018 54 10000 5.1 100 00:40 04.07.2020
396 Clouds 26 1018 54 10000 5.1 100 00:21 04.07.2020
397 Clouds 25 1018 61 10000 3.1 110 23:39 03.07.2020
398 Clouds 25 1018 61 10000 3.1 110 23:18 03.07.2020
399 Clouds 25 1018 61 10000 3.1 110 23:18 03.07.2020
400 Clouds 23 1017 69 10000 3.1 130 22:43 03.07.2020
401 Clouds 23 1017 69 10000 3.1 130 22:25 03.07.2020
402 Clouds 23 1017 73 10000 2.6 130 21:59 03.07.2020
403 Clouds 23 1017 73 10000 2.6 130 21:59 03.07.2020
404 Clouds 23 1017 73 10000 2.6 130 21:39 03.07.2020
405 Clouds 23 1017 73 10000 2.6 130 21:19 03.07.2020
406 Clouds 23 1017 64 10000 2.6 140 20:43 03.07.2020
407 Clouds 23 1017 64 10000 2.6 140 20:25 03.07.2020
408 Clouds 23 1016 60 10000 2.6 130 19:59 03.07.2020
409 Clouds 23 1016 64 10000 3.1 130 19:39 03.07.2020
410 Clouds 23 1016 64 10000 3.1 130 19:18 03.07.2020
411 Clouds 23 1016 64 10000 3.1 130 19:18 03.07.2020
412 Clouds 23 1016 64 10000 3.1 130 18:45 03.07.2020
413 Clouds 23 1016 64 10000 2.6 140 18:24 03.07.2020
414 Clouds 23 1016 64 10000 2.6 140 17:56 03.07.2020
415 Clouds 23 1016 64 10000 2.6 140 17:38 03.07.2020
416 Clouds 23 1016 64 10000 2.6 140 17:20 03.07.2020
417 Clouds 23 1017 64 10000 3.6 130 16:40 03.07.2020
418 Clouds 23 1017 64 10000 3.6 130 16:20 03.07.2020
419 Clouds 23 1018 69 10000 2.6 140 15:44 03.07.2020
420 Clouds 23 1018 69 10000 2.6 140 15:24 03.07.2020
421 Clouds 23 1018 69 10000 3.1 150 14:57 03.07.2020
422 Clouds 23 1018 69 10000 3.1 150 14:38 03.07.2020
423 Clouds 23 1018 69 10000 3.1 150 14:19 03.07.2020
424 Clouds 23 1018 69 10000 3.1 130 13:43 03.07.2020
425 Clouds 23 1018 69 10000 3.1 130 13:25 03.07.2020
426 Clouds 23 1018 69 10000 2.6 130 12:45 03.07.2020
427 Clouds 23 1018 69 10000 2.6 130 12:24 03.07.2020
428 Clouds 23 1018 64 10000 2.6 190 11:58 03.07.2020
429 Clouds 23 1018 64 10000 2.6 190 11:40 03.07.2020
430 Clouds 23 1018 64 10000 2.6 190 11:21 03.07.2020
431 Clouds 23 1018 64 10000 2.1 150 10:55 03.07.2020
432 Clouds 23 1018 64 10000 2.1 150 10:37 03.07.2020
433 Clouds 23 1018 64 10000 2.1 150 10:18 03.07.2020
434 Rain 23 1018 69 10000 2.1 130 09:42 03.07.2020
435 Rain 23 1018 69 10000 2.1 130 09:22 03.07.2020
436 Clouds 23 1017 73 10000 3.1 130 08:59 03.07.2020
437 Clouds 23 1017 73 10000 3.1 130 08:39 03.07.2020
438 Clouds 23 1017 73 10000 3.1 130 08:18 03.07.2020
439 Clouds 23 1016 78 10000 3.1 140 07:47 03.07.2020
440 Clouds 23 1016 78 10000 3.1 140 07:24 03.07.2020
441 Clouds 23 1016 69 10000 2.6 170 06:47 03.07.2020
442 Clouds 23 1016 69 10000 4.1 160 05:56 03.07.2020
443 Clouds 24 1016 69 10000 3.6 160 04:35 03.07.2020
444 Clouds 22 1016 76 0 6 136 02:57 03.07.2020
445 Clouds 25 1018 65 10000 3.6 150 02:36 03.07.2020
446 Clouds 25 1018 65 10000 3.6 150 01:54 03.07.2020
447 Clouds 24 1018 69 10000 3.6 150 01:23 03.07.2020
448 Clouds 24 1018 69 10000 3.6 150 00:44 03.07.2020
449 Clouds 24 1018 69 10000 2.1 160 00:20 03.07.2020
450 Clouds 24 1018 69 10000 2.1 160 23:43 02.07.2020
451 Clouds 23 1017 69 10000 2.1 150 23:20 02.07.2020
452 Clouds 23 1017 69 10000 2.1 150 22:57 02.07.2020
453 Clouds 23 1017 69 10000 2.1 150 22:38 02.07.2020
454 Clouds 23 1017 64 10000 2.6 150 22:20 02.07.2020
455 Clouds 23 1017 64 10000 2.6 150 21:54 02.07.2020
456 Clouds 21 1018 76 0 5.74 137 21:36 02.07.2020
457 Clouds 21 1018 76 0 5.74 137 21:36 02.07.2020
458 Clouds 21 1017 77 0 5.89 136 21:18 02.07.2020
459 Clouds 21 1017 77 0 5.89 136 20:41 02.07.2020
460 Clouds 23 1016 64 10000 3.1 140 20:20 02.07.2020
461 Clouds 23 1016 64 10000 3.1 140 19:56 02.07.2020
462 Clouds 23 1016 69 10000 2.6 160 19:38 02.07.2020
463 Clouds 23 1016 69 10000 2.6 160 19:19 02.07.2020
464 Clouds 23 1016 69 10000 2.6 160 18:55 02.07.2020
465 Clouds 23 1016 69 10000 2.6 150 18:37 02.07.2020
466 Clouds 23 1016 69 10000 2.6 150 18:18 02.07.2020
467 Clouds 23 1016 69 10000 2.6 150 17:39 02.07.2020
468 Clouds 23 1016 69 10000 3.1 160 17:20 02.07.2020
469 Clouds 23 1016 69 10000 3.1 160 16:55 02.07.2020
470 Clouds 23 1016 69 10000 3.1 160 16:55 02.07.2020
471 Clouds 23 1016 69 10000 2.6 150 16:37 02.07.2020
472 Clouds 23 1016 69 10000 2.6 150 16:18 02.07.2020
473 Clouds 23 1016 69 10000 2.6 150 15:39 02.07.2020
474 Clouds 22 1016 76 0 5.92 144 15:21 02.07.2020
475 Clouds 22 1016 76 0 5.92 144 14:46 02.07.2020
476 Clouds 23 1017 69 10000 3.1 150 14:25 02.07.2020
477 Clouds 23 1017 69 10000 3.1 150 13:57 02.07.2020
478 Clouds 23 1017 69 10000 2.6 150 13:39 02.07.2020
479 Clouds 23 1017 69 10000 2.6 150 13:20 02.07.2020
480 Clouds 23 1017 69 10000 2.6 150 12:58 02.07.2020
481 Clouds 23 1017 69 10000 3.6 150 12:38 02.07.2020
482 Clouds 23 1017 69 10000 3.6 150 12:20 02.07.2020
483 Clouds 23 1017 69 10000 3.6 150 12:20 02.07.2020
484 Clouds 23 1017 69 10000 3.6 150 11:43 02.07.2020
485 Clouds 23 1017 73 10000 3.6 140 11:25 02.07.2020
486 Clouds 23 1017 73 10000 3.6 140 10:48 02.07.2020
487 Clouds 23 1016 73 10000 2.6 140 10:27 02.07.2020
488 Clouds 23 1016 73 10000 2.6 140 09:57 02.07.2020
489 Clouds 23 1016 73 10000 2.6 140 09:39 02.07.2020
490 Clouds 23 1015 73 10000 2.1 160 09:20 02.07.2020
491 Clouds 23 1015 73 10000 2.1 160 08:44 02.07.2020
492 Rain 24 1015 73 10000 2.1 150 08:24 02.07.2020
493 Rain 24 1015 73 10000 2.1 150 07:56 02.07.2020
494 Rain 24 1015 73 10000 2.1 150 07:37 02.07.2020
495 Rain 24 1015 73 10000 2.1 150 07:18 02.07.2020
496 Clouds 22 1015 76 0 5.25 145 06:40 02.07.2020
497 Clouds 25 1014 61 10000 3.1 150 06:20 02.07.2020
498 Clouds 25 1014 61 10000 3.1 150 05:44 02.07.2020
499 Clouds 25 1015 61 10000 3.1 160 03:55 02.07.2020
500 Clouds 25 1016 65 10000 3.1 160 03:31 02.07.2020
501 Clouds 25 1016 61 10000 4.1 160 00:48 02.07.2020
502 Clouds 25 1016 61 10000 2.6 160 00:25 02.07.2020
503 Clouds 25 1016 61 10000 2.6 160 23:47 01.07.2020
504 Clouds 23 1016 73 10000 3.84 146 23:27 01.07.2020
505 Clouds 23 1016 73 10000 3.84 146 22:57 01.07.2020
506 Clouds 23 1016 73 10000 3.84 146 22:38 01.07.2020
507 Clouds 20 1015 94 10000 1.5 300 22:19 01.07.2020
508 Clouds 20 1015 94 10000 1.5 300 21:58 01.07.2020
509 Clouds 20 1015 94 10000 1.5 300 21:40 01.07.2020
510 Clouds 22 1015 72 0 3.76 155 21:21 01.07.2020
511 Clouds 22 1016 71 0 4.11 151 20:55 01.07.2020
512 Clouds 22 1016 71 0 4.11 151 20:55 01.07.2020
513 Clouds 22 1014 73 10000 1.5 170 20:36 01.07.2020
514 Clouds 22 1014 73 10000 1.5 170 20:18 01.07.2020
515 Clouds 22 1014 73 10000 1.5 170 19:42 01.07.2020
516 Clouds 22 1013 73 10000 2.1 180 19:24 01.07.2020
517 Clouds 22 1013 73 10000 2.1 180 18:59 01.07.2020
518 Clouds 22 1014 72 0 3.85 161 18:40 01.07.2020
519 Clouds 22 1013 78 10000 1.5 180 18:21 01.07.2020
520 Clouds 22 1013 78 10000 1.5 180 17:55 01.07.2020
521 Clouds 22 1014 94 10000 3.61 159 17:37 01.07.2020
522 Clouds 22 1014 94 10000 3.36 156 17:18 01.07.2020
523 Clouds 22 1014 94 10000 3.36 156 16:42 01.07.2020
524 Clouds 22 1014 94 10000 3.36 156 16:42 01.07.2020
525 Clouds 23 1014 73 10000 3.18 154 16:23 01.07.2020
526 Clouds 23 1014 73 10000 3.18 154 15:43 01.07.2020
527 Clouds 22 1014 71 0 3.16 157 15:23 01.07.2020
528 Clouds 22 1014 71 0 3.16 157 14:58 01.07.2020
529 Clouds 23 1014 69 10000 1.5 170 14:38 01.07.2020
530 Clouds 23 1014 69 10000 1.5 170 14:20 01.07.2020
531 Clouds 23 1014 69 10000 1.5 170 13:54 01.07.2020
532 Clouds 23 1014 69 10000 3.6 164 13:36 01.07.2020
533 Clouds 23 1014 69 10000 3.79 166 13:18 01.07.2020
534 Clouds 23 1014 69 10000 3.79 166 12:41 01.07.2020
535 Clouds 23 1014 69 10000 3.98 168 12:23 01.07.2020
536 Clouds 23 1014 69 10000 3.98 168 11:58 01.07.2020
537 Clouds 23 1014 69 10000 3.98 168 11:40 01.07.2020
538 Clouds 23 1013 69 10000 4.19 170 11:21 01.07.2020
539 Clouds 23 1013 69 10000 4.19 170 10:43 01.07.2020
540 Clouds 23 1013 69 10000 2.1 180 10:24 01.07.2020
541 Clouds 23 1013 69 10000 2.1 180 09:59 01.07.2020
542 Clouds 23 1013 69 10000 2.1 180 09:59 01.07.2020
543 Clouds 23 1013 69 10000 2.1 180 09:38 01.07.2020
544 Clouds 22 1013 72 0 4.19 170 09:20 01.07.2020
545 Clouds 22 1013 72 0 4.19 170 08:57 01.07.2020
546 Clouds 23 1012 69 10000 2.6 180 08:38 01.07.2020
547 Clouds 23 1012 69 10000 2.6 180 08:19 01.07.2020
548 Clouds 23 1012 69 10000 2.6 180 08:19 01.07.2020
549 Clouds 24 1011 69 10000 3.1 190 07:40 01.07.2020
550 Clouds 24 1011 69 10000 3.1 190 07:21 01.07.2020
551 Clouds 24 1011 69 10000 3.1 190 06:51 01.07.2020
552 Clouds 24 1011 69 10000 3.6 190 06:30 01.07.2020
553 Clouds 25 1011 65 10000 3.6 190 05:30 01.07.2020
554 Clouds 25 1012 65 10000 4.1 180 03:55 01.07.2020
555 Clouds 22 1012 76 0 5.57 179 03:36 01.07.2020
556 Clouds 22 1012 77 0 5.88 180 03:18 01.07.2020
557 Clouds 25 1013 73 10000 3.1 190 01:53 01.07.2020
558 Clouds 25 1013 73 10000 2.1 180 00:48 01.07.2020
559 Clouds 23 1013 74 0 5.51 179 00:26 01.07.2020
560 Clouds 23 1013 74 0 5.51 179 23:43 30.06.2020
561 Clouds 22 1013 88 10000 1 0 23:23 30.06.2020
562 Clouds 22 1013 88 10000 1 0 22:59 30.06.2020
563 Clouds 22 1013 88 10000 1 0 22:41 30.06.2020
564 Clouds 22 1013 88 10000 1 0 22:18 30.06.2020
565 Rain 22 1012 88 10000 1.5 230 21:41 30.06.2020
566 Rain 22 1012 88 10000 1.5 230 21:19 30.06.2020
567 Clouds 22 1011 88 10000 2.6 220 20:57 30.06.2020
568 Clouds 22 1011 88 10000 2.6 220 20:39 30.06.2020
569 Clouds 22 1011 88 10000 2.6 220 20:20 30.06.2020
570 Rain 22 1011 88 10000 3.6 180 19:42 30.06.2020
571 Rain 22 1011 88 10000 3.6 180 19:20 30.06.2020
572 Clouds 22 1011 88 10000 2.6 230 18:46 30.06.2020
573 Clouds 22 1011 88 10000 2.6 230 18:21 30.06.2020
574 Clouds 23 1011 83 10000 2.1 240 17:59 30.06.2020
575 Clouds 23 1011 83 10000 2.1 240 17:38 30.06.2020
576 Clouds 23 1011 83 10000 2.1 240 17:19 30.06.2020
577 Clouds 22 1011 87 0 5.06 187 16:54 30.06.2020
578 Clouds 22 1011 87 0 5.06 187 16:36 30.06.2020
579 Clouds 22 1011 87 0 4.8 187 16:18 30.06.2020
580 Clouds 22 1011 94 10000 2.1 260 15:41 30.06.2020
581 Clouds 22 1011 94 10000 2.1 260 15:22 30.06.2020
582 Clouds 22 1012 94 10000 2.1 240 14:56 30.06.2020
583 Clouds 22 1012 94 10000 2.1 240 14:38 30.06.2020
584 Clouds 22 1012 94 10000 2.1 240 14:18 30.06.2020
585 Rain 23 1011 94 10000 2.1 220 13:40 30.06.2020
586 Rain 23 1011 94 10000 2.1 220 13:20 30.06.2020
587 Rain 23 1011 94 10000 2.1 220 12:58 30.06.2020
588 Rain 23 1011 89 0 5.46 177 12:40 30.06.2020
589 Clouds 23 1011 94 10000 1.5 230 12:21 30.06.2020
590 Clouds 23 1011 94 10000 1.5 230 11:58 30.06.2020
591 Clouds 23 1011 94 10000 2.1 180 11:39 30.06.2020
592 Clouds 23 1011 94 10000 2.1 180 11:19 30.06.2020
593 Clouds 23 1011 94 10000 2.1 180 10:56 30.06.2020
594 Clouds 23 1011 100 10000 1 310 16:38 28.06.2020
595 Clouds 24 1012 94 10000 1 240 16:20 28.06.2020
596 Clouds 24 1012 94 10000 1 240 15:56 28.06.2020
597 Clouds 24 1012 94 10000 1 240 15:56 28.06.2020
598 Clouds 24 1012 94 10000 1 240 15:37 28.06.2020
599 Clouds 24 1012 90 0 2.7 46 15:18 28.06.2020
600 Clouds 24 1012 90 0 2.7 46 14:44 28.06.2020
601 Clouds 24 1012 94 10000 2.56 50 14:25 28.06.2020
602 Clouds 24 1012 94 10000 2.56 50 13:55 28.06.2020
603 Clouds 24 1013 100 10000 2.56 50 13:37 28.06.2020
604 Clouds 24 1013 100 10000 2.7 63 13:18 28.06.2020
605 Clouds 24 1013 100 10000 2.7 63 12:55 28.06.2020
606 Clouds 24 1013 100 10000 2.7 63 12:36 28.06.2020
607 Clouds 24 1013 100 10000 2.97 67 12:18 28.06.2020
608 Clouds 24 1013 100 10000 2.97 67 11:44 28.06.2020
609 Clouds 24 1013 100 10000 2.74 73 11:21 28.06.2020
610 Clouds 24 1013 100 10000 2.74 73 10:59 28.06.2020
611 Clouds 24 1013 100 10000 2.74 73 10:41 28.06.2020
612 Clouds 24 1013 100 10000 2.74 73 10:41 28.06.2020
613 Clouds 25 1012 94 10000 3.05 80 10:22 28.06.2020
614 Clouds 25 1012 94 10000 3.05 80 09:42 28.06.2020
615 Clouds 25 1012 89 0 3.14 83 09:23 28.06.2020
616 Clouds 25 1012 89 0 3.14 83 09:23 28.06.2020
617 Clouds 25 1012 89 0 3.14 83 08:57 28.06.2020
618 Clouds 27 1011 83 10000 2.1 120 08:39 28.06.2020
619 Clouds 27 1011 83 10000 2.1 120 08:20 28.06.2020
620 Clouds 29 1011 74 10000 3.6 80 07:37 28.06.2020
621 Clouds 29 1011 74 10000 3.6 80 06:57 28.06.2020
622 Clouds 28 1011 78 10000 3.6 90 06:32 28.06.2020
623 Clouds 28 1011 78 10000 3.6 90 05:50 28.06.2020
624 Rain 27 1011 81 0 4.06 68 04:27 28.06.2020
625 Clouds 27 1012 80 0 4.06 70 02:58 28.06.2020
626 Rain 27 1013 79 0 3.47 66 02:21 28.06.2020
627 Clouds 27 1012 76 0 3.15 67 01:30 28.06.2020
628 Clouds 27 1013 78 0 2.62 49 00:56 28.06.2020
629 Clouds 27 1013 78 0 2.62 49 00:30 28.06.2020
630 Clouds 26 1014 84 0 2.51 39 23:58 27.06.2020
631 Clouds 26 1014 84 0 2.51 39 23:38 27.06.2020
632 Clouds 25 1014 87 0 1.99 33 23:19 27.06.2020
633 Clouds 25 1014 87 0 1.99 33 22:42 27.06.2020
634 Clouds 25 1014 90 0 1.78 40 22:23 27.06.2020
635 Clouds 25 1014 90 0 1.78 40 22:23 27.06.2020
636 Clouds 25 1014 90 0 1.78 40 21:58 27.06.2020
637 Clouds 25 1014 90 0 1.78 40 21:40 27.06.2020
638 Clouds 24 1013 89 0 2.34 49 21:20 27.06.2020
639 Clouds 24 1013 89 0 2.34 49 20:45 27.06.2020
640 Clouds 24 1013 89 0 2.43 70 20:20 27.06.2020
641 Clouds 24 1013 89 0 2.43 70 19:59 27.06.2020
642 Clouds 24 1013 89 0 2.43 70 19:37 27.06.2020
643 Rain 24 1012 89 0 2.27 72 19:19 27.06.2020
644 Rain 24 1012 89 0 2.27 72 18:47 27.06.2020
645 Rain 24 1012 89 0 2.33 68 18:28 27.06.2020
646 Rain 24 1012 89 0 2.33 68 17:59 27.06.2020
647 Rain 24 1012 89 0 2.33 68 17:59 27.06.2020
648 Rain 24 1012 89 0 2.33 68 17:40 27.06.2020
649 Rain 24 1012 90 0 2.7 72 17:20 27.06.2020
650 Rain 24 1012 90 0 2.7 72 16:56 27.06.2020
651 Rain 24 1012 90 0 2.7 72 16:38 27.06.2020
652 Rain 24 1012 90 0 3.25 80 16:18 27.06.2020
653 Rain 24 1012 90 0 3.25 80 15:42 27.06.2020
654 Clear 24 1013 90 0 3.54 82 15:22 27.06.2020
655 Clear 24 1013 90 0 3.54 82 14:43 27.06.2020
656 Rain 25 1013 90 0 3.18 77 14:25 27.06.2020
657 -273 0 0 0 0 0 13:59 27.06.2020
658 Rain 25 1013 90 0 3.18 77 13:38 27.06.2020
659 Clouds 25 1014 90 0 3.71 71 13:20 27.06.2020
660 Clouds 25 1014 90 0 3.71 71 12:58 27.06.2020
661 Clouds 25 1014 90 0 3.71 71 12:39 27.06.2020
662 Rain 25 1014 89 0 4.04 71 12:21 27.06.2020
663 Rain 25 1014 89 0 4.04 71 11:55 27.06.2020
664 Rain 25 1014 89 0 4.04 71 11:36 27.06.2020
665 Rain 25 1014 90 0 3.95 76 11:18 27.06.2020
666 Rain 25 1014 90 0 3.95 76 11:18 27.06.2020
667 Rain 25 1014 90 0 3.95 76 10:38 27.06.2020
668 Clouds 25 1013 88 0 4.08 85 10:19 27.06.2020
669 Clouds 25 1013 88 0 4.08 85 09:41 27.06.2020
670 Clouds 25 1012 88 0 3.65 90 09:22 27.06.2020
671 Clouds 25 1012 88 0 3.65 90 08:58 27.06.2020
672 Clouds 25 1012 88 0 3.65 90 08:39 27.06.2020
673 Clouds 25 1012 87 0 3.91 84 08:20 27.06.2020
674 Clouds 25 1012 87 0 3.91 84 07:42 27.06.2020
675 Clouds 25 1012 87 0 3.91 84 07:42 27.06.2020
676 Clouds 26 1011 85 0 4.11 81 07:24 27.06.2020
677 Clouds 26 1011 85 0 4.11 81 06:38 27.06.2020
678 Clouds 26 1011 83 0 4.73 76 06:20 27.06.2020
679 Clouds 26 1012 81 0 4.65 78 04:23 27.06.2020
680 Clouds 26 1012 81 0 4.65 78 03:52 27.06.2020
681 Clouds 26 1012 82 0 4.63 80 02:49 27.06.2020
682 Clouds 26 1012 83 0 4.56 78 02:30 27.06.2020
683 Clouds 26 1013 84 0 4.48 79 01:42 27.06.2020
684 Clouds 26 1014 84 0 4.27 79 00:56 27.06.2020
685 Clouds 26 1014 86 0 4.03 81 00:28 27.06.2020
686 Clouds 26 1014 86 0 4.03 81 23:41 26.06.2020
687 Clouds 26 1015 87 0 3.9 79 23:22 26.06.2020
688 Clouds 26 1015 87 0 3.9 79 22:56 26.06.2020
689 Clouds 26 1015 87 0 3.9 79 22:37 26.06.2020
690 Clouds 25 1014 88 0 3.67 76 22:19 26.06.2020
691 Clouds 25 1014 88 0 3.67 76 21:57 26.06.2020
692 Clouds 25 1014 89 0 3.16 78 21:37 26.06.2020
693 Clouds 25 1014 88 0 3.62 76 21:19 26.06.2020
694 Rain 24 1014 89 0 3.16 78 21:19 26.06.2020
695 Rain 24 1014 89 0 3.16 78 20:42 26.06.2020
696 Rain 24 1013 90 0 3.58 79 20:19 26.06.2020
697 Rain 24 1013 90 0 3.58 79 19:43 26.06.2020
698 Clouds 24 1013 90 0 3.85 78 19:23 26.06.2020
699 Clouds 24 1013 90 0 3.85 78 18:55 26.06.2020
700 Clouds 24 1013 90 0 3.85 78 18:37 26.06.2020
701 Clouds 24 1013 90 0 3.92 78 18:18 26.06.2020
702 Clouds 24 1013 90 0 3.92 78 17:43 26.06.2020
703 Clouds 24 1013 90 0 4 79 17:24 26.06.2020
704 Clouds 24 1013 90 0 4 79 16:48 26.06.2020
705 Rain 24 1013 90 0 3.95 79 16:25 26.06.2020
706 Rain 24 1013 90 0 3.95 79 15:55 26.06.2020
707 Rain 24 1013 90 0 3.95 79 15:37 26.06.2020
708 Clouds 24 1013 89 0 3.81 81 15:18 26.06.2020
709 Clouds 24 1013 89 0 3.81 81 14:41 26.06.2020
710 Clouds 24 1013 89 0 3.8 79 14:22 26.06.2020
711 Clouds 24 1013 89 0 3.8 79 13:59 26.06.2020
712 Clouds 24 1013 89 0 3.8 79 13:41 26.06.2020
713 Clouds 24 1013 89 0 4.1 75 13:18 26.06.2020
714 Clouds 24 1013 89 0 4.1 75 12:41 26.06.2020
715 Clouds 24 1014 89 0 4.31 73 12:23 26.06.2020
716 Clouds 24 1014 89 0 4.31 73 11:59 26.06.2020
717 Clouds 24 1014 89 0 4.31 73 11:39 26.06.2020
718 Clouds 24 1014 89 0 4.02 76 11:21 26.06.2020
719 Clouds 24 1014 89 0 4.02 76 10:58 26.06.2020
720 Clouds 24 1014 89 0 4.02 76 10:38 26.06.2020
721 Clouds 24 1013 89 0 3.69 79 10:19 26.06.2020
722 Clouds 24 1013 89 0 3.69 79 09:44 26.06.2020
723 Clouds 24 1013 89 0 3.81 80 09:25 26.06.2020
724 Clouds 24 1012 88 0 4.01 88 08:56 26.06.2020
725 Rain 24 1012 89 0 4.09 86 08:28 26.06.2020
726 Rain 24 1012 89 0 4.09 86 07:53 26.06.2020
727 Rain 25 1012 88 0 4.34 84 07:25 26.06.2020
728 Rain 25 1012 88 0 4.34 84 06:59 26.06.2020
729 Rain 25 1012 88 0 4.34 84 06:41 26.06.2020
730 Rain 25 1011 88 0 4.43 85 06:18 26.06.2020
731 Rain 25 1011 88 0 4.43 85 05:41 26.06.2020
732 Rain 25 1011 89 0 4.96 87 03:52 26.06.2020
733 Rain 25 1013 89 0 4.78 91 02:22 26.06.2020
734 Rain 25 1014 90 0 4.82 92 01:19 26.06.2020
735 Rain 25 1014 90 0 4.82 92 00:40 26.06.2020
736 Rain 25 1014 89 0 4.91 91 00:19 26.06.2020
737 Rain 25 1014 89 0 4.91 91 23:41 25.06.2020
738 Rain 25 1014 94 10000 3.6 120 23:18 25.06.2020
739 Rain 25 1014 94 10000 3.6 120 22:56 25.06.2020
740 Rain 25 1014 94 10000 3.6 120 22:36 25.06.2020
741 Rain 25 1014 94 10000 3.6 120 22:36 25.06.2020
742 Rain 25 1014 94 10000 3.6 120 22:18 25.06.2020
743 Rain 24 1013 100 8000 2.1 70 21:54 25.06.2020
744 Rain 24 1013 100 8000 2.1 70 21:36 25.06.2020
745 Rain 25 1013 94 5000 2.1 70 21:18 25.06.2020
746 Rain 24 1013 100 8000 3.6 50 20:44 25.06.2020
747 Rain 24 1013 100 10000 1.5 340 20:23 25.06.2020
748 Clouds 24 1012 100 10000 3.87 86 19:57 25.06.2020
749 Clouds 24 1012 100 10000 3.87 86 19:38 25.06.2020
750 Clouds 24 1012 100 10000 3.58 91 19:18 25.06.2020
751 Clouds 24 1012 100 10000 3.58 91 18:55 25.06.2020
752 Clouds 24 1012 100 10000 3.58 91 18:36 25.06.2020
753 Clouds 24 1012 100 10000 3.58 91 18:36 25.06.2020
754 Clouds 24 1012 100 10000 3.6 86 18:18 25.06.2020
755 Clouds 24 1012 94 10000 1.5 320 17:39 25.06.2020
756 Clouds 24 1012 94 10000 1.5 320 17:19 25.06.2020
757 Clouds 24 1013 94 10000 3.84 78 16:41 25.06.2020
758 Clouds 24 1013 94 10000 3.9 76 16:21 25.06.2020
759 Clouds 24 1013 94 10000 1 310 15:45 25.06.2020
760 Clouds 24 1013 94 10000 1 310 15:27 25.06.2020
761 Clouds 24 1013 94 10000 1.5 280 14:58 25.06.2020
762 Clouds 24 1013 94 10000 1.5 280 14:40 25.06.2020
763 Clouds 24 1013 94 10000 1.5 280 14:22 25.06.2020
764 Clouds 25 1014 94 10000 4.48 79 13:55 25.06.2020
765 Clouds 25 1013 94 10000 1.5 70 13:37 25.06.2020
766 Clouds 25 1013 94 10000 1.5 70 13:19 25.06.2020
767 Clouds 25 1013 94 10000 1.5 70 12:43 25.06.2020
768 Clouds 25 1013 94 10000 4.77 76 12:20 25.06.2020
769 Clouds 25 1013 94 10000 4.77 76 11:44 25.06.2020
770 Clouds 25 1013 88 10000 1.5 100 11:25 25.06.2020
771 Clouds 25 1013 88 10000 1.5 100 10:58 25.06.2020
772 Clouds 25 1013 94 10000 1.5 110 10:40 25.06.2020
773 Clouds 25 1013 94 10000 1.5 110 10:21 25.06.2020
774 Clouds 24 1013 90 0 4.48 84 09:41 25.06.2020
775 Rain 25 1012 90 0 4.65 91 09:23 25.06.2020
776 Rain 25 1012 90 0 4.65 91 08:47 25.06.2020
777 Clouds 26 1012 88 10000 3.6 100 08:20 25.06.2020
778 Clouds 26 1012 88 10000 3.6 100 07:46 25.06.2020
779 Clouds 26 1012 88 10000 4.1 100 07:28 25.06.2020
780 Clouds 26 1012 88 10000 4.1 100 06:53 25.06.2020
781 Clouds 26 1012 88 10000 4.1 100 06:27 25.06.2020
782 Clouds 26 1012 88 10000 3.6 120 05:51 25.06.2020
783 Rain 25 1013 94 8000 4.6 120 04:29 25.06.2020
784 Rain 25 1014 94 8000 4.6 110 03:34 25.06.2020
785 Rain 26 1014 88 8000 4.1 120 02:42 25.06.2020
786 Rain 26 1015 83 10000 4.1 120 01:59 25.06.2020
787 Rain 26 1015 83 10000 3.6 140 01:21 25.06.2020
788 Rain 25 1014 89 0 5.4 97 00:44 25.06.2020
789 Rain 26 1015 83 10000 4.6 120 00:21 25.06.2020
790 Rain 26 1015 83 10000 4.6 120 23:44 24.06.2020
791 Clouds 25 1014 88 10000 2.1 130 23:26 24.06.2020
792 Clouds 25 1014 88 10000 2.1 130 22:58 24.06.2020
793 Clouds 25 1014 88 10000 2.1 130 22:40 24.06.2020
794 Clouds 25 1014 88 10000 2.1 140 22:20 24.06.2020
795 Clouds 25 1014 88 10000 2.1 140 21:55 24.06.2020
796 Rain 25 1014 89 0 5.03 107 21:36 24.06.2020
797 Rain 24 1013 90 0 4.91 104 21:18 24.06.2020
798 Clouds 24 1013 90 0 4.71 103 20:57 24.06.2020
799 Clouds 24 1013 90 0 4.71 103 20:57 24.06.2020
800 Clouds 25 1012 88 10000 2.1 130 20:38 24.06.2020
801 Clouds 25 1012 88 10000 2.1 130 20:19 24.06.2020
802 Clouds 25 1012 88 10000 2.1 130 19:55 24.06.2020
803 Rain 25 1012 88 10000 2.1 150 19:36 24.06.2020
804 Rain 25 1012 88 10000 2.1 150 19:36 24.06.2020
805 Rain 25 1012 88 10000 2.1 150 19:18 24.06.2020
806 Rain 25 1012 88 10000 2.1 150 18:57 24.06.2020
807 Clouds 24 1013 94 10000 4.14 100 18:38 24.06.2020
808 Clouds 24 1013 94 10000 3.92 95 18:19 24.06.2020
809 Clouds 24 1013 94 10000 3.92 95 17:43 24.06.2020
810 Clouds 24 1013 94 10000 3.76 88 17:19 24.06.2020
811 Clouds 24 1013 94 10000 3.76 88 16:58 24.06.2020
812 Clouds 24 1013 94 10000 3.76 88 16:40 24.06.2020
813 Clouds 24 1013 94 10000 3.63 88 16:21 24.06.2020
814 Clouds 24 1013 94 10000 3.63 88 15:57 24.06.2020
815 Clouds 24 1013 94 10000 3.63 88 15:57 24.06.2020
816 Rain 24 1013 90 0 3.63 88 15:38 24.06.2020
817 Rain 24 1013 90 0 3.89 88 15:20 24.06.2020
818 Rain 24 1013 90 0 3.89 88 14:43 24.06.2020
819 Clouds 24 1014 100 10000 3.98 89 14:25 24.06.2020
820 Clouds 24 1014 100 10000 3.98 89 13:57 24.06.2020
821 Clouds 24 1014 100 10000 3.98 89 13:38 24.06.2020
822 Clouds 24 1014 100 10000 4.06 92 13:18 24.06.2020
823 Clouds 24 1014 90 0 4.06 92 12:41 24.06.2020
824 Clouds 23 1014 100 10000 3.99 94 12:20 24.06.2020
825 Clouds 23 1014 100 10000 3.99 94 11:56 24.06.2020
826 Clouds 24 1014 88 10000 3.99 94 11:38 24.06.2020
827 Clouds 24 1014 88 10000 3.87 95 11:18 24.06.2020
828 Clouds 24 1014 88 10000 3.87 95 10:43 24.06.2020
829 Clouds 24 1013 94 10000 1 0 10:19 24.06.2020
830 Clouds 24 1013 94 10000 1 0 09:43 24.06.2020
831 Clouds 24 1013 90 0 3.76 99 09:22 24.06.2020
832 Clouds 24 1013 90 0 3.76 99 08:44 24.06.2020
833 Clouds 26 1013 83 10000 2.6 110 08:26 24.06.2020
834 Clouds 26 1013 83 10000 2.6 110 07:55 24.06.2020
835 Clouds 27 1013 78 10000 3.1 110 07:37 24.06.2020
836 Clouds 27 1013 78 10000 3.1 110 07:18 24.06.2020
837 Clouds 27 1013 78 10000 3.1 110 06:39 24.06.2020
838 Clouds 27 1013 78 10000 3.1 110 06:21 24.06.2020
839 Clouds 27 1012 78 10000 5.1 120 05:30 24.06.2020
840 Clouds 27 1013 78 10000 4.1 120 04:36 24.06.2020
841 Clouds 26 1012 79 0 4.97 98 03:36 24.06.2020
842 Clouds 26 1013 79 0 5.32 101 02:51 24.06.2020
843 Clouds 27 1014 83 10000 5.1 110 01:45 24.06.2020
844 Clouds 26 1015 88 10000 3.6 120 00:48 24.06.2020
845 Rain 26 1015 88 10000 3.6 110 00:29 24.06.2020
846 Rain 26 1015 88 10000 3.6 110 23:46 23.06.2020
847 Clouds 25 1015 94 10000 4.44 106 23:20 23.06.2020
848 Clouds 25 1015 94 10000 4.44 106 22:57 23.06.2020
849 Rain 24 1014 94 10000 4.44 106 22:36 23.06.2020
850 Rain 24 1014 94 10000 4.16 105 22:18 23.06.2020
851 Rain 24 1014 94 10000 4.16 105 21:41 23.06.2020
852 Clouds 24 1014 86 0 3.7 107 21:20 23.06.2020
853 Clouds 24 1014 86 0 3.7 107 20:56 23.06.2020
854 Clouds 24 1014 86 0 3.7 107 20:56 23.06.2020
855 Clouds 23 1013 94 10000 1.5 300 20:37 23.06.2020
856 Clouds 23 1013 94 10000 1.5 300 20:19 23.06.2020
857 Rain 24 1014 86 0 3.86 105 19:45 23.06.2020
858 Clouds 23 1013 94 10000 1.5 300 19:27 23.06.2020
859 Clouds 23 1013 94 10000 1.5 300 18:42 23.06.2020
860 Clouds 23 1013 94 10000 1.5 300 18:19 23.06.2020
861 Clouds 23 1013 100 10000 1 100 17:58 23.06.2020
862 Clouds 24 1013 86 0 4.07 102 17:39 23.06.2020
863 Clouds 24 1013 86 0 4.34 100 17:20 23.06.2020
864 Clouds 24 1013 86 0 4.34 100 16:55 23.06.2020
865 Clouds 24 1014 100 10000 4.34 100 16:37 23.06.2020
866 Clouds 24 1014 100 10000 4.42 102 16:18 23.06.2020
867 Clouds 24 1014 100 10000 4.42 102 15:43 23.06.2020
868 Clouds 24 1014 88 0 4.67 104 15:24 23.06.2020
869 Clouds 24 1014 88 0 4.67 104 14:56 23.06.2020
870 Clouds 25 1014 88 10000 1 0 14:38 23.06.2020
871 Clouds 25 1014 88 10000 1 0 14:18 23.06.2020
872 Clouds 25 1014 88 10000 1 0 13:46 23.06.2020
873 Clouds 25 1014 88 10000 1 0 13:26 23.06.2020
874 Clouds 25 1014 94 10000 2.1 120 12:59 23.06.2020
875 Rain 24 1015 89 0 4.55 107 12:40 23.06.2020
876 Clouds 25 1014 94 10000 2.1 150 12:20 23.06.2020
877 Clouds 25 1014 94 10000 2.1 150 11:43 23.06.2020
878 Clouds 25 1014 94 10000 2.6 130 11:23 23.06.2020
879 Clouds 25 1014 94 10000 2.6 130 10:58 23.06.2020
880 Clouds 25 1014 94 10000 2.6 140 10:40 23.06.2020
881 Clouds 25 1014 94 10000 2.6 140 10:22 23.06.2020
882 Clouds 25 1014 94 10000 2.6 140 09:57 23.06.2020
883 Clouds 24 1014 89 0 4.12 110 09:38 23.06.2020
884 Clouds 24 1014 89 0 4.14 113 09:19 23.06.2020
885 Rain 24 1014 90 0 3.99 109 08:46 23.06.2020
886 Rain 25 1013 94 10000 1 0 08:26 23.06.2020
887 Rain 25 1013 94 10000 1 0 07:47 23.06.2020
888 Rain 25 1013 94 10000 1 0 07:24 23.06.2020
889 Rain 25 1013 89 0 4.11 113 06:52 23.06.2020
890 Clouds 25 1013 94 10000 3.6 150 06:32 23.06.2020
891 Clouds 25 1013 94 10000 3.6 150 05:54 23.06.2020
892 Clouds 26 1013 88 10000 3.6 170 04:42 23.06.2020
893 Rain 26 1013 86 0 5 122 03:21 23.06.2020
894 Rain 26 1013 86 0 5 122 02:47 23.06.2020
895 Clouds 27 1015 83 10000 3.1 150 02:28 23.06.2020
896 Clouds 27 1015 83 10000 3.1 150 01:45 23.06.2020
897 Clouds 27 1015 78 10000 3.6 160 01:21 23.06.2020
898 Clouds 27 1015 78 10000 3.6 160 00:40 23.06.2020
899 Clouds 27 1015 78 10000 3.6 160 00:19 23.06.2020
900 Rain 25 1016 88 0 4.35 117 23:39 22.06.2020
901 Clouds 25 1015 94 10000 4.63 122 23:19 22.06.2020
902 Clouds 25 1015 94 10000 4.63 122 22:59 22.06.2020
903 Clouds 25 1014 88 10000 4.63 122 22:40 22.06.2020
904 Clouds 25 1014 88 10000 4.6 128 22:20 22.06.2020
905 Clouds 25 1014 88 10000 4.6 128 21:58 22.06.2020
906 Clouds 25 1014 88 10000 4.6 128 21:58 22.06.2020
907 Rain 25 1015 91 0 4.6 128 21:40 22.06.2020
908 Rain 24 1015 91 0 4.73 134 21:21 22.06.2020
909 Rain 24 1015 91 0 4.73 134 20:54 22.06.2020
910 Clouds 24 1013 94 10000 4.73 134 20:36 22.06.2020
911 Clouds 24 1013 94 10000 4.73 137 20:18 22.06.2020
912 Rain 24 1014 92 0 4.73 137 19:42 22.06.2020
913 Clouds 24 1013 94 10000 4.61 138 19:19 22.06.2020
914 Clouds 24 1013 94 10000 4.61 138 18:56 22.06.2020
915 Clouds 24 1013 94 10000 4.61 138 18:36 22.06.2020
916 Clouds 23 1013 100 10000 4.47 142 18:18 22.06.2020
917 Clouds 23 1013 100 10000 4.47 142 17:39 22.06.2020
918 Clouds 23 1013 100 10000 4.64 144 17:21 22.06.2020
919 Clouds 24 1014 94 10000 4.64 144 16:59 22.06.2020
920 Clouds 24 1014 94 10000 4.64 144 16:41 22.06.2020
921 Clouds 24 1014 94 10000 4.68 145 16:18 22.06.2020
922 Clouds 25 1014 88 10000 4.68 145 15:54 22.06.2020
923 Clouds 25 1014 88 10000 4.68 145 15:36 22.06.2020
924 Clouds 24 1014 91 0 4.21 148 15:18 22.06.2020
925 Clouds 24 1014 94 10000 4.21 148 14:39 22.06.2020
926 Clouds 24 1014 94 10000 3.98 145 14:20 22.06.2020
927 Clouds 24 1014 94 10000 4.27 145 13:55 22.06.2020
928 Clouds 24 1014 94 10000 4.27 145 13:36 22.06.2020
929 Clouds 24 1015 83 10000 3.98 143 13:18 22.06.2020
930 Clouds 24 1015 83 10000 3.98 143 12:41 22.06.2020
931 Clouds 24 1015 83 10000 3.81 143 12:22 22.06.2020
932 Clouds 23 1014 88 10000 1 0 11:39 22.06.2020
933 Clouds 23 1014 88 10000 1 0 11:20 22.06.2020
934 Clouds 23 1014 88 10000 1 0 10:57 22.06.2020
935 Clouds 23 1014 88 10000 1 0 10:39 22.06.2020
936 Clouds 23 1014 88 10000 1 0 10:19 22.06.2020
937 Clouds 24 1013 83 10000 1 0 09:58 22.06.2020
938 Clouds 24 1013 83 10000 1 0 09:40 22.06.2020
939 Clouds 24 1014 88 0 4.04 138 09:19 22.06.2020
940 Clouds 24 1014 88 0 4.04 138 08:57 22.06.2020
941 Clouds 25 1012 88 10000 2.1 150 08:38 22.06.2020
942 Clouds 25 1012 88 10000 2.1 150 08:19 22.06.2020
943 Clouds 25 1012 88 10000 2.1 150 07:49 22.06.2020
944 Clouds 25 1012 88 10000 2.1 150 07:30 22.06.2020
945 Clouds 26 1012 78 10000 2.6 160 06:43 22.06.2020
946 Clouds 26 1012 78 10000 2.6 160 06:24 22.06.2020
947 Clouds 26 1012 83 10000 3.1 180 05:43 22.06.2020
948 Clouds 27 1014 78 10000 2.6 170 03:48 22.06.2020
949 Clouds 26 1015 83 10000 3.1 180 02:23 22.06.2020
950 Clouds 26 1015 83 10000 3.1 180 01:18 22.06.2020
951 Clouds 25 1015 94 10000 3.33 133 00:39 22.06.2020
952 Clouds 25 1015 94 10000 2.1 190 23:57 21.06.2020
953 Clouds 25 1015 94 10000 2.1 190 23:38 21.06.2020
954 Clouds 25 1015 94 10000 2.1 190 23:20 21.06.2020
955 Clouds 23 1014 100 10000 2.1 200 22:56 21.06.2020
956 Clouds 23 1014 100 10000 2.1 200 22:36 21.06.2020
957 Clouds 23 1014 100 10000 2.1 200 22:18 21.06.2020
958 Clouds 23 1013 100 10000 2.1 190 21:56 21.06.2020
959 Clouds 23 1013 100 10000 2.1 190 21:37 21.06.2020
960 Clouds 23 1013 100 10000 2.1 190 21:19 21.06.2020
961 Clouds 24 1014 89 0 3.9 149 20:56 21.06.2020
962 Clouds 23 1012 88 10000 2.6 180 20:36 21.06.2020
963 Clouds 23 1012 88 10000 2.6 180 20:18 21.06.2020
964 Clouds 23 1012 88 10000 2.6 180 20:18 21.06.2020
965 Clouds 23 1012 88 10000 2.6 180 19:41 21.06.2020
966 Clouds 23 1012 88 10000 2.6 180 19:21 21.06.2020
967 Rain 23 1011 94 10000 2.6 200 18:56 21.06.2020
968 Rain 23 1011 94 10000 2.6 200 18:38 21.06.2020
969 Clouds 22 1012 94 10000 2.6 200 18:20 21.06.2020
970 Clouds 22 1012 94 10000 2.6 200 17:55 21.06.2020
971 Clouds 22 1012 94 10000 2.6 200 17:36 21.06.2020
972 Clouds 21 1012 100 10000 2.1 210 17:18 21.06.2020
973 Clouds 21 1012 100 10000 2.1 210 16:40 21.06.2020
974 Clouds 21 1012 100 10000 2.1 210 16:22 21.06.2020
975 Clouds 21 1013 100 10000 1 0 15:42 21.06.2020
976 Clouds 21 1013 100 10000 1 0 15:24 21.06.2020
977 -273 0 0 0 0 0 14:59 21.06.2020
978 Clouds 22 1013 94 10000 1.5 250 14:38 21.06.2020
979 Clouds 22 1013 94 10000 1.5 250 14:19 21.06.2020
980 Clouds 22 1013 94 10000 1.5 250 13:56 21.06.2020
981 Clouds 22 1013 94 10000 1.5 250 13:56 21.06.2020
982 Clouds 22 1013 94 10000 1.5 250 13:37 21.06.2020
983 Clouds 22 1013 100 10000 2.56 152 13:18 21.06.2020
984 Clouds 22 1013 100 10000 2.56 152 12:43 21.06.2020
985 Clouds 22 1013 100 10000 2.46 155 12:24 21.06.2020
986 Clouds 22 1013 100 10000 2.46 155 11:54 21.06.2020
987 Clouds 22 1013 100 10000 2.46 155 11:36 21.06.2020
988 Clouds 22 1013 100 10000 2.64 156 11:18 21.06.2020
989 Clouds 23 1012 94 10000 2.64 156 10:41 21.06.2020
990 Clouds 23 1012 94 10000 2.84 154 10:23 21.06.2020
991 Clouds 24 1012 88 10000 2.84 154 09:58 21.06.2020
992 Clouds 24 1012 88 10000 2.84 154 09:37 21.06.2020
993 Clouds 24 1012 88 10000 2 177 09:18 21.06.2020
994 Clouds 23 1012 85 0 2 177 08:55 21.06.2020
995 Rain 25 1011 83 10000 2.6 190 08:37 21.06.2020
996 Rain 25 1011 83 10000 2.6 190 08:18 21.06.2020
997 Rain 25 1011 83 10000 2.6 190 07:41 21.06.2020
998 Rain 25 1011 83 10000 2.6 190 07:21 21.06.2020
999 Clouds 24 1010 94 10000 2.1 240 06:48 21.06.2020
1000 Clouds 26 1010 78 10000 3.1 200 05:59 21.06.2020
1001 Clouds 26 1010 78 10000 3.1 200 05:25 21.06.2020
1002 Clouds 26 1011 78 10000 3.1 200 03:21 21.06.2020
1003 Clouds 27 1011 74 10000 3.1 220 02:54 21.06.2020
1004 Clouds 26 1012 78 10000 3.6 230 01:49 21.06.2020
1005 Clouds 26 1012 78 10000 3.6 230 01:21 21.06.2020
1006 Clouds 26 1012 78 10000 3.6 220 00:55 21.06.2020
1007 Clouds 26 1012 78 10000 3.6 220 00:37 21.06.2020
1008 Clouds 22 1012 94 10000 1.5 270 00:18 21.06.2020
1009 Clouds 22 1012 94 10000 1.5 270 23:43 20.06.2020
1010 Clouds 22 1012 94 10000 1.5 270 23:21 20.06.2020
1011 Clouds 20 1013 100 10000 2.1 310 22:55 20.06.2020
1012 Clouds 20 1013 100 10000 2.1 310 22:37 20.06.2020
1013 Clouds 19 1012 93 10000 2.6 320 22:18 20.06.2020
1014 Clouds 19 1012 93 10000 2.6 320 21:56 20.06.2020
1015 Clouds 19 1012 93 10000 2.6 320 21:37 20.06.2020
1016 Clouds 19 1012 93 10000 2.6 320 21:19 20.06.2020
1017 Clouds 22 1012 81 0 1.9 243 20:55 20.06.2020
1018 Clouds 19 1011 100 10000 1.5 320 20:37 20.06.2020
1019 Clouds 19 1011 100 10000 1.5 320 20:19 20.06.2020
1020 Clouds 19 1011 100 10000 1.5 320 19:42 20.06.2020
1021 Clouds 19 1011 100 10000 1.5 320 19:22 20.06.2020
1022 Clouds 19 1011 100 10000 2.1 320 18:43 20.06.2020
1023 Clouds 19 1011 100 10000 2.1 320 18:21 20.06.2020
1024 Clouds 19 1011 100 10000 2.1 310 18:00 20.06.2020
1025 Clouds 19 1011 100 10000 2.1 310 17:41 20.06.2020
1026 Clouds 19 1011 100 10000 2.1 310 17:21 20.06.2020
1027 Clouds 19 1011 100 10000 1.5 300 16:58 20.06.2020
1028 Clouds 19 1011 100 10000 1.5 300 16:38 20.06.2020
1029 Clouds 19 1011 100 10000 1.5 300 16:18 20.06.2020
1030 Clouds 20 1012 94 10000 1.5 340 15:42 20.06.2020
1031 Clouds 22 1011 80 0 1.42 212 15:18 20.06.2020
1032 Clouds 22 1011 80 0 1.42 212 14:55 20.06.2020
1033 Clouds 20 1012 94 10000 1 0 14:36 20.06.2020
1034 Clouds 20 1012 94 10000 1 0 14:18 20.06.2020
1035 Clouds 20 1012 94 10000 1 0 13:41 20.06.2020
1036 Clouds 20 1012 94 10000 1 0 13:19 20.06.2020
1037 Clouds 20 1012 100 10000 1 0 12:43 20.06.2020
1038 Clouds 20 1012 100 10000 1 0 12:22 20.06.2020
1039 Clouds 20 1011 100 10000 1 0 11:58 20.06.2020
1040 Clouds 20 1011 100 10000 1 0 11:38 20.06.2020
1041 Clouds 20 1011 100 10000 1 0 11:20 20.06.2020
1042 Clouds 21 1011 94 10000 1 0 10:50 20.06.2020
1043 Clouds 21 1011 94 10000 1 0 10:23 20.06.2020
1044 Clouds 22 1010 94 10000 1 0 09:57 20.06.2020
1045 Clouds 22 1010 94 10000 1 0 09:39 20.06.2020
1046 Clouds 22 1010 94 10000 1 0 09:21 20.06.2020
1047 Clear 23 1011 79 0 1.46 118 08:48 20.06.2020
1048 Clouds 26 1010 69 10000 3.1 120 08:30 20.06.2020
1049 Clouds 26 1010 69 10000 3.1 120 07:53 20.06.2020
1050 Clouds 26 1010 69 10000 3.1 120 07:28 20.06.2020
1051 Clouds 27 1009 69 10000 3.1 120 06:58 20.06.2020
1052 Clouds 27 1009 69 10000 3.1 120 06:24 20.06.2020
1053 Clouds 28 1009 61 10000 3.1 120 05:54 20.06.2020
1054 Clouds 28 1009 61 10000 3.1 120 05:25 20.06.2020
1055 Rain 25 1011 79 0 3.18 84 02:53 20.06.2020
1056 Clouds 26 1013 69 10000 3.1 120 01:49 20.06.2020
1057 Clouds 26 1013 69 10000 3.1 120 01:22 20.06.2020
1058 Clouds 27 1013 69 10000 5.7 90 00:22 20.06.2020
1059 Clouds 25 1013 83 10000 1 0 23:58 19.06.2020
1060 Clouds 25 1013 83 10000 1 0 23:39 19.06.2020
1061 Clouds 22 1013 100 10000 1 320 23:18 19.06.2020
1062 Clouds 22 1013 100 10000 1 320 22:41 19.06.2020
1063 Clouds 22 1012 94 10000 3.47 93 22:23 19.06.2020
1064 Clouds 22 1012 94 10000 3.47 93 21:59 19.06.2020
1065 Clouds 22 1012 94 10000 3.47 93 21:39 19.06.2020
1066 Clouds 22 1012 94 10000 3.5 90 21:18 19.06.2020
1067 Clouds 22 1013 85 0 3.5 90 20:59 19.06.2020
1068 Clouds 22 1013 85 0 3.5 90 20:40 19.06.2020
1069 Clouds 21 1012 94 10000 3.65 86 20:21 19.06.2020
1070 Clouds 21 1012 94 10000 3.65 86 20:21 19.06.2020
1071 Clouds 21 1012 94 10000 3.65 86 19:57 19.06.2020
1072 Clouds 21 1012 94 10000 3.65 86 19:39 19.06.2020
1073 Clouds 21 1012 94 10000 3.56 85 19:21 19.06.2020
1074 Clouds 21 1012 94 10000 2.1 320 18:55 19.06.2020
1075 Clouds 21 1012 94 10000 2.1 320 18:37 19.06.2020
1076 Clouds 21 1012 94 10000 2.1 320 18:37 19.06.2020
1077 Clouds 21 1012 94 10000 2.1 320 18:19 19.06.2020
1078 Clouds 21 1012 94 10000 3.55 90 17:40 19.06.2020
1079 Clouds 21 1012 94 10000 3.88 89 17:22 19.06.2020
1080 Clouds 20 1013 100 10000 3.88 89 16:56 19.06.2020
1081 Clouds 20 1013 100 10000 3.88 89 16:37 19.06.2020
1082 Clouds 20 1013 100 10000 4.05 90 16:19 19.06.2020
1083 Clouds 20 1013 100 10000 4.05 90 15:43 19.06.2020
1084 Clouds 20 1013 100 10000 4.17 90 15:24 19.06.2020
1085 Rain 23 1013 84 0 4.17 90 14:56 19.06.2020
1086 Clouds 21 1014 94 10000 4.17 90 14:38 19.06.2020
1087 Clouds 21 1014 94 10000 3.5 85 14:19 19.06.2020
1088 Clouds 21 1014 94 10000 3.5 85 13:45 19.06.2020
1089 Clouds 21 1014 94 10000 3.77 85 13:26 19.06.2020
1090 Clouds 21 1014 94 10000 3.77 85 12:49 19.06.2020
1091 Clouds 21 1014 94 10000 3.94 89 12:24 19.06.2020
1092 Clouds 22 1014 88 10000 3.94 89 11:59 19.06.2020
1093 Clouds 22 1014 88 10000 3.94 89 11:40 19.06.2020
1094 Clouds 23 1014 83 10000 3.79 97 11:19 19.06.2020
1095 Clouds 23 1014 83 10000 3.79 97 10:55 19.06.2020
1096 Clouds 23 1014 83 10000 3.79 97 10:55 19.06.2020
1097 Clouds 23 1014 83 10000 3.79 97 10:37 19.06.2020
1098 Clouds 23 1014 83 10000 3.71 97 10:18 19.06.2020
1099 Clouds 23 1014 83 10000 3.71 97 09:41 19.06.2020
1100 Clouds 23 1014 81 0 4.26 95 09:21 19.06.2020
1101 Rain 23 1013 83 0 4.06 98 08:45 19.06.2020
1102 Clouds 25 1013 73 10000 3.1 100 08:27 19.06.2020
1103 Clouds 25 1013 73 10000 3.1 100 07:57 19.06.2020
1104 Clouds 25 1013 73 10000 3.1 100 07:39 19.06.2020
1105 Clouds 25 1013 73 10000 3.1 100 07:20 19.06.2020
1106 Clouds 26 1013 65 10000 4.1 110 06:28 19.06.2020
1107 Clouds 26 1013 65 10000 6.2 110 05:46 19.06.2020
1108 Clouds 27 1013 61 10000 7.2 110 04:27 19.06.2020
1109 Rain 24 1013 80 0 5.81 98 02:51 19.06.2020
1110 Clouds 27 1015 65 10000 7.2 100 00:56 19.06.2020
1111 Clouds 27 1015 65 10000 7.2 100 00:37 19.06.2020
1112 Clouds 27 1015 65 10000 7.2 100 00:19 19.06.2020
1113 Clouds 26 1015 74 10000 6.2 110 23:41 18.06.2020
1114 Clouds 26 1015 74 10000 6.2 110 23:23 18.06.2020
1115 Clouds 24 1014 83 10000 3.1 100 22:59 18.06.2020
1116 Clouds 24 1014 83 10000 3.1 100 22:37 18.06.2020
1117 Clouds 24 1014 83 10000 3.1 100 22:18 18.06.2020
1118 Clouds 23 1014 88 10000 2.6 110 21:39 18.06.2020
1119 Clouds 23 1014 88 10000 2.6 110 21:20 18.06.2020
1120 Clouds 22 1015 82 0 4.4 84 20:57 18.06.2020
1121 Clouds 22 1013 94 10000 1.5 120 20:38 18.06.2020
1122 Clouds 22 1013 94 10000 1.5 120 20:19 18.06.2020
1123 Clouds 22 1013 94 10000 1.5 120 19:42 18.06.2020
1124 Clouds 22 1013 94 10000 1.5 120 19:22 18.06.2020
1125 Clouds 20 1013 100 10000 1 0 18:57 18.06.2020
1126 Clouds 20 1013 100 10000 1 0 18:37 18.06.2020
1127 Clouds 20 1013 100 10000 1 0 18:37 18.06.2020
1128 Clouds 20 1013 100 10000 1 0 18:19 18.06.2020
1129 Clouds 20 1013 100 10000 1.5 300 17:45 18.06.2020
1130 Clouds 20 1013 100 10000 1.5 300 17:25 18.06.2020
1131 Clouds 21 1014 94 10000 5.66 96 16:56 18.06.2020
1132 Clouds 21 1014 94 10000 5.66 96 16:37 18.06.2020
1133 Clouds 21 1014 94 10000 5.47 93 16:18 18.06.2020
1134 Clouds 21 1015 94 10000 1.5 280 15:55 18.06.2020
1135 Clouds 21 1015 94 10000 1.5 280 15:37 18.06.2020
1136 Clouds 21 1015 94 10000 1.5 280 15:18 18.06.2020
1137 Rain 23 1015 83 0 5.27 94 14:41 18.06.2020
1138 Clouds 21 1016 100 10000 1.5 300 14:23 18.06.2020
1139 Clouds 21 1016 100 10000 1.5 300 13:58 18.06.2020
1140 Clouds 21 1016 100 10000 1.5 300 13:40 18.06.2020
1141 Clouds 21 1016 100 10000 1.5 300 13:40 18.06.2020
1142 Clouds 21 1016 100 10000 1.5 300 13:19 18.06.2020
1143 Clouds 21 1016 100 10000 1 0 12:55 18.06.2020
1144 Clouds 21 1016 100 10000 1 0 12:36 18.06.2020
1145 Clouds 21 1016 100 10000 1 0 12:18 18.06.2020
1146 Clouds 21 1016 100 10000 1 0 11:44 18.06.2020
1147 Clouds 21 1016 100 10000 1 0 11:21 18.06.2020
1148 Rain 21 1016 100 10000 1 0 10:41 18.06.2020
1149 Rain 21 1016 100 10000 1 0 10:20 18.06.2020
1150 Rain 22 1016 94 10000 6.2 90 09:57 18.06.2020
1151 Rain 22 1016 94 10000 6.2 90 09:39 18.06.2020
1152 Rain 23 1015 83 0 5.51 94 09:21 18.06.2020
1153 Rain 23 1015 83 0 5.51 94 08:40 18.06.2020
1154 Clouds 24 1015 83 10000 3.1 130 08:21 18.06.2020
1155 Clouds 24 1015 83 10000 3.1 130 08:21 18.06.2020
1156 Clouds 24 1015 83 10000 3.1 130 07:46 18.06.2020
1157 Clouds 24 1015 83 10000 3.1 130 07:27 18.06.2020
1158 Clouds 22 1014 88 10000 2.1 190 06:55 18.06.2020
1159 Clouds 26 1014 69 10000 4.6 120 05:58 18.06.2020
1160 Clouds 27 1015 61 10000 4.6 130 04:24 18.06.2020
1161 Clouds 25 1015 67 0 6 111 02:51 18.06.2020
1162 Rain 27 1017 65 10000 4.1 130 01:29 18.06.2020
1163 Rain 24 1018 78 10000 1 0 00:56 18.06.2020
1164 Rain 24 1018 78 10000 1 0 00:37 18.06.2020
1165 Rain 22 1018 83 10000 3.6 70 00:19 18.06.2020
1166 Rain 22 1018 83 10000 3.6 70 23:42 17.06.2020
1167 Clouds 24 1017 78 10000 2.6 110 23:20 17.06.2020
1168 Clouds 24 1017 78 10000 2.6 110 22:57 17.06.2020
1169 Clouds 24 1017 78 10000 2.6 110 22:38 17.06.2020
1170 Clouds 24 1016 69 10000 3.6 120 22:20 17.06.2020
1171 Clouds 24 1017 78 10000 2.6 110 22:20 17.06.2020
1172 Clouds 24 1016 69 10000 3.6 120 21:42 17.06.2020
1173 Clouds 24 1016 69 10000 3.6 120 21:24 17.06.2020
1174 Clouds 22 1017 81 0 5.62 98 21:00 17.06.2020
1175 Clouds 22 1017 81 0 5.62 98 20:59 17.06.2020
1176 Clouds 23 1015 73 10000 3.1 110 20:38 17.06.2020
1177 Clouds 23 1015 73 10000 3.1 110 20:19 17.06.2020
1178 Clouds 23 1015 73 10000 3.1 110 19:46 17.06.2020
1179 Clouds 23 1015 73 10000 3.1 110 19:46 17.06.2020
1180 Clouds 23 1015 73 10000 3.1 110 19:23 17.06.2020
1181 Clouds 23 1016 78 10000 2.6 100 18:58 17.06.2020
1182 Clouds 23 1016 78 10000 2.6 100 18:40 17.06.2020
1183 Clouds 23 1016 78 10000 2.6 100 18:40 17.06.2020
1184 Clouds 23 1016 78 10000 2.6 100 18:21 17.06.2020
1185 Clouds 23 1016 78 10000 2.6 110 17:43 17.06.2020
1186 Clouds 23 1016 78 10000 2.6 110 17:22 17.06.2020
1187 Clouds 23 1016 78 10000 2.6 110 17:22 17.06.2020
1188 Clouds 22 1016 88 10000 4.5 88 16:57 17.06.2020
1189 Clouds 22 1016 88 10000 4.5 88 16:57 17.06.2020
1190 Clouds 22 1016 88 10000 4.5 88 16:38 17.06.2020
1191 Clouds 22 1016 83 10000 4.56 89 16:20 17.06.2020
1192 Clouds 22 1016 83 10000 4.56 89 15:56 17.06.2020
1193 Clouds 22 1016 83 10000 4.56 89 15:38 17.06.2020
1194 Clouds 22 1016 83 10000 4.79 95 15:18 17.06.2020
1195 Clouds 22 1017 77 0 4.79 95 14:56 17.06.2020
1196 Clouds 24 1018 69 10000 2.6 100 14:38 17.06.2020
1197 Clouds 24 1018 69 10000 2.6 100 14:18 17.06.2020
1198 Clouds 24 1018 69 10000 2.6 100 13:41 17.06.2020
1199 Clouds 24 1018 69 10000 2.6 100 13:21 17.06.2020
1200 Clouds 24 1017 69 10000 3.6 110 12:56 17.06.2020
1201 Clouds 24 1017 69 10000 3.6 110 12:38 17.06.2020
1202 Clouds 25 1017 65 10000 4.6 110 12:19 17.06.2020
1203 Clouds 25 1017 65 10000 4.6 110 12:19 17.06.2020
1204 Clouds 25 1017 65 10000 4.6 110 11:44 17.06.2020
1205 Clouds 25 1017 65 10000 4.6 110 11:24 17.06.2020
1206 Clouds 25 1017 69 10000 4.1 110 10:55 17.06.2020
1207 Clouds 25 1017 69 10000 4.1 110 10:36 17.06.2020
1208 Clouds 25 1017 69 10000 4.1 110 10:18 17.06.2020
1209 Clouds 25 1017 69 10000 5.1 110 09:54 17.06.2020
1210 Clouds 25 1017 69 10000 5.1 110 09:54 17.06.2020
1211 Clouds 25 1017 69 10000 5.1 110 09:36 17.06.2020
1212 Clouds 25 1017 69 10000 5.1 110 09:36 17.06.2020
1213 Clouds 23 1017 82 0 6.52 100 09:18 17.06.2020
1214 Clouds 23 1017 82 0 6.52 100 08:41 17.06.2020
1215 Clouds 26 1016 65 10000 4.6 110 08:19 17.06.2020
1216 Clouds 26 1016 65 10000 4.6 110 08:19 17.06.2020
1217 Clouds 26 1016 65 10000 4.6 110 07:43 17.06.2020
1218 Clouds 26 1016 65 10000 4.6 110 07:22 17.06.2020
1219 Clouds 26 1016 65 10000 5.7 110 06:56 17.06.2020
1220 Clouds 26 1016 65 10000 5.7 110 06:38 17.06.2020
1221 Clouds 26 1016 65 10000 5.7 110 06:20 17.06.2020
1222 Clouds 26 1015 65 10000 6.7 110 05:29 17.06.2020
1223 Clouds 26 1016 65 10000 7.7 110 03:28 17.06.2020
1224 Clouds 26 1018 65 10000 7.7 110 01:52 17.06.2020
1225 Clouds 25 1019 73 10000 5.1 110 00:47 17.06.2020
1226 Clouds 25 1019 73 10000 5.1 110 00:23 17.06.2020
1227 Clouds 25 1019 73 10000 4.6 110 23:56 16.06.2020
1228 Clouds 25 1019 73 10000 4.6 110 23:37 16.06.2020
1229 Clouds 24 1018 73 10000 4.6 110 23:19 16.06.2020
1230 Clouds 24 1018 73 10000 4.6 110 22:55 16.06.2020
1231 Clouds 24 1018 73 10000 4.6 110 22:37 16.06.2020
1232 Clouds 24 1018 73 10000 4.1 120 22:18 16.06.2020
1233 Clouds 24 1018 73 10000 4.1 120 21:47 16.06.2020
1234 Clouds 24 1018 73 10000 4.1 120 21:24 16.06.2020
1235 Rain 22 1018 84 0 7.27 107 20:58 16.06.2020
1236 Clouds 24 1017 73 10000 5.1 120 20:39 16.06.2020
1237 Clouds 24 1017 73 10000 5.1 120 20:19 16.06.2020
1238 Clouds 24 1017 73 10000 5.1 120 20:19 16.06.2020
1239 Clouds 24 1017 73 10000 5.1 120 19:57 16.06.2020
1240 Clouds 24 1017 73 10000 5.1 120 19:39 16.06.2020
1241 Clouds 24 1017 73 10000 5.1 120 19:21 16.06.2020
1242 Clouds 23 1017 83 10000 2.6 140 18:55 16.06.2020
1243 Clouds 23 1017 83 10000 2.6 140 18:36 16.06.2020
1244 Clouds 24 1017 78 10000 4.1 120 18:18 16.06.2020
1245 Clouds 24 1017 78 10000 4.1 120 17:54 16.06.2020
1246 Clouds 24 1017 78 10000 4.1 120 17:36 16.06.2020
1247 Clouds 24 1017 78 10000 4.1 120 17:18 16.06.2020
1248 Clouds 24 1017 78 10000 3.6 120 16:42 16.06.2020
1249 Clouds 24 1017 78 10000 3.6 120 16:20 16.06.2020
1250 Clouds 23 1017 83 10000 3.1 130 15:58 16.06.2020
1251 Clouds 23 1017 83 10000 3.1 130 15:39 16.06.2020
1252 Clouds 23 1017 83 10000 3.1 130 15:21 16.06.2020
1253 Rain 23 1016 82 0 7.43 100 14:57 16.06.2020
1254 Rain 23 1016 82 0 7.43 100 14:57 16.06.2020
1255 Clouds 24 1017 83 10000 4.6 130 14:38 16.06.2020
1256 Clouds 24 1017 83 10000 4.6 130 14:20 16.06.2020
1257 Clouds 24 1017 83 10000 4.6 130 13:46 16.06.2020
1258 Clouds 24 1017 83 10000 4.6 130 13:26 16.06.2020
1259 Clouds 24 1017 83 10000 4.1 130 12:55 16.06.2020
1260 Clouds 24 1017 83 10000 4.1 130 12:37 16.06.2020
1261 Clouds 24 1018 83 10000 4.1 120 12:18 16.06.2020
1262 Clouds 24 1018 83 10000 4.1 120 11:42 16.06.2020
1263 Clouds 25 1017 78 10000 5.7 110 11:23 16.06.2020
1264 Clouds 25 1017 78 10000 5.7 110 10:59 16.06.2020
1265 Clouds 25 1017 78 10000 5.7 110 10:41 16.06.2020
1266 Clouds 25 1017 78 10000 5.7 110 10:20 16.06.2020
1267 Clouds 25 1016 78 10000 4.6 120 09:48 16.06.2020
1268 Clouds 25 1016 78 10000 4.6 120 09:26 16.06.2020
1269 Rain 23 1016 82 0 8.25 100 08:58 16.06.2020
1270 Rain 23 1016 82 0 8.25 100 08:58 16.06.2020
1271 Clouds 26 1015 69 10000 5.1 110 08:40 16.06.2020
1272 Clouds 26 1015 69 10000 5.1 110 08:22 16.06.2020
1273 Clouds 26 1015 69 10000 5.1 110 07:42 16.06.2020
1274 Clouds 26 1015 69 10000 5.1 110 07:24 16.06.2020
1275 Clouds 26 1015 69 10000 6.7 120 06:34 16.06.2020
1276 Clouds 26 1015 69 10000 7.7 120 05:52 16.06.2020
1277 Clouds 26 1015 69 10000 7.7 120 05:19 16.06.2020
1278 Clouds 27 1015 65 10000 6.7 120 04:26 16.06.2020
1279 Rain 25 1015 71 0 8.75 102 02:46 16.06.2020
1280 Clouds 26 1017 65 10000 9.8 100 01:34 16.06.2020
1281 Clouds 26 1017 69 10000 8.7 110 00:58 16.06.2020
1282 Clouds 26 1017 69 10000 8.7 110 00:27 16.06.2020
1283 Clouds 25 1018 73 10000 7.2 100 23:57 15.06.2020
1284 Clouds 25 1018 73 10000 7.2 100 23:57 15.06.2020
1285 Clouds 25 1018 73 10000 7.2 100 23:38 15.06.2020
1286 Clouds 25 1018 73 10000 7.2 100 23:20 15.06.2020
1287 Clouds 25 1017 73 10000 5.7 110 22:42 15.06.2020
1288 Clouds 25 1017 73 10000 5.7 110 22:22 15.06.2020
1289 Clouds 24 1016 73 10000 4.6 120 21:58 15.06.2020
1290 Clouds 24 1016 73 10000 4.6 120 21:38 15.06.2020
1291 Rain 23 1016 81 0 8.61 108 21:20 15.06.2020
1292 Rain 23 1016 81 0 8.61 108 20:58 15.06.2020
1293 Clouds 23 1015 83 10000 4.6 110 20:39 15.06.2020
1294 Clouds 23 1015 83 10000 4.6 110 20:19 15.06.2020
1295 Clouds 23 1015 83 10000 4.6 110 19:57 15.06.2020
1296 Clouds 23 1015 83 10000 4.6 110 19:39 15.06.2020
1297 Clouds 23 1015 83 10000 4.6 110 19:20 15.06.2020
1298 Clouds 24 1015 78 10000 4.1 120 18:56 15.06.2020
1299 Clouds 24 1015 78 10000 4.1 120 18:37 15.06.2020
1300 Clouds 24 1015 78 10000 4.1 120 18:19 15.06.2020
1301 Clouds 23 1015 78 10000 3.6 120 17:56 15.06.2020
1302 Clouds 23 1015 78 10000 3.6 120 17:37 15.06.2020
1303 Clouds 23 1015 78 10000 3.6 120 17:18 15.06.2020
1304 Clouds 23 1016 83 10000 2.6 130 16:41 15.06.2020
1305 Clouds 23 1016 83 10000 2.6 130 16:19 15.06.2020
1306 Clouds 22 1016 94 10000 2.6 140 15:56 15.06.2020
1307 Clouds 22 1016 94 10000 2.6 140 15:38 15.06.2020
1308 Clouds 22 1016 94 10000 2.6 140 15:19 15.06.2020
1309 Rain 23 1016 82 0 8.05 117 14:42 15.06.2020
1310 Clouds 23 1017 78 10000 4.1 130 14:21 15.06.2020
1311 Clouds 23 1017 78 10000 4.1 130 13:59 15.06.2020
1312 Clouds 23 1017 78 10000 4.1 130 13:41 15.06.2020
1313 Clouds 23 1017 78 10000 4.1 130 13:41 15.06.2020
1314 Clouds 23 1017 78 10000 4.1 130 13:22 15.06.2020
1315 Clouds 24 1017 73 10000 6.2 130 12:57 15.06.2020
1316 Clouds 24 1017 73 10000 6.2 130 12:39 15.06.2020
1317 Clouds 25 1016 69 10000 5.1 130 12:21 15.06.2020
1318 Clouds 24 1017 73 10000 6.2 130 12:21 15.06.2020
1319 Clouds 25 1016 69 10000 5.1 130 11:44 15.06.2020
1320 Clouds 25 1016 69 10000 5.1 130 11:25 15.06.2020
1321 Clouds 24 1016 73 10000 4.6 130 10:45 15.06.2020
1322 Clouds 24 1016 73 10000 4.6 130 10:23 15.06.2020
1323 Clouds 25 1015 69 10000 5.1 130 09:56 15.06.2020
1324 Clouds 25 1015 69 10000 5.1 130 09:38 15.06.2020
1325 Clouds 25 1015 69 10000 5.1 130 09:19 15.06.2020
1326 Rain 23 1016 83 0 8.18 120 08:39 15.06.2020
1327 Clouds 25 1014 73 10000 4.1 130 08:21 15.06.2020
1328 Clouds 25 1014 73 10000 4.1 130 07:46 15.06.2020
1329 Clouds 25 1014 73 10000 4.1 130 07:28 15.06.2020
1330 Clouds 26 1014 65 10000 4.6 130 06:48 15.06.2020
1331 Clouds 26 1014 65 10000 4.6 130 06:25 15.06.2020
1332 Clouds 27 1014 61 10000 5.1 120 05:46 15.06.2020
1333 Clouds 27 1014 61 10000 5.1 120 05:25 15.06.2020
1334 Clouds 27 1014 61 10000 6.7 140 04:20 15.06.2020
1335 Clouds 27 1014 61 10000 6.7 110 03:41 15.06.2020
1336 Clouds 25 1015 65 0 7.33 111 02:53 15.06.2020
1337 Clouds 25 1016 73 10000 3.6 150 01:53 15.06.2020
1338 Clouds 25 1016 73 10000 3.6 150 01:32 15.06.2020
1339 Clouds 26 1017 69 10000 5.1 120 00:58 15.06.2020
1340 Clouds 26 1017 69 10000 5.1 120 00:39 15.06.2020
1341 Clouds 26 1017 69 10000 5.1 120 00:20 15.06.2020
1342 Clouds 24 1017 78 10000 3.1 150 23:46 14.06.2020
1343 Clouds 24 1017 78 10000 3.1 150 23:24 14.06.2020
1344 Clouds 23 1017 83 10000 3.6 120 22:58 14.06.2020
1345 Clouds 23 1017 83 10000 3.6 120 22:39 14.06.2020
1346 Clouds 23 1017 83 10000 3.6 120 22:19 14.06.2020
1347 Rain 23 1017 83 10000 3.1 130 21:57 14.06.2020
1348 Rain 23 1017 83 10000 3.1 130 21:38 14.06.2020
1349 Rain 23 1017 83 10000 3.1 130 21:19 14.06.2020
1350 Rain 23 1017 83 10000 3.1 130 21:19 14.06.2020
1351 Clouds 23 1016 77 0 6.97 112 20:58 14.06.2020
1352 Clouds 23 1015 78 10000 3.1 120 20:38 14.06.2020
1353 Clouds 23 1015 78 10000 3.1 120 20:19 14.06.2020
1354 Clouds 23 1015 78 10000 3.1 120 19:58 14.06.2020
1355 Clouds 23 1015 78 10000 3.1 120 19:38 14.06.2020
1356 Clouds 23 1015 78 10000 3.1 120 19:19 14.06.2020
1357 Clouds 23 1015 78 10000 2.6 130 18:57 14.06.2020
1358 Clouds 23 1015 78 10000 2.6 130 18:38 14.06.2020
1359 Clouds 23 1015 78 10000 2.6 130 18:19 14.06.2020
1360 Clouds 23 1015 78 10000 2.6 140 17:57 14.06.2020
1361 Clouds 23 1015 78 10000 2.6 140 17:38 14.06.2020
1362 Clouds 23 1015 78 10000 2.6 140 17:38 14.06.2020
1363 Clouds 23 1016 78 10000 3.1 130 17:19 14.06.2020
1364 Clouds 23 1016 78 10000 3.1 130 16:41 14.06.2020
1365 Clouds 23 1016 78 10000 3.1 130 16:21 14.06.2020
1366 Clouds 23 1016 78 10000 2.6 130 15:59 14.06.2020
1367 Clouds 23 1016 78 10000 2.6 130 15:40 14.06.2020
1368 Rain 23 1016 79 0 6.98 112 15:18 14.06.2020
1369 Rain 23 1016 79 0 6.98 112 14:58 14.06.2020
1370 Rain 23 1016 79 0 6.98 112 14:40 14.06.2020
1371 Clouds 23 1017 78 10000 3.1 130 14:19 14.06.2020
1372 Clouds 23 1017 78 10000 3.1 130 13:55 14.06.2020
1373 Clouds 23 1017 78 10000 3.1 130 13:36 14.06.2020
1374 Clouds 23 1017 78 10000 3.1 130 13:18 14.06.2020
1375 Clouds 23 1018 78 10000 2.6 130 12:54 14.06.2020
1376 Clouds 23 1018 78 10000 2.6 130 12:36 14.06.2020
1377 Clouds 23 1018 78 10000 3.1 150 12:18 14.06.2020
1378 Clouds 23 1018 78 10000 3.1 150 11:55 14.06.2020
1379 Clouds 23 1018 78 10000 3.1 150 11:36 14.06.2020
1380 Clouds 24 1017 69 10000 4.1 130 11:18 14.06.2020
1381 Clouds 24 1017 69 10000 4.1 130 10:40 14.06.2020
1382 Clouds 24 1017 69 10000 5.1 120 10:19 14.06.2020
1383 Clouds 24 1017 69 10000 5.1 120 09:44 14.06.2020
1384 Clouds 24 1017 69 10000 5.1 120 09:24 14.06.2020
1385 Clouds 23 1017 74 0 7.46 99 08:44 14.06.2020
1386 Clouds 25 1016 61 10000 6.2 120 08:22 14.06.2020
1387 Clouds 25 1016 61 10000 6.2 120 07:56 14.06.2020
1388 Clouds 25 1016 61 10000 6.2 120 07:35 14.06.2020
1389 Clouds 25 1015 65 10000 6.2 120 06:59 14.06.2020
1390 Clouds 26 1016 61 10000 6.2 120 05:56 14.06.2020
1391 Clouds 26 1016 61 10000 6.2 120 05:34 14.06.2020
1392 Clouds 26 1015 57 10000 6.2 120 04:41 14.06.2020
1393 Clouds 27 1016 57 10000 6.2 120 03:55 14.06.2020
1394 Clouds 25 1016 66 0 8.22 115 02:43 14.06.2020
1395 Clouds 25 1017 69 10000 5.1 130 02:23 14.06.2020
1396 Clouds 25 1017 69 10000 5.1 130 01:30 14.06.2020
1397 Clouds 25 1018 69 10000 5.1 130 00:49 14.06.2020
1398 Clouds 25 1018 69 10000 5.1 130 00:21 14.06.2020
1399 Clouds 24 1018 78 10000 4.6 130 23:46 13.06.2020
1400 Clouds 24 1018 78 10000 4.6 130 23:26 13.06.2020
1401 Clouds 24 1018 78 10000 4.1 130 22:59 13.06.2020
1402 Clouds 24 1018 78 10000 4.1 130 22:38 13.06.2020
1403 Clouds 24 1018 78 10000 4.1 130 22:19 13.06.2020
1404 Clouds 24 1017 78 10000 4.1 130 21:57 13.06.2020
1405 Clouds 24 1017 78 10000 4.1 130 21:39 13.06.2020
1406 Clouds 24 1017 78 10000 4.1 130 21:21 13.06.2020
1407 Clouds 23 1018 78 0 6.83 115 20:44 13.06.2020
1408 Rain 23 1016 83 10000 5.7 110 20:21 13.06.2020
1409 Rain 23 1016 83 10000 5.7 110 19:59 13.06.2020
1410 Rain 23 1016 83 10000 5.7 110 19:38 13.06.2020
1411 Rain 23 1016 83 10000 5.7 110 19:19 13.06.2020
1412 Clouds 24 1016 73 10000 4.6 130 18:57 13.06.2020
1413 Clouds 24 1016 73 10000 4.6 130 18:57 13.06.2020
1414 Clouds 24 1016 73 10000 4.6 130 18:38 13.06.2020
1415 Clouds 24 1016 73 10000 4.6 130 18:19 13.06.2020
1416 Clouds 24 1016 73 10000 4.1 120 17:55 13.06.2020
1417 Clouds 24 1016 73 10000 4.1 120 17:55 13.06.2020
1418 Clouds 24 1016 73 10000 4.1 120 17:36 13.06.2020
1419 Clouds 24 1016 73 10000 4.1 120 17:18 13.06.2020
1420 Clouds 23 1017 83 10000 4.6 130 16:41 13.06.2020
1421 Clouds 23 1017 83 10000 4.6 130 16:19 13.06.2020
1422 Clouds 23 1017 83 10000 4.1 120 15:59 13.06.2020
1423 Clouds 23 1017 83 10000 4.1 120 15:39 13.06.2020
1424 Clouds 23 1017 83 10000 4.1 120 15:20 13.06.2020
1425 Rain 23 1017 82 0 7.74 115 14:43 13.06.2020
1426 Clouds 24 1018 78 10000 3.6 100 14:22 13.06.2020
1427 Clouds 24 1018 78 10000 3.6 100 13:56 13.06.2020
1428 Clouds 24 1018 78 10000 3.6 100 13:37 13.06.2020
1429 Clouds 24 1018 73 10000 5.1 140 13:18 13.06.2020
1430 Clouds 24 1018 73 10000 5.1 140 12:42 13.06.2020
1431 Clouds 24 1018 73 10000 5.1 140 12:24 13.06.2020
1432 Clouds 25 1019 69 10000 5.1 140 11:55 13.06.2020
1433 Clouds 25 1019 69 10000 5.1 140 11:37 13.06.2020
1434 Clouds 25 1018 69 10000 6.2 140 11:18 13.06.2020
1435 Clouds 25 1018 69 10000 6.2 140 10:42 13.06.2020
1436 Clouds 25 1018 69 10000 6.2 140 10:23 13.06.2020
1437 Clouds 25 1017 69 10000 5.1 130 09:55 13.06.2020
1438 Clouds 25 1017 69 10000 5.1 130 09:36 13.06.2020
1439 Rain 23 1017 83 0 7.91 115 09:18 13.06.2020
1440 Rain 23 1017 83 0 7.91 115 08:44 13.06.2020
1441 Clouds 25 1016 69 10000 5.1 120 08:26 13.06.2020
1442 Clouds 25 1016 69 10000 5.1 120 07:44 13.06.2020
1443 Clouds 25 1016 69 10000 5.1 120 07:25 13.06.2020
1444 Clouds 26 1015 65 10000 4.1 120 06:44 13.06.2020
1445 Clouds 26 1015 65 10000 4.1 120 06:25 13.06.2020
1446 Clouds 26 1016 69 10000 5.1 120 05:29 13.06.2020
1447 Clouds 27 1015 65 10000 6.7 130 04:38 13.06.2020
1448 Clouds 26 1016 69 10000 7.7 110 03:43 13.06.2020
1449 Rain 24 1016 75 0 7.05 108 02:45 13.06.2020
1450 Clouds 27 1018 65 10000 5.1 120 01:49 13.06.2020
1451 Clouds 27 1018 65 10000 5.1 120 01:23 13.06.2020
1452 Clouds 26 1018 65 10000 4.1 110 00:54 13.06.2020
1453 Clouds 26 1018 65 10000 4.1 110 00:27 13.06.2020
1454 Rain 26 1018 61 10000 4.6 110 23:58 12.06.2020
1455 Rain 26 1018 61 10000 4.6 110 23:38 12.06.2020
1456 Clouds 24 1018 69 10000 3.6 110 23:18 12.06.2020
1457 Clouds 24 1018 69 10000 3.6 110 22:43 12.06.2020
1458 Clouds 24 1018 69 10000 3.6 110 22:19 12.06.2020
1459 Rain 23 1017 78 10000 3.6 130 21:59 12.06.2020
1460 Rain 23 1017 78 10000 3.6 130 21:40 12.06.2020
1461 Rain 23 1017 78 10000 3.6 130 21:21 12.06.2020
1462 Rain 22 1017 81 0 5.53 98 20:56 12.06.2020
1463 Clouds 20 1016 94 10000 1.5 320 20:37 12.06.2020
1464 Clouds 20 1016 94 10000 1.5 320 20:19 12.06.2020
1465 Clouds 20 1016 94 10000 1.5 320 19:39 12.06.2020
1466 Clouds 20 1016 94 10000 1.5 320 19:21 12.06.2020
1467 Clouds 22 1016 78 10000 2.1 110 18:56 12.06.2020
1468 Clouds 22 1016 78 10000 2.1 110 18:36 12.06.2020
1469 Clouds 23 1016 69 10000 2.6 120 18:18 12.06.2020
1470 Clouds 23 1016 69 10000 2.6 120 17:40 12.06.2020
1471 Clouds 23 1016 69 10000 2.6 120 17:40 12.06.2020
1472 Clouds 23 1016 69 10000 2.6 120 17:21 12.06.2020
1473 Clouds 23 1017 69 10000 2.6 120 16:45 12.06.2020
1474 Clouds 23 1017 83 10000 2.6 100 16:21 12.06.2020
1475 Clouds 23 1017 83 10000 2.6 100 15:49 12.06.2020
1476 Clouds 23 1017 83 10000 2.6 100 15:28 12.06.2020
1477 Clouds 22 1017 81 0 6.29 102 14:58 12.06.2020
1478 Clouds 23 1018 73 10000 2.6 120 14:39 12.06.2020
1479 Clouds 23 1018 73 10000 2.6 120 14:21 12.06.2020
1480 Clouds 23 1018 73 10000 2.6 120 13:43 12.06.2020
1481 Clouds 23 1018 73 10000 2.6 120 13:22 12.06.2020
1482 Clouds 23 1017 73 10000 2.1 130 12:55 12.06.2020
1483 Clouds 23 1017 73 10000 2.1 130 12:37 12.06.2020
1484 Clouds 24 1017 69 10000 3.6 120 12:18 12.06.2020
1485 Clouds 24 1017 69 10000 3.6 120 11:42 12.06.2020
1486 Clouds 24 1017 69 10000 3.6 120 11:23 12.06.2020
1487 Clouds 24 1017 69 10000 3.1 120 10:49 12.06.2020
1488 Clouds 24 1017 69 10000 3.1 120 10:26 12.06.2020
1489 Clouds 24 1017 69 10000 4.6 120 09:58 12.06.2020
1490 Clouds 24 1017 69 10000 4.6 120 09:38 12.06.2020
1491 Clouds 23 1016 83 0 7.22 119 09:18 12.06.2020
1492 Clouds 23 1016 83 0 7.22 119 08:41 12.06.2020
1493 Clouds 25 1016 69 10000 3.1 130 08:22 12.06.2020
1494 Clouds 25 1016 69 10000 3.1 130 07:40 12.06.2020
1495 Clouds 25 1016 69 10000 3.1 130 07:22 12.06.2020
1496 Clouds 25 1015 69 10000 4.1 130 06:40 12.06.2020
1497 Clouds 25 1015 69 10000 4.1 130 06:19 12.06.2020
1498 Clouds 25 1015 69 10000 4.6 130 05:49 12.06.2020
1499 Clouds 25 1015 69 10000 4.6 130 05:23 12.06.2020
1500 Rain 25 1016 73 10000 4.6 130 03:47 12.06.2020
1501 Clouds 26 1017 69 10000 5.7 130 02:24 12.06.2020
1502 Clouds 26 1017 69 10000 5.7 130 01:33 12.06.2020
1503 Clouds 26 1017 69 10000 5.1 130 00:57 12.06.2020
1504 Clouds 26 1017 69 10000 5.1 130 00:38 12.06.2020
1505 Clouds 26 1017 69 10000 5.1 130 00:19 12.06.2020
1506 Clouds 25 1018 73 10000 3.6 130 23:56 11.06.2020
1507 Clouds 25 1018 73 10000 3.6 130 23:36 11.06.2020
1508 Clouds 24 1017 78 10000 5.1 140 23:18 11.06.2020
1509 Clouds 24 1017 78 10000 5.1 140 22:40 11.06.2020
1510 Clouds 24 1017 78 10000 5.1 140 22:21 11.06.2020
1511 Clouds 24 1016 78 10000 4.1 130 21:57 11.06.2020
1512 Clouds 24 1016 78 10000 4.1 130 21:38 11.06.2020
1513 Clouds 24 1016 78 10000 4.1 130 21:20 11.06.2020
1514 Rain 23 1016 83 0 6.84 117 20:45 11.06.2020
1515 Clouds 24 1015 78 10000 4.6 140 20:22 11.06.2020
1516 Clouds 24 1015 78 10000 4.6 140 19:58 11.06.2020
1517 Clouds 23 1015 83 10000 3.1 120 19:40 11.06.2020
1518 Clouds 23 1015 83 10000 3.1 120 19:22 11.06.2020
1519 Clouds 23 1015 83 0 6.78 121 18:42 11.06.2020
1520 Clouds 24 1015 78 10000 4.6 130 18:24 11.06.2020
1521 Clouds 24 1015 78 10000 4.6 130 17:57 11.06.2020
1522 Clouds 24 1015 78 10000 4.1 130 17:38 11.06.2020
1523 Clouds 24 1015 78 10000 4.1 130 17:20 11.06.2020
1524 Clouds 24 1015 78 10000 4.1 130 16:57 11.06.2020
1525 Clouds 23 1015 88 10000 4.1 130 16:38 11.06.2020
1526 Clouds 23 1015 88 10000 4.1 130 16:20 11.06.2020
1527 Clouds 23 1015 88 10000 4.1 130 15:43 11.06.2020
1528 Rain 23 1015 83 0 6.79 122 15:25 11.06.2020
1529 Rain 23 1015 83 0 6.79 122 14:59 11.06.2020
1530 Clouds 25 1016 73 10000 4.1 130 14:39 11.06.2020
1531 Clouds 25 1016 73 10000 4.1 130 14:39 11.06.2020
1532 Clouds 25 1016 73 10000 4.1 130 14:20 11.06.2020
1533 Clouds 25 1016 73 10000 4.1 130 13:55 11.06.2020
1534 Clouds 25 1016 73 10000 4.1 130 13:37 11.06.2020
1535 Clouds 25 1016 73 10000 4.1 130 13:18 11.06.2020
1536 Clouds 24 1016 83 10000 4.1 130 12:54 11.06.2020
1537 Clouds 24 1015 83 10000 4.6 140 12:36 11.06.2020
1538 Clouds 24 1015 83 10000 4.6 140 12:18 11.06.2020
1539 Clouds 24 1015 83 10000 4.6 140 11:56 11.06.2020
1540 Clouds 24 1015 83 10000 5.7 130 11:37 11.06.2020
1541 Clouds 24 1015 83 10000 5.7 130 11:18 11.06.2020
1542 Clouds 24 1015 83 10000 5.7 130 10:42 11.06.2020
1543 Clouds 24 1015 83 10000 4.6 140 10:20 11.06.2020
1544 Clouds 24 1015 83 10000 4.6 140 09:45 11.06.2020
1545 Clouds 24 1015 83 10000 4.6 140 09:45 11.06.2020
1546 Rain 23 1015 86 0 7.35 121 09:26 11.06.2020
1547 Rain 23 1015 86 0 7.35 121 08:55 11.06.2020
1548 Clouds 24 1014 88 10000 4.6 130 08:37 11.06.2020
1549 Clouds 24 1014 88 10000 4.6 130 08:18 11.06.2020
1550 Clouds 24 1014 88 10000 4.6 130 07:41 11.06.2020
1551 Clouds 24 1014 88 10000 4.6 130 07:23 11.06.2020
1552 Clouds 24 1013 94 10000 3.1 110 06:33 11.06.2020
1553 Clouds 24 1013 94 10000 3.1 110 06:33 11.06.2020
1554 Clouds 25 1013 83 10000 5.1 120 05:57 11.06.2020
1555 Rain 24 1014 78 0 6.35 115 04:41 11.06.2020
1556 Clouds 24 1015 82 0 6.05 114 03:25 11.06.2020
1557 Clouds 24 1015 82 0 6.05 114 02:46 11.06.2020
1558 Clouds 27 1016 65 10000 6.2 130 01:56 11.06.2020
1559 Clouds 26 1016 74 10000 5.7 130 01:35 11.06.2020
1560 Clouds 26 1016 74 10000 5.7 130 00:56 11.06.2020
1561 Clouds 26 1016 74 10000 5.1 140 00:38 11.06.2020
1562 Clouds 26 1016 74 10000 5.1 140 00:18 11.06.2020
1563 Clouds 25 1015 78 10000 3.6 140 23:39 10.06.2020
1564 Clouds 25 1015 78 10000 3.6 140 23:21 10.06.2020
1565 Rain 24 1016 85 0 7.09 123 22:40 10.06.2020
1566 Clouds 25 1015 78 10000 4.6 130 22:22 10.06.2020
1567 Clouds 25 1015 78 10000 4.6 130 21:59 10.06.2020
1568 Rain 24 1015 86 0 6.82 122 21:41 10.06.2020
1569 Rain 24 1015 85 0 6.55 123 21:19 10.06.2020
1570 Rain 24 1015 85 0 6.55 123 20:58 10.06.2020
1571 Rain 24 1015 85 0 6.55 123 20:40 10.06.2020
1572 Clouds 24 1014 88 10000 3.6 150 20:21 10.06.2020
1573 Clouds 24 1014 88 10000 3.6 150 19:58 10.06.2020
1574 Clouds 24 1014 88 10000 3.6 150 19:37 10.06.2020
1575 Clouds 23 1014 94 10000 1 0 19:18 10.06.2020
1576 Clouds 23 1014 94 10000 1 0 18:42 10.06.2020
1577 Rain 23 1014 100 10000 2.1 200 18:20 10.06.2020
1578 Rain 23 1014 100 10000 2.1 200 17:58 10.06.2020
1579 Rain 24 1014 94 10000 2.6 150 17:40 10.06.2020
1580 Rain 24 1014 94 10000 2.6 150 17:20 10.06.2020
1581 Rain 24 1014 94 10000 2.6 150 16:58 10.06.2020
1582 Clouds 25 1015 83 10000 3.1 150 16:39 10.06.2020
1583 Clouds 25 1015 83 10000 3.1 150 16:39 10.06.2020
1584 Clouds 25 1015 83 10000 3.1 150 16:20 10.06.2020
1585 Clouds 25 1015 83 10000 3.1 150 16:20 10.06.2020
1586 Clouds 25 1015 83 10000 3.1 150 15:55 10.06.2020
1587 Rain 24 1014 85 0 6.04 127 15:36 10.06.2020
1588 Rain 24 1014 85 0 5.81 125 15:18 10.06.2020
1589 Clouds 25 1015 88 10000 3.1 140 14:40 10.06.2020
1590 Clouds 25 1015 88 10000 3.1 140 14:21 10.06.2020
1591 Clouds 25 1015 88 10000 3.1 140 13:43 10.06.2020
1592 Clouds 25 1015 88 10000 3.1 140 13:22 10.06.2020
1593 Clouds 26 1015 83 10000 2.1 140 12:55 10.06.2020
1594 Clouds 26 1015 83 10000 2.1 140 12:55 10.06.2020
1595 Clouds 26 1015 83 10000 2.1 140 12:37 10.06.2020
1596 Clouds 26 1015 83 10000 2.1 140 12:18 10.06.2020
1597 Rain 24 1015 86 0 6.24 121 11:42 10.06.2020
1598 Rain 24 1015 87 0 6.15 118 11:20 10.06.2020
1599 Rain 24 1015 87 0 6.15 118 10:58 10.06.2020
1600 Clouds 26 1014 88 10000 2.6 130 10:40 10.06.2020
1601 Clouds 26 1014 88 10000 2.6 130 10:21 10.06.2020
1602 Rain 24 1014 87 0 5.5 117 09:43 10.06.2020
1603 Rain 24 1014 87 0 5.5 117 09:43 10.06.2020
1604 Clouds 23 1013 88 0 5.28 135 09:24 10.06.2020
1605 Clouds 23 1013 88 0 5.28 135 08:57 10.06.2020
1606 Clouds 27 1013 83 10000 3.1 140 08:39 10.06.2020
1607 Clouds 27 1013 83 10000 3.1 140 08:20 10.06.2020
1608 Clouds 27 1013 83 10000 3.1 140 07:39 10.06.2020
1609 Clouds 27 1013 83 10000 3.1 140 07:39 10.06.2020
1610 Clouds 27 1013 83 10000 3.1 140 07:21 10.06.2020
1611 Rain 23 1013 91 0 5.73 139 06:46 10.06.2020
1612 Clouds 28 1012 74 10000 4.1 130 06:24 10.06.2020
1613 Clouds 28 1012 74 10000 4.1 130 05:58 10.06.2020
1614 Clouds 29 1013 74 10000 4.1 120 05:26 10.06.2020
1615 Clouds 28 1014 74 10000 4.1 120 04:36 10.06.2020
1616 Rain 24 1014 91 0 6.99 132 02:57 10.06.2020
1617 Clouds 27 1015 78 10000 4.6 120 02:22 10.06.2020
1618 Clouds 27 1016 78 10000 4.1 110 01:37 10.06.2020
1619 Clouds 27 1016 78 10000 4.1 110 00:40 10.06.2020
1620 Clouds 27 1016 78 10000 4.1 110 00:22 10.06.2020
1621 Clouds 26 1016 88 10000 1 0 23:57 09.06.2020
1622 Clouds 24 1015 94 10000 5.91 113 23:38 09.06.2020
1623 Clouds 24 1015 94 10000 5.84 107 23:20 09.06.2020
1624 Clouds 24 1015 94 10000 5.84 107 22:56 09.06.2020
1625 Clouds 24 1014 94 10000 5.84 107 22:37 09.06.2020
1626 Clouds 24 1014 94 10000 6.03 108 22:19 09.06.2020
1627 Clouds 24 1014 94 10000 6.03 108 21:56 09.06.2020
1628 Rain 24 1015 88 0 6.03 108 21:38 09.06.2020
1629 Clouds 24 1014 86 0 6.14 116 21:19 09.06.2020
1630 Clouds 24 1014 86 0 6.14 116 20:56 09.06.2020
1631 Rain 24 1014 94 10000 3.1 140 20:38 09.06.2020
1632 Rain 24 1014 94 10000 3.1 140 20:18 09.06.2020
1633 Rain 24 1014 94 10000 3.1 140 19:56 09.06.2020
1634 Clouds 24 1014 94 10000 2.1 190 19:38 09.06.2020
1635 Clouds 24 1014 94 10000 2.1 190 19:19 09.06.2020
1636 Rain 24 1013 87 0 6.05 116 18:45 09.06.2020
1637 Clouds 24 1014 94 10000 3.1 160 18:26 09.06.2020
1638 Clouds 24 1014 94 10000 3.1 160 17:58 09.06.2020
1639 Rain 24 1013 88 0 6.1 112 17:40 09.06.2020
1640 Rain 25 1015 94 10000 3.1 130 17:22 09.06.2020
1641 Rain 25 1015 94 10000 3.1 130 16:57 09.06.2020
1642 Rain 24 1015 100 10000 3.1 140 16:39 09.06.2020
1643 Rain 24 1015 100 10000 3.1 140 16:20 09.06.2020
1644 Rain 24 1014 89 0 5.78 107 15:40 09.06.2020
1645 Rain 25 1014 89 0 5.73 109 15:22 09.06.2020
1646 Rain 25 1014 89 0 5.73 109 15:22 09.06.2020
1647 Rain 25 1014 89 0 5.73 109 14:57 09.06.2020
1648 Clouds 26 1014 88 10000 4.1 120 14:39 09.06.2020
1649 Clouds 26 1014 88 10000 4.1 120 14:39 09.06.2020
1650 Clouds 26 1014 88 10000 4.1 120 14:19 09.06.2020
1651 Clouds 26 1014 88 10000 4.1 120 13:54 09.06.2020
1652 Clouds 26 1014 88 10000 4.1 120 13:36 09.06.2020
1653 Clouds 26 1014 88 10000 3.6 110 13:18 09.06.2020
1654 Rain 25 1014 89 0 5.58 112 12:42 09.06.2020
1655 Clouds 26 1014 88 10000 3.6 120 12:20 09.06.2020
1656 Clouds 26 1014 88 10000 3.6 120 11:56 09.06.2020
1657 Clouds 25 1014 94 10000 4.1 120 11:38 09.06.2020
1658 Clouds 25 1014 94 10000 4.1 120 11:38 09.06.2020
1659 Clouds 25 1014 94 10000 4.1 120 11:20 09.06.2020
1660 Clouds 25 1014 94 10000 4.1 120 10:54 09.06.2020
1661 Rain 25 1013 94 10000 5.7 110 10:36 09.06.2020
1662 Rain 25 1013 94 10000 5.7 110 10:18 09.06.2020
1663 Rain 25 1013 94 10000 5.7 110 09:40 09.06.2020
1664 Rain 25 1014 90 0 5.91 107 09:19 09.06.2020
1665 Rain 25 1013 94 10000 3.1 130 08:40 09.06.2020
1666 Rain 25 1013 94 10000 3.1 130 08:21 09.06.2020
1667 Rain 25 1013 90 0 5.81 106 07:43 09.06.2020
1668 Clouds 26 1013 88 10000 5.1 110 07:23 09.06.2020
1669 Clouds 26 1013 88 10000 5.1 110 06:56 09.06.2020
1670 Clouds 27 1013 88 10000 5.1 110 06:36 09.06.2020
1671 Clouds 27 1013 88 10000 5.1 110 05:48 09.06.2020
1672 Clouds 28 1014 78 10000 5.1 110 03:55 09.06.2020
1673 Clouds 28 1016 83 10000 5.1 100 02:22 09.06.2020
1674 Clouds 28 1016 83 10000 5.1 100 01:37 09.06.2020
1675 Clouds 26 1016 94 10000 4.6 100 01:18 09.06.2020
1676 Clouds 26 1016 94 10000 4.6 100 00:42 09.06.2020
1677 Clouds 26 1016 94 10000 4.6 100 00:19 09.06.2020
1678 Rain 25 1017 89 0 5.28 90 23:42 08.06.2020
1679 Rain 25 1016 94 10000 4.6 100 23:21 08.06.2020
1680 Rain 25 1016 94 10000 4.6 100 22:58 08.06.2020
1681 Clouds 25 1016 94 10000 3.6 120 22:38 08.06.2020
1682 Clouds 25 1016 94 10000 3.6 120 22:20 08.06.2020
1683 Clouds 25 1016 94 10000 3.6 120 21:55 08.06.2020
1684 Rain 25 1017 90 0 5.39 97 21:37 08.06.2020
1685 Rain 25 1015 90 0 5.3 102 21:18 08.06.2020
1686 Rain 25 1015 90 0 5.3 102 20:54 08.06.2020
1687 Clouds 25 1015 94 10000 3.6 110 20:36 08.06.2020
1688 Clouds 25 1015 94 10000 3.6 110 20:18 08.06.2020
1689 Clouds 25 1015 94 10000 3.6 110 20:18 08.06.2020
1690 Clouds 25 1015 94 10000 3.6 110 19:43 08.06.2020
1691 Clouds 25 1015 94 10000 3.6 110 19:21 08.06.2020
1692 Rain 25 1014 91 0 5.26 101 18:43 08.06.2020
1693 Rain 25 1015 94 10000 3.1 120 18:21 08.06.2020
1694 Rain 25 1015 94 10000 3.1 120 17:57 08.06.2020
1695 Rain 25 1015 94 10000 4.6 120 17:39 08.06.2020
1696 Rain 25 1015 94 10000 4.6 120 17:39 08.06.2020
1697 Rain 25 1015 94 10000 4.6 120 17:21 08.06.2020
1698 Rain 25 1015 94 10000 4.6 120 16:58 08.06.2020
1699 Rain 25 1016 94 10000 5.7 120 16:39 08.06.2020
1700 Rain 25 1016 94 10000 5.7 120 16:21 08.06.2020
1701 Rain 25 1016 94 10000 5.7 120 15:42 08.06.2020
1702 Rain 25 1015 90 0 5.83 95 15:21 08.06.2020
1703 Rain 25 1015 90 0 5.83 95 14:57 08.06.2020
1704 Rain 25 1016 94 10000 4.1 120 14:38 08.06.2020
1705 Rain 25 1016 94 10000 4.1 120 14:18 08.06.2020
1706 Rain 25 1015 90 0 5.46 96 13:42 08.06.2020
1707 Rain 25 1016 94 10000 4.6 120 13:21 08.06.2020
1708 Rain 25 1016 90 0 5.67 99 12:42 08.06.2020
1709 Rain 24 1016 100 10000 2.1 10 12:20 08.06.2020
1710 Rain 24 1016 100 10000 2.1 10 12:20 08.06.2020
1711 Rain 24 1016 100 10000 2.1 10 11:58 08.06.2020
1712 Rain 24 1016 100 10000 4.1 50 11:39 08.06.2020
1713 Rain 24 1016 100 10000 4.1 50 11:20 08.06.2020
1714 Rain 24 1016 100 10000 4.1 50 10:56 08.06.2020
1715 Clouds 25 1015 94 10000 1.5 160 10:37 08.06.2020
1716 Clouds 25 1015 94 10000 1.5 160 10:19 08.06.2020
1717 Clouds 25 1015 94 10000 1.5 160 09:46 08.06.2020
1718 Rain 25 1015 89 0 4.03 108 09:23 08.06.2020
1719 Rain 25 1014 91 0 3.9 102 08:50 08.06.2020
1720 Clouds 26 1014 88 10000 4.6 110 08:24 08.06.2020
1721 Clouds 26 1014 88 10000 4.6 110 07:56 08.06.2020
1722 Clouds 26 1014 88 10000 4.6 110 07:56 08.06.2020
1723 Clouds 26 1014 88 10000 4.6 110 07:56 08.06.2020
1724 Clouds 26 1014 88 10000 4.6 110 07:38 08.06.2020
1725 Clouds 26 1014 88 10000 4.6 110 07:19 08.06.2020
1726 Clouds 27 1014 78 10000 3.6 110 06:39 08.06.2020
1727 Clouds 28 1013 74 10000 5.1 120 05:55 08.06.2020
1728 Clouds 27 1013 78 10000 4.6 100 04:59 08.06.2020
1729 Rain 26 1013 87 0 3.94 101 03:24 08.06.2020
1730 Rain 26 1013 87 0 3.94 101 03:24 08.06.2020
1731 Clouds 27 1015 88 10000 1.5 10 02:26 08.06.2020
1732 Rain 26 1015 83 10000 4.6 60 01:42 08.06.2020
1733 Rain 26 1015 83 10000 4.6 60 00:57 08.06.2020
1734 Clouds 27 1015 88 10000 2.6 90 00:24 08.06.2020
1735 Clouds 25 1015 94 10000 2.73 79 23:38 07.06.2020
1736 Clouds 25 1015 94 10000 2.58 78 23:19 07.06.2020
1737 Clouds 25 1015 94 10000 2.58 78 22:57 07.06.2020
1738 Clouds 24 1014 100 10000 2.58 78 22:37 07.06.2020
1739 Clouds 24 1014 100 10000 2.92 69 22:18 07.06.2020
1740 Clouds 24 1014 100 10000 2.92 69 21:57 07.06.2020
1741 Clouds 24 1014 89 0 3.13 80 21:36 07.06.2020
1742 Clouds 24 1014 89 0 3.13 80 21:18 07.06.2020
1743 Clouds 24 1013 100 10000 3.97 82 20:39 07.06.2020
1744 Clouds 24 1013 100 10000 3.56 85 20:20 07.06.2020
1745 Clouds 24 1013 100 10000 3.56 85 19:57 07.06.2020
1746 Clouds 24 1013 100 10000 3.56 85 19:38 07.06.2020
1747 Drizzle 25 1013 94 10000 3.63 90 19:19 07.06.2020
1748 Drizzle 25 1013 94 10000 3.63 90 18:56 07.06.2020
1749 Drizzle 25 1013 94 10000 3.63 90 18:38 07.06.2020
1750 Drizzle 25 1013 94 10000 3.74 91 18:19 07.06.2020
1751 Drizzle 25 1013 94 10000 3.74 91 17:56 07.06.2020
1752 Clouds 24 1013 100 10000 3.64 93 17:37 07.06.2020
1753 Clouds 24 1013 100 10000 3.74 91 17:19 07.06.2020
1754 Clouds 24 1013 100 10000 3.74 91 16:42 07.06.2020
1755 Clouds 24 1013 100 10000 3.56 90 16:21 07.06.2020
1756 Clouds 24 1013 100 10000 3.56 90 15:40 07.06.2020
1757 Clouds 25 1013 89 0 3.58 86 15:21 07.06.2020
1758 Clouds 25 1013 89 0 3.58 86 14:41 07.06.2020
1759 Clouds 25 1013 89 0 3.58 86 14:41 07.06.2020
1760 Clouds 25 1013 89 0 3.58 86 14:41 07.06.2020
1761 Clouds 25 1013 89 0 3.58 86 14:41 07.06.2020
1762 Clouds 25 1013 89 0 3.58 86 14:40 07.06.2020
1763 Clouds 24 1014 100 10000 3.23 82 14:22 07.06.2020
1764 Clouds 24 1014 100 10000 3.23 82 13:48 07.06.2020
1765 Clouds 25 1014 94 10000 3.15 79 13:21 07.06.2020
1766 Clouds 25 1014 94 10000 3.15 79 12:56 07.06.2020
1767 Clouds 25 1014 94 10000 3.15 79 12:37 07.06.2020
1768 Clouds 25 1014 94 10000 3.37 82 12:18 07.06.2020
1769 Clouds 25 1014 94 10000 3.37 82 11:55 07.06.2020
1770 Clouds 25 1013 94 10000 3.37 82 11:36 07.06.2020
1771 Clouds 25 1013 94 10000 3.47 84 11:18 07.06.2020
1772 Rain 25 1014 89 0 3.47 84 10:43 07.06.2020
1773 Clouds 25 1013 94 10000 3.43 80 10:20 07.06.2020
1774 Clouds 25 1013 94 10000 3.43 80 09:57 07.06.2020
1775 Clouds 25 1013 89 0 3.43 80 09:39 07.06.2020
1776 Clouds 25 1012 89 0 3.9 84 09:20 07.06.2020
1777 Rain 25 1012 88 0 4.24 73 08:48 07.06.2020
1778 Clouds 26 1012 88 10000 3.1 70 08:24 07.06.2020
1779 Clouds 26 1012 88 10000 3.1 70 07:57 07.06.2020
1780 Clouds 26 1012 88 10000 3.1 70 07:32 07.06.2020
1781 Clouds 27 1011 83 10000 3.6 90 06:51 07.06.2020
1782 Clouds 27 1011 78 10000 4.1 90 05:52 07.06.2020
1783 Rain 26 1011 86 0 4.12 55 04:21 07.06.2020
1784 Rain 27 1011 85 0 3.81 62 02:57 07.06.2020
1785 Clouds 26 1014 94 10000 2.6 140 01:58 07.06.2020
1786 Clouds 26 1014 88 10000 1.5 160 01:25 07.06.2020
1787 Clouds 26 1014 88 10000 1.5 160 00:47 07.06.2020
1788 Clouds 25 1014 94 10000 1.5 260 00:19 07.06.2020
1789 Clouds 25 1014 94 10000 1.5 260 23:58 06.06.2020
1790 Clouds 24 1013 94 10000 1 0 23:37 06.06.2020
1791 Clouds 24 1013 94 10000 1 0 23:19 06.06.2020
1792 Clouds 24 1013 94 10000 1 0 22:56 06.06.2020
1793 Clouds 23 1012 100 10000 1 0 22:38 06.06.2020
1794 Clouds 23 1012 100 10000 1 0 22:18 06.06.2020
1795 Clouds 23 1012 100 10000 1 0 21:44 06.06.2020
1796 Rain 25 1011 86 0 0.72 332 21:22 06.06.2020
1797 Rain 25 1011 86 0 0.72 332 20:57 06.06.2020
1798 Clouds 23 1011 94 10000 1 0 20:38 06.06.2020
1799 Clouds 23 1011 94 10000 1 0 20:18 06.06.2020
1800 Clouds 23 1011 94 10000 1 0 19:56 06.06.2020
1801 Clouds 23 1011 94 10000 1 0 19:37 06.06.2020
1802 Clouds 23 1011 94 10000 1 0 19:37 06.06.2020
1803 Clouds 23 1011 94 10000 1 0 19:19 06.06.2020
1804 Rain 24 1010 88 0 1.62 328 18:43 06.06.2020
1805 Clouds 23 1011 100 10000 2.1 330 18:24 06.06.2020
1806 Clouds 23 1011 100 10000 2.1 330 17:58 06.06.2020
1807 Rain 24 1010 89 0 1.68 327 17:39 06.06.2020
1808 Clouds 23 1011 100 10000 2.1 330 17:18 06.06.2020
1809 Clouds 23 1011 100 10000 2.1 330 16:41 06.06.2020
1810 Clouds 23 1011 100 10000 2.6 320 16:22 06.06.2020
1811 Clouds 23 1011 100 10000 2.6 320 15:56 06.06.2020
1812 Rain 25 1010 89 0 2.01 22 15:37 06.06.2020
1813 Rain 25 1010 90 0 1.84 42 15:18 06.06.2020
1814 Rain 25 1010 90 0 1.84 42 14:40 06.06.2020
1815 Clouds 24 1011 94 10000 0.59 358 14:22 06.06.2020
1816 Clouds 24 1011 94 10000 0.59 358 13:55 06.06.2020
1817 Clouds 24 1011 94 10000 0.59 358 13:37 06.06.2020
1818 Clouds 24 1011 100 10000 0.89 19 13:18 06.06.2020
1819 Rain 25 1011 89 0 0.89 19 12:42 06.06.2020
1820 Rain 24 1012 100 10000 1.6 28 12:23 06.06.2020
1821 Rain 24 1012 100 10000 1.6 28 11:58 06.06.2020
1822 Rain 25 1011 88 0 1.6 28 11:38 06.06.2020
1823 Clouds 24 1012 94 10000 2.31 28 11:20 06.06.2020
1824 Clouds 24 1012 94 10000 2.31 28 10:57 06.06.2020
1825 Clouds 25 1011 88 0 2.31 28 10:39 06.06.2020
1826 Rain 24 1011 94 10000 2.75 29 10:20 06.06.2020
1827 Rain 24 1011 94 10000 2.75 29 09:45 06.06.2020
1828 Clouds 25 1010 88 0 2.91 39 09:27 06.06.2020
1829 Clouds 25 1010 88 0 2.91 39 08:56 06.06.2020
1830 Clouds 25 1010 88 0 2.91 39 08:38 06.06.2020
1831 Clouds 25 1009 87 0 3.56 42 08:19 06.06.2020
1832 Clouds 25 1009 87 0 3.56 42 08:19 06.06.2020
1833 Clouds 25 1009 87 0 3.56 42 07:45 06.06.2020
1834 Clouds 26 1009 83 0 3.27 43 07:21 06.06.2020
1835 Clouds 26 1009 83 0 3.27 43 06:46 06.06.2020
1836 Clouds 25 1009 100 10000 1.5 240 06:27 06.06.2020
1837 Clouds 25 1009 100 10000 1.5 240 05:52 06.06.2020
1838 Rain 27 1009 77 0 3.56 47 05:26 06.06.2020
1839 Rain 27 1009 77 0 3.56 47 04:38 06.06.2020
1840 Clouds 28 1010 83 10000 2.6 190 02:36 06.06.2020
1841 Clouds 28 1010 83 10000 2.6 190 01:42 06.06.2020
1842 Clouds 28 1010 83 10000 2.6 190 01:18 06.06.2020
1843 Clouds 26 1010 84 0 2.1 44 00:41 06.06.2020
1844 Clouds 26 1009 94 10000 3.1 210 00:23 06.06.2020
1845 Clouds 26 1009 94 10000 3.1 210 23:40 05.06.2020
1846 Clouds 25 1009 94 10000 2.01 26 23:21 05.06.2020
1847 Clouds 25 1009 94 10000 2.01 26 22:59 05.06.2020
1848 Clouds 25 1009 94 10000 2.01 26 22:41 05.06.2020
1849 Clouds 24 1010 94 10000 2.52 19 22:23 05.06.2020
1850 Clouds 24 1010 94 10000 2.52 19 21:57 05.06.2020
1851 Clouds 24 1010 94 10000 2.52 19 21:39 05.06.2020
1852 Rain 24 1011 90 0 2.27 2 21:19 05.06.2020
1853 Rain 24 1011 90 0 2.27 2 20:47 05.06.2020
1854 Clouds 24 1011 94 10000 2.28 9 20:23 05.06.2020
1855 Clouds 24 1011 94 10000 2.28 9 19:59 05.06.2020
1856 Rain 24 1011 90 0 2.28 9 19:39 05.06.2020
1857 Clouds 24 1011 94 10000 2.26 16 19:21 05.06.2020
1858 Clouds 24 1011 94 10000 2.26 16 18:40 05.06.2020
1859 Clouds 24 1011 94 10000 2.42 18 18:21 05.06.2020
1860 Clouds 24 1011 94 10000 2.42 18 18:21 05.06.2020
1861 Clouds 24 1011 94 10000 2.1 320 17:59 05.06.2020
1862 Clouds 24 1011 94 10000 2.1 320 17:41 05.06.2020
1863 Clouds 24 1012 94 10000 2.1 330 17:21 05.06.2020
1864 Clouds 24 1012 94 10000 2.1 330 16:57 05.06.2020
1865 Clouds 24 1013 94 10000 2.1 330 16:37 05.06.2020
1866 Clouds 24 1013 94 10000 2.1 330 16:19 05.06.2020
1867 Clouds 24 1013 94 10000 2.1 330 16:19 05.06.2020
1868 Rain 24 1011 91 0 2.71 18 15:39 05.06.2020
1869 Clouds 24 1011 90 0 2.84 26 15:20 05.06.2020
1870 Clouds 24 1011 90 0 2.84 26 14:57 05.06.2020
1871 Clouds 24 1011 90 0 2.84 26 14:39 05.06.2020
1872 Clouds 25 1013 94 10000 2.63 34 14:21 05.06.2020
1873 Clouds 25 1013 94 10000 2.63 34 13:46 05.06.2020
1874 Clouds 25 1013 88 10000 1.5 340 13:27 05.06.2020
1875 Clouds 25 1013 88 10000 1.5 340 12:56 05.06.2020
1876 Clouds 26 1012 88 10000 2.6 60 12:37 05.06.2020
1877 Clouds 26 1012 88 10000 2.6 60 12:18 05.06.2020
1878 Clouds 26 1012 88 10000 2.6 60 11:42 05.06.2020
1879 Clouds 25 1012 88 10000 3.13 42 11:23 05.06.2020
1880 Clouds 25 1012 88 10000 3.13 42 10:57 05.06.2020
1881 Clouds 25 1013 88 0 3.13 42 10:39 05.06.2020
1882 Clouds 26 1011 88 10000 1 70 10:19 05.06.2020
1883 Clouds 26 1011 88 10000 1 70 09:56 05.06.2020
1884 Clouds 25 1012 87 0 3.45 47 09:37 05.06.2020
1885 Clouds 25 1011 87 0 3.78 59 09:18 05.06.2020
1886 Clouds 25 1011 87 0 3.78 59 08:56 05.06.2020
1887 Clouds 27 1010 83 10000 3.6 90 08:38 05.06.2020
1888 Clouds 27 1010 83 10000 3.6 90 08:18 05.06.2020
1889 Clouds 27 1010 83 10000 3.6 90 07:44 05.06.2020
1890 Clouds 27 1010 83 10000 3.6 90 07:25 05.06.2020
1891 Clouds 28 1010 78 10000 3.6 80 06:36 05.06.2020
1892 Clouds 29 1011 70 10000 4.6 70 05:22 05.06.2020
1893 Clouds 29 1012 74 10000 5.1 70 04:27 05.06.2020
1894 Clouds 27 1011 78 0 5.48 61 03:29 05.06.2020
1895 Clouds 29 1013 74 10000 6.2 80 02:26 05.06.2020
1896 Clouds 29 1013 74 10000 6.2 80 01:57 05.06.2020
1897 Clouds 29 1014 74 10000 5.1 80 01:30 05.06.2020
1898 Clouds 29 1014 74 10000 5.1 80 00:43 05.06.2020
1899 Clouds 29 1014 74 10000 5.1 80 00:21 05.06.2020
1900 Clouds 28 1014 83 10000 2.1 90 23:47 04.06.2020
1901 Clouds 25 1013 100 10000 5.68 69 23:28 04.06.2020
1902 Clouds 25 1013 100 10000 5.68 69 22:56 04.06.2020
1903 Clouds 23 1012 100 10000 5.68 69 22:37 04.06.2020
1904 Clouds 23 1012 100 10000 5.01 68 22:18 04.06.2020
1905 Clouds 23 1012 100 10000 5.01 68 21:56 04.06.2020
1906 Clouds 25 1013 88 0 5.01 68 21:37 04.06.2020
1907 Clouds 25 1012 88 0 4.68 66 21:19 04.06.2020
1908 Clouds 25 1012 87 0 4.45 59 20:54 04.06.2020
1909 Clouds 23 1012 100 10000 4.45 59 20:36 04.06.2020
1910 Clouds 23 1012 100 10000 4.95 59 20:18 04.06.2020
1911 Clouds 23 1012 100 10000 4.95 59 19:39 04.06.2020
1912 Clouds 23 1012 100 10000 4.95 59 19:39 04.06.2020
1913 Clouds 23 1012 100 10000 5.05 59 19:21 04.06.2020
1914 Clouds 24 1012 94 10000 5.05 59 18:56 04.06.2020
1915 Clouds 24 1012 94 10000 5.05 59 18:38 04.06.2020
1916 Clouds 24 1012 94 10000 5.05 59 18:38 04.06.2020
1917 Clouds 24 1012 94 10000 4.92 60 18:19 04.06.2020
1918 Clouds 24 1013 94 10000 4.92 60 17:42 04.06.2020
1919 Clouds 24 1013 100 10000 4.93 61 17:21 04.06.2020
1920 Clouds 24 1013 100 10000 4.93 61 16:56 04.06.2020
1921 Clouds 25 1012 88 0 4.93 61 16:38 04.06.2020
1922 Clouds 25 1013 94 10000 4.91 61 16:18 04.06.2020
1923 Clouds 25 1013 94 10000 4.91 61 15:42 04.06.2020
1924 Clouds 25 1013 87 0 4.94 63 15:24 04.06.2020
1925 Clouds 26 1014 88 10000 1.5 80 14:39 04.06.2020
1926 Clouds 26 1014 88 10000 1.5 80 14:20 04.06.2020
1927 Clouds 26 1014 88 10000 1.5 80 13:56 04.06.2020
1928 Clouds 26 1014 88 10000 1.5 80 13:56 04.06.2020
1929 Clouds 26 1014 88 10000 1.5 80 13:38 04.06.2020
1930 Clouds 26 1014 88 10000 1.5 80 13:19 04.06.2020
1931 Clouds 26 1015 88 10000 1 90 12:55 04.06.2020
1932 Clouds 26 1015 88 10000 2.1 100 12:36 04.06.2020
1933 Clouds 26 1015 88 10000 2.1 100 12:18 04.06.2020
1934 Clouds 25 1014 87 0 5.22 76 11:40 04.06.2020
1935 Clouds 25 1014 94 10000 3.6 90 11:20 04.06.2020
1936 Clouds 25 1014 94 10000 3.6 90 11:20 04.06.2020
1937 Clouds 25 1014 94 10000 3.6 90 10:59 04.06.2020
1938 Clouds 25 1014 86 0 5.83 78 10:38 04.06.2020
1939 Clouds 26 1014 88 10000 2.6 100 10:38 04.06.2020
1940 Clouds 26 1014 88 10000 2.6 100 10:20 04.06.2020
1941 Clouds 26 1014 88 10000 2.6 100 09:46 04.06.2020
1942 Rain 25 1014 87 0 6.6 82 09:28 04.06.2020
1943 Rain 25 1013 88 0 6.13 80 08:50 04.06.2020
1944 Clouds 27 1013 83 10000 4.6 100 08:30 04.06.2020
1945 Clouds 27 1013 83 10000 4.6 100 07:59 04.06.2020
1946 Clouds 27 1013 83 10000 4.6 100 07:30 04.06.2020
1947 Clouds 27 1012 94 10000 2.6 110 06:45 04.06.2020
1948 Clouds 27 1012 94 10000 2.6 110 06:26 04.06.2020
1949 Rain 26 1012 88 0 5.59 83 05:39 04.06.2020
1950 Clouds 28 1013 78 10000 5.7 100 05:20 04.06.2020
1951 Rain 27 1012 83 0 6.14 79 03:31 04.06.2020
1952 Clouds 29 1015 74 10000 7.7 80 01:58 04.06.2020
1953 Clouds 29 1015 74 10000 7.7 80 01:20 04.06.2020
1954 Clouds 28 1016 78 10000 6.7 80 00:50 04.06.2020
1955 Clouds 29 1016 74 10000 5.1 80 23:56 03.06.2020
1956 Clouds 27 1015 83 10000 2.6 90 23:36 03.06.2020
1957 Clouds 27 1015 83 10000 2.6 90 23:18 03.06.2020
1958 Clouds 26 1015 85 0 5.99 75 22:40 03.06.2020
1959 Clouds 26 1014 88 10000 2.6 100 22:19 03.06.2020
1960 Clouds 26 1014 88 10000 2.6 100 21:58 03.06.2020
1961 Clouds 26 1015 87 0 5.67 77 21:40 03.06.2020
1962 Clouds 25 1014 87 0 5.57 79 21:21 03.06.2020
1963 Clouds 25 1014 86 0 5.68 78 21:21 03.06.2020
1964 Clouds 25 1014 87 0 5.57 79 20:57 03.06.2020
1965 Clouds 25 1014 87 0 5.57 79 20:38 03.06.2020
1966 Clouds 26 1014 88 10000 2.6 100 20:20 03.06.2020
1967 Clouds 26 1014 88 10000 2.6 100 19:56 03.06.2020
1968 Clouds 25 1013 94 10000 2.6 90 19:37 03.06.2020
1969 Clouds 25 1013 94 10000 2.6 90 19:19 03.06.2020
1970 Clouds 25 1013 94 10000 2.6 90 18:54 03.06.2020
1971 Clouds 25 1013 94 10000 2.6 90 18:36 03.06.2020
1972 Clouds 25 1013 94 10000 2.6 90 18:18 03.06.2020
1973 Clouds 26 1014 88 10000 3.1 90 17:41 03.06.2020
1974 Clouds 26 1014 88 10000 3.1 90 17:21 03.06.2020
1975 Clouds 26 1014 88 10000 3.1 90 16:55 03.06.2020
1976 Clouds 26 1015 88 10000 1.5 100 16:37 03.06.2020
1977 Clouds 26 1015 88 10000 1.5 100 16:18 03.06.2020
1978 Clouds 26 1015 88 10000 1.5 100 15:41 03.06.2020
1979 Rain 25 1014 87 0 5.93 86 15:21 03.06.2020
1980 Rain 25 1014 87 0 5.93 86 14:48 03.06.2020
1981 Clouds 26 1015 88 10000 3.6 100 14:26 03.06.2020
1982 Clouds 26 1015 88 10000 3.6 100 13:59 03.06.2020
1983 Rain 25 1016 94 10000 5.96 86 13:38 03.06.2020
1984 Rain 25 1016 94 10000 5.9 85 13:18 03.06.2020
1985 Rain 25 1014 88 0 5.9 85 12:43 03.06.2020
1986 Rain 26 1015 94 10000 4.1 110 12:21 03.06.2020
1987 Rain 26 1015 94 10000 4.1 110 11:46 03.06.2020
1988 Clouds 26 1015 94 10000 2.6 100 11:27 03.06.2020
1989 Clouds 26 1015 94 10000 2.6 100 10:57 03.06.2020
1990 Clouds 26 1015 94 10000 2.6 100 10:39 03.06.2020
1991 Clouds 26 1014 94 10000 3.1 110 10:20 03.06.2020
1992 Clouds 26 1014 94 10000 3.1 110 09:44 03.06.2020
1993 Rain 25 1014 89 0 5.91 81 09:20 03.06.2020
1994 Rain 25 1014 89 0 5.91 81 09:20 03.06.2020
1995 Rain 25 1014 89 0 5.91 81 08:48 03.06.2020
1996 Clouds 27 1013 83 10000 4.6 100 08:25 03.06.2020
1997 Clouds 27 1013 83 10000 4.6 100 07:59 03.06.2020
1998 Clouds 27 1013 83 10000 4.6 100 07:40 03.06.2020
1999 Clouds 27 1013 88 10000 5.1 100 07:19 03.06.2020
2000 Clouds 27 1013 88 10000 5.1 100 06:48 03.06.2020
2001 Clouds 27 1013 88 10000 5.1 100 06:29 03.06.2020
2002 Rain 27 1013 83 10000 6.2 100 05:46 03.06.2020
2003 Clouds 28 1014 83 10000 4.1 100 04:33 03.06.2020
2004 Clouds 28 1014 83 10000 4.1 100 03:42 03.06.2020
2005 Rain 26 1013 87 0 6.47 83 02:46 03.06.2020
2006 Clouds 27 1016 88 10000 2.6 100 01:47 03.06.2020
2007 Rain 26 1015 87 0 6.19 83 00:41 03.06.2020
2008 Clouds 27 1017 83 10000 5.1 110 00:22 03.06.2020
2009 Clouds 27 1017 83 10000 5.1 110 23:49 02.06.2020
2010 Clouds 26 1016 94 10000 4.6 80 23:27 02.06.2020
2011 Clouds 26 1016 94 10000 4.6 80 22:56 02.06.2020
2012 Clouds 26 1015 88 10000 2.1 110 22:37 02.06.2020
2013 Clouds 26 1015 88 10000 2.1 110 22:18 02.06.2020
2014 Clouds 26 1015 88 10000 2.1 110 21:55 02.06.2020
2015 Rain 26 1016 88 0 4.67 82 21:36 02.06.2020
2016 Rain 25 1015 89 0 5.12 92 21:18 02.06.2020
2017 Rain 25 1015 89 0 5.12 92 21:18 02.06.2020
2018 Rain 25 1015 89 0 5.12 92 20:42 02.06.2020
2019 Clouds 25 1014 94 10000 2.1 100 20:24 02.06.2020
2020 Clouds 25 1014 94 10000 2.1 100 19:59 02.06.2020
2021 Clouds 25 1014 94 10000 2.1 100 19:40 02.06.2020
2022 Clouds 25 1014 94 10000 2.1 100 19:22 02.06.2020
2023 Clouds 25 1014 94 10000 5.1 96 18:56 02.06.2020
2024 Clouds 25 1015 94 10000 1.5 120 18:37 02.06.2020
2025 Clouds 25 1015 94 10000 1.5 120 18:19 02.06.2020
2026 Clouds 25 1015 94 10000 1.5 120 17:42 02.06.2020
2027 Rain 25 1015 100 10000 3.1 90 17:23 02.06.2020
2028 Rain 25 1015 100 10000 3.1 90 16:57 02.06.2020
2029 Rain 25 1014 88 0 5.12 98 16:38 02.06.2020
2030 Clouds 26 1015 88 10000 5.02 99 16:20 02.06.2020
2031 Clouds 26 1015 88 10000 5.02 99 15:46 02.06.2020
2032 Rain 25 1015 88 0 5.03 98 15:24 02.06.2020
2033 Rain 25 1015 88 0 5.03 98 14:56 02.06.2020
2034 Clouds 26 1016 88 10000 3.1 100 14:37 02.06.2020
2035 Clouds 26 1016 88 10000 3.1 100 14:19 02.06.2020
2036 Rain 25 1015 87 0 4.84 92 13:39 02.06.2020
2037 Clouds 26 1016 88 10000 2.6 110 13:19 02.06.2020
2038 Clouds 26 1016 88 10000 2.6 110 12:58 02.06.2020
2039 Rain 25 1015 88 0 5.19 94 12:40 02.06.2020
2040 Clouds 26 1016 88 10000 3.1 110 12:21 02.06.2020
2041 Clouds 26 1016 88 10000 3.1 110 11:56 02.06.2020
2042 Clouds 26 1016 88 10000 3.1 110 11:38 02.06.2020
2043 Clouds 26 1016 88 10000 3.1 110 11:20 02.06.2020
2044 Clouds 26 1016 88 10000 3.1 110 10:47 02.06.2020
2045 Clouds 26 1015 88 10000 4.1 120 10:28 02.06.2020
2046 Clouds 26 1015 88 10000 4.1 120 09:56 02.06.2020
2047 Clouds 26 1015 88 10000 4.1 120 09:56 02.06.2020
2048 Clear 25 1015 89 0 4.48 111 09:37 02.06.2020
2049 Clear 25 1014 88 0 3.81 115 09:19 02.06.2020
2050 Clear 25 1014 88 0 3.81 115 08:47 02.06.2020
2051 Clouds 27 1014 83 10000 3.1 120 08:20 02.06.2020
2052 Clear 25 1014 88 0 3.37 108 07:46 02.06.2020
2053 Clear 25 1014 88 0 3.37 108 07:46 02.06.2020
2054 Clouds 26 1014 88 10000 2.6 120 07:25 02.06.2020
2055 Clouds 26 1014 88 10000 2.6 120 06:43 02.06.2020
2056 Clouds 28 1014 78 10000 4.1 100 05:57 02.06.2020
2057 Clouds 27 1014 83 10000 5.1 110 04:58 02.06.2020
2058 Rain 27 1014 81 0 3.58 93 03:21 02.06.2020
2059 Rain 27 1015 82 0 3.79 88 02:25 02.06.2020
2060 Rain 27 1016 85 0 3.83 115 01:21 02.06.2020
2061 Clouds 28 1017 83 10000 3.1 110 00:25 02.06.2020
2062 Clouds 28 1017 83 10000 3.1 110 23:55 01.06.2020
2063 Clouds 28 1017 83 10000 3.1 110 23:36 01.06.2020
2064 Clouds 28 1017 83 10000 3.1 110 23:18 01.06.2020
2065 Clouds 25 1017 100 10000 4.7 128 22:41 01.06.2020
2066 Clouds 25 1017 100 10000 4.47 127 22:20 01.06.2020
2067 Clouds 24 1016 100 10000 4.47 127 21:57 01.06.2020
2068 Clouds 24 1016 100 10000 4.47 127 21:37 01.06.2020
2069 Clouds 24 1016 100 10000 3.6 132 21:18 01.06.2020
2070 Rain 23 1016 100 10000 3.6 132 20:55 01.06.2020
2071 Clouds 23 1016 100 10000 3.6 132 20:36 01.06.2020
2072 Clouds 23 1016 100 10000 3.54 131 20:18 01.06.2020
2073 Clouds 23 1016 100 10000 3.54 131 19:43 01.06.2020
2074 Clouds 23 1016 100 10000 3.35 137 19:21 01.06.2020
2075 Clouds 23 1016 100 0 3.35 137 18:59 01.06.2020
2076 Clouds 23 1016 100 0 3.35 137 18:59 01.06.2020
2077 Clouds 23 1016 100 0 3.35 137 18:39 01.06.2020
2078 Clouds 23 1016 100 0 3.3 137 18:19 01.06.2020
2079 Clouds 23 1010 100 10000 1.5 310 17:55 01.06.2020
2080 Clouds 23 1010 100 10000 1.5 310 17:36 01.06.2020
2081 Clouds 23 1010 100 10000 1.5 310 17:18 01.06.2020
2082 Clouds 23 1016 100 10000 1.5 310 16:39 01.06.2020
2083 Clouds 23 1016 100 10000 1.5 310 16:20 01.06.2020
2084 Clouds 24 1016 100 10000 2.54 131 15:55 01.06.2020
2085 Clouds 24 1016 100 10000 2.54 131 15:37 01.06.2020
2086 Clouds 24 1016 100 10000 2.2 128 15:18 01.06.2020
2087 Rain 24 1017 100 10000 2.2 128 14:56 01.06.2020
2088 Rain 24 1017 100 10000 2.2 128 14:37 01.06.2020
2089 Rain 24 1017 100 10000 2.42 101 14:18 01.06.2020
2090 Rain 25 1017 94 10000 2.42 101 13:42 01.06.2020
2091 Rain 25 1017 94 10000 2.76 99 13:21 01.06.2020
2092 Rain 24 1018 100 10000 2.76 99 12:58 01.06.2020
2093 Rain 24 1018 100 10000 2.76 99 12:40 01.06.2020
2094 Rain 24 1018 100 10000 2.51 101 12:21 01.06.2020
2095 Clouds 24 1017 100 10000 2.51 101 11:57 01.06.2020
2096 Clouds 24 1017 100 10000 2.51 101 11:37 01.06.2020
2097 Clouds 24 1017 100 10000 2.34 105 11:18 01.06.2020
2098 Rain 24 1017 94 10000 2.34 105 10:54 01.06.2020
2099 Rain 24 1017 94 10000 2.34 105 10:36 01.06.2020
2100 Clouds 25 1017 94 10000 1.5 270 10:18 01.06.2020
2101 Clouds 25 1017 94 10000 1.5 270 09:43 01.06.2020
2102 Clouds 25 1017 94 10000 1.5 270 09:24 01.06.2020
2103 Clouds 25 1016 87 0 3.22 71 08:54 01.06.2020
2104 Clouds 26 1015 88 10000 2.6 150 08:31 01.06.2020
2105 Clouds 26 1015 88 10000 2.6 150 07:57 01.06.2020
2106 Clouds 26 1015 88 10000 2.6 150 07:38 01.06.2020
2107 Clouds 26 1015 88 10000 2.6 150 07:20 01.06.2020
2108 Clouds 28 1015 78 10000 3.1 150 06:49 01.06.2020
2109 Clouds 28 1015 78 10000 3.6 60 05:54 01.06.2020
2110 Clouds 30 1015 70 10000 4.1 90 04:50 01.06.2020
2111 Clouds 28 1016 78 10000 2.6 110 03:50 01.06.2020
2112 Clouds 28 1016 78 10000 2.6 110 03:32 01.06.2020
2113 Clouds 28 1017 74 10000 4.6 90 02:32 01.06.2020
2114 Clouds 28 1017 74 10000 4.6 90 01:35 01.06.2020
2115 Clouds 27 1018 78 10000 4.6 90 00:58 01.06.2020
2116 Clouds 27 1018 78 10000 4.6 90 00:40 01.06.2020
2117 Clouds 27 1018 78 10000 4.6 90 00:21 01.06.2020
2118 Clouds 27 1018 78 10000 4.6 90 00:21 01.06.2020
2119 Clouds 27 1017 83 10000 4.47 89 23:57 31.05.2020
2120 Clouds 27 1017 83 10000 4.47 89 23:38 31.05.2020
2121 Clouds 27 1017 83 10000 4.75 85 23:20 31.05.2020
2122 Clouds 24 1017 94 10000 4.75 85 22:45 31.05.2020
2123 Clouds 24 1017 94 10000 4.88 86 22:27 31.05.2020
2124 Clouds 23 1017 94 10000 1.5 270 21:59 31.05.2020
2125 Clouds 23 1017 94 10000 1.5 270 21:41 31.05.2020
2126 Clouds 23 1017 94 10000 1.5 270 21:23 31.05.2020
2127 Clouds 24 1017 91 0 4.91 91 20:57 31.05.2020
2128 Clouds 24 1017 91 0 4.91 91 20:57 31.05.2020
2129 Clouds 23 1016 94 10000 1 0 20:38 31.05.2020
2130 Clouds 23 1016 94 10000 1 0 20:19 31.05.2020
2131 Clouds 23 1016 94 10000 1 0 19:55 31.05.2020
2132 Clouds 23 1016 94 10000 1 0 19:36 31.05.2020
2133 Clouds 23 1016 94 10000 1 0 19:18 31.05.2020
2134 Clouds 24 1016 94 10000 3.1 90 18:43 31.05.2020
2135 Clouds 24 1016 94 10000 3.1 90 18:25 31.05.2020
2136 Clouds 24 1016 88 10000 3.1 90 17:46 31.05.2020
2137 Clouds 24 1016 88 10000 3.1 90 17:25 31.05.2020
2138 Rain 23 1017 95 0 5.24 117 16:59 31.05.2020
2139 Rain 23 1017 95 0 5.24 117 16:40 31.05.2020
2140 Clouds 23 1018 100 10000 1.5 160 16:19 31.05.2020
2141 Clouds 23 1018 100 10000 1.5 160 15:39 31.05.2020
2142 Clouds 23 1018 100 10000 1.5 160 15:21 31.05.2020
2143 Rain 22 1017 96 0 2.34 148 14:47 31.05.2020
2144 Rain 23 1018 96 0 1.25 158 14:22 31.05.2020
2145 Rain 23 1018 96 0 1.81 144 13:57 31.05.2020
2146 Rain 23 1018 96 0 1.81 144 13:38 31.05.2020
2147 Rain 23 1019 93 0 1.8 113 13:20 31.05.2020
2148 Rain 23 1019 93 0 1.8 113 12:57 31.05.2020
2149 Rain 23 1019 93 0 1.8 113 12:38 31.05.2020
2150 Rain 24 1019 91 0 2.32 90 12:19 31.05.2020
2151 Rain 24 1019 91 0 2.32 90 12:19 31.05.2020
2152 Rain 24 1019 91 0 2.32 90 11:48 31.05.2020
2153 Rain 23 1019 100 8000 1.5 50 11:23 31.05.2020
2154 Rain 23 1019 100 8000 1.5 50 10:57 31.05.2020
2155 Rain 23 1019 100 8000 1.5 50 10:39 31.05.2020
2156 Rain 22 1017 100 10000 3.6 280 10:19 31.05.2020
2157 Rain 22 1017 100 10000 3.6 280 09:42 31.05.2020
2158 Rain 22 1017 100 10000 3.6 280 09:23 31.05.2020
2159 Rain 23 1018 94 5000 2.1 350 08:58 31.05.2020
2160 Rain 23 1017 94 10000 3.1 310 08:37 31.05.2020
2161 Rain 23 1017 94 10000 3.1 310 08:19 31.05.2020
2162 Thunderstorm 27 1017 88 10000 3.5 78 07:43 31.05.2020
2163 Thunderstorm 27 1017 88 10000 3.63 71 07:21 31.05.2020
2164 Rain 27 1016 88 10000 2.1 100 06:54 31.05.2020
2165 Rain 27 1016 88 10000 2.1 100 06:31 31.05.2020
2166 Clouds 28 1015 78 10000 2.6 60 05:44 31.05.2020
2167 Clouds 28 1015 78 10000 4.6 60 04:29 31.05.2020
2168 Clouds 28 1015 83 10000 5.7 70 03:48 31.05.2020
2169 Clouds 28 1016 83 10000 6.2 80 02:59 31.05.2020
2170 Clouds 28 1017 88 10000 6.2 80 01:49 31.05.2020
2171 Clouds 28 1017 88 10000 6.2 80 01:27 31.05.2020
2172 Rain 27 1018 94 10000 3.1 70 00:30 31.05.2020
2173 Clouds 26 1017 94 10000 2.6 80 23:56 30.05.2020
2174 Clouds 26 1017 94 10000 2.6 80 23:38 30.05.2020
2175 Clouds 25 1017 100 10000 5.29 52 23:19 30.05.2020
2176 Clouds 25 1017 100 10000 5.29 52 22:41 30.05.2020
2177 Clouds 25 1017 100 10000 5.31 48 22:22 30.05.2020
2178 Clouds 25 1017 100 10000 5.31 48 22:22 30.05.2020
2179 Clouds 24 1016 100 10000 5.31 48 21:56 30.05.2020
2180 Clouds 24 1016 100 10000 5.31 48 21:37 30.05.2020
2181 Clouds 24 1016 100 10000 4.94 53 21:18 30.05.2020
2182 Rain 25 1016 89 0 4.6 70 20:56 30.05.2020
2183 Clouds 24 1015 100 10000 4.6 70 20:37 30.05.2020
2184 Clouds 24 1015 100 10000 4.8 67 20:19 30.05.2020
2185 Clouds 24 1015 100 10000 4.8 67 19:42 30.05.2020
2186 Clouds 24 1015 100 10000 4.81 67 19:21 30.05.2020
2187 Clouds 24 1015 100 10000 4.81 67 18:45 30.05.2020
2188 Clouds 24 1015 100 10000 4.88 69 18:22 30.05.2020
2189 Clouds 24 1015 100 10000 1 0 17:46 30.05.2020
2190 Clouds 24 1015 100 10000 1 0 17:46 30.05.2020
2191 Clouds 24 1015 100 10000 1 0 17:27 30.05.2020
2192 Rain 24 1016 100 10000 1 0 16:59 30.05.2020
2193 Rain 24 1016 100 10000 1 0 16:41 30.05.2020
2194 Rain 24 1016 100 10000 1 0 16:22 30.05.2020
2195 Clouds 24 1016 100 10000 4.19 73 15:48 30.05.2020
2196 Clouds 24 1016 100 10000 3.75 74 15:28 30.05.2020
2197 Rain 25 1016 91 0 3.75 74 14:46 30.05.2020
2198 Rain 24 1017 100 10000 1.5 330 14:27 30.05.2020
2199 Rain 24 1017 100 10000 1.5 330 13:46 30.05.2020
2200 Rain 24 1017 100 10000 1.5 330 13:27 30.05.2020
2201 Rain 25 1017 94 10000 3.71 81 12:55 30.05.2020
2202 Rain 25 1017 94 10000 3.71 81 12:36 30.05.2020
2203 Rain 25 1017 94 10000 3.93 84 12:18 30.05.2020
2204 Clouds 24 1017 100 10000 3.93 84 11:41 30.05.2020
2205 Clouds 24 1017 100 10000 4.14 86 11:23 30.05.2020
2206 Rain 24 1017 100 10000 4.14 86 10:56 30.05.2020
2207 Rain 24 1017 100 10000 4.14 86 10:56 30.05.2020
2208 Rain 24 1017 100 10000 4.14 86 10:38 30.05.2020
2209 Rain 24 1017 100 10000 4.22 89 10:20 30.05.2020
2210 Clouds 24 1016 94 10000 4.22 89 09:43 30.05.2020
2211 Clouds 24 1016 94 10000 4.56 90 09:25 30.05.2020
2212 Rain 25 1016 90 0 4.56 90 08:42 30.05.2020
2213 Clouds 25 1016 88 10000 1.5 120 08:22 30.05.2020
2214 Clouds 25 1016 88 10000 1.5 120 07:40 30.05.2020
2215 Clouds 25 1016 88 10000 1.5 120 07:19 30.05.2020
2216 Clouds 27 1016 78 10000 4.6 90 06:29 30.05.2020
2217 Clouds 28 1015 74 10000 3.6 110 05:51 30.05.2020
2218 Clouds 28 1015 74 10000 3.6 120 04:47 30.05.2020
2219 Clouds 28 1016 74 10000 3.1 120 02:41 30.05.2020
2220 Clouds 28 1016 74 10000 3.1 120 02:19 30.05.2020
2221 Clouds 26 1017 88 10000 1 0 00:45 30.05.2020
2222 Clouds 26 1017 88 10000 1 0 00:24 30.05.2020
2223 Clouds 24 1018 88 10000 1 350 23:59 29.05.2020
2224 Clouds 24 1018 88 10000 1 350 23:38 29.05.2020
2225 Clouds 24 1018 88 10000 1 350 23:38 29.05.2020
2226 Clouds 24 1018 88 10000 1 350 23:19 29.05.2020
2227 Clouds 23 1018 94 10000 1.5 330 22:54 29.05.2020
2228 Clouds 23 1018 94 10000 1.5 330 22:36 29.05.2020
2229 Clouds 23 1018 94 10000 1.5 330 22:18 29.05.2020
2230 Clouds 23 1018 94 10000 1.5 330 22:18 29.05.2020
2231 Rain 22 1017 94 10000 3.86 106 21:39 29.05.2020
2232 Rain 22 1017 94 10000 3.49 116 21:21 29.05.2020
2233 Clouds 21 1016 100 10000 3.49 116 20:57 29.05.2020
2234 Clouds 21 1016 100 10000 3.49 116 20:37 29.05.2020
2235 Clouds 21 1016 100 10000 3.49 116 20:37 29.05.2020
2236 Clouds 21 1016 100 10000 3.75 116 20:18 29.05.2020
2237 Clouds 21 1016 100 10000 3.75 116 19:42 29.05.2020
2238 Clouds 21 1016 100 10000 3.7 114 19:24 29.05.2020
2239 Clouds 22 1015 94 10000 3.7 114 18:48 29.05.2020
2240 Clouds 22 1015 94 10000 3.55 111 18:23 29.05.2020
2241 Rain 22 1015 94 10000 3.55 111 17:59 29.05.2020
2242 Rain 22 1015 94 10000 3.55 111 17:39 29.05.2020
2243 Rain 22 1015 94 10000 3.36 112 17:20 29.05.2020
2244 Clouds 21 1016 100 10000 3.36 112 16:46 29.05.2020
2245 Clouds 21 1016 100 10000 3.45 110 16:28 29.05.2020
2246 Clouds 20 1016 100 10000 3.45 110 15:59 29.05.2020
2247 Clouds 20 1016 100 10000 3.45 110 15:40 29.05.2020
2248 Clouds 20 1016 100 10000 3.45 114 15:21 29.05.2020
2249 Clouds 20 1016 100 10000 3.45 114 14:54 29.05.2020
2250 Clouds 20 1016 100 10000 3.22 111 14:36 29.05.2020
2251 Clouds 20 1016 100 10000 3.35 112 14:18 29.05.2020
2252 Clouds 21 1016 94 10000 3.35 112 13:41 29.05.2020
2253 Clouds 21 1016 94 10000 3.51 111 13:21 29.05.2020
2254 Clouds 21 1017 94 10000 3.51 111 12:46 29.05.2020
2255 Clouds 21 1017 94 10000 3.6 111 12:26 29.05.2020
2256 Clouds 21 1017 94 10000 3.6 111 12:26 29.05.2020
2257 Clouds 22 1017 88 10000 1 0 11:59 29.05.2020
2258 Clouds 22 1017 88 10000 1 0 11:41 29.05.2020
2259 Clouds 22 1017 88 10000 1 0 11:22 29.05.2020
2260 Clouds 23 1016 88 10000 3.65 115 10:43 29.05.2020
2261 Clouds 23 1016 88 10000 3.72 117 10:23 29.05.2020
2262 Clouds 24 1016 83 10000 1 0 09:56 29.05.2020
2263 Clouds 24 1016 83 10000 1 0 09:37 29.05.2020
2264 Clouds 25 1015 78 10000 1.5 160 09:18 29.05.2020
2265 Clouds 25 1015 78 10000 1.5 160 08:44 29.05.2020
2266 Clouds 25 1015 78 10000 1.5 160 08:22 29.05.2020
2267 Clouds 26 1015 74 10000 3.6 140 07:46 29.05.2020
2268 Clouds 26 1015 74 10000 3.6 140 07:28 29.05.2020
2269 Clouds 27 1015 69 10000 4.1 150 06:52 29.05.2020
2270 Clouds 27 1015 69 10000 4.1 150 06:30 29.05.2020
2271 Clouds 27 1014 69 10000 5.1 180 05:58 29.05.2020
2272 Clouds 27 1014 69 10000 3.1 150 04:53 29.05.2020
2273 Clouds 27 1017 69 10000 2.6 150 01:48 29.05.2020
2274 Clouds 27 1017 69 10000 2.6 150 01:25 29.05.2020
2275 Clouds 27 1017 74 10000 3.1 110 00:49 29.05.2020
2276 Clouds 27 1017 74 10000 3.1 110 00:23 29.05.2020
2277 Clouds 27 1017 78 10000 1.5 90 23:41 28.05.2020
2278 Clouds 27 1017 78 10000 1.5 90 23:19 28.05.2020
2279 Clouds 27 1017 78 10000 1.5 90 23:19 28.05.2020
2280 Clouds 23 1016 100 10000 3.01 138 22:59 28.05.2020
2281 Clouds 23 1016 100 10000 3.01 138 22:39 28.05.2020
2282 Clouds 23 1016 100 10000 2.51 133 22:18 28.05.2020
2283 Clouds 22 1016 100 10000 2.51 133 21:54 28.05.2020
2284 Clouds 22 1016 100 10000 2.52 140 21:36 28.05.2020
2285 Clouds 24 1016 80 0 2.52 147 21:18 28.05.2020
2286 Clouds 24 1016 80 0 2.52 147 20:40 28.05.2020
2287 Clouds 23 1015 94 10000 2.49 148 20:19 28.05.2020
2288 Clouds 23 1015 94 10000 2.49 148 19:58 28.05.2020
2289 Clouds 23 1015 94 10000 2.49 148 19:40 28.05.2020
2290 Clouds 23 1015 94 10000 2.64 148 19:20 28.05.2020
2291 Clouds 23 1015 94 10000 2.64 148 18:46 28.05.2020
2292 Clouds 23 1015 94 10000 2.66 145 18:27 28.05.2020
2293 Clouds 24 1015 88 10000 2.66 145 17:59 28.05.2020
2294 Clouds 24 1015 88 10000 2.66 145 17:39 28.05.2020
2295 Clouds 24 1015 88 10000 2.66 131 17:20 28.05.2020
2296 Clouds 24 1015 88 10000 2.66 131 16:46 28.05.2020
2297 Clouds 25 1016 83 10000 3.3 129 16:21 28.05.2020
2298 Clouds 25 1016 83 10000 3.3 129 15:54 28.05.2020
2299 Clouds 25 1016 83 10000 3.3 129 15:36 28.05.2020
2300 Clouds 25 1016 83 10000 4.05 132 15:18 28.05.2020
2301 Clouds 24 1016 85 0 4.05 132 14:41 28.05.2020
2302 Clouds 25 1016 83 10000 4.59 142 14:22 28.05.2020
2303 Clouds 25 1016 83 10000 4.04 139 13:46 28.05.2020
2304 Clouds 25 1016 83 10000 4.3 140 13:27 28.05.2020
2305 Clouds 25 1017 83 10000 4.3 140 12:44 28.05.2020
2306 Clouds 25 1017 83 10000 4.4 139 12:20 28.05.2020
2307 Clouds 24 1017 88 10000 2.1 120 11:57 28.05.2020
2308 Clouds 24 1017 88 10000 2.1 120 11:57 28.05.2020
2309 Clouds 24 1017 88 10000 2.1 120 11:39 28.05.2020
2310 Clouds 24 1017 88 10000 2.1 120 11:20 28.05.2020
2311 Clouds 24 1016 94 10000 4.41 141 10:43 28.05.2020
2312 Clouds 24 1016 94 10000 4.59 140 10:25 28.05.2020
2313 Clouds 24 1015 94 10000 4.59 140 09:56 28.05.2020
2314 Clouds 24 1015 94 10000 4.59 140 09:38 28.05.2020
2315 Clouds 24 1015 94 10000 5.02 138 09:18 28.05.2020
2316 Clouds 24 1015 84 0 4.97 140 08:43 28.05.2020
2317 Rain 24 1015 94 10000 2.1 140 08:22 28.05.2020
2318 Rain 24 1015 94 10000 2.1 140 07:41 28.05.2020
2319 Rain 24 1015 94 10000 2.1 140 07:23 28.05.2020
2320 Rain 25 1015 88 10000 3.6 120 06:44 28.05.2020
2321 Rain 25 1015 88 10000 3.6 120 06:26 28.05.2020
2322 Clouds 25 1015 94 10000 2.6 110 05:39 28.05.2020
2323 Clouds 27 1015 78 10000 3.6 150 04:37 28.05.2020
2324 Clouds 28 1015 69 10000 3.1 150 04:18 28.05.2020
2325 Clouds 27 1016 78 10000 2.6 170 02:55 28.05.2020
2326 Clouds 26 1017 83 10000 4.1 140 01:57 28.05.2020
2327 Clouds 26 1017 83 10000 4.1 140 01:35 28.05.2020
2328 Clouds 27 1018 78 10000 4.49 142 00:47 28.05.2020
2329 Clouds 27 1018 78 10000 4.14 137 00:19 28.05.2020
2330 Clouds 26 1017 78 10000 4.14 137 23:55 27.05.2020
2331 Clouds 26 1017 78 10000 4.14 137 23:36 27.05.2020
2332 Clouds 26 1017 78 10000 3.64 124 23:18 27.05.2020
2333 Clouds 24 1016 100 10000 3.64 124 22:41 27.05.2020
2334 Clouds 24 1016 100 10000 2.95 110 22:23 27.05.2020
2335 Clouds 25 1016 88 0 2.95 110 21:56 27.05.2020
2336 Clouds 25 1016 88 0 2.95 110 21:37 27.05.2020
2337 Clouds 24 1016 89 0 3.35 96 21:19 27.05.2020
2338 Clouds 24 1016 89 0 3.35 96 20:56 27.05.2020
2339 Rain 24 1015 94 10000 3.35 96 20:36 27.05.2020
2340 Rain 24 1015 94 10000 3.75 100 20:18 27.05.2020
2341 Rain 24 1015 94 10000 3.75 100 19:42 27.05.2020
2342 Rain 24 1015 94 10000 3.64 120 19:20 27.05.2020
2343 Rain 24 1015 94 10000 3.64 120 18:43 27.05.2020
2344 Rain 24 1015 94 10000 3.43 125 18:20 27.05.2020
2345 Rain 24 1016 94 10000 3.43 125 17:57 27.05.2020
2346 Rain 24 1016 94 10000 3.43 125 17:38 27.05.2020
2347 Rain 24 1016 94 10000 3.23 125 17:19 27.05.2020
2348 Clouds 25 1016 94 10000 3.23 125 16:55 27.05.2020
2349 Clouds 25 1016 94 10000 3.23 125 16:37 27.05.2020
2350 Clouds 25 1016 94 10000 3.15 121 16:18 27.05.2020
2351 Clouds 25 1016 94 10000 3.15 121 16:18 27.05.2020
2352 Clouds 25 1016 94 10000 3.15 121 15:46 27.05.2020
2353 Clouds 25 1016 94 10000 3.01 126 15:21 27.05.2020
2354 Clouds 24 1016 88 0 3.01 126 14:46 27.05.2020
2355 Clouds 26 1017 83 10000 3.34 122 14:22 27.05.2020
2356 Clouds 26 1017 83 10000 3.34 122 14:22 27.05.2020
2357 Clouds 26 1017 83 10000 3.34 122 13:58 27.05.2020
2358 Clouds 26 1017 83 10000 3.34 122 13:39 27.05.2020
2359 Clouds 26 1017 83 10000 3.25 116 13:20 27.05.2020
2360 Clouds 25 1017 88 10000 1 0 12:42 27.05.2020
2361 Clouds 25 1017 88 10000 1 0 12:23 27.05.2020
2362 Clouds 25 1017 88 10000 1 0 11:42 27.05.2020
2363 Clouds 25 1017 88 10000 1 0 11:24 27.05.2020
2364 Clouds 26 1016 83 10000 1 0 10:59 27.05.2020
2365 Clouds 26 1016 83 10000 1 0 10:41 27.05.2020
2366 Clouds 26 1016 83 10000 1 0 10:23 27.05.2020
2367 Clouds 25 1016 88 10000 1 0 09:55 27.05.2020
2368 Clouds 25 1016 88 10000 1 0 09:37 27.05.2020
2369 Clouds 25 1016 88 10000 1 0 09:18 27.05.2020
2370 Clear 24 1016 82 0 3.23 127 08:40 27.05.2020
2371 Clouds 26 1015 78 10000 3.1 130 08:22 27.05.2020
2372 Clouds 26 1015 78 10000 3.1 130 07:51 27.05.2020
2373 Clouds 26 1015 78 10000 3.1 130 07:33 27.05.2020
2374 Clouds 27 1014 74 10000 3.1 120 06:52 27.05.2020
2375 Clouds 27 1014 74 10000 3.1 120 06:24 27.05.2020
2376 Clouds 28 1014 69 10000 4.1 120 05:50 27.05.2020
2377 Clouds 28 1014 69 10000 4.1 120 05:23 27.05.2020
2378 Clouds 26 1015 70 0 3.01 110 02:42 27.05.2020
2379 Clouds 26 1016 68 0 2.61 87 02:18 27.05.2020
2380 Clouds 26 1017 69 0 2.82 78 01:31 27.05.2020
2381 Clouds 26 1017 69 0 2.82 78 00:47 27.05.2020
2382 Clouds 24 1017 88 10000 1.5 330 00:20 27.05.2020
2383 Clouds 24 1017 88 10000 1.5 330 00:20 27.05.2020
2384 Clouds 24 1017 88 10000 1.5 330 23:57 26.05.2020
2385 Clouds 24 1017 88 10000 1.5 330 23:38 26.05.2020
2386 Clouds 24 1017 88 10000 1.5 330 23:20 26.05.2020
2387 Clouds 22 1017 94 10000 3.35 72 22:41 26.05.2020
2388 Clouds 22 1017 94 10000 2.88 71 22:22 26.05.2020
2389 Clouds 21 1016 100 10000 2.88 71 21:59 26.05.2020
2390 Clouds 21 1016 100 10000 2.88 71 21:40 26.05.2020
2391 Clouds 21 1016 100 10000 2.88 71 21:40 26.05.2020
2392 Clouds 21 1016 100 10000 3.98 64 21:21 26.05.2020
2393 Clouds 23 1016 82 0 3.98 64 20:57 26.05.2020
2394 Clouds 21 1016 100 10000 3.98 64 20:39 26.05.2020
2395 Clouds 21 1016 100 10000 3.8 66 20:19 26.05.2020
2396 Clouds 21 1016 100 10000 3.8 66 19:40 26.05.2020
2397 Clouds 22 1015 100 10000 3.51 71 19:20 26.05.2020
2398 Clouds 22 1015 100 10000 3.51 71 18:57 26.05.2020
2399 Clouds 22 1015 100 10000 3.51 71 18:39 26.05.2020
2400 Clouds 22 1015 100 10000 3.7 73 18:20 26.05.2020
2401 Clouds 22 1016 100 10000 3.7 73 17:39 26.05.2020
2402 Clouds 22 1016 100 10000 4.15 75 17:20 26.05.2020
2403 Clear 23 1016 80 0 4.15 75 16:47 26.05.2020
2404 Clear 23 1016 80 0 4.11 79 16:22 26.05.2020
2405 Clear 23 1016 80 0 4.11 79 15:56 26.05.2020
2406 Clear 23 1016 80 0 4.11 79 15:38 26.05.2020
2407 Clear 23 1016 79 0 3.78 86 15:19 26.05.2020
2408 Clear 23 1016 79 0 3.78 86 15:19 26.05.2020
2409 Clear 23 1016 79 0 3.78 86 14:43 26.05.2020
2410 Clouds 25 1017 83 10000 3.95 86 14:24 26.05.2020
2411 Clouds 25 1017 83 10000 3.95 86 13:57 26.05.2020
2412 Clouds 25 1017 83 10000 3.95 86 13:38 26.05.2020
2413 Clouds 25 1017 83 10000 4.24 95 13:20 26.05.2020
2414 Clouds 25 1017 83 10000 4.24 95 12:43 26.05.2020
2415 Clouds 25 1017 83 10000 4.3 109 12:22 26.05.2020
2416 Clouds 25 1017 78 10000 2.1 140 11:59 26.05.2020
2417 Clouds 25 1017 78 10000 2.1 140 11:40 26.05.2020
2418 Clouds 25 1017 78 10000 2.1 140 11:19 26.05.2020
2419 Clouds 26 1016 74 10000 2.6 140 10:44 26.05.2020
2420 Clouds 26 1016 74 10000 2.6 140 10:19 26.05.2020
2421 Clouds 24 1017 79 0 4.79 122 09:41 26.05.2020
2422 Clouds 24 1016 80 0 4.65 125 09:20 26.05.2020
2423 Clouds 24 1016 80 0 4.65 125 08:44 26.05.2020
2424 Clouds 27 1015 65 10000 2.6 160 08:23 26.05.2020
2425 Clouds 27 1015 65 10000 2.6 160 07:59 26.05.2020
2426 Clouds 27 1015 65 10000 2.6 160 07:40 26.05.2020
2427 Clouds 27 1015 65 10000 2.6 160 07:40 26.05.2020
2428 Clouds 27 1015 65 10000 2.6 160 07:22 26.05.2020
2429 Clouds 27 1015 65 10000 2.6 150 06:47 26.05.2020
2430 Clouds 27 1015 65 10000 2.6 150 06:23 26.05.2020
2431 Clouds 27 1015 65 10000 3.6 150 05:35 26.05.2020
2432 Clouds 29 1015 58 10000 4.6 120 04:56 26.05.2020
2433 Clouds 29 1015 58 10000 4.6 120 04:37 26.05.2020
2434 Clouds 29 1015 58 10000 4.6 120 04:18 26.05.2020
2435 Clouds 26 1016 69 0 4.2 126 02:51 26.05.2020
2436 Clouds 29 1018 62 10000 5.1 120 01:49 26.05.2020
2437 Clouds 29 1018 62 10000 5.1 120 01:29 26.05.2020
2438 Clouds 27 1018 69 10000 3.6 140 00:39 26.05.2020
2439 Clouds 27 1018 69 10000 3.6 140 00:19 26.05.2020
2440 Clouds 26 1018 78 10000 3.78 106 23:56 25.05.2020
2441 Clouds 26 1018 78 10000 3.78 106 23:38 25.05.2020
2442 Clouds 23 1018 83 10000 3.54 103 23:19 25.05.2020
2443 Clouds 23 1018 83 10000 3.54 103 22:55 25.05.2020
2444 Clouds 23 1018 83 10000 3.54 103 22:36 25.05.2020
2445 Clouds 23 1018 83 10000 3.42 102 22:18 25.05.2020
2446 Clouds 23 1018 83 10000 3.42 102 22:18 25.05.2020
2447 Clouds 24 1018 80 0 3.42 102 22:18 25.05.2020
2448 Clouds 24 1018 80 0 3.42 102 21:55 25.05.2020
2449 Clouds 24 1018 80 0 3.42 102 21:36 25.05.2020
2450 Clouds 23 1017 81 0 3.26 104 21:18 25.05.2020
2451 Clouds 23 1017 81 0 2.97 104 20:42 25.05.2020
2452 Clouds 23 1017 81 0 2.97 104 20:42 25.05.2020
2453 Clouds 23 1016 88 10000 3.05 93 20:22 25.05.2020
2454 Clouds 23 1016 88 10000 3.05 93 20:22 25.05.2020
2455 Clouds 23 1016 88 10000 3.05 93 19:59 25.05.2020
2456 Clouds 23 1016 88 10000 3.05 93 19:40 25.05.2020
2457 Clouds 23 1016 88 10000 3.27 88 19:18 25.05.2020
2458 Clouds 23 1016 88 10000 3.27 88 18:55 25.05.2020
2459 Clouds 23 1016 88 10000 3.27 88 18:36 25.05.2020
2460 Clouds 23 1016 88 10000 3.18 92 18:18 25.05.2020
2461 Clouds 23 1016 88 10000 3.18 92 17:42 25.05.2020
2462 Clouds 23 1016 88 10000 2.73 96 17:23 25.05.2020
2463 Clouds 23 1017 88 10000 2.73 96 16:57 25.05.2020
2464 Clouds 23 1017 88 10000 2.73 96 16:39 25.05.2020
2465 Clouds 23 1017 88 10000 2.3 92 16:19 25.05.2020
2466 Clouds 23 1017 82 0 2.3 92 15:44 25.05.2020
2467 Clear 23 1016 83 0 2.09 81 15:20 25.05.2020
2468 Clear 23 1016 83 0 2.09 81 14:58 25.05.2020
2469 Clouds 24 1017 88 10000 2.29 62 14:38 25.05.2020
2470 Clouds 24 1017 88 10000 2.87 70 14:19 25.05.2020
2471 Clouds 24 1017 88 10000 2.87 70 13:40 25.05.2020
2472 Clouds 24 1017 88 10000 3.64 78 13:21 25.05.2020
2473 Clouds 25 1017 78 10000 3.64 78 12:58 25.05.2020
2474 Clouds 25 1017 78 10000 3.64 78 12:38 25.05.2020
2475 Clouds 25 1017 78 10000 4.18 81 12:20 25.05.2020
2476 Clouds 25 1017 78 10000 4.18 81 11:39 25.05.2020
2477 Clouds 25 1017 78 10000 4.51 86 11:20 25.05.2020
2478 Clouds 25 1017 78 10000 4.51 86 10:56 25.05.2020
2479 Clouds 25 1017 78 10000 4.51 86 10:56 25.05.2020
2480 Clouds 25 1017 78 10000 4.51 86 10:37 25.05.2020
2481 Clouds 25 1017 78 10000 4.88 96 10:19 25.05.2020
2482 Clouds 25 1017 78 10000 4.88 96 10:19 25.05.2020
2483 Clouds 24 1017 86 0 4.88 96 09:54 25.05.2020
2484 Clouds 24 1016 87 0 4.8 95 09:36 25.05.2020
2485 Clouds 24 1016 87 0 4.8 100 09:18 25.05.2020
2486 Clouds 24 1016 87 0 4.8 100 09:18 25.05.2020
2487 Clouds 24 1016 87 0 4.8 100 08:39 25.05.2020
2488 Clouds 26 1016 78 10000 3.6 130 08:20 25.05.2020
2489 Clouds 26 1016 78 10000 3.6 130 07:48 25.05.2020
2490 Clouds 26 1016 78 10000 3.6 130 07:27 25.05.2020
2491 Clouds 27 1015 78 10000 4.1 130 06:57 25.05.2020
2492 Clouds 27 1015 78 10000 4.1 130 06:35 25.05.2020
2493 Clouds 26 1016 83 10000 2.1 170 05:24 25.05.2020
2494 Rain 25 1016 89 0 4.11 119 03:26 25.05.2020
2495 Rain 25 1016 89 0 4.11 119 02:47 25.05.2020
2496 Clouds 28 1017 69 10000 3.6 150 02:18 25.05.2020
2497 Clouds 28 1017 69 10000 3.6 150 01:41 25.05.2020
2498 Rain 25 1018 88 10000 2.1 130 00:46 25.05.2020
2499 Rain 25 1018 88 10000 2.1 130 00:24 25.05.2020
2500 Clouds 26 1017 88 10000 4.3 112 23:58 24.05.2020
2501 Clouds 26 1017 88 10000 4.3 112 23:38 24.05.2020
2502 Clouds 26 1017 88 10000 4.13 118 23:19 24.05.2020
2503 Clouds 25 1017 94 10000 4.13 118 22:41 24.05.2020
2504 Clouds 25 1017 94 10000 4.04 117 22:20 24.05.2020
2505 Drizzle 24 1017 94 10000 4.04 117 21:58 24.05.2020
2506 Drizzle 24 1017 94 10000 4.04 117 21:40 24.05.2020
2507 Drizzle 24 1017 94 10000 3.01 110 21:21 24.05.2020
2508 Rain 24 1016 89 0 3.01 110 20:57 24.05.2020
2509 Clouds 24 1015 94 10000 3.01 110 20:38 24.05.2020
2510 Clouds 24 1015 94 10000 2.66 105 20:18 24.05.2020
2511 Clouds 24 1015 94 10000 2.66 105 19:56 24.05.2020
2512 Clouds 24 1015 94 10000 2.66 105 19:36 24.05.2020
2513 Clouds 24 1015 94 10000 2.48 100 19:18 24.05.2020
2514 Clouds 24 1015 94 10000 2.48 100 19:18 24.05.2020
2515 Clouds 24 1015 94 10000 2.48 100 18:41 24.05.2020
2516 Clouds 24 1015 94 10000 2.54 99 18:23 24.05.2020
2517 Clouds 24 1015 94 10000 2.54 99 17:56 24.05.2020
2518 Clouds 24 1015 94 10000 2.54 99 17:37 24.05.2020
2519 Clouds 24 1015 94 10000 2.13 95 17:19 24.05.2020
2520 Clouds 24 1015 94 10000 2.13 95 16:39 24.05.2020
2521 Clouds 24 1015 94 10000 2.28 88 16:21 24.05.2020
2522 Clouds 24 1016 94 10000 2.28 88 15:58 24.05.2020
2523 Clouds 24 1016 94 10000 2.75 81 15:39 24.05.2020
2524 Clouds 24 1016 94 10000 2.75 81 15:19 24.05.2020
2525 Clouds 24 1015 88 0 2.75 81 14:55 24.05.2020
2526 Clouds 25 1016 88 10000 2.75 81 14:37 24.05.2020
2527 Clouds 25 1016 88 10000 3.48 92 14:18 24.05.2020
2528 Clouds 25 1016 88 10000 3.48 92 13:44 24.05.2020
2529 Clouds 25 1016 88 10000 3.94 99 13:23 24.05.2020
2530 Clouds 25 1016 88 10000 3.94 99 13:23 24.05.2020
2531 Clouds 24 1015 94 10000 3.94 99 13:00 24.05.2020
2532 Clouds 24 1015 94 10000 3.94 99 12:41 24.05.2020
2533 Clouds 24 1015 94 10000 3.51 108 12:23 24.05.2020
2534 Clouds 24 1015 94 10000 3.51 108 11:59 24.05.2020
2535 Clouds 24 1015 94 10000 3.51 108 11:41 24.05.2020
2536 Clouds 24 1015 94 10000 3.65 116 11:23 24.05.2020
2537 Clouds 24 1015 94 10000 3.65 116 11:23 24.05.2020
2538 Clouds 24 1015 94 10000 3.65 116 10:59 24.05.2020
2539 Clouds 24 1015 94 10000 3.65 116 10:39 24.05.2020
2540 Clouds 24 1015 94 10000 4.23 127 10:21 24.05.2020
2541 Rain 24 1016 88 0 4.23 127 09:42 24.05.2020
2542 Clouds 25 1015 86 0 3.98 126 09:19 24.05.2020
2543 Rain 24 1015 87 0 4.37 130 08:58 24.05.2020
2544 Clouds 26 1014 78 10000 3.6 120 08:40 24.05.2020
2545 Clouds 26 1014 78 10000 3.6 120 08:22 24.05.2020
2546 Clouds 26 1014 78 10000 3.6 120 07:51 24.05.2020
2547 Clouds 26 1014 78 10000 3.6 120 07:26 24.05.2020
2548 Clouds 26 1014 78 10000 3.6 110 06:58 24.05.2020
2549 Clouds 26 1014 78 10000 3.6 110 06:37 24.05.2020
2550 Clouds 26 1014 78 10000 3.6 110 06:37 24.05.2020
2551 Clouds 26 1014 78 10000 3.6 110 05:21 24.05.2020
2552 Clouds 25 1013 81 0 3.03 102 03:42 24.05.2020
2553 Clouds 25 1013 79 0 3.01 105 02:47 24.05.2020
2554 Clouds 27 1015 69 10000 3.1 70 01:54 24.05.2020
2555 Clouds 27 1015 69 10000 1.5 90 00:42 24.05.2020
2556 Clouds 27 1015 69 10000 1.5 90 00:23 24.05.2020
2557 Clouds 25 1015 78 10000 2.67 86 23:46 23.05.2020
2558 Clouds 25 1015 78 10000 1.82 78 23:26 23.05.2020
2559 Clouds 22 1014 94 10000 1.82 78 22:59 23.05.2020
2560 Clouds 22 1014 94 10000 1.82 78 22:39 23.05.2020
2561 Clouds 22 1014 94 10000 1.83 58 22:21 23.05.2020
2562 Clouds 21 1014 100 10000 1.83 58 21:59 23.05.2020
2563 Clouds 21 1014 100 10000 1.83 58 21:41 23.05.2020
2564 Clouds 21 1014 100 10000 1.48 66 21:20 23.05.2020
2565 Clouds 22 1014 81 0 1.48 66 20:59 23.05.2020
2566 Clouds 22 1014 81 0 1.48 66 20:39 23.05.2020
2567 Clouds 22 1013 81 0 1.71 58 20:19 23.05.2020
2568 Clouds 22 1013 81 0 1.71 58 19:55 23.05.2020
2569 Clouds 22 1013 94 10000 1.71 58 19:37 23.05.2020
2570 Clouds 22 1013 94 10000 1.17 85 19:18 23.05.2020
2571 Clouds 22 1013 94 10000 1.17 85 18:41 23.05.2020
2572 Clouds 22 1013 94 10000 1.36 99 18:22 23.05.2020
2573 Clouds 22 1013 94 10000 1.36 99 17:57 23.05.2020
2574 Clouds 22 1013 94 10000 1.36 99 17:39 23.05.2020
2575 Clouds 22 1013 94 10000 1.49 93 17:19 23.05.2020
2576 Clouds 21 1013 100 10000 1.49 93 16:57 23.05.2020
2577 Clouds 21 1013 100 10000 1.49 93 16:39 23.05.2020
2578 Clouds 21 1013 100 10000 1.54 96 16:20 23.05.2020
2579 Clouds 22 1013 80 0 1.54 96 15:43 23.05.2020
2580 Clouds 22 1014 79 0 2.04 110 15:24 23.05.2020
2581 Clouds 22 1014 79 0 2.04 110 14:58 23.05.2020
2582 Clouds 22 1014 79 0 2.04 110 14:40 23.05.2020
2583 Clouds 22 1014 94 10000 2.3 128 14:22 23.05.2020
2584 Clouds 22 1014 94 10000 1.89 125 13:41 23.05.2020
2585 Clouds 22 1014 94 10000 1.81 122 13:19 23.05.2020
2586 Clouds 22 1014 94 10000 1.81 122 13:19 23.05.2020
2587 Clouds 22 1014 94 10000 1.81 122 13:19 23.05.2020
2588 Clouds 22 1014 88 10000 1.81 122 12:56 23.05.2020
2589 Clouds 22 1014 88 10000 1.81 122 12:38 23.05.2020
2590 Clouds 22 1014 88 10000 2.04 112 12:19 23.05.2020
2591 Clouds 22 1014 88 10000 2.04 112 11:43 23.05.2020
2592 Clouds 22 1014 88 10000 2.21 106 11:22 23.05.2020
2593 Clouds 22 1013 88 10000 2.21 106 10:57 23.05.2020
2594 Clouds 22 1013 88 10000 2.21 106 10:39 23.05.2020
2595 Clouds 22 1013 88 10000 2.77 138 10:20 23.05.2020
2596 Clouds 23 1014 75 0 2.77 138 09:58 23.05.2020
2597 Clouds 23 1014 75 0 2.77 138 09:40 23.05.2020
2598 Clouds 23 1013 74 0 3.11 148 09:21 23.05.2020
2599 Clouds 23 1013 73 0 2.57 144 08:44 23.05.2020
2600 Clouds 25 1012 69 10000 1.5 140 08:20 23.05.2020
2601 Clouds 25 1012 69 10000 1.5 140 07:57 23.05.2020
2602 Clouds 25 1012 69 10000 1.5 140 07:37 23.05.2020
2603 Clouds 26 1011 69 10000 3.6 130 07:19 23.05.2020
2604 Clouds 26 1011 69 10000 3.6 130 06:38 23.05.2020
2605 Clouds 27 1011 57 10000 3.6 140 05:26 23.05.2020
2606 Clouds 24 1011 64 0 2.49 148 03:30 23.05.2020
2607 Clouds 24 1012 65 0 2.65 151 02:58 23.05.2020
2608 Clouds 27 1014 61 10000 3.6 170 01:58 23.05.2020
2609 Clouds 27 1014 61 10000 3.6 170 01:23 23.05.2020
2610 Clouds 26 1014 65 10000 2.1 170 00:47 23.05.2020
2611 Clouds 26 1014 65 10000 2.1 170 00:25 23.05.2020
2612 Clouds 25 1014 73 10000 2.7 172 23:57 22.05.2020
2613 Clouds 25 1014 73 10000 2.7 172 23:39 22.05.2020
2614 Clouds 22 1013 88 10000 1.49 165 23:19 22.05.2020
2615 Clouds 22 1013 88 10000 1.49 165 22:43 22.05.2020
2616 Clouds 22 1013 88 10000 1.61 177 22:21 22.05.2020
2617 Clouds 21 1013 94 10000 1.61 177 21:57 22.05.2020
2618 Clouds 21 1013 94 10000 1.87 175 21:38 22.05.2020
2619 Clouds 21 1013 94 10000 2.3 186 21:20 22.05.2020
2620 Clouds 21 1014 73 0 2.3 186 20:45 22.05.2020
2621 Clouds 20 1012 100 10000 2.03 191 20:21 22.05.2020
2622 Clouds 20 1012 100 10000 2.03 191 19:59 22.05.2020
2623 Clouds 20 1012 100 10000 2.03 191 19:37 22.05.2020
2624 Clouds 20 1012 100 10000 1.45 195 19:18 22.05.2020
2625 Clouds 21 1011 88 10000 1.45 195 18:39 22.05.2020
2626 Clouds 21 1011 88 10000 1.45 195 18:39 22.05.2020
2627 Clouds 21 1011 88 10000 1.57 194 18:19 22.05.2020
2628 Clouds 21 1012 88 10000 1.57 194 17:56 22.05.2020
2629 Clouds 21 1012 88 10000 1.57 194 17:36 22.05.2020
2630 Clouds 21 1012 88 10000 2.04 205 17:18 22.05.2020
2631 Clouds 21 1012 94 10000 2.04 205 16:43 22.05.2020
2632 Clouds 21 1012 94 10000 1.93 203 16:20 22.05.2020
2633 Clouds 21 1012 94 10000 1.93 203 16:20 22.05.2020
2634 Clear 21 1012 73 0 1.93 203 15:57 22.05.2020
2635 Clear 21 1012 73 0 1.93 203 15:39 22.05.2020
2636 Clear 21 1012 73 0 1.61 194 15:19 22.05.2020
2637 Clear 21 1012 73 0 1.61 194 15:19 22.05.2020
2638 Clear 21 1012 73 0 1.61 194 14:42 22.05.2020
2639 Clouds 21 1013 94 10000 2.6 330 14:24 22.05.2020
2640 Clouds 21 1013 94 10000 2.6 330 13:45 22.05.2020
2641 Clouds 21 1013 94 10000 2.6 330 13:20 22.05.2020
2642 Clouds 22 1013 88 10000 2.31 189 12:44 22.05.2020
2643 Clouds 22 1013 88 10000 2.87 194 12:25 22.05.2020
2644 Clouds 23 1013 83 10000 2.87 194 11:58 22.05.2020
2645 Clouds 23 1013 83 10000 2.87 194 11:40 22.05.2020
2646 Clouds 23 1013 83 10000 2.31 196 11:19 22.05.2020
2647 Clouds 23 1012 83 10000 2.31 196 10:41 22.05.2020
2648 Clouds 23 1012 83 10000 3.03 193 10:22 22.05.2020
2649 Clouds 22 1013 72 0 3.03 193 09:59 22.05.2020
2650 Clouds 22 1013 72 0 3.03 193 09:40 22.05.2020
2651 Clouds 23 1013 71 0 3.07 181 09:18 22.05.2020
2652 Clouds 23 1013 71 0 3.07 181 08:43 22.05.2020
2653 Clouds 24 1011 78 10000 4.43 184 08:20 22.05.2020
2654 Clouds 24 1011 78 10000 4.43 184 07:56 22.05.2020
2655 Clouds 24 1011 78 10000 4.84 184 07:24 22.05.2020
2656 Clouds 25 1011 69 10000 3.6 210 06:56 22.05.2020
2657 Clouds 25 1011 69 10000 3.6 210 06:35 22.05.2020
2658 Clouds 25 1011 69 10000 3.1 190 05:38 22.05.2020
2659 Clouds 26 1011 65 10000 3.1 180 04:51 22.05.2020
2660 Clouds 26 1011 65 10000 3.1 180 04:20 22.05.2020
2661 Clouds 24 1011 71 0 4.03 187 03:47 22.05.2020
2662 Clouds 24 1011 72 0 3.68 183 02:59 22.05.2020
2663 Clouds 26 1013 65 10000 2.1 180 01:53 22.05.2020
2664 Clouds 26 1013 65 10000 2.1 180 01:25 22.05.2020
2665 Clouds 26 1013 65 10000 2.1 180 00:40 22.05.2020
2666 Clouds 26 1013 65 10000 2.1 180 00:22 22.05.2020
2667 Clouds 25 1013 78 10000 3.06 178 23:42 21.05.2020
2668 Clouds 25 1013 78 10000 3.38 185 23:24 21.05.2020
2669 Clouds 23 1013 88 10000 3.38 185 22:58 21.05.2020
2670 Clouds 23 1013 88 10000 3.38 185 22:37 21.05.2020
2671 Clouds 23 1013 88 10000 3.18 188 22:19 21.05.2020
2672 Clouds 22 1012 94 10000 1 0 21:49 21.05.2020
2673 Clouds 22 1012 94 10000 1 0 21:27 21.05.2020
2674 Clouds 22 1012 94 10000 1 0 21:27 21.05.2020
2675 Clouds 23 1013 80 0 3.4 172 20:59 21.05.2020
2676 Clouds 23 1013 80 0 3.4 172 20:40 21.05.2020
2677 Clouds 21 1011 94 10000 3.65 178 20:22 21.05.2020
2678 Clouds 21 1011 94 10000 3.65 178 19:40 21.05.2020
2679 Clouds 21 1011 94 10000 3.65 178 19:40 21.05.2020
2680 Clouds 21 1011 94 10000 3.24 181 19:20 21.05.2020
2681 Clouds 21 1011 94 10000 3.24 181 18:59 21.05.2020
2682 Clouds 21 1011 94 10000 3.24 181 18:37 21.05.2020
2683 Clouds 21 1011 94 10000 3.49 187 18:19 21.05.2020
2684 Clouds 21 1011 94 10000 3.49 187 17:56 21.05.2020
2685 Clouds 21 1011 94 10000 3.49 187 17:37 21.05.2020
2686 Clouds 21 1011 94 10000 3.06 186 17:19 21.05.2020
2687 Clouds 21 1011 94 10000 3.06 186 16:44 21.05.2020
2688 Clouds 21 1011 94 10000 3.26 185 16:22 21.05.2020
2689 Clouds 23 1011 79 0 3.26 185 15:44 21.05.2020
2690 Clouds 23 1012 79 0 3.12 181 15:23 21.05.2020
2691 Clouds 23 1012 79 0 3.12 181 14:43 21.05.2020
2692 Clouds 23 1012 83 10000 2.4 182 14:23 21.05.2020
2693 Clouds 23 1012 83 10000 2.4 182 13:58 21.05.2020
2694 Clouds 23 1012 83 10000 2.4 182 13:38 21.05.2020
2695 Clouds 23 1012 83 10000 2.23 181 13:19 21.05.2020
2696 Clouds 23 1012 83 10000 2.23 181 12:40 21.05.2020
2697 Clouds 23 1012 83 10000 2.4 182 12:21 21.05.2020
2698 Clouds 24 1012 78 10000 2.4 182 11:58 21.05.2020
2699 Clouds 24 1012 78 10000 2.4 182 11:39 21.05.2020
2700 Clouds 24 1012 78 10000 2.05 188 11:21 21.05.2020
2701 Clouds 24 1012 73 10000 2.05 188 10:45 21.05.2020
2702 Clouds 24 1012 73 10000 2.44 192 10:23 21.05.2020
2703 Clouds 23 1012 70 0 2.44 192 09:59 21.05.2020
2704 Clouds 23 1012 70 0 2.44 192 09:40 21.05.2020
2705 Clouds 23 1012 70 0 2.44 192 09:40 21.05.2020
2706 Clouds 23 1012 70 0 2.44 192 09:40 21.05.2020
2707 Clouds 23 1012 69 0 2.81 179 09:22 21.05.2020
2708 Clouds 23 1012 69 0 2.81 179 08:56 21.05.2020
2709 Clouds 25 1010 65 10000 2.1 190 08:37 21.05.2020
2710 Clouds 25 1010 65 10000 2.1 190 08:19 21.05.2020
2711 Clouds 23 1011 71 0 3.44 183 07:41 21.05.2020
2712 Clouds 25 1009 65 10000 2.1 190 07:22 21.05.2020
2713 Clouds 25 1009 65 10000 2.1 190 06:37 21.05.2020
2714 Clouds 27 1009 57 10000 3.1 180 05:50 21.05.2020
2715 Clouds 24 1010 67 0 3.53 187 03:49 21.05.2020
2716 Clouds 24 1011 66 0 3.51 189 03:20 21.05.2020
2717 Clouds 24 1011 66 0 3.51 189 03:20 21.05.2020
2718 Clouds 26 1012 65 10000 3.44 185 02:31 21.05.2020
2719 Clouds 26 1012 65 10000 3.2 183 01:51 21.05.2020
2720 Clouds 26 1012 65 10000 3.27 188 01:24 21.05.2020
2721 Clouds 26 1012 65 10000 3.27 188 00:54 21.05.2020
2722 Clouds 26 1012 65 10000 3.1 175 00:26 21.05.2020
2723 Clouds 24 1012 83 10000 3.1 175 23:58 20.05.2020
2724 Clouds 24 1012 83 10000 3.1 175 23:38 20.05.2020
2725 Clouds 22 1012 88 10000 2.74 176 23:18 20.05.2020
2726 Clouds 22 1012 88 10000 2.74 176 22:42 20.05.2020
2727 Clouds 22 1012 88 10000 2.74 176 22:42 20.05.2020
2728 Clouds 22 1012 88 10000 2.5 187 22:24 20.05.2020
2729 Clouds 22 1012 94 10000 2.5 187 21:56 20.05.2020
2730 Clouds 22 1012 94 10000 2.5 187 21:56 20.05.2020
2731 Clouds 22 1012 94 10000 2.5 187 21:37 20.05.2020
2732 Clouds 22 1012 94 10000 2.98 183 21:19 20.05.2020
2733 Clouds 22 1010 94 10000 2.1 340 20:41 20.05.2020
2734 Clouds 22 1010 94 10000 2.1 340 20:23 20.05.2020
2735 Clouds 22 1010 94 10000 2.1 340 20:23 20.05.2020
2736 Clouds 22 1010 94 10000 2.1 340 19:42 20.05.2020
2737 Clouds 22 1010 94 10000 2.1 340 19:24 20.05.2020
2738 Clouds 22 1010 94 10000 3.08 181 18:58 20.05.2020
2739 Clouds 22 1010 94 10000 3.08 181 18:39 20.05.2020
2740 Clouds 22 1010 88 10000 3.14 184 18:20 20.05.2020
2741 Clouds 22 1010 88 10000 3.14 184 17:39 20.05.2020
2742 Clouds 22 1010 88 10000 2.75 182 17:21 20.05.2020
2743 Clouds 22 1011 74 0 2.75 182 16:43 20.05.2020
2744 Clouds 22 1011 73 0 2.44 184 16:24 20.05.2020
2745 Clouds 22 1011 73 0 2.44 184 15:59 20.05.2020
2746 Clouds 22 1011 73 0 2.44 184 15:40 20.05.2020
2747 Clouds 22 1011 74 0 2.48 180 15:22 20.05.2020
2748 Clouds 22 1011 74 0 2.48 180 14:43 20.05.2020
2749 Clouds 22 1011 74 0 2.48 180 14:43 20.05.2020
2750 Clouds 23 1012 88 10000 2.57 179 14:21 20.05.2020
2751 Clouds 23 1012 88 10000 2.57 179 13:41 20.05.2020
2752 Clouds 23 1012 88 10000 3 179 13:20 20.05.2020
2753 Clouds 23 1012 88 10000 3 179 12:58 20.05.2020
2754 Clouds 23 1012 88 10000 3 179 12:39 20.05.2020
2755 Clouds 23 1012 88 10000 2.96 173 12:19 20.05.2020
2756 Clouds 23 1012 88 10000 2.96 173 11:36 20.05.2020
2757 Clouds 23 1012 88 10000 2.97 172 11:18 20.05.2020
2758 Clouds 23 1012 83 10000 2.97 172 11:18 20.05.2020
2759 Clouds 23 1012 83 10000 2.97 172 10:43 20.05.2020
2760 Clouds 23 1012 83 10000 3.14 169 10:20 20.05.2020
2761 Clouds 23 1012 76 0 3.14 169 09:45 20.05.2020
2762 Clouds 23 1011 77 0 3.6 164 09:22 20.05.2020
2763 Clouds 23 1011 73 0 3.31 188 08:58 20.05.2020
2764 Clouds 25 1010 69 10000 3.31 188 08:40 20.05.2020
2765 Clouds 25 1010 69 10000 3.92 173 08:18 20.05.2020
2766 Clouds 25 1010 69 10000 3.92 173 07:47 20.05.2020
2767 Clouds 25 1010 69 10000 4.01 180 07:21 20.05.2020
2768 Clouds 25 1010 69 10000 2.1 190 06:43 20.05.2020
2769 Clouds 27 1010 57 10000 2.6 180 05:24 20.05.2020
2770 Clouds 26 1010 61 10000 2.6 180 04:33 20.05.2020
2771 Clouds 24 1010 65 0 4.03 185 03:52 20.05.2020
2772 Clouds 28 1012 58 10000 3.6 180 02:31 20.05.2020
2773 Clouds 28 1012 58 10000 3.6 180 01:30 20.05.2020
2774 Clouds 26 1013 65 10000 2.6 180 00:45 20.05.2020
2775 Clouds 26 1013 65 10000 2.6 180 00:24 20.05.2020
2776 Clouds 25 1012 78 10000 3.83 192 23:43 19.05.2020
2777 Clouds 25 1012 78 10000 3.64 192 23:19 19.05.2020
2778 Clouds 24 1012 83 10000 3.64 192 22:56 19.05.2020
2779 Clouds 24 1012 83 10000 3.64 192 22:38 19.05.2020
2780 Clouds 24 1012 83 10000 2.98 197 22:19 19.05.2020
2781 Clouds 23 1013 67 0 2.98 197 22:19 19.05.2020
2782 Clouds 23 1013 67 0 2.98 197 21:58 19.05.2020
2783 Clouds 23 1013 67 0 2.98 197 21:38 19.05.2020
2784 Clouds 23 1013 67 0 2.98 197 21:38 19.05.2020
2785 Clouds 22 1012 70 0 2.91 201 21:19 19.05.2020
2786 Clouds 22 1012 70 0 2.91 201 20:57 19.05.2020
2787 Clouds 22 1012 70 0 2.91 201 20:39 19.05.2020
2788 Clouds 23 1011 94 10000 3.19 206 20:20 19.05.2020
2789 Clouds 23 1011 94 10000 3.19 206 19:55 19.05.2020
2790 Clouds 23 1011 94 10000 3.19 206 19:36 19.05.2020
2791 Clouds 23 1011 94 10000 3.5 205 19:18 19.05.2020
2792 Clouds 23 1011 94 10000 3.5 205 18:40 19.05.2020
2793 Clouds 23 1011 94 10000 3.5 203 18:20 19.05.2020
2794 Clouds 23 1011 94 10000 3.5 203 18:20 19.05.2020
2795 Clouds 23 1011 94 10000 3.5 203 17:43 19.05.2020
2796 Clouds 23 1011 94 10000 3.38 199 17:21 19.05.2020
2797 Clouds 23 1011 94 10000 3.38 199 16:59 19.05.2020
2798 Clouds 23 1011 94 10000 3.38 199 16:59 19.05.2020
2799 Clouds 23 1011 94 10000 3.38 199 16:38 19.05.2020
2800 Clouds 23 1011 94 10000 3.37 194 16:19 19.05.2020
2801 Clouds 22 1011 70 0 3.37 194 15:47 19.05.2020
2802 Clouds 22 1012 71 0 3.38 194 15:22 19.05.2020
2803 Clouds 22 1012 71 0 3.38 194 14:57 19.05.2020
2804 Clouds 23 1013 88 10000 3.38 194 14:39 19.05.2020
2805 Clouds 23 1013 88 10000 3.39 189 14:20 19.05.2020
2806 Clouds 23 1013 88 10000 3.73 184 13:57 19.05.2020
2807 Clouds 23 1013 88 10000 3.73 184 13:39 19.05.2020
2808 Clouds 23 1013 88 10000 3.46 183 13:20 19.05.2020
2809 Clouds 23 1013 88 10000 1 0 12:56 19.05.2020
2810 Clouds 23 1013 88 10000 1 0 12:37 19.05.2020
2811 Clouds 23 1013 88 10000 1 0 12:19 19.05.2020
2812 Clouds 23 1013 88 10000 1 0 11:43 19.05.2020
2813 Clouds 23 1013 88 10000 1 0 11:43 19.05.2020
2814 Clouds 23 1013 88 10000 1 0 11:23 19.05.2020
2815 Clouds 24 1012 83 10000 2.1 180 10:58 19.05.2020
2816 Clouds 24 1012 83 10000 2.1 180 10:40 19.05.2020
2817 Clouds 24 1012 83 10000 2.1 180 10:21 19.05.2020
2818 Clouds 23 1013 73 0 3.61 176 09:46 19.05.2020
2819 Clouds 23 1012 72 0 4.42 178 09:25 19.05.2020
2820 Clouds 23 1012 72 0 4.42 178 08:48 19.05.2020
2821 Clouds 23 1012 72 0 4.42 178 08:48 19.05.2020
2822 Clouds 26 1011 69 10000 2.1 210 08:25 19.05.2020
2823 Clouds 26 1011 69 10000 2.1 210 07:57 19.05.2020
2824 Clouds 26 1011 69 10000 2.1 210 07:37 19.05.2020
2825 Clouds 26 1011 69 10000 2.1 190 07:19 19.05.2020
2826 Clouds 26 1011 69 10000 2.1 190 06:40 19.05.2020
2827 Clouds 26 1011 69 10000 2.1 190 06:18 19.05.2020
2828 Clouds 26 1011 65 10000 3.1 200 05:39 19.05.2020
2829 Clouds 26 1011 65 10000 1 0 04:50 19.05.2020
2830 Clouds 27 1013 65 10000 4.6 177 02:59 19.05.2020
2831 Clouds 26 1014 69 10000 1.5 120 00:59 19.05.2020
2832 Clouds 26 1014 69 10000 1.5 120 00:36 19.05.2020
2833 Clouds 26 1014 69 10000 1.5 120 00:18 19.05.2020
2834 Clouds 25 1014 78 10000 3.81 178 23:40 18.05.2020
2835 Clouds 25 1014 78 10000 3.66 181 23:20 18.05.2020
2836 Clouds 24 1013 83 10000 3.66 181 22:56 18.05.2020
2837 Clouds 24 1013 83 10000 3.66 181 22:56 18.05.2020
2838 Clouds 24 1013 83 10000 3.66 181 22:38 18.05.2020
2839 Clouds 24 1013 83 10000 3.45 182 22:19 18.05.2020
2840 Clouds 23 1014 77 0 3.45 182 21:42 18.05.2020
2841 Clouds 23 1013 77 0 3.06 182 21:22 18.05.2020
2842 Clouds 23 1013 76 0 3.05 195 20:57 18.05.2020
2843 Clouds 23 1012 88 10000 3.05 195 20:37 18.05.2020
2844 Clouds 23 1012 88 10000 2.89 191 20:19 18.05.2020
2845 Clouds 23 1012 88 10000 2.89 191 20:19 18.05.2020
2846 Clouds 23 1012 88 10000 2.89 191 19:54 18.05.2020
2847 Clouds 23 1012 88 10000 2.89 191 19:36 18.05.2020
2848 Clouds 23 1012 94 10000 2.55 189 19:18 18.05.2020
2849 Clouds 23 1012 94 10000 2.55 189 18:43 18.05.2020
2850 Clouds 23 1012 94 10000 2.22 206 18:20 18.05.2020
2851 Clouds 23 1012 94 10000 2.3 182 17:39 18.05.2020
2852 Clouds 23 1012 94 10000 2.25 181 17:18 18.05.2020
2853 Clouds 23 1013 94 10000 2.25 181 16:56 18.05.2020
2854 Clouds 23 1013 94 10000 2.18 210 16:37 18.05.2020
2855 Clouds 23 1013 94 10000 2.18 188 16:18 18.05.2020
2856 Clouds 23 1013 94 10000 2.18 188 16:18 18.05.2020
2857 Clouds 23 1013 78 0 2.41 173 15:46 18.05.2020
2858 Clouds 23 1013 78 0 2.84 166 15:25 18.05.2020
2859 Clouds 23 1013 78 0 2.84 166 14:59 18.05.2020
2860 Clouds 23 1013 78 0 2.84 166 14:40 18.05.2020
2861 Clouds 23 1014 83 10000 2.84 166 14:40 18.05.2020
2862 Clouds 23 1014 83 10000 2.79 171 14:22 18.05.2020
2863 Clouds 23 1014 83 10000 2.79 171 13:54 18.05.2020
2864 Clouds 23 1014 83 10000 2.79 171 13:36 18.05.2020
2865 Clouds 24 1014 88 10000 2.66 162 13:18 18.05.2020
2866 Clouds 24 1014 88 10000 2.66 162 12:54 18.05.2020
2867 Clouds 24 1014 88 10000 2.66 162 12:36 18.05.2020
2868 Clouds 24 1014 88 10000 3.02 165 12:18 18.05.2020
2869 Clouds 24 1014 88 10000 3.02 165 11:44 18.05.2020
2870 Clouds 24 1014 88 10000 3.14 160 11:25 18.05.2020
2871 Clouds 24 1013 83 10000 3.14 160 10:47 18.05.2020
2872 Clouds 24 1013 83 10000 3.26 160 10:27 18.05.2020
2873 Clouds 24 1014 75 0 3.26 160 09:54 18.05.2020
2874 Clouds 24 1014 75 0 3.26 160 09:36 18.05.2020
2875 Clouds 24 1013 76 0 3.59 159 09:18 18.05.2020
2876 Clouds 24 1013 76 0 3.59 159 08:42 18.05.2020
2877 Clouds 24 1013 76 0 3.59 159 08:42 18.05.2020
2878 Clouds 25 1012 78 10000 2.1 190 08:23 18.05.2020
2879 Clouds 25 1012 78 10000 2.1 190 07:48 18.05.2020
2880 Clouds 25 1012 78 10000 2.1 190 07:25 18.05.2020
2881 Clouds 26 1011 78 10000 3.6 190 06:48 18.05.2020
2882 Clouds 26 1011 78 10000 3.6 190 06:24 18.05.2020
2883 Clouds 26 1012 78 10000 2.6 200 05:45 18.05.2020
2884 Clouds 24 1012 79 0 3.23 156 03:58 18.05.2020
2885 Rain 24 1013 80 0 3.2 153 03:28 18.05.2020
2886 Clouds 25 1016 88 10000 3.6 130 01:56 18.05.2020
2887 Clouds 25 1015 88 10000 2.1 120 00:49 18.05.2020
2888 Clouds 25 1015 88 10000 2.1 120 00:19 18.05.2020
2889 Clouds 26 1015 78 10000 3.1 130 23:55 17.05.2020
2890 Clouds 26 1015 78 10000 3.1 130 23:37 17.05.2020
2891 Clouds 26 1015 78 10000 3.1 130 23:18 17.05.2020
2892 Clouds 24 1015 84 0 2.94 135 22:40 17.05.2020
2893 Clouds 24 1014 84 0 2.74 141 22:22 17.05.2020
2894 Clouds 24 1014 84 0 2.74 141 21:59 17.05.2020
2895 Clouds 24 1014 84 0 2.74 141 21:41 17.05.2020
2896 Clouds 24 1014 86 0 3.07 145 21:19 17.05.2020
2897 Clouds 24 1014 86 0 3.07 145 20:56 17.05.2020
2898 Clouds 23 1013 94 10000 3.07 145 20:38 17.05.2020
2899 Clouds 23 1013 94 10000 2.79 142 20:19 17.05.2020
2900 Clouds 23 1013 94 10000 2.79 142 19:46 17.05.2020
2901 Clouds 23 1013 94 10000 2.48 143 19:28 17.05.2020
2902 Clouds 23 1013 94 10000 2.48 143 18:57 17.05.2020
2903 Clouds 23 1013 94 10000 2.48 143 18:38 17.05.2020
2904 Clouds 23 1013 94 10000 2.18 136 18:20 17.05.2020
2905 Clouds 23 1013 94 10000 2.18 136 17:41 17.05.2020
2906 Clouds 24 1013 86 0 2.1 132 17:23 17.05.2020
2907 Clouds 24 1013 86 0 2.1 132 16:57 17.05.2020
2908 Clouds 24 1013 86 0 2.1 132 16:39 17.05.2020
2909 Clouds 24 1013 86 0 2.18 125 16:20 17.05.2020
2910 Clouds 24 1013 86 0 2.18 125 15:46 17.05.2020
2911 Rain 24 1013 87 0 2.5 132 15:24 17.05.2020
2912 Rain 24 1013 87 0 2.5 132 14:58 17.05.2020
2913 Clouds 25 1014 83 10000 2.62 130 14:40 17.05.2020
2914 Clouds 25 1014 83 10000 2.69 136 14:21 17.05.2020
2915 Clouds 25 1014 83 10000 2.61 128 13:43 17.05.2020
2916 Clouds 25 1014 83 10000 2.53 122 13:21 17.05.2020
2917 Clouds 25 1014 83 10000 2.53 122 13:21 17.05.2020
2918 Rain 24 1015 88 0 3.62 137 10:35 17.05.2020
2919 Clouds 25 1012 80 0 2.97 134 03:53 17.05.2020
2920 Clouds 27 1014 83 10000 2.6 180 02:27 17.05.2020
2921 Clouds 27 1014 83 10000 2.6 180 01:55 17.05.2020
2922 Clouds 26 1014 83 10000 2.1 160 00:53 17.05.2020
2923 Clouds 26 1014 83 10000 2.1 160 00:31 17.05.2020
2924 Clouds 26 1014 83 10000 2.1 220 23:57 16.05.2020
2925 Clouds 26 1014 83 10000 2.1 220 23:38 16.05.2020
2926 Clouds 26 1014 83 10000 2.1 220 23:19 16.05.2020
2927 Clouds 24 1014 94 10000 1.45 126 22:42 16.05.2020
2928 Clouds 24 1014 94 10000 1.28 97 22:23 16.05.2020
2929 Clouds 23 1013 94 10000 1.28 97 21:58 16.05.2020
2930 Clouds 23 1013 94 10000 1.28 97 21:39 16.05.2020
2931 Clouds 23 1013 94 10000 1.87 124 21:21 16.05.2020
2932 Clouds 24 1014 83 0 1.87 124 20:56 16.05.2020
2933 Clouds 22 1012 100 10000 1.87 124 20:38 16.05.2020
2934 Clouds 22 1012 100 10000 1.87 124 20:38 16.05.2020
2935 Clouds 22 1012 100 10000 2.08 144 20:19 16.05.2020
2936 Clouds 22 1012 100 10000 2.08 144 19:43 16.05.2020
2937 Clouds 23 1012 94 10000 1.74 134 19:23 16.05.2020
2938 Clouds 23 1012 94 10000 1.74 134 19:23 16.05.2020
2939 Clouds 23 1012 94 10000 1.74 134 18:58 16.05.2020
2940 Clouds 23 1012 94 10000 1.74 134 18:40 16.05.2020
2941 Clouds 23 1012 94 10000 1.59 110 18:21 16.05.2020
2942 Clouds 23 1012 94 10000 1.59 110 17:42 16.05.2020
2943 Clouds 23 1012 94 10000 1.63 127 17:21 16.05.2020
2944 Clouds 23 1013 82 0 1.63 127 16:45 16.05.2020
2945 Clouds 24 1013 81 0 1.45 133 16:25 16.05.2020
2946 Clouds 24 1013 81 0 1.45 133 15:59 16.05.2020
2947 Clouds 24 1013 81 0 1.45 133 15:41 16.05.2020
2948 Clouds 23 1013 80 0 1.15 124 15:21 16.05.2020
2949 Clouds 23 1013 80 0 1.15 124 14:56 16.05.2020
2950 Clouds 24 1014 88 10000 1.15 124 14:38 16.05.2020
2951 Clouds 24 1014 88 10000 0.96 119 14:19 16.05.2020
2952 Clouds 24 1014 88 10000 0.96 119 13:42 16.05.2020
2953 Clouds 24 1014 88 10000 1.12 149 13:24 16.05.2020
2954 Clouds 24 1015 88 10000 1.12 149 12:59 16.05.2020
2955 Clouds 24 1015 88 10000 1.12 149 12:40 16.05.2020
2956 Clouds 24 1015 88 10000 1.41 150 12:19 16.05.2020
2957 Clouds 24 1015 88 10000 1.41 150 11:42 16.05.2020
2958 Clouds 24 1015 88 10000 1.87 159 11:23 16.05.2020
2959 Clouds 24 1014 88 10000 1.87 159 10:58 16.05.2020
2960 Clouds 24 1014 88 10000 1.87 159 10:58 16.05.2020
2961 Clouds 24 1014 88 10000 1.87 159 10:39 16.05.2020
2962 Clouds 24 1014 76 0 2.36 163 10:20 16.05.2020
2963 Clouds 24 1014 76 0 2.36 163 09:46 16.05.2020
2964 Clouds 24 1014 76 0 2.28 170 09:28 16.05.2020
2965 Clouds 24 1013 75 0 2.11 171 08:46 16.05.2020
2966 Clouds 24 1013 74 0 2.48 177 08:24 16.05.2020
2967 Clouds 24 1013 74 0 2.48 177 07:59 16.05.2020
2968 Clouds 24 1013 74 0 2.48 177 07:40 16.05.2020
2969 Clouds 27 1011 65 10000 2.6 180 07:21 16.05.2020
2970 Clouds 27 1011 65 10000 2.6 180 06:47 16.05.2020
2971 Clouds 27 1011 65 10000 2.6 180 06:19 16.05.2020
2972 Clouds 28 1011 58 10000 2.6 180 05:42 16.05.2020
2973 Clouds 28 1011 58 10000 2.6 180 05:20 16.05.2020
2974 Clear 26 1012 65 0 2.61 176 03:27 16.05.2020
2975 Clear 26 1012 65 0 2.61 176 02:42 16.05.2020
2976 Clouds 27 1013 69 10000 2.6 200 02:18 16.05.2020
2977 Clouds 27 1013 69 10000 2.6 200 01:39 16.05.2020
2978 Clouds 28 1014 69 10000 1.47 190 00:57 16.05.2020
2979 Clouds 28 1014 69 10000 1.47 190 00:57 16.05.2020
2980 Clouds 28 1014 69 10000 1.47 190 00:38 16.05.2020
2981 Clear 26 1014 65 0 0.82 204 00:19 16.05.2020
2982 Clear 26 1014 65 0 0.82 204 23:39 15.05.2020
2983 -273 0 0 0 0 0 23:19 15.05.2020
2984 Clear 25 1014 68 0 1.13 234 22:41 15.05.2020
2985 Clear 24 1014 72 0 0.99 250 22:20 15.05.2020
2986 Clear 24 1014 72 0 0.99 250 21:57 15.05.2020
2987 Clear 24 1014 72 0 0.99 250 21:38 15.05.2020
2988 Clear 23 1013 75 0 1.44 224 21:20 15.05.2020
2989 Clear 23 1013 75 0 1.44 224 20:54 15.05.2020
2990 Clouds 23 1012 94 10000 1.25 220 20:36 15.05.2020
2991 Clouds 23 1012 94 10000 1.38 220 20:18 15.05.2020
2992 Clouds 23 1012 94 10000 1.38 220 19:42 15.05.2020
2993 Clouds 23 1012 94 10000 1.46 225 19:23 15.05.2020
2994 Clouds 23 1012 94 10000 1.46 225 18:48 15.05.2020
2995 Clouds 23 1012 94 10000 1.51 228 18:28 15.05.2020
2996 Clouds 24 1011 88 10000 1.51 226 17:59 15.05.2020
2997 Clouds 24 1011 88 10000 1.51 228 17:37 15.05.2020
2998 Clouds 24 1011 88 10000 1.42 228 17:18 15.05.2020
2999 Clouds 22 1011 75 0 1.43 226 17:18 15.05.2020
3000 Clouds 22 1011 75 0 1.42 228 16:55 15.05.2020
3001 Clouds 22 1011 75 0 1.42 228 16:37 15.05.2020
3002 Clouds 22 1011 75 0 1.5 231 16:18 15.05.2020
3003 Clouds 22 1011 75 0 1.57 227 15:40 15.05.2020
3004 Clouds 23 1012 74 0 1.82 216 15:20 15.05.2020
3005 Clouds 22 1012 75 0 1.59 217 14:56 15.05.2020
3006 Clouds 25 1013 78 10000 1.82 216 14:38 15.05.2020
3007 Clouds 25 1013 78 10000 1.78 204 14:19 15.05.2020
3008 Clouds 25 1013 78 10000 1.78 204 13:41 15.05.2020
3009 Clouds 25 1013 78 10000 1.96 201 13:22 15.05.2020
3010 Clouds 25 1013 78 10000 1.96 201 12:42 15.05.2020
3011 Clouds 25 1013 78 10000 2.21 201 12:21 15.05.2020
3012 Clouds 25 1013 78 10000 2.21 201 11:59 15.05.2020
3013 Clouds 25 1013 78 10000 2.21 201 11:41 15.05.2020
3014 Clouds 25 1013 78 10000 2.54 202 11:21 15.05.2020
3015 Clouds 25 1012 78 10000 2.54 202 10:59 15.05.2020
3016 Clouds 25 1012 78 10000 2.54 202 10:41 15.05.2020
3017 Clouds 25 1012 78 10000 2.91 200 10:23 15.05.2020
3018 Clouds 24 1013 74 0 2.91 200 09:59 15.05.2020
3019 Clouds 23 1012 74 0 2.52 200 09:38 15.05.2020
3020 Clouds 24 1012 72 0 2.49 199 09:19 15.05.2020
3021 Clouds 24 1012 72 0 2.49 199 08:57 15.05.2020
3022 Clouds 26 1010 69 10000 2.1 180 08:37 15.05.2020
3023 Clouds 26 1010 69 10000 2.1 180 08:18 15.05.2020
3024 Clouds 26 1010 69 10000 2.1 180 07:44 15.05.2020
3025 Clouds 26 1010 69 10000 2.1 180 07:24 15.05.2020
3026 Clouds 27 1010 65 10000 2.6 170 06:47 15.05.2020
3027 Clouds 28 1010 61 10000 3.1 170 05:49 15.05.2020
3028 Clouds 28 1010 65 10000 3.1 190 04:27 15.05.2020
3029 Clouds 25 1011 68 0 2.94 191 03:46 15.05.2020
3030 Clouds 27 1012 65 10000 3.1 200 02:30 15.05.2020
3031 Clouds 27 1012 65 10000 3.1 200 01:20 15.05.2020
3032 Clouds 27 1013 69 10000 2.6 200 00:48 15.05.2020
3033 Clouds 27 1013 69 10000 2.6 200 00:29 15.05.2020
3034 Clouds 27 1013 65 10000 2.6 200 23:44 14.05.2020
3035 Clouds 27 1013 65 10000 2.6 200 23:21 14.05.2020
3036 Clouds 25 1012 78 10000 2.1 220 22:57 14.05.2020
3037 Clouds 25 1012 78 10000 2.1 220 22:39 14.05.2020
3038 Clouds 25 1012 78 10000 2.1 220 22:19 14.05.2020
3039 Clouds 24 1013 73 0 1.43 235 21:55 14.05.2020
3040 Clouds 24 1013 73 0 1.43 235 21:37 14.05.2020
3041 Clouds 23 1013 77 0 2.15 226 21:18 14.05.2020
3042 Clouds 23 1013 77 0 2.15 226 20:42 14.05.2020
3043 Clouds 23 1011 94 10000 2.74 220 20:20 14.05.2020
3044 Clouds 23 1011 94 10000 2.74 220 20:20 14.05.2020
3045 Clouds 23 1011 94 10000 2.74 220 19:58 14.05.2020
3046 Clouds 23 1011 94 10000 2.74 220 19:39 14.05.2020
3047 Clouds 23 1011 94 10000 2.84 216 19:20 14.05.2020
3048 Clouds 23 1011 94 10000 2.84 216 18:58 14.05.2020
3049 Clouds 23 1011 94 10000 2.84 216 18:58 14.05.2020
3050 Clouds 23 1011 94 10000 2.84 216 18:38 14.05.2020
3051 Clouds 23 1011 94 10000 2.7 214 18:19 14.05.2020
3052 Clouds 23 1011 94 10000 2.7 214 17:57 14.05.2020
3053 Clouds 23 1011 94 10000 2.7 214 17:37 14.05.2020
3054 Clouds 23 1012 79 0 2.57 216 17:18 14.05.2020
3055 Clouds 23 1012 79 0 2.57 216 16:56 14.05.2020
3056 Clouds 23 1012 79 0 2.57 216 16:37 14.05.2020
3057 Clouds 23 1012 79 0 2.65 214 16:18 14.05.2020
3058 Clouds 23 1012 79 0 2.65 214 15:41 14.05.2020
3059 Clouds 23 1012 80 0 2.47 210 15:21 14.05.2020
3060 Clouds 23 1012 80 0 2.47 210 14:57 14.05.2020
3061 Clouds 23 1012 80 0 2.47 210 14:39 14.05.2020
3062 Clouds 25 1013 83 10000 2.02 206 14:20 14.05.2020
3063 Clouds 25 1013 83 10000 1.91 212 13:57 14.05.2020
3064 Clouds 25 1013 83 10000 1.91 212 13:38 14.05.2020
3065 Clouds 25 1013 83 10000 1.91 212 13:38 14.05.2020
3066 Clouds 25 1013 83 10000 1.91 212 13:38 14.05.2020
3067 Clouds 25 1013 78 10000 2.01 205 13:19 14.05.2020
3068 Clouds 25 1013 78 10000 2.01 205 12:57 14.05.2020
3069 Clouds 25 1013 78 10000 2.01 205 12:38 14.05.2020
3070 Clouds 25 1013 78 10000 2.01 205 12:38 14.05.2020
3071 Clouds 25 1013 78 10000 2.48 198 12:18 14.05.2020
3072 Clouds 25 1013 78 10000 1.5 200 11:57 14.05.2020
3073 Clouds 25 1013 78 10000 1.5 200 11:38 14.05.2020
3074 Clouds 25 1012 78 10000 2.6 200 11:19 14.05.2020
3075 Clouds 25 1012 78 10000 2.6 200 10:45 14.05.2020
3076 Clouds 25 1012 78 10000 2.6 200 10:26 14.05.2020
3077 Clouds 24 1013 77 0 3 199 09:56 14.05.2020
3078 Clouds 24 1013 77 0 3 199 09:38 14.05.2020
3079 Clouds 24 1012 78 0 3.29 194 09:19 14.05.2020
3080 Clouds 26 1011 78 10000 2.6 190 08:40 14.05.2020
3081 Clouds 26 1011 78 10000 2.6 190 08:19 14.05.2020
3082 Clouds 26 1011 78 10000 2.6 190 07:45 14.05.2020
3083 Clouds 26 1011 78 10000 2.6 190 07:22 14.05.2020
3084 Clouds 28 1010 74 10000 3.6 190 06:53 14.05.2020
3085 Clouds 28 1010 74 10000 3.6 190 06:27 14.05.2020
3086 Clouds 28 1010 74 10000 3.6 190 05:43 14.05.2020
3087 Clouds 28 1010 74 10000 3.6 190 05:22 14.05.2020
3088 Clouds 28 1011 74 10000 2.6 190 03:52 14.05.2020
3089 Clouds 28 1011 74 10000 2.6 190 03:20 14.05.2020
3090 Clouds 26 1011 70 0 3.04 185 02:39 14.05.2020
3091 Clouds 28 1013 74 10000 2.1 200 01:52 14.05.2020
3092 Clouds 27 1014 78 10000 2.86 195 00:58 14.05.2020
3093 Clouds 27 1014 78 10000 2.86 195 00:29 14.05.2020
3094 Clouds 26 1014 83 10000 2.76 207 23:55 13.05.2020
3095 Clouds 26 1014 83 10000 2.76 207 23:37 13.05.2020
3096 Clouds 24 1013 94 10000 2.9 214 23:18 13.05.2020
3097 Clouds 24 1013 94 10000 2.9 214 22:41 13.05.2020
3098 Clouds 24 1013 94 10000 2.8 219 22:22 13.05.2020
3099 Clouds 22 1013 100 10000 2.8 219 21:59 13.05.2020
3100 Clouds 22 1013 100 10000 2.8 219 21:40 13.05.2020
3101 Clouds 22 1013 100 10000 2.28 211 21:19 13.05.2020
3102 Clouds 24 1013 82 0 2.28 211 20:56 13.05.2020
3103 Clouds 23 1012 100 10000 2.28 211 20:38 13.05.2020
3104 Clouds 23 1012 100 10000 2.95 208 20:19 13.05.2020
3105 Clouds 23 1012 100 10000 2.95 208 19:42 13.05.2020
3106 Clouds 23 1012 100 10000 2.76 208 19:23 13.05.2020
3107 Clouds 24 1012 94 10000 2.76 208 18:45 13.05.2020
3108 Clouds 24 1012 94 10000 2.32 206 18:22 13.05.2020
3109 -273 0 0 0 0 0 18:22 13.05.2020
3110 Clouds 24 1012 94 10000 2.32 206 18:21 13.05.2020
3111 Clouds 24 1012 94 10000 2.32 206 17:39 13.05.2020
3112 Clouds 24 1012 94 10000 2.69 200 17:20 13.05.2020
3113 Clouds 24 1012 94 10000 2.69 200 16:56 13.05.2020
3114 Clouds 24 1012 94 10000 2.69 200 16:38 13.05.2020
3115 Clouds 24 1012 94 10000 2.59 198 16:18 13.05.2020
3116 Clouds 24 1013 94 10000 2.59 198 15:42 13.05.2020
3117 Clouds 24 1013 94 10000 2.59 198 15:42 13.05.2020
3118 Clouds 24 1013 94 10000 2.73 196 15:20 13.05.2020
3119 Clouds 24 1013 91 0 2.73 196 14:57 13.05.2020
3120 Clouds 24 1013 91 0 2.73 196 14:39 13.05.2020
3121 Clouds 24 1013 100 10000 2.37 203 14:21 13.05.2020
3122 Clouds 24 1013 100 10000 2.37 203 13:57 13.05.2020
3123 Clouds 24 1013 100 10000 2.37 203 13:57 13.05.2020
3124 Clouds 24 1013 100 10000 2.37 203 13:39 13.05.2020
3125 Clouds 25 1013 94 10000 1.92 199 13:20 13.05.2020
3126 Clouds 25 1013 94 10000 1.92 199 12:43 13.05.2020
3127 Clouds 25 1013 94 10000 1.92 199 12:43 13.05.2020
3128 Clouds 25 1013 94 10000 1.14 204 12:23 13.05.2020
3129 Clouds 25 1013 94 10000 1.14 204 11:57 13.05.2020
3130 Clouds 25 1013 94 10000 1.14 204 11:39 13.05.2020
3131 Clouds 25 1013 94 10000 1.01 194 11:20 13.05.2020
3132 Clouds 25 1013 94 10000 1.01 194 10:59 13.05.2020
3133 Clouds 25 1013 94 10000 1.01 194 10:39 13.05.2020
3134 Clouds 25 1012 94 10000 1.19 193 10:20 13.05.2020
3135 Clouds 25 1012 94 10000 1.19 193 09:58 13.05.2020
3136 Clouds 25 1012 94 10000 1.19 193 09:40 13.05.2020
3137 Clouds 25 1012 94 10000 1.5 190 09:21 13.05.2020
3138 Clouds 25 1012 94 10000 1.47 187 09:21 13.05.2020
3139 Rain 25 1012 94 10000 1.5 190 08:41 13.05.2020
3140 Rain 25 1012 94 10000 1.53 186 08:22 13.05.2020
3141 Rain 25 1012 94 10000 1.53 186 07:59 13.05.2020
3142 Rain 25 1012 94 10000 1.53 186 07:36 13.05.2020
3143 Rain 26 1012 94 10000 1.63 183 06:58 13.05.2020
3144 Rain 26 1012 94 10000 1.63 183 06:40 13.05.2020
3145 Rain 27 1011 78 10000 2.1 260 05:50 13.05.2020
3146 Rain 26 1011 80 0 1.93 173 04:22 13.05.2020
3147 Rain 26 1012 84 0 2.2 176 02:59 13.05.2020
3148 Clouds 29 1013 66 10000 2.6 320 02:20 13.05.2020
3149 Clouds 29 1013 66 10000 2.6 320 01:21 13.05.2020
3150 Clouds 28 1014 74 10000 2.1 310 00:39 13.05.2020
3151 Clouds 28 1014 74 10000 2.1 310 00:18 13.05.2020
3152 Clouds 25 1014 94 10000 2.6 290 23:39 12.05.2020
3153 Clouds 25 1014 94 10000 2.6 290 23:20 12.05.2020
3154 Clouds 25 1014 94 10000 2.6 290 23:20 12.05.2020
3155 Clouds 24 1013 94 10000 1.14 240 22:43 12.05.2020
3156 Clouds 24 1013 94 10000 1.41 275 22:23 12.05.2020
3157 Clouds 24 1013 94 10000 1.41 275 22:23 12.05.2020
3158 Clouds 24 1013 94 10000 1.41 275 22:23 12.05.2020
3159 Clouds 23 1013 94 10000 1.41 275 21:59 12.05.2020
3160 Clouds 23 1013 94 10000 1.41 275 21:40 12.05.2020
3161 Clouds 23 1013 94 10000 1.07 276 21:22 12.05.2020
3162 Rain 23 1013 91 0 1.27 287 20:59 12.05.2020
3163 Rain 23 1013 91 0 1.27 287 20:59 12.05.2020
3164 Clouds 23 1011 94 10000 1.27 287 20:41 12.05.2020
3165 Clouds 23 1011 94 10000 1.32 303 20:23 12.05.2020
3166 Clouds 23 1011 94 10000 1.32 303 19:59 12.05.2020
3167 Rain 23 1013 91 0 1.32 303 19:40 12.05.2020
3168 Clouds 24 1012 94 10000 0.98 325 19:21 12.05.2020
3169 Clouds 24 1012 94 10000 0.98 325 18:57 12.05.2020
3170 Clouds 24 1012 94 10000 0.98 325 18:38 12.05.2020
3171 Clouds 24 1012 94 10000 0.77 337 18:20 12.05.2020
3172 Clouds 24 1012 94 10000 0.77 337 17:43 12.05.2020
3173 Clouds 24 1012 94 10000 0.88 352 17:24 12.05.2020
3174 Clouds 24 1012 94 10000 0.88 352 16:47 12.05.2020
3175 Clouds 24 1012 94 10000 1.26 17 16:26 12.05.2020
3176 Clouds 24 1012 94 10000 1.26 17 16:26 12.05.2020
3177 Clouds 24 1013 86 0 1.26 17 15:57 12.05.2020
3178 Clouds 24 1013 86 0 1.26 17 15:39 12.05.2020
3179 Clouds 24 1013 85 0 1.37 10 15:20 12.05.2020
3180 Clouds 24 1013 85 0 1.37 10 14:58 12.05.2020
3181 Clouds 24 1013 94 10000 1.5 360 14:39 12.05.2020
3182 Clouds 24 1013 94 10000 1.5 360 14:20 12.05.2020
3183 Clouds 24 1013 94 10000 1.5 360 13:58 12.05.2020
3184 Clouds 24 1013 94 10000 1.5 360 13:40 12.05.2020
3185 Clouds 24 1013 94 10000 1.5 360 13:20 12.05.2020
3186 Clouds 25 1013 88 10000 2.22 23 12:58 12.05.2020
3187 Clouds 25 1013 88 10000 2.22 23 12:39 12.05.2020
3188 Clouds 25 1013 88 10000 2.28 37 12:21 12.05.2020
3189 Clouds 24 1013 94 10000 2.28 37 11:58 12.05.2020
3190 Clouds 24 1013 94 10000 2.28 37 11:38 12.05.2020
3191 Clouds 24 1013 94 10000 2.08 47 11:20 12.05.2020
3192 Clouds 25 1013 88 10000 2.08 47 10:58 12.05.2020
3193 Clouds 25 1013 88 10000 2.08 47 10:40 12.05.2020
3194 Clouds 25 1013 88 10000 2.34 57 10:21 12.05.2020
3195 Clouds 25 1012 83 10000 2.34 57 09:59 12.05.2020
3196 Clouds 25 1012 83 10000 2.34 57 09:39 12.05.2020
3197 Clouds 25 1012 83 10000 1.97 68 09:20 12.05.2020
3198 Clouds 24 1013 80 0 1.97 68 08:54 12.05.2020
3199 Clouds 26 1011 74 10000 3.1 90 08:36 12.05.2020
3200 Clouds 26 1011 74 10000 3.1 90 08:18 12.05.2020
3201 Clouds 26 1011 74 10000 3.1 90 07:41 12.05.2020
3202 Clouds 26 1011 74 10000 3.1 90 07:21 12.05.2020
3203 Clouds 27 1011 69 10000 3.1 90 06:39 12.05.2020
3204 Clouds 27 1011 69 10000 3.1 90 06:21 12.05.2020
3205 Clouds 28 1010 65 10000 3.1 100 05:49 12.05.2020
3206 Clouds 28 1011 65 10000 2.6 100 04:54 12.05.2020
3207 Clouds 26 1011 68 0 2.86 97 03:26 12.05.2020
3208 Clouds 28 1013 61 10000 2.1 90 02:28 12.05.2020
3209 Clouds 28 1013 61 10000 2.1 90 01:56 12.05.2020
3210 Clouds 28 1013 61 10000 2.1 90 01:20 12.05.2020
3211 Clouds 27 1013 61 10000 2.1 130 00:25 12.05.2020
3212 Clouds 26 1013 69 10000 1.02 90 23:57 11.05.2020
3213 Clouds 26 1013 69 10000 1.02 90 23:38 11.05.2020
3214 Clouds 26 1013 69 10000 0.44 60 23:20 11.05.2020
3215 Clouds 22 1013 94 10000 2.1 320 22:58 11.05.2020
3216 Clouds 22 1013 94 10000 2.1 320 22:40 11.05.2020
3217 Clouds 22 1013 94 10000 2.1 320 22:19 11.05.2020
3218 Clouds 23 1014 73 0 0.45 277 21:55 11.05.2020
3219 Clouds 23 1014 73 0 0.45 277 21:37 11.05.2020
3220 Clouds 22 1013 76 0 0.57 239 21:18 11.05.2020
3221 Clouds 22 1013 76 0 0.57 239 20:55 11.05.2020
3222 Clouds 21 1011 94 10000 0.57 239 20:36 11.05.2020
3223 Clouds 21 1011 94 10000 0.62 206 20:18 11.05.2020
3224 Clouds 21 1011 94 10000 0.62 206 19:41 11.05.2020
3225 Clouds 21 1011 94 10000 0.69 200 19:22 11.05.2020
3226 Clouds 21 1011 100 10000 0.69 200 18:58 11.05.2020
3227 Clouds 21 1011 100 10000 0.69 200 18:39 11.05.2020
3228 Clouds 21 1011 100 10000 0.83 192 18:20 11.05.2020
3229 Clouds 21 1011 100 10000 0.83 192 17:57 11.05.2020
3230 Clouds 21 1011 100 10000 0.83 192 17:39 11.05.2020
3231 Clouds 21 1011 100 10000 0.83 174 17:21 11.05.2020
3232 Clouds 22 1011 100 10000 0.83 174 16:56 11.05.2020
3233 Clouds 22 1011 100 10000 0.83 174 16:37 11.05.2020
3234 Clouds 22 1011 100 10000 0.8 143 16:19 11.05.2020
3235 Clear 22 1011 75 0 0.8 143 15:42 11.05.2020
3236 Clear 22 1012 74 0 0.99 137 15:20 11.05.2020
3237 Clear 22 1012 74 0 0.99 137 14:58 11.05.2020
3238 Clouds 24 1012 88 10000 1.05 147 14:40 11.05.2020
3239 Clouds 24 1012 88 10000 1.13 156 14:21 11.05.2020
3240 Clouds 24 1012 88 10000 1.13 156 13:42 11.05.2020
3241 Clouds 24 1012 88 10000 1.39 155 13:23 11.05.2020
3242 Clouds 24 1012 88 10000 1.39 155 12:59 11.05.2020
3243 Clouds 24 1012 88 10000 1.39 155 12:41 11.05.2020
3244 Clouds 24 1012 88 10000 1.44 156 12:23 11.05.2020
3245 Clouds 24 1012 88 10000 1.44 156 11:58 11.05.2020
3246 Clouds 24 1012 88 10000 1.44 156 11:40 11.05.2020
3247 Clouds 24 1012 88 10000 1.8 171 11:21 11.05.2020
3248 Clouds 24 1012 88 10000 1.8 171 10:58 11.05.2020
3249 Clouds 24 1012 88 10000 1.8 171 10:58 11.05.2020
3250 Clouds 24 1012 88 10000 1.8 171 10:40 11.05.2020
3251 Clouds 24 1012 88 10000 2.18 176 10:21 11.05.2020
3252 Clouds 24 1012 88 10000 2.18 176 10:21 11.05.2020
3253 Clouds 24 1012 70 0 2.18 176 09:58 11.05.2020
3254 Clouds 24 1011 71 0 2.76 176 09:39 11.05.2020
3255 Clouds 24 1011 70 0 2.74 169 09:19 11.05.2020
3256 Clouds 24 1011 70 0 2.74 169 08:55 11.05.2020
3257 Clouds 26 1010 65 10000 3.6 170 08:36 11.05.2020
3258 Clouds 26 1010 65 10000 3.6 170 08:18 11.05.2020
3259 Clouds 26 1010 65 10000 3.6 170 07:41 11.05.2020
3260 Clouds 26 1010 65 10000 3.6 170 07:23 11.05.2020
3261 Clouds 27 1010 61 10000 3.6 170 06:39 11.05.2020
3262 Clouds 27 1010 61 10000 3.6 180 05:54 11.05.2020
3263 Clouds 27 1010 61 10000 3.6 180 05:23 11.05.2020
3264 Clouds 25 1010 67 0 3.38 182 03:56 11.05.2020
3265 Clouds 27 1012 69 10000 2.1 180 02:36 11.05.2020
3266 Clouds 27 1012 69 10000 2.1 180 02:18 11.05.2020
3267 Clouds 27 1012 69 10000 2.1 180 01:21 11.05.2020
3268 Clouds 27 1013 65 10000 2.6 190 00:41 11.05.2020
3269 Clouds 27 1013 65 10000 2.6 190 00:19 11.05.2020
3270 Clouds 26 1013 78 10000 1 0 23:40 10.05.2020
3271 Clouds 26 1013 78 10000 1 0 23:20 10.05.2020
3272 Clouds 24 1012 83 10000 3.12 189 22:55 10.05.2020
3273 Clouds 24 1012 83 10000 3.12 189 22:37 10.05.2020
3274 Clouds 24 1012 83 10000 3 199 22:18 10.05.2020
3275 Clouds 21 1012 94 10000 3 199 21:42 10.05.2020
3276 Clouds 21 1012 94 10000 2.89 202 21:18 10.05.2020
3277 Clouds 23 1012 76 0 2.89 202 20:43 10.05.2020
3278 Clouds 21 1011 100 10000 3.26 206 20:24 10.05.2020
3279 Clouds 21 1011 100 10000 3.26 206 19:58 10.05.2020
3280 Clouds 21 1011 100 10000 3.26 206 19:39 10.05.2020
3281 Clouds 21 1011 100 10000 3.26 211 19:21 10.05.2020
3282 Clouds 21 1011 100 10000 3.26 211 19:21 10.05.2020
3283 Clouds 23 1010 94 10000 3.26 211 18:56 10.05.2020
3284 Clouds 23 1010 94 10000 3.26 211 18:36 10.05.2020
3285 Clouds 23 1010 94 10000 3.37 213 18:18 10.05.2020
3286 Clouds 24 1011 83 10000 3.37 213 17:58 10.05.2020
3287 Clouds 24 1011 83 10000 3.37 213 17:39 10.05.2020
3288 Clouds 24 1011 83 10000 3.09 219 17:20 10.05.2020
3289 Clouds 24 1011 83 10000 2.1 230 16:44 10.05.2020
3290 Clouds 24 1011 83 10000 2.1 230 16:21 10.05.2020
3291 Clouds 23 1011 76 0 3.34 216 15:58 10.05.2020
3292 Clouds 23 1011 76 0 3.34 216 15:40 10.05.2020
3293 Clouds 24 1012 77 0 3.5 216 15:22 10.05.2020
3294 Clouds 24 1012 77 0 3.5 216 14:56 10.05.2020
3295 Clouds 25 1012 78 10000 3.5 216 14:37 10.05.2020
3296 Clouds 25 1012 78 10000 3.87 207 14:19 10.05.2020
3297 Clouds 25 1012 78 10000 3.9 214 14:19 10.05.2020
3298 Clouds 25 1012 78 10000 3.87 207 13:57 10.05.2020
3299 Clouds 25 1012 78 10000 3.87 207 13:37 10.05.2020
3300 Clouds 25 1012 78 10000 4.02 208 13:18 10.05.2020
3301 Clouds 25 1012 78 10000 4.02 208 12:42 10.05.2020
3302 Clouds 25 1012 78 10000 4.15 209 12:23 10.05.2020
3303 Clouds 25 1012 78 10000 4.15 209 11:59 10.05.2020
3304 Clouds 25 1012 78 10000 4.15 209 11:40 10.05.2020
3305 Clouds 25 1012 78 10000 3.93 212 11:21 10.05.2020
3306 Clouds 25 1012 78 10000 2.6 150 10:55 10.05.2020
3307 Clouds 25 1012 78 10000 2.6 150 10:55 10.05.2020
3308 Clouds 25 1012 78 10000 2.6 150 10:37 10.05.2020
3309 Clouds 25 1012 78 10000 2.6 150 10:37 10.05.2020
3310 Clouds 26 1011 74 10000 2.6 150 10:19 10.05.2020
3311 Clouds 26 1011 74 10000 2.6 150 09:42 10.05.2020
3312 Clouds 26 1011 74 10000 2.6 150 09:23 10.05.2020
3313 Clouds 25 1011 79 0 4.62 213 08:57 10.05.2020
3314 Clouds 25 1011 79 0 4.62 213 08:39 10.05.2020
3315 Clouds 26 1010 78 10000 3.1 170 08:20 10.05.2020
3316 Clouds 26 1010 78 10000 3.1 170 07:40 10.05.2020
3317 Clouds 26 1010 78 10000 3.1 170 07:19 10.05.2020
3318 Clouds 27 1010 74 10000 3.6 200 06:50 10.05.2020
3319 Clouds 27 1010 74 10000 3.6 200 06:26 10.05.2020
3320 Clouds 28 1010 74 10000 3.6 190 05:45 10.05.2020
3321 Clouds 29 1010 74 10000 3.6 200 04:45 10.05.2020
3322 Clouds 29 1010 74 10000 3.6 200 04:25 10.05.2020
3323 Clouds 26 1010 77 0 5.48 215 03:47 10.05.2020
3324 Rain 27 1011 77 0 5.76 218 02:59 10.05.2020
3325 Clouds 29 1012 74 10000 4.1 230 02:25 10.05.2020
3326 Clouds 29 1012 74 10000 4.1 230 01:57 10.05.2020
3327 Clouds 29 1012 74 10000 4.1 230 01:39 10.05.2020
3328 Clouds 29 1012 74 10000 4.1 230 01:18 10.05.2020
3329 Clouds 28 1013 78 10000 4.1 230 00:52 10.05.2020
3330 Clouds 28 1013 78 10000 4.1 230 00:20 10.05.2020
3331 Clouds 27 1013 83 10000 4.17 240 23:40 09.05.2020
3332 Clouds 27 1013 83 10000 4.21 243 23:21 09.05.2020
3333 Clouds 25 1012 94 10000 4.21 243 22:57 09.05.2020
3334 Clouds 25 1012 94 10000 4.21 243 22:39 09.05.2020
3335 Clouds 25 1012 94 10000 4.34 244 22:21 09.05.2020
3336 Clouds 24 1012 100 10000 4.34 244 21:55 09.05.2020
3337 Clouds 24 1012 100 10000 4.34 244 21:37 09.05.2020
3338 Clouds 25 1012 87 0 4.18 249 21:19 09.05.2020
3339 Clouds 25 1012 87 0 4.11 252 20:55 09.05.2020
3340 Clouds 24 1011 100 10000 4.11 252 20:36 09.05.2020
3341 Clouds 24 1011 100 10000 4.07 252 20:18 09.05.2020
3342 Clouds 24 1011 100 10000 4.07 252 19:40 09.05.2020
3343 Clouds 24 1011 100 10000 3.95 255 19:20 09.05.2020
3344 Clouds 24 1011 100 10000 3.95 255 18:55 09.05.2020
3345 Clouds 24 1011 100 10000 3.95 255 18:55 09.05.2020
3346 Clouds 24 1011 100 10000 3.95 255 18:37 09.05.2020
3347 Clouds 24 1011 100 10000 3.6 261 18:18 09.05.2020
3348 Clouds 24 1011 100 10000 3.6 261 18:18 09.05.2020
3349 Clouds 24 1011 100 10000 3.6 261 17:42 09.05.2020
3350 Clouds 24 1011 100 10000 3.27 265 17:22 09.05.2020
3351 Fog 24 1012 100 100 3.27 265 16:41 09.05.2020
3352 Fog 24 1012 100 100 3.02 273 16:20 09.05.2020
3353 Fog 24 1012 100 300 3.02 273 15:54 09.05.2020
3354 Fog 24 1012 100 300 3.02 273 15:36 09.05.2020
3355 Fog 24 1012 100 300 3.05 273 15:18 09.05.2020
3356 Clouds 25 1012 91 0 3.05 273 14:42 09.05.2020
3357 Clouds 25 1012 94 10000 3.82 258 14:20 09.05.2020
3358 Clouds 25 1012 94 10000 3.82 258 13:58 09.05.2020
3359 Clouds 25 1012 94 10000 3.82 258 13:40 09.05.2020
3360 Clouds 25 1012 94 10000 3.42 258 13:20 09.05.2020
3361 Clouds 25 1013 94 10000 3.42 258 12:43 09.05.2020
3362 Clouds 25 1013 94 10000 3.71 251 12:23 09.05.2020
3363 Clouds 25 1013 100 10000 3.71 251 11:59 09.05.2020
3364 Clouds 25 1013 100 10000 3.71 251 11:41 09.05.2020
3365 Clouds 25 1013 100 10000 3.68 243 11:19 09.05.2020
3366 Clouds 26 1012 94 10000 3.68 243 10:47 09.05.2020
3367 Clouds 26 1012 94 10000 3.78 237 10:25 09.05.2020
3368 Clear 26 1013 89 0 3.78 237 09:58 09.05.2020
3369 Clear 26 1013 89 0 3.78 237 09:38 09.05.2020
3370 Clear 26 1012 89 0 4.03 229 09:19 09.05.2020
3371 Clear 26 1012 89 0 4.03 229 08:51 09.05.2020
3372 Clouds 27 1010 88 10000 1.5 190 08:32 09.05.2020
3373 Clouds 27 1010 88 10000 1.5 190 07:50 09.05.2020
3374 Clouds 27 1010 88 10000 1.5 190 07:32 09.05.2020
3375 Clouds 28 1010 83 10000 2.1 190 06:54 09.05.2020
3376 Clouds 28 1010 83 10000 2.1 190 06:25 09.05.2020
3377 Clouds 28 1010 83 10000 1 0 05:46 09.05.2020
3378 Rain 28 1010 85 0 3.6 224 03:59 09.05.2020
3379 Rain 28 1010 85 0 3.6 224 03:38 09.05.2020
3380 Rain 29 1011 76 0 1.83 194 02:42 09.05.2020
3381 Clouds 29 1012 79 10000 3.6 360 01:54 09.05.2020
3382 Clouds 29 1012 79 10000 3.6 360 01:24 09.05.2020
3383 Clouds 29 1013 83 10000 2.6 360 00:54 09.05.2020
3384 Clouds 29 1013 83 10000 2.6 360 00:36 09.05.2020
3385 Clouds 26 1013 94 10000 2.61 350 23:54 08.05.2020
3386 Clouds 26 1013 94 10000 2.61 350 23:36 08.05.2020
3387 Clouds 26 1013 94 10000 3.27 353 23:18 08.05.2020
3388 Clouds 25 1012 94 10000 3.27 353 22:42 08.05.2020
3389 Clouds 25 1012 94 10000 3.49 353 22:19 08.05.2020
3390 Clouds 23 1012 100 10000 3.49 353 21:59 08.05.2020
3391 Clouds 23 1012 100 10000 3.49 353 21:59 08.05.2020
3392 Clouds 23 1012 100 10000 3.49 353 21:39 08.05.2020
3393 Clouds 23 1012 100 10000 3.16 351 21:19 08.05.2020
3394 Clear 25 1012 87 0 3.16 351 20:57 08.05.2020
3395 Clear 25 1012 87 0 3.16 351 20:38 08.05.2020
3396 Clouds 24 1012 88 0 3.39 357 20:20 08.05.2020
3397 Clouds 24 1012 88 0 3.39 357 19:44 08.05.2020
3398 Clouds 23 1011 100 10000 3.16 358 19:24 08.05.2020
3399 Clouds 23 1011 100 10000 3.16 358 18:55 08.05.2020
3400 Clouds 23 1011 100 10000 3.16 358 18:37 08.05.2020
3401 Clouds 23 1011 100 10000 2.84 353 18:18 08.05.2020
3402 Clouds 23 1011 100 10000 2.84 353 17:41 08.05.2020
3403 Clouds 23 1011 100 10000 2.62 347 17:18 08.05.2020
3404 Rain 23 1012 94 10000 2.62 347 16:44 08.05.2020
3405 Rain 23 1012 94 10000 2.65 344 16:26 08.05.2020
3406 Clouds 24 1011 89 0 2.65 344 15:57 08.05.2020
3407 Clouds 24 1011 89 0 2.65 344 15:39 08.05.2020
3408 Clouds 24 1012 90 0 2.79 347 15:18 08.05.2020
3409 Clouds 24 1012 90 0 2.79 347 14:41 08.05.2020
3410 Clouds 23 1012 100 10000 3.04 357 14:21 08.05.2020
3411 Clouds 23 1012 100 10000 3.04 357 13:59 08.05.2020
3412 Clouds 23 1012 100 10000 3.04 357 13:39 08.05.2020
3413 Clouds 23 1012 100 10000 2.92 3 13:19 08.05.2020
3414 Clouds 23 1013 100 10000 2.92 3 12:45 08.05.2020
3415 Clouds 23 1013 100 10000 2.37 1 12:25 08.05.2020
3416 Clouds 23 1013 100 10000 2.37 1 11:55 08.05.2020
3417 Clouds 23 1013 100 10000 2.37 1 11:37 08.05.2020
3418 Clouds 23 1013 100 10000 2.37 1 11:37 08.05.2020
3419 Clouds 23 1013 100 10000 1.81 16 11:18 08.05.2020
3420 Clouds 23 1012 100 10000 1.81 16 10:54 08.05.2020
3421 Clouds 23 1012 100 10000 1.81 16 10:54 08.05.2020
3422 Clouds 23 1012 100 10000 1.81 16 10:36 08.05.2020
3423 Clouds 24 1011 94 10000 1.98 56 10:18 08.05.2020
3424 Clouds 24 1011 94 10000 1.98 56 09:41 08.05.2020
3425 Clouds 24 1011 94 10000 2.25 4 09:19 08.05.2020
3426 Rain 26 1011 86 0 2.25 4 08:51 08.05.2020
3427 Clouds 24 1011 94 10000 2.07 5 08:25 08.05.2020
3428 Clouds 24 1011 94 10000 2.07 5 08:25 08.05.2020
3429 Clouds 24 1011 94 10000 2.07 5 07:54 08.05.2020
3430 Clouds 24 1011 94 10000 2.07 5 07:54 08.05.2020
3431 Clouds 24 1011 94 10000 2.07 5 07:36 08.05.2020
3432 Clouds 24 1011 94 10000 1.84 1 07:18 08.05.2020
3433 Clouds 24 1010 94 10000 1.84 1 06:39 08.05.2020
3434 Clouds 24 1011 94 10000 2.1 210 06:18 08.05.2020
3435 Clouds 24 1011 94 10000 2.1 210 05:24 08.05.2020
3436 Rain 28 1011 82 0 1 311 02:59 08.05.2020
3437 Rain 22 1013 100 2000 4.1 240 02:24 08.05.2020
3438 Rain 22 1013 100 2000 4.1 240 01:38 08.05.2020
3439 Rain 22 1013 100 2000 4.1 240 01:19 08.05.2020
3440 Rain 22 1013 100 2000 2.6 240 00:46 08.05.2020
3441 Rain 22 1013 100 2000 2.6 240 00:24 08.05.2020
3442 Rain 22 1014 94 4000 3.6 240 23:46 07.05.2020
3443 Rain 22 1014 94 4000 3.6 240 23:24 07.05.2020
3444 Clouds 25 1012 94 10000 2.4 351 22:59 07.05.2020
3445 Clouds 25 1012 94 10000 2.4 351 22:41 07.05.2020
3446 Clouds 25 1012 94 10000 2.91 356 22:20 07.05.2020
3447 Clouds 25 1012 94 10000 2.91 356 22:20 07.05.2020
3448 Clouds 24 1011 100 10000 1.5 20 21:57 07.05.2020
3449 Clouds 24 1011 100 10000 1.5 20 21:38 07.05.2020
3450 Clouds 24 1011 100 10000 1.5 20 21:19 07.05.2020
3451 Clouds 24 1011 100 10000 1.5 20 21:19 07.05.2020
3452 Clouds 24 1011 94 10000 3.3 356 20:55 07.05.2020
3453 Clouds 24 1011 94 10000 3.3 356 20:55 07.05.2020
3454 Clouds 24 1011 94 10000 3.3 356 20:36 07.05.2020
3455 Clouds 24 1011 94 10000 3.79 355 20:18 07.05.2020
3456 Rain 24 1009 94 10000 3.79 355 19:43 07.05.2020
3457 Rain 24 1009 94 10000 3.62 6 19:21 07.05.2020
3458 Rain 24 1010 94 10000 3.62 6 18:46 07.05.2020
3459 Rain 24 1010 94 10000 3.88 12 18:28 07.05.2020
3460 Rain 24 1011 94 10000 3.88 12 17:58 07.05.2020
3461 Rain 24 1011 94 10000 3.88 12 17:37 07.05.2020
3462 Rain 24 1011 94 10000 4.73 16 17:19 07.05.2020
3463 Rain 24 1011 100 10000 4.73 16 16:42 07.05.2020
3464 Rain 24 1011 100 10000 4.89 16 16:19 07.05.2020
3465 Rain 24 1012 100 10000 4.89 16 15:57 07.05.2020
3466 Rain 24 1012 100 10000 4.89 16 15:37 07.05.2020
3467 Rain 24 1012 100 10000 4.86 19 15:18 07.05.2020
3468 Rain 24 1012 100 10000 4.86 19 14:45 07.05.2020
3469 Rain 24 1012 100 10000 3.64 9 14:23 07.05.2020
3470 Rain 25 1013 88 9000 3.64 9 13:58 07.05.2020
3471 Rain 25 1013 88 9000 3.64 9 13:40 07.05.2020
3472 Rain 25 1013 88 9000 3.69 13 13:20 07.05.2020
3473 Rain 25 1013 88 9000 3.69 13 13:20 07.05.2020
3474 Rain 25 1012 100 10000 3.69 13 12:40 07.05.2020
3475 Rain 26 1012 88 10000 3.88 20 12:20 07.05.2020
3476 Rain 26 1012 88 10000 3.88 20 11:39 07.05.2020
3477 Rain 26 1012 88 10000 3.82 22 11:21 07.05.2020
3478 Clouds 27 1011 88 10000 3.82 22 10:57 07.05.2020
3479 Clouds 27 1011 88 10000 3.82 22 10:38 07.05.2020
3480 Clouds 27 1009 88 10000 4.47 32 10:18 07.05.2020
3481 Clouds 27 1009 88 10000 4.47 32 09:39 07.05.2020
3482 Clouds 27 1009 88 10000 4.5 31 09:19 07.05.2020
3483 Clouds 27 1009 83 10000 4.78 24 08:45 07.05.2020
3484 Clouds 27 1009 83 10000 5.32 34 08:24 07.05.2020
3485 Clouds 28 1008 83 10000 5.32 34 07:59 07.05.2020
3486 Clouds 28 1008 83 10000 5.32 34 07:40 07.05.2020
3487 Clouds 28 1009 83 10000 2.6 80 07:20 07.05.2020
3488 Clouds 28 1009 83 10000 2.6 80 06:38 07.05.2020
3489 Clouds 28 1009 83 10000 2.6 80 06:19 07.05.2020
3490 Clouds 29 1009 74 10000 5.1 80 04:41 07.05.2020
3491 Clouds 30 1010 74 10000 3.6 120 03:40 07.05.2020
3492 Clouds 30 1010 74 10000 3.6 120 03:18 07.05.2020
3493 Clouds 30 1011 74 10000 3.6 100 02:35 07.05.2020
3494 Clouds 30 1012 74 10000 3.6 80 01:37 07.05.2020
3495 Clouds 30 1012 74 10000 3.6 80 01:19 07.05.2020
3496 Clouds 29 1012 70 10000 2.6 50 00:42 07.05.2020
3497 Clouds 29 1012 70 10000 2.6 50 00:21 07.05.2020
3498 Clouds 26 1012 83 10000 2.01 64 23:44 06.05.2020
3499 Clouds 26 1012 83 10000 2.06 58 23:22 06.05.2020
3500 Clouds 25 1012 88 10000 2.06 58 22:55 06.05.2020
3501 Clouds 25 1012 88 10000 2.06 58 22:37 06.05.2020
3502 Clouds 25 1012 88 10000 2.35 69 22:18 06.05.2020
3503 Clouds 24 1011 94 10000 2.35 69 21:55 06.05.2020
3504 Clouds 24 1011 94 10000 2.35 69 21:36 06.05.2020
3505 Clouds 24 1011 94 10000 2.1 83 21:18 06.05.2020
3506 Clouds 24 1012 88 0 1.04 50 20:39 06.05.2020
3507 Clouds 24 1010 94 10000 1.07 108 20:21 06.05.2020
3508 Clouds 24 1010 94 10000 1.07 108 19:56 06.05.2020
3509 Clouds 24 1010 94 10000 1.07 108 19:38 06.05.2020
3510 Clouds 24 1010 94 10000 0.89 128 19:18 06.05.2020
3511 Clouds 24 1010 94 10000 0.89 128 19:18 06.05.2020
3512 Clouds 24 1010 94 10000 0.89 128 18:56 06.05.2020
3513 Clouds 24 1010 94 10000 0.89 128 18:37 06.05.2020
3514 Clouds 24 1010 94 10000 0.33 66 18:19 06.05.2020
3515 Clouds 24 1011 100 10000 0.33 66 17:55 06.05.2020
3516 Clouds 24 1011 100 10000 0.33 66 17:36 06.05.2020
3517 Clouds 24 1011 100 10000 0.63 341 17:18 06.05.2020
3518 Clouds 24 1011 100 10000 0.63 341 16:57 06.05.2020
3519 Clouds 24 1011 100 10000 0.63 341 16:39 06.05.2020
3520 Clouds 24 1011 100 10000 1.15 317 16:19 06.05.2020
3521 Clouds 24 1011 88 0 1.15 317 15:47 06.05.2020
3522 Clouds 24 1011 89 0 1.55 318 15:22 06.05.2020
3523 Clouds 24 1011 89 0 1.55 318 14:58 06.05.2020
3524 Clouds 24 1011 89 0 1.55 318 14:39 06.05.2020
3525 Clouds 24 1012 94 10000 2.1 160 14:19 06.05.2020
3526 Clouds 24 1012 94 10000 2.1 160 13:58 06.05.2020
3527 Clouds 24 1012 94 10000 2.1 160 13:38 06.05.2020
3528 Clouds 24 1012 94 10000 2.1 160 13:19 06.05.2020
3529 Clouds 24 1012 94 10000 1.89 299 12:43 06.05.2020
3530 Clouds 24 1012 94 10000 1.48 295 12:24 06.05.2020
3531 Clouds 25 1012 88 10000 1.48 295 11:42 06.05.2020
3532 Clouds 25 1012 88 10000 1.13 290 11:23 06.05.2020
3533 Rain 25 1011 94 10000 1.13 290 10:58 06.05.2020
3534 Rain 25 1011 94 10000 1.13 290 10:39 06.05.2020
3535 Rain 25 1010 94 10000 1.44 263 10:19 06.05.2020
3536 Rain 25 1010 94 10000 1.44 263 09:59 06.05.2020
3537 Rain 25 1010 94 10000 1.44 263 09:38 06.05.2020
3538 Rain 25 1010 94 10000 2.29 249 09:20 06.05.2020
3539 Clouds 25 1010 85 0 2.29 249 08:43 06.05.2020
3540 Clouds 25 1009 100 10000 2.1 150 08:20 06.05.2020
3541 Clouds 25 1009 100 10000 2.1 150 07:56 06.05.2020
3542 Clouds 25 1009 100 10000 2.1 150 07:38 06.05.2020
3543 Clouds 25 1009 100 10000 2.1 150 07:18 06.05.2020
3544 Clouds 26 1008 88 10000 3.1 160 06:46 06.05.2020
3545 Clouds 26 1008 88 10000 3.1 160 06:20 06.05.2020
3546 Rain 27 1008 83 10000 3.6 150 05:39 06.05.2020
3547 Rain 27 1009 88 10000 2.6 140 04:52 06.05.2020
3548 Rain 28 1009 70 0 2.04 192 03:52 06.05.2020
3549 Clouds 28 1009 64 0 1.98 178 03:26 06.05.2020
3550 Clouds 28 1009 64 0 1.98 178 02:51 06.05.2020
3551 Clouds 28 1011 83 10000 1.48 192 02:22 06.05.2020
3552 Clouds 28 1011 83 10000 1.69 187 01:42 06.05.2020
3553 Clouds 28 1011 83 10000 1.46 246 01:20 06.05.2020
3554 Clouds 28 1012 78 10000 1.46 246 00:44 06.05.2020
3555 Clouds 27 1012 83 10000 1.36 319 00:19 06.05.2020
3556 Clouds 27 1012 83 10000 1.36 319 23:41 05.05.2020
3557 Clouds 27 1012 83 10000 1.71 320 23:19 05.05.2020
3558 Clouds 25 1011 94 10000 1.71 320 22:54 05.05.2020
3559 Clouds 25 1011 94 10000 1.71 320 22:36 05.05.2020
3560 Clouds 23 1010 100 10000 2.18 350 22:18 05.05.2020
3561 Clouds 23 1010 100 10000 2.18 350 21:41 05.05.2020
3562 Clouds 23 1010 100 10000 2 346 21:21 05.05.2020
3563 Clouds 23 1010 86 0 2 346 20:59 05.05.2020
3564 Clouds 23 1010 86 0 2 346 20:40 05.05.2020
3565 Clouds 23 1009 100 10000 1.88 340 20:19 05.05.2020
3566 Clouds 23 1009 100 10000 1.88 340 19:59 05.05.2020
3567 Clouds 23 1009 100 10000 1.88 340 19:38 05.05.2020
3568 Clouds 23 1009 100 10000 1.73 337 19:20 05.05.2020
3569 Clouds 23 1009 100 10000 1.73 337 18:56 05.05.2020
3570 Clouds 23 1009 100 10000 1.73 337 18:38 05.05.2020
3571 Clouds 23 1009 100 10000 1.73 337 18:38 05.05.2020
3572 Clouds 23 1009 100 10000 1.68 338 18:19 05.05.2020
3573 Clouds 24 1009 100 10000 1.68 338 17:44 05.05.2020
3574 Clouds 24 1009 100 10000 1.68 338 17:44 05.05.2020
3575 Clouds 24 1009 100 10000 1.61 333 17:25 05.05.2020
3576 Clouds 24 1009 100 10000 1.61 333 16:58 05.05.2020
3577 Clouds 24 1009 100 10000 1.61 333 16:37 05.05.2020
3578 Clouds 24 1009 100 10000 1.92 327 16:18 05.05.2020
3579 Clouds 24 1010 88 0 1.92 327 15:56 05.05.2020
3580 Clouds 24 1010 88 0 1.92 327 15:38 05.05.2020
3581 Clouds 24 1010 88 0 2.1 333 15:19 05.05.2020
3582 Clouds 24 1010 88 0 2.1 333 14:54 05.05.2020
3583 Clouds 25 1011 94 10000 2.1 333 14:36 05.05.2020
3584 Clouds 25 1011 94 10000 2.38 336 14:18 05.05.2020
3585 Clouds 25 1011 94 10000 2.38 336 13:54 05.05.2020
3586 Clouds 25 1011 94 10000 2.38 336 13:36 05.05.2020
3587 Clouds 25 1011 94 10000 2.83 350 13:18 05.05.2020
3588 Clouds 25 1011 94 10000 2.6 80 12:40 05.05.2020
3589 Clouds 25 1011 94 10000 2.6 80 12:22 05.05.2020
3590 Clouds 25 1011 94 10000 2.6 70 11:59 05.05.2020
3591 Clouds 25 1011 94 10000 2.6 70 11:40 05.05.2020
3592 Clouds 25 1010 94 10000 3.8 12 11:19 05.05.2020
3593 Clouds 25 1010 94 10000 3.8 12 10:54 05.05.2020
3594 Clouds 25 1010 94 10000 3.8 12 10:36 05.05.2020
3595 Clouds 25 1010 94 10000 3.99 16 10:18 05.05.2020
3596 Clouds 25 1010 94 10000 2.1 70 09:44 05.05.2020
3597 Clouds 25 1010 94 10000 2.1 70 09:25 05.05.2020
3598 Clouds 25 1009 94 10000 3.79 18 08:43 05.05.2020
3599 Clouds 25 1009 94 10000 3.78 28 08:21 05.05.2020
3600 Clouds 25 1009 94 10000 3.78 28 07:59 05.05.2020
3601 Clouds 25 1009 94 10000 3.78 28 07:41 05.05.2020
3602 Rain 25 1009 94 10000 3.22 33 07:19 05.05.2020
3603 Rain 25 1009 94 10000 3.22 33 06:50 05.05.2020
3604 Rain 25 1009 94 10000 3.22 33 06:29 05.05.2020
3605 Rain 25 1009 94 10000 3.22 33 06:29 05.05.2020
3606 Rain 25 1009 94 10000 3.22 33 06:29 05.05.2020
3607 Clouds 26 1009 94 10000 3.4 37 05:50 05.05.2020
3608 Rain 27 1009 83 10000 2.6 50 04:52 05.05.2020
3609 Clouds 27 1012 78 10000 3.1 310 02:28 05.05.2020
3610 Clouds 26 1013 94 10000 1.5 310 00:54 05.05.2020
3611 Clouds 26 1013 94 10000 1.5 310 00:23 05.05.2020
3612 Rain 25 1013 94 10000 3.2 16 23:48 04.05.2020
3613 Rain 25 1013 94 10000 3.16 11 23:25 04.05.2020
3614 Clouds 24 1012 94 10000 3.16 11 22:57 04.05.2020
3615 Clouds 24 1012 94 10000 3.16 11 22:57 04.05.2020
3616 Clouds 24 1012 94 10000 3.16 11 22:38 04.05.2020
3617 Clouds 24 1012 94 10000 3.16 11 22:38 04.05.2020
3618 Clouds 24 1012 94 10000 2.9 10 22:20 04.05.2020
3619 Clouds 23 1012 100 10000 2.9 10 21:56 04.05.2020
3620 Clouds 23 1012 100 10000 2.56 357 21:35 04.05.2020
3621 Clouds 23 1012 85 0 2.56 357 21:03 04.05.2020
3622 Clouds 23 1011 100 10000 2.56 357 20:38 04.05.2020
3623 Clouds 23 1011 100 10000 2.32 353 20:18 04.05.2020
3624 Clouds 23 1011 100 10000 2.32 353 19:43 04.05.2020
3625 Clouds 23 1011 100 10000 2.13 356 19:23 04.05.2020
3626 Clouds 23 1011 100 10000 2.13 356 19:23 04.05.2020
3627 Clouds 23 1011 100 10000 2.1 360 18:58 04.05.2020
3628 Clouds 23 1011 100 10000 2.1 360 18:38 04.05.2020
3629 Clouds 23 1011 100 10000 2.1 360 18:19 04.05.2020
3630 Clouds 23 1011 100 10000 2.25 346 17:56 04.05.2020
3631 Clouds 23 1011 100 10000 2.25 346 17:37 04.05.2020
3632 Clouds 23 1011 100 10000 2.3 353 17:18 04.05.2020
3633 Clouds 23 1011 100 10000 2.3 353 16:43 04.05.2020
3634 Clear 24 1011 87 0 2.36 1 16:22 04.05.2020
3635 Clear 24 1011 87 0 2.36 1 15:55 04.05.2020
3636 Clear 24 1011 87 0 2.36 1 15:37 04.05.2020
3637 Clear 24 1011 87 0 2.36 1 15:37 04.05.2020
3638 Clear 24 1012 87 0 2.34 358 15:18 04.05.2020
3639 Clear 24 1012 87 0 2.34 358 14:48 04.05.2020
3640 Clear 24 1012 87 0 2.34 358 14:48 04.05.2020
3641 Clear 24 1012 87 0 2.34 358 14:45 04.05.2020
3642 Clear 24 1012 87 0 2.34 358 14:43 04.05.2020
3643 Clear 24 1012 87 0 2.34 358 14:43 04.05.2020
3644 Clouds 24 1013 100 10000 2.35 357 14:19 04.05.2020
3645 Clouds 24 1013 100 10000 2.25 6 12:53 04.05.2020
3646 Clouds 24 1013 100 10000 1.92 19 12:30 04.05.2020
3647 Clouds 24 1013 100 10000 1.92 19 12:30 04.05.2020
3648 Clouds 24 1013 100 10000 2.25 6 12:30 04.05.2020
3649 Clouds 24 1013 100 10000 2.25 6 12:30 04.05.2020
3650 Clouds 25 1012 94 10000 1.94 36 10:36 04.05.2020
3651 Clouds 25 1012 94 10000 1.94 36 10:36 04.05.2020
3652 Clouds 26 1011 88 10000 3.05 45 09:26 04.05.2020
3653 Clouds 26 1011 88 10000 3.05 45 09:26 04.05.2020
3654 Clouds 26 1011 88 10000 3.05 45 09:26 04.05.2020
3655 Clouds 26 1011 88 10000 3.05 45 09:26 04.05.2020
3656 Clouds 26 1011 88 10000 3.05 45 09:26 04.05.2020
3657 Clouds 29 1010 74 10000 3.6 50 07:53 04.05.2020
3658 Clouds 29 1010 74 10000 3.6 50 07:33 04.05.2020
3659 Clouds 29 1010 74 10000 3.6 50 07:33 04.05.2020
3660 Clouds 29 1010 74 10000 3.6 50 07:33 04.05.2020
3661 Clouds 29 1010 74 10000 3.6 50 07:33 04.05.2020
3662 Clouds 29 1010 74 10000 3.6 50 07:33 04.05.2020
3663 Clouds 30 1010 70 10000 3.6 50 04:59 04.05.2020
3664 Rain 27 1011 83 0 3.66 57 03:29 04.05.2020
3665 Clouds 27 1013 83 10000 3.1 40 02:32 04.05.2020
3666 Clouds 27 1013 83 10000 3.1 40 02:32 04.05.2020
3667 Clouds 27 1013 83 10000 3.1 40 01:19 04.05.2020
3668 Clouds 25 1014 94 10000 3.36 65 23:57 03.05.2020
3669 Clouds 25 1014 94 10000 3.36 65 23:57 03.05.2020
3670 Clouds 25 1014 94 10000 3.36 65 23:57 03.05.2020
3671 Clouds 25 1014 94 10000 3.36 65 23:39 03.05.2020
3672 Clouds 25 1014 94 10000 3.36 65 23:39 03.05.2020
3673 Clouds 25 1014 94 10000 3.24 69 23:19 03.05.2020
3674 Rain 24 1013 100 10000 3.24 69 22:41 03.05.2020
3675 Rain 24 1013 100 10000 3.24 69 22:41 03.05.2020
3676 Rain 24 1013 100 10000 3.52 69 22:22 03.05.2020
3677 Rain 26 1013 87 0 3.52 69 21:42 03.05.2020
3678 Rain 26 1013 87 0 3.52 69 21:42 03.05.2020
3679 Rain 26 1013 87 0 3.52 69 21:42 03.05.2020
3680 Rain 25 1012 88 0 3.35 72 21:21 03.05.2020
3681 Rain 25 1012 88 0 3.35 72 21:21 03.05.2020
3682 Rain 25 1012 88 0 3.35 72 20:54 03.05.2020
3683 Clouds 23 1011 100 10000 3.35 72 20:36 03.05.2020
3684 Clouds 23 1011 100 10000 3.49 77 20:18 03.05.2020
3685 Clouds 23 1011 100 10000 3.49 77 19:43 03.05.2020
3686 Clouds 23 1011 100 10000 3.54 76 19:23 03.05.2020
3687 Clouds 23 1011 100 10000 3.54 76 19:19 03.05.2020
3688 Clouds 23 1011 100 10000 3.54 76 19:19 03.05.2020
3689 Clouds 23 1011 100 10000 3.54 76 18:40 03.05.2020
3690 Clouds 23 1011 100 10000 3.87 76 18:21 03.05.2020
3691 Clouds 23 1011 100 10000 3.87 76 17:58 03.05.2020
3692 Clouds 23 1011 100 10000 3.87 76 17:39 03.05.2020
3693 Clouds 23 1011 100 10000 4.22 77 17:20 03.05.2020
3694 Clouds 24 1012 100 10000 4.22 77 16:44 03.05.2020
3695 Clouds 24 1012 100 10000 4.22 76 16:19 03.05.2020
3696 Clouds 24 1012 100 10000 4.22 76 15:58 03.05.2020
3697 Clouds 24 1012 100 10000 4.22 76 15:39 03.05.2020
3698 Clouds 24 1012 100 10000 4.37 78 15:20 03.05.2020
3699 Rain 25 1011 88 0 4.37 78 14:57 03.05.2020
3700 Clouds 24 1013 100 10000 4.37 78 14:38 03.05.2020
3701 Clouds 24 1013 100 10000 4.51 76 14:19 03.05.2020
3702 Clouds 24 1013 100 10000 4.51 76 13:39 03.05.2020
3703 Clouds 24 1013 100 10000 4.51 76 13:39 03.05.2020
3704 Clouds 24 1013 100 10000 4.51 76 13:39 03.05.2020
3705 Clouds 24 1013 100 10000 4.51 76 13:39 03.05.2020
3706 Clouds 24 1013 100 10000 4.51 76 13:39 03.05.2020
3707 Clouds 25 1013 94 10000 1.5 60 12:58 03.05.2020
3708 Clouds 25 1013 94 10000 1.5 60 12:58 03.05.2020
3709 Clouds 25 1013 94 10000 1.5 60 12:58 03.05.2020
3710 Clouds 25 1013 94 10000 1.5 60 12:58 03.05.2020
3711 Clouds 25 1013 94 10000 1.5 60 12:58 03.05.2020
3712 Clouds 25 1013 94 10000 1.5 60 12:37 03.05.2020
3713 Clouds 25 1013 94 10000 2.1 60 11:58 03.05.2020
3714 Clouds 25 1013 94 10000 2.1 60 11:40 03.05.2020
3715 Clouds 25 1013 94 10000 2.1 60 11:21 03.05.2020
3716 Clouds 25 1012 94 10000 2.1 140 10:55 03.05.2020
3717 Clouds 25 1012 94 10000 2.1 140 10:26 03.05.2020
3718 Clouds 25 1012 100 10000 4.1 120 09:45 03.05.2020
3719 Clouds 25 1012 100 10000 4.1 120 09:25 03.05.2020
3720 Clouds 25 1012 100 10000 4.1 120 09:25 03.05.2020
3721 Clouds 25 1012 100 10000 4.1 120 09:23 03.05.2020
3722 Clouds 26 1010 94 10000 1.5 90 08:36 03.05.2020
3723 Clouds 26 1010 94 10000 1.5 90 07:59 03.05.2020
3724 Clouds 26 1010 94 10000 1.5 90 07:38 03.05.2020
3725 Clouds 26 1010 94 10000 1.5 90 07:38 03.05.2020
3726 Clouds 26 1010 94 10000 1.5 90 07:38 03.05.2020
3727 Clouds 26 1010 94 10000 1.5 90 07:38 03.05.2020
3728 Rain 25 1010 100 10000 4.6 90 06:00 03.05.2020
3729 Rain 25 1010 100 10000 4.6 90 05:41 03.05.2020
3730 Rain 25 1010 94 10000 4.6 90 04:28 03.05.2020
3731 Rain 25 1011 94 10000 4.6 50 03:55 03.05.2020
3732 Clouds 28 1012 74 10000 6.7 120 02:38 03.05.2020
3733 Clouds 28 1012 74 10000 6.7 120 02:19 03.05.2020
3734 Clouds 28 1012 74 10000 6.7 120 02:19 03.05.2020
3735 Clouds 28 1012 74 10000 6.7 120 01:41 03.05.2020
3736 Clouds 28 1012 74 10000 6.7 120 01:22 03.05.2020
3737 Clouds 28 1013 74 10000 6.7 110 00:40 03.05.2020
3738 Clouds 26 1013 88 10000 4.1 120 00:21 03.05.2020
3739 Clouds 26 1013 88 10000 4.1 120 23:49 02.05.2020
3740 Clouds 26 1013 88 10000 4.1 120 23:30 02.05.2020
3741 Rain 26 1012 88 10000 6.2 110 22:59 02.05.2020
3742 Rain 26 1012 88 10000 6.2 110 22:41 02.05.2020
3743 Rain 26 1012 88 10000 6.2 110 22:22 02.05.2020
3744 Rain 27 1012 78 10000 4.6 120 21:54 02.05.2020
3745 Rain 27 1012 78 10000 4.6 120 21:36 02.05.2020
3746 Rain 27 1012 78 10000 4.6 120 21:18 02.05.2020
3747 Rain 25 1012 86 0 6.24 105 20:54 02.05.2020
3748 Clouds 26 1010 88 10000 3.6 110 20:36 02.05.2020
3749 Clouds 26 1010 88 10000 3.6 110 20:36 02.05.2020
3750 Clouds 26 1010 88 10000 3.6 110 20:18 02.05.2020
3751 Clouds 26 1010 88 10000 3.6 110 20:18 02.05.2020
3752 Clouds 26 1010 88 10000 3.6 110 19:39 02.05.2020
3753 Clouds 26 1010 88 10000 3.6 110 19:20 02.05.2020
3754 Rain 25 1011 87 0 6.57 106 18:56 02.05.2020
3755 Clouds 26 1010 88 10000 4.1 100 18:38 02.05.2020
3756 Clouds 26 1010 88 10000 4.1 100 18:20 02.05.2020
3757 Clouds 26 1010 88 10000 4.1 100 17:56 02.05.2020
3758 Clouds 26 1010 88 10000 4.1 100 17:38 02.05.2020
3759 Clouds 26 1010 88 10000 4.1 100 17:19 02.05.2020
3760 Clouds 25 1011 94 10000 2.6 110 16:46 02.05.2020
3761 Clouds 25 1011 94 10000 2.6 110 16:28 02.05.2020
3762 Rain 25 1011 94 10000 2.6 110 15:56 02.05.2020
3763 Rain 25 1011 94 10000 2.6 110 15:38 02.05.2020
3764 Rain 25 1011 94 10000 2.6 110 15:19 02.05.2020
3765 Rain 25 1011 94 10000 2.6 110 15:19 02.05.2020
3766 Rain 25 1011 86 0 6.14 104 14:42 02.05.2020
3767 Clouds 26 1012 88 10000 6.38 107 14:24 02.05.2020
3768 Clouds 26 1012 88 10000 6.38 107 13:58 02.05.2020
3769 Clouds 26 1012 88 10000 6.38 107 13:39 02.05.2020
3770 Clouds 26 1012 88 10000 6.51 108 13:18 02.05.2020
3771 Clouds 26 1012 88 10000 6.51 108 12:41 02.05.2020
3772 Clouds 26 1012 88 10000 6.49 110 12:20 02.05.2020
3773 Clouds 26 1012 88 10000 6.49 110 11:57 02.05.2020
3774 Clouds 26 1012 88 10000 6.49 110 11:38 02.05.2020
3775 Clouds 26 1012 88 10000 6.46 113 11:20 02.05.2020
3776 Clouds 25 1012 94 10000 6.46 113 10:40 02.05.2020
3777 Clouds 25 1012 94 10000 6.46 113 10:40 02.05.2020
3778 Clouds 25 1012 94 10000 6.5 113 10:22 02.05.2020
3779 Rain 25 1012 85 0 6.5 113 09:59 02.05.2020
3780 Rain 25 1012 85 0 6.5 113 09:40 02.05.2020
3781 Rain 25 1011 85 0 6.51 113 09:22 02.05.2020
3782 Rain 25 1011 86 0 6.41 108 08:55 02.05.2020
3783 Rain 25 1010 94 10000 3.1 100 08:37 02.05.2020
3784 Rain 25 1010 94 10000 3.1 100 08:18 02.05.2020
3785 Rain 25 1010 94 10000 3.1 100 07:42 02.05.2020
3786 Rain 25 1010 94 10000 3.1 100 07:22 02.05.2020
3787 Rain 28 1009 74 10000 4.1 110 06:42 02.05.2020
3788 Clouds 28 1009 78 10000 3.6 120 05:28 02.05.2020
3789 Clouds 28 1010 78 10000 5.7 90 04:27 02.05.2020
3790 Clouds 28 1010 74 10000 5.7 100 03:40 02.05.2020
3791 Rain 26 1010 84 0 7.07 110 02:41 02.05.2020
3792 Clouds 28 1012 78 10000 6.2 130 01:56 02.05.2020
3793 Clouds 28 1012 78 10000 6.2 130 01:20 02.05.2020
3794 Clouds 28 1013 74 10000 6.2 120 00:42 02.05.2020
3795 Clouds 28 1013 74 10000 6.2 120 00:21 02.05.2020
3796 Clouds 26 1013 88 10000 3.1 100 23:54 01.05.2020
3797 Clouds 26 1013 88 10000 3.1 100 23:36 01.05.2020
3798 Clouds 26 1013 88 10000 3.1 100 23:18 01.05.2020
3799 Clouds 25 1012 88 10000 6.85 103 22:38 01.05.2020
3800 Clouds 25 1012 88 10000 6.85 103 22:38 01.05.2020
3801 Clouds 26 1012 83 10000 6.39 103 22:19 01.05.2020
3802 Clouds 26 1012 83 10000 6.39 103 21:57 01.05.2020
3803 Clouds 26 1012 83 10000 6.39 103 21:39 01.05.2020
3804 Clouds 26 1012 83 10000 6.28 105 21:19 01.05.2020
3805 Rain 25 1012 84 0 6.28 105 20:57 01.05.2020
3806 Clouds 25 1010 88 10000 6.28 105 20:37 01.05.2020
3807 Clouds 25 1010 88 10000 6.28 107 20:19 01.05.2020
3808 Clouds 25 1010 88 10000 6.28 107 19:43 01.05.2020
3809 Clouds 25 1010 88 10000 6.26 104 19:23 01.05.2020
3810 Rain 24 1010 94 10000 2.6 130 18:59 01.05.2020
3811 Rain 24 1010 94 10000 2.6 130 18:40 01.05.2020
3812 Rain 24 1010 94 10000 2.6 130 18:21 01.05.2020
3813 Clouds 25 1011 88 10000 6.22 105 17:59 01.05.2020
3814 Clouds 25 1011 88 10000 6.22 105 17:39 01.05.2020
3815 Clouds 25 1011 88 10000 6.25 109 17:21 01.05.2020
3816 Rain 24 1011 85 0 6.25 109 16:57 01.05.2020
3817 Rain 24 1011 85 0 6.25 109 16:38 01.05.2020
3818 Rain 24 1011 85 0 6.24 108 16:20 01.05.2020
3819 Rain 24 1011 85 0 6.24 108 15:55 01.05.2020
3820 Rain 24 1011 85 0 6.24 108 15:37 01.05.2020
3821 Rain 24 1012 85 0 6.39 110 15:18 01.05.2020
3822 Rain 24 1012 86 0 5.43 107 14:42 01.05.2020
3823 Rain 24 1013 86 0 5.59 106 14:23 01.05.2020
3824 Rain 24 1013 86 0 5.59 106 13:42 01.05.2020
3825 Rain 24 1013 86 0 5.74 108 13:23 01.05.2020
3826 Rain 24 1013 86 0 5.74 108 12:58 01.05.2020
3827 Clouds 26 1012 83 10000 4.1 130 12:40 01.05.2020
3828 Clouds 26 1012 83 10000 4.1 130 12:20 01.05.2020
3829 Clouds 26 1012 83 10000 4.1 130 11:59 01.05.2020
3830 Clouds 26 1012 83 10000 4.1 130 11:40 01.05.2020
3831 Rain 24 1013 86 0 5.52 115 11:19 01.05.2020
3832 Rain 24 1013 86 0 5.52 115 10:41 01.05.2020
3833 Rain 24 1012 86 0 5.02 116 10:20 01.05.2020
3834 Rain 24 1012 86 0 5.02 116 09:59 01.05.2020
3835 Rain 24 1012 86 0 5.02 116 09:41 01.05.2020
3836 Rain 24 1011 86 0 4.74 115 09:18 01.05.2020
3837 Rain 24 1011 86 0 4.74 115 08:46 01.05.2020
3838 Rain 24 1011 86 0 4.89 113 08:28 01.05.2020
3839 Rain 24 1011 86 0 4.89 113 07:56 01.05.2020
3840 Rain 24 1011 86 0 4.89 113 07:37 01.05.2020
3841 Rain 25 1011 85 0 5 119 06:59 01.05.2020
3842 Rain 25 1010 85 0 4.81 116 06:18 01.05.2020
3843 Rain 25 1009 85 0 5.09 112 05:21 01.05.2020
3844 Rain 26 1009 85 0 5.38 111 03:43 01.05.2020
3845 Rain 26 1010 85 0 5.45 108 02:52 01.05.2020
3846 Clouds 27 1012 78 10000 5.7 100 02:34 01.05.2020
3847 Clouds 27 1012 78 10000 5.7 100 01:47 01.05.2020
3848 Clouds 27 1012 78 10000 5.7 100 01:26 01.05.2020
3849 Drizzle 27 1012 78 10000 5.7 110 00:40 01.05.2020
3850 Drizzle 27 1012 78 10000 5.7 110 00:20 01.05.2020
3851 Clouds 27 1012 78 10000 4.6 140 23:57 30.04.2020
3852 Clouds 27 1012 78 10000 4.6 140 23:38 30.04.2020
3853 Clouds 27 1012 78 10000 4.6 140 23:19 30.04.2020
3854 Clouds 25 1012 88 10000 4.6 130 22:42 30.04.2020
3855 Clouds 25 1012 88 10000 4.6 130 22:21 30.04.2020
3856 Clouds 24 1011 94 10000 2.6 130 21:59 30.04.2020
3857 Clouds 24 1011 94 10000 2.6 130 21:41 30.04.2020
3858 Clouds 24 1011 94 10000 2.6 130 21:21 30.04.2020
3859 Rain 24 1011 86 0 4.39 111 20:57 30.04.2020
3860 Clouds 25 1010 88 10000 4.39 111 20:39 30.04.2020
3861 Clouds 25 1010 88 10000 4.15 111 20:18 30.04.2020
3862 Clouds 25 1010 88 10000 4.15 111 19:45 30.04.2020
3863 Clouds 25 1010 88 10000 4.4 105 19:25 30.04.2020
3864 Clouds 24 1010 94 10000 4.4 105 18:57 30.04.2020
3865 Clouds 24 1010 94 10000 4.4 105 18:39 30.04.2020
3866 Clouds 24 1010 94 10000 4.39 103 18:20 30.04.2020
3867 Clouds 25 1010 88 10000 2.6 120 17:57 30.04.2020
3868 Clouds 25 1010 88 10000 2.6 120 17:39 30.04.2020
3869 Clouds 25 1010 88 10000 2.6 120 17:39 30.04.2020
3870 Clouds 25 1011 88 10000 4.22 102 17:20 30.04.2020
3871 Clouds 25 1011 88 10000 4.22 102 16:55 30.04.2020
3872 Clouds 25 1011 88 10000 4.22 102 16:36 30.04.2020
3873 Rain 24 1010 85 0 4.66 93 16:18 30.04.2020
3874 Rain 24 1010 85 0 4.66 93 15:44 30.04.2020
3875 Rain 24 1011 86 0 5.1 95 15:23 30.04.2020
3876 Rain 24 1011 86 0 5.1 95 14:43 30.04.2020
3877 Clouds 25 1013 88 10000 2.6 140 14:22 30.04.2020
3878 Clouds 25 1013 88 10000 2.6 140 13:59 30.04.2020
3879 Clouds 25 1013 88 10000 2.6 140 13:41 30.04.2020
3880 Clouds 25 1013 88 10000 2.6 140 13:22 30.04.2020
3881 Clouds 26 1012 78 10000 4.1 110 12:59 30.04.2020
3882 Clouds 26 1012 78 10000 4.1 110 12:40 30.04.2020
3883 Clouds 26 1012 78 10000 4.1 110 12:19 30.04.2020
3884 Clouds 26 1012 78 10000 5.1 100 11:38 30.04.2020
3885 Clouds 26 1012 78 10000 5.1 100 11:19 30.04.2020
3886 Clouds 25 1012 88 10000 2.6 130 10:58 30.04.2020
3887 Clouds 25 1012 88 10000 2.6 130 10:38 30.04.2020
3888 Clouds 25 1011 88 10000 3.1 120 10:20 30.04.2020
3889 Clouds 25 1011 88 10000 3.1 120 09:55 30.04.2020
3890 Clouds 25 1011 88 10000 3.1 120 09:37 30.04.2020
3891 Clouds 25 1011 88 10000 3.1 120 09:18 30.04.2020
3892 Clouds 24 1011 86 0 3.36 127 08:44 30.04.2020
3893 Clouds 25 1010 88 10000 3.46 124 08:23 30.04.2020
3894 Clouds 25 1010 88 10000 3.46 124 07:43 30.04.2020
3895 Clouds 25 1010 88 10000 2.76 104 07:25 30.04.2020
3896 Clouds 25 1010 88 10000 2.76 104 06:51 30.04.2020
3897 Clouds 24 1010 94 10000 3.14 112 05:56 30.04.2020
3898 Clouds 24 1010 94 10000 3.14 112 05:36 30.04.2020
3899 Rain 23 1011 100 3000 6.7 150 04:33 30.04.2020
3900 Rain 24 1011 100 3000 4.6 150 03:54 30.04.2020
3901 Rain 24 1011 93 0 4.78 101 02:45 30.04.2020
3902 Rain 25 1013 94 10000 4.6 130 02:24 30.04.2020
3903 Rain 25 1013 94 10000 4.6 130 01:35 30.04.2020
3904 Clouds 26 1013 88 10000 5.7 100 00:42 30.04.2020
3905 Clouds 26 1013 88 10000 5.7 100 00:19 30.04.2020
3906 Clouds 26 1013 88 10000 4.6 110 23:56 29.04.2020
3907 Clouds 26 1013 88 10000 4.6 110 23:36 29.04.2020
3908 Clouds 25 1012 100 10000 4.1 120 23:18 29.04.2020
3909 Clouds 25 1012 100 10000 4.1 120 22:40 29.04.2020
3910 Clouds 25 1012 100 10000 4.1 120 22:21 29.04.2020
3911 Clouds 25 1012 94 10000 2.32 124 21:57 29.04.2020
3912 Clouds 25 1012 94 10000 2.32 124 21:37 29.04.2020
3913 Clouds 25 1012 94 10000 2.02 78 21:18 29.04.2020
3914 Rain 24 1012 92 0 2.02 78 20:41 29.04.2020
3915 Rain 24 1011 100 10000 1.68 69 20:20 29.04.2020
3916 Rain 24 1011 100 10000 1.68 69 19:59 29.04.2020
3917 Rain 24 1011 100 10000 1.68 69 19:41 29.04.2020
3918 Rain 24 1011 100 10000 2.63 59 19:20 29.04.2020
3919 Rain 24 1011 100 10000 2.63 59 18:43 29.04.2020
3920 Rain 24 1011 100 10000 2.68 59 18:25 29.04.2020
3921 Clouds 24 1011 100 10000 3.6 140 17:57 29.04.2020
3922 Clouds 24 1011 100 10000 3.6 140 17:39 29.04.2020
3923 Clouds 24 1011 100 10000 3.6 140 17:21 29.04.2020
3924 Clouds 24 1012 94 10000 2.51 69 16:39 29.04.2020
3925 Clouds 24 1012 94 10000 2.51 69 16:39 29.04.2020
3926 Clouds 24 1012 94 10000 2.4 87 16:19 29.04.2020
3927 Clouds 24 1012 94 10000 3.6 140 15:57 29.04.2020
3928 Clouds 24 1012 94 10000 3.6 140 15:39 29.04.2020
3929 Clouds 24 1012 94 10000 3.6 140 15:21 29.04.2020
3930 Rain 24 1012 88 0 3.16 102 14:57 29.04.2020
3931 Rain 24 1013 94 10000 3.6 140 14:38 29.04.2020
3932 Rain 24 1013 94 10000 3.6 140 14:38 29.04.2020
3933 Rain 24 1013 94 10000 3.6 140 14:18 29.04.2020
3934 Rain 24 1013 94 10000 3.6 140 13:42 29.04.2020
3935 Rain 24 1013 94 10000 3.6 140 13:20 29.04.2020
3936 Clouds 24 1013 100 10000 4.37 118 12:59 29.04.2020
3937 Clouds 24 1013 100 10000 4.37 118 12:39 29.04.2020
3938 Clouds 24 1013 100 10000 4.2 115 12:19 29.04.2020
3939 Clouds 24 1013 100 10000 4.2 115 11:40 29.04.2020
3940 Clouds 24 1013 100 10000 4.59 111 11:21 29.04.2020
3941 Rain 24 1012 100 10000 4.59 111 10:58 29.04.2020
3942 Rain 24 1012 100 10000 4.59 111 10:37 29.04.2020
3943 Rain 24 1011 100 10000 4.72 110 10:19 29.04.2020
3944 Rain 24 1011 100 10000 4.72 110 09:42 29.04.2020
3945 Rain 24 1011 100 10000 4.64 104 09:23 29.04.2020
3946 Rain 24 1012 90 0 4.64 104 08:56 29.04.2020
3947 Rain 24 1012 90 0 4.64 104 08:56 29.04.2020
3948 Clouds 25 1011 94 10000 1.5 120 08:37 29.04.2020
3949 Clouds 25 1011 94 10000 1.5 120 08:19 29.04.2020
3950 Clouds 25 1011 94 10000 1.5 120 07:41 29.04.2020
3951 Clouds 25 1011 94 10000 1.5 120 07:23 29.04.2020
3952 Clouds 25 1010 88 10000 3.6 100 06:50 29.04.2020
3953 Clouds 25 1010 88 10000 3.6 100 06:30 29.04.2020
3954 Rain 26 1011 88 10000 5.1 110 05:21 29.04.2020
3955 Clouds 25 1011 100 10000 2.6 130 04:38 29.04.2020
3956 Clouds 25 1011 100 10000 2.6 130 04:18 29.04.2020
3957 Rain 24 1011 92 0 5.07 97 02:39 29.04.2020
3958 Rain 24 1013 100 5000 2.1 90 01:44 29.04.2020
3959 Rain 24 1013 100 5000 2.1 90 01:21 29.04.2020
3960 Rain 24 1014 100 5000 3.1 140 00:40 29.04.2020
3961 Rain 24 1014 100 5000 3.1 140 00:19 29.04.2020
3962 Rain 24 1013 100 3000 3.1 140 23:48 28.04.2020
3963 Rain 24 1013 100 3000 3.1 140 23:24 28.04.2020
3964 Rain 24 1013 100 3000 4.1 80 22:55 28.04.2020
3965 Rain 24 1013 100 3000 4.1 80 22:55 28.04.2020
3966 Rain 24 1013 100 3000 4.1 80 22:37 28.04.2020
3967 Rain 24 1013 100 3000 4.1 80 22:18 28.04.2020
3968 Rain 24 1012 100 5000 4.31 83 21:54 28.04.2020
3969 Rain 24 1012 100 5000 4.31 83 21:36 28.04.2020
3970 Rain 24 1012 100 5000 3.65 80 21:18 28.04.2020
3971 Rain 25 1012 88 0 3.65 80 20:40 28.04.2020
3972 Rain 23 1012 100 8000 3.83 82 20:21 28.04.2020
3973 Rain 23 1012 100 8000 3.83 82 19:58 28.04.2020
3974 Rain 23 1012 100 8000 3.83 82 19:40 28.04.2020
3975 Rain 23 1012 100 8000 3.97 78 19:21 28.04.2020
3976 Rain 24 1011 100 5000 3.97 78 18:58 28.04.2020
3977 Rain 24 1011 100 2000 3.97 78 18:38 28.04.2020
3978 Rain 25 1011 94 10000 4.23 74 18:19 28.04.2020
3979 Rain 25 1011 94 10000 4.23 74 17:38 28.04.2020
3980 Rain 25 1011 94 10000 4.67 72 17:20 28.04.2020
3981 Rain 24 1012 100 10000 4.67 72 16:59 28.04.2020
3982 Rain 24 1012 100 10000 4.67 72 16:40 28.04.2020
3983 Rain 24 1012 100 10000 5.51 82 16:22 28.04.2020
3984 Rain 25 1011 91 0 5.51 82 15:57 28.04.2020
3985 Rain 25 1011 91 0 5.51 82 15:38 28.04.2020
3986 Rain 25 1012 92 0 5.44 97 15:20 28.04.2020
3987 Rain 25 1012 92 0 5.44 97 14:56 28.04.2020
3988 Clouds 25 1012 94 10000 5.44 97 14:38 28.04.2020
3989 Clouds 25 1012 94 10000 3.82 112 14:19 28.04.2020
3990 Clouds 25 1012 94 10000 3.82 112 13:56 28.04.2020
3991 Clouds 25 1012 94 10000 3.82 112 13:37 28.04.2020
3992 Clouds 25 1012 94 10000 3.54 107 13:19 28.04.2020
3993 Clouds 25 1012 94 10000 3.54 107 12:43 28.04.2020
3994 Clouds 25 1012 94 10000 3.54 107 12:43 28.04.2020
3995 Clouds 25 1012 94 10000 3.71 103 12:23 28.04.2020
3996 Clouds 25 1012 94 10000 3.71 103 11:43 28.04.2020
3997 Clouds 25 1012 94 10000 4.31 105 11:23 28.04.2020
3998 Clouds 25 1012 100 10000 2.6 140 10:58 28.04.2020
3999 Clouds 25 1012 100 10000 2.6 140 10:38 28.04.2020
4000 Clouds 25 1011 100 10000 2.6 140 10:19 28.04.2020
4001 Clouds 25 1011 100 10000 2.6 140 09:45 28.04.2020
4002 Clouds 25 1011 100 10000 2.6 140 09:26 28.04.2020
4003 Rain 25 1011 89 0 5.45 105 08:57 28.04.2020
4004 Clouds 25 1011 100 10000 2.6 140 08:38 28.04.2020
4005 Clouds 25 1011 100 10000 2.6 140 08:20 28.04.2020
4006 Clouds 25 1011 100 10000 2.6 140 07:44 28.04.2020
4007 Rain 25 1010 100 8000 3.1 140 07:19 28.04.2020
4008 Rain 25 1010 100 8000 3.1 140 06:43 28.04.2020
4009 Rain 24 1010 100 5000 3.1 140 05:53 28.04.2020
4010 Rain 24 1010 100 5000 3.1 140 05:35 28.04.2020
4011 Rain 26 1010 94 5000 5.1 110 04:35 28.04.2020
4012 Rain 27 1011 88 8000 5.7 110 02:39 28.04.2020
4013 Rain 27 1012 88 10000 3.6 110 01:53 28.04.2020
4014 Rain 27 1012 88 10000 3.6 110 01:22 28.04.2020
4015 Rain 26 1012 100 10000 5.93 133 00:42 28.04.2020
4016 Rain 25 1012 100 9000 1.5 100 23:58 27.04.2020
4017 Rain 25 1012 100 9000 1.5 100 23:40 27.04.2020
4018 Rain 25 1012 100 9000 1.5 100 23:20 27.04.2020
4019 Rain 25 1012 100 8000 5.1 118 22:43 27.04.2020
4020 Rain 25 1012 100 8000 4.56 120 22:23 27.04.2020
4021 Rain 25 1012 100 8000 4.56 120 22:23 27.04.2020
4022 Rain 25 1011 100 5000 4.56 120 21:57 27.04.2020
4023 Rain 25 1011 100 5000 4.56 120 21:39 27.04.2020
4024 Rain 25 1011 100 5000 3.98 116 21:19 27.04.2020
4025 Rain 25 1012 88 0 3.98 116 20:57 27.04.2020
4026 Clouds 24 1010 100 10000 3.98 116 20:39 27.04.2020
4027 Clouds 24 1010 100 10000 3.13 120 20:21 27.04.2020
4028 Clouds 24 1010 100 10000 3.13 120 19:56 27.04.2020
4029 Clouds 24 1010 100 10000 3.13 120 19:37 27.04.2020
4030 Clouds 24 1010 100 10000 3.13 120 19:37 27.04.2020
4031 Clouds 24 1010 100 10000 2.47 134 19:19 27.04.2020
4032 Clouds 25 1011 100 10000 2.47 134 18:40 27.04.2020
4033 Clouds 25 1011 100 10000 1.07 147 18:20 27.04.2020
4034 Rain 25 1011 100 10000 1.07 147 17:59 27.04.2020
4035 Rain 25 1011 100 10000 1.07 147 17:40 27.04.2020
4036 Clouds 25 1012 100 10000 1.19 141 17:19 27.04.2020
4037 Clouds 25 1012 100 10000 1.19 141 16:41 27.04.2020
4038 Clouds 25 1012 100 10000 2 139 16:22 27.04.2020
4039 Clouds 25 1012 94 10000 2 139 15:57 27.04.2020
4040 Rain 25 1012 94 7000 1.5 200 15:38 27.04.2020
4041 Rain 25 1012 94 7000 1.5 200 15:19 27.04.2020
4042 Rain 25 1012 94 5000 2.57 124 14:58 27.04.2020
4043 Rain 25 1012 94 5000 2.57 124 14:40 27.04.2020
4044 Rain 25 1012 94 10000 2.4 120 14:19 27.04.2020
4045 Rain 25 1012 94 10000 2.4 120 13:55 27.04.2020
4046 Rain 25 1012 94 10000 2.4 120 13:36 27.04.2020
4047 Rain 25 1012 100 10000 2.4 120 13:18 27.04.2020
4048 Rain 25 1012 100 10000 2.4 120 12:42 27.04.2020
4049 Rain 25 1012 100 10000 2.34 116 12:20 27.04.2020
4050 Rain 24 1012 100 10000 2.34 116 11:42 27.04.2020
4051 Rain 24 1012 100 10000 2.34 116 11:22 27.04.2020
4052 Clouds 24 1011 100 10000 2.34 116 10:58 27.04.2020
4053 Clouds 24 1011 100 10000 2.34 116 10:39 27.04.2020
4054 Clouds 24 1011 100 10000 2.34 116 10:21 27.04.2020
4055 Clouds 24 1011 100 10000 2.34 116 09:54 27.04.2020
4056 Clouds 24 1011 100 10000 2.46 113 09:36 27.04.2020
4057 Rain 25 1010 91 0 3.1 114 09:18 27.04.2020
4058 Rain 25 1010 91 0 3.1 114 08:43 27.04.2020
4059 Rain 24 1010 100 8000 3.1 114 08:25 27.04.2020
4060 Rain 24 1010 100 8000 3.1 114 07:44 27.04.2020
4061 Rain 24 1010 94 8000 3.1 114 07:22 27.04.2020
4062 Rain 24 1010 94 8000 3.1 114 06:57 27.04.2020
4063 Rain 24 1010 94 8000 3.01 110 06:27 27.04.2020
4064 Rain 25 1010 94 8000 3.01 110 05:50 27.04.2020
4065 Rain 26 1010 94 8000 1.5 180 04:51 27.04.2020
4066 Rain 26 1009 90 0 3.01 110 04:20 27.04.2020
4067 Rain 26 1009 90 0 3.01 110 03:36 27.04.2020
4068 Clouds 29 1011 74 10000 4.1 110 01:43 27.04.2020
4069 Clouds 29 1012 74 10000 3.6 110 00:59 27.04.2020
4070 Clouds 29 1012 74 10000 3.6 110 00:20 27.04.2020
4071 Clouds 28 1012 83 10000 3.6 110 23:56 26.04.2020
4072 Clouds 28 1012 83 10000 3.6 110 23:38 26.04.2020
4073 Clouds 28 1012 83 10000 3.6 110 23:38 26.04.2020
4074 Clouds 28 1012 83 10000 3.6 110 23:19 26.04.2020
4075 Clouds 26 1011 94 10000 3.67 100 22:58 26.04.2020
4076 Clouds 26 1011 94 10000 3.67 100 22:39 26.04.2020
4077 Clouds 26 1011 94 10000 3.67 100 22:20 26.04.2020
4078 Clouds 25 1011 94 10000 3.67 100 21:57 26.04.2020
4079 Clouds 25 1011 94 10000 3.67 100 21:38 26.04.2020
4080 Clouds 25 1011 94 10000 2.34 105 21:18 26.04.2020
4081 Rain 24 1010 91 0 2.34 105 20:42 26.04.2020
4082 Clouds 25 1010 94 10000 2.34 105 20:24 26.04.2020
4083 Clouds 25 1010 94 10000 2.34 105 20:00 26.04.2020
4084 Clouds 25 1010 94 10000 2.34 105 19:39 26.04.2020
4085 Rain 25 1010 94 10000 2.34 105 19:21 26.04.2020
4086 Rain 25 1010 94 10000 2.34 105 18:57 26.04.2020
4087 Rain 25 1010 94 10000 2.34 105 18:39 26.04.2020
4088 Rain 25 1010 94 10000 2.95 108 18:21 26.04.2020
4089 Clouds 25 1010 94 10000 2.95 108 17:42 26.04.2020
4090 Clouds 25 1010 94 10000 2.95 108 17:22 26.04.2020
4091 Rain 25 1010 94 10000 2.95 108 16:55 26.04.2020
4092 Rain 25 1010 94 10000 2.95 108 16:37 26.04.2020
4093 Clouds 25 1012 94 10000 2.95 108 16:18 26.04.2020
4094 Clouds 25 1012 94 10000 2.95 108 15:54 26.04.2020
4095 Clouds 25 1012 94 10000 2.95 108 15:36 26.04.2020
4096 Clouds 25 1012 94 10000 2.96 120 15:18 26.04.2020
4097 Rain 25 1011 91 0 2.96 120 15:18 26.04.2020
4098 Rain 24 1011 91 0 2.89 122 14:40 26.04.2020
4099 Clouds 25 1012 94 10000 2.89 122 14:19 26.04.2020
4100 Clouds 25 1012 94 10000 2.89 122 13:58 26.04.2020
4101 Clouds 25 1012 94 10000 2.89 122 13:38 26.04.2020
4102 Clouds 25 1012 94 10000 2.89 122 13:19 26.04.2020
4103 Clouds 25 1012 94 10000 2.89 122 13:19 26.04.2020
4104 Clouds 25 1012 94 10000 2.89 122 12:54 26.04.2020
4105 Clouds 25 1012 94 10000 2.89 122 12:36 26.04.2020
4106 Clouds 25 1012 94 10000 2.89 122 12:36 26.04.2020
4107 Clouds 25 1012 94 10000 3.02 127 12:18 26.04.2020
4108 Rain 25 1012 94 8000 3.6 150 11:41 26.04.2020
4109 Rain 25 1012 94 8000 3.6 150 11:23 26.04.2020
4110 Rain 25 1012 94 8000 3.6 150 11:23 26.04.2020
4111 Rain 25 1011 94 8000 3.1 150 10:58 26.04.2020
4112 Rain 25 1011 94 8000 3.1 150 10:40 26.04.2020
4113 Rain 25 1011 94 8000 3.1 150 10:40 26.04.2020
4114 Rain 25 1011 94 8000 3.1 150 10:22 26.04.2020
4115 Rain 25 1011 94 8000 3.1 150 09:57 26.04.2020
4116 Rain 25 1011 94 8000 3.1 150 09:37 26.04.2020
4117 Rain 25 1011 94 8000 3.1 150 09:18 26.04.2020
4118 Rain 25 1011 91 0 3.71 138 08:41 26.04.2020
4119 Rain 27 1010 83 10000 3.71 138 08:20 26.04.2020
4120 Rain 27 1010 83 10000 3.71 138 07:48 26.04.2020
4121 Rain 27 1010 83 10000 3.71 138 07:22 26.04.2020
4122 Clouds 27 1009 83 10000 2.6 170 06:45 26.04.2020
4123 Clouds 27 1009 83 10000 2.6 170 06:18 26.04.2020
4124 Clouds 27 1009 83 10000 3.6 150 05:45 26.04.2020
4125 Clouds 27 1009 83 10000 3.6 150 05:25 26.04.2020
4126 Clouds 27 1010 83 10000 3.74 150 04:24 26.04.2020
4127 Clouds 27 1010 88 10000 3.74 150 03:32 26.04.2020
4128 Clouds 27 1012 88 10000 2.96 126 02:32 26.04.2020
4129 Clouds 27 1012 88 10000 2.96 126 01:52 26.04.2020
4130 Clouds 27 1012 88 10000 2.96 126 01:27 26.04.2020
4131 Clouds 27 1012 83 10000 2.96 126 00:40 26.04.2020
4132 Clouds 27 1012 83 10000 2.85 127 00:19 26.04.2020
4133 Clouds 27 1012 88 10000 2.85 127 23:39 25.04.2020
4134 Clouds 27 1012 88 10000 2.85 127 23:21 25.04.2020
4135 Clouds 25 1012 100 10000 2.85 127 22:59 25.04.2020
4136 Clouds 25 1012 100 10000 2.85 127 22:40 25.04.2020
4137 Rain 25 1011 100 10000 2.85 127 22:19 25.04.2020
4138 Rain 25 1011 100 10000 2.85 127 21:56 25.04.2020
4139 Rain 25 1011 100 10000 2.74 132 21:36 25.04.2020
4140 Rain 25 1011 100 10000 2.23 132 21:18 25.04.2020
4141 Rain 24 1011 90 0 2.23 132 20:42 25.04.2020
4142 Clouds 25 1010 94 10000 2.23 132 20:22 25.04.2020
4143 Clouds 25 1010 94 10000 2.23 132 19:56 25.04.2020
4144 Clouds 25 1010 94 10000 2.23 132 19:38 25.04.2020
4145 Clouds 25 1010 94 10000 2.23 132 19:19 25.04.2020
4146 Clouds 25 1010 94 10000 2.23 132 18:42 25.04.2020
4147 Clouds 25 1010 94 10000 2.38 134 18:21 25.04.2020
4148 Clouds 25 1011 94 10000 1 0 17:58 25.04.2020
4149 Clouds 25 1011 94 10000 1 0 17:39 25.04.2020
4150 Clouds 25 1011 94 10000 1 0 17:20 25.04.2020
4151 Clouds 25 1011 100 10000 1 0 16:58 25.04.2020
4152 Clouds 25 1011 100 10000 1 0 16:40 25.04.2020
4153 Clouds 25 1011 100 10000 1 0 16:21 25.04.2020
4154 Clouds 25 1011 100 10000 2.1 170 15:42 25.04.2020
4155 Clouds 25 1011 100 10000 2.1 170 15:21 25.04.2020
4156 Rain 25 1011 90 0 2.54 139 14:58 25.04.2020
4157 Rain 25 1011 90 0 2.54 139 14:39 25.04.2020
4158 Clouds 26 1012 94 10000 2.72 134 14:20 25.04.2020
4159 Clouds 26 1012 94 10000 2.72 134 14:20 25.04.2020
4160 Clouds 26 1012 94 10000 2.72 134 13:54 25.04.2020
4161 Clouds 26 1012 94 10000 2.72 134 13:36 25.04.2020
4162 Clouds 26 1012 94 10000 2.72 134 13:18 25.04.2020
4163 Clouds 26 1012 94 10000 2.72 134 12:42 25.04.2020
4164 Clouds 26 1012 94 10000 2.64 137 12:21 25.04.2020
4165 Clouds 26 1012 94 10000 2.64 137 11:59 25.04.2020
4166 Clouds 26 1012 94 10000 2.64 137 11:41 25.04.2020
4167 Clouds 26 1012 94 10000 2.64 137 11:23 25.04.2020
4168 Clouds 26 1011 94 10000 2.64 137 10:45 25.04.2020
4169 Clouds 26 1011 94 10000 2.64 137 10:26 25.04.2020
4170 Clouds 26 1011 88 10000 2.64 137 09:57 25.04.2020
4171 Clouds 26 1011 88 10000 2.15 145 09:39 25.04.2020
4172 Clouds 26 1011 88 10000 2.21 144 09:21 25.04.2020
4173 Clouds 28 1010 78 10000 3.1 170 08:41 25.04.2020
4174 Clouds 28 1010 78 10000 3.1 170 08:22 25.04.2020
4175 Clouds 28 1010 78 10000 3.1 170 07:59 25.04.2020
4176 Clouds 28 1010 78 10000 3.1 170 07:40 25.04.2020
4177 Clouds 28 1010 78 10000 3.1 160 06:56 25.04.2020
4178 Clouds 28 1010 78 10000 3.1 160 06:36 25.04.2020
4179 Clouds 29 1010 74 10000 3.1 160 05:42 25.04.2020
4180 Clouds 29 1010 74 10000 3.1 160 05:23 25.04.2020
4181 Clouds 29 1011 74 10000 3.1 170 03:19 25.04.2020
4182 Clouds 29 1013 79 10000 2.6 180 02:25 25.04.2020
4183 Clouds 29 1013 79 10000 2.6 180 01:55 25.04.2020
4184 Clouds 29 1013 79 10000 2.6 180 01:37 25.04.2020
4185 Clouds 29 1013 79 10000 2.6 180 01:18 25.04.2020
4186 Clouds 28 1013 83 10000 2.6 190 00:37 25.04.2020
4187 Clouds 27 1013 88 10000 1 0 23:55 24.04.2020
4188 Clouds 27 1013 88 10000 1 0 23:37 24.04.2020
4189 Clouds 27 1013 88 10000 1 0 23:19 24.04.2020
4190 Clouds 24 1013 100 10000 1.85 155 22:40 24.04.2020
4191 Clouds 24 1012 100 10000 1.85 155 22:20 24.04.2020
4192 Clouds 24 1012 100 10000 1.85 155 21:57 24.04.2020
4193 Clouds 24 1012 100 10000 1.85 155 21:39 24.04.2020
4194 Rain 25 1012 88 0 1.81 180 21:20 24.04.2020
4195 Rain 25 1012 88 0 1.81 180 20:56 24.04.2020
4196 Clouds 24 1011 100 10000 1.81 180 20:38 24.04.2020
4197 Clouds 24 1011 100 10000 1.81 180 20:18 24.04.2020
4198 Clouds 24 1011 100 10000 1.81 180 19:43 24.04.2020
4199 Clouds 24 1011 100 10000 1.81 180 19:24 24.04.2020
4200 Clouds 24 1011 100 10000 1.81 180 18:46 24.04.2020
4201 Clouds 24 1011 100 10000 2.34 199 18:28 24.04.2020
4202 Clouds 25 1012 100 10000 2.34 199 17:59 24.04.2020
4203 Clouds 25 1012 100 10000 2.34 199 17:39 24.04.2020
4204 Clouds 25 1012 100 10000 2.34 199 17:20 24.04.2020
4205 Clouds 25 1012 94 10000 2.34 199 16:58 24.04.2020
4206 Clouds 25 1012 94 10000 2.34 199 16:40 24.04.2020
4207 Clouds 25 1012 94 10000 2.34 199 16:21 24.04.2020
4208 Thunderstorm 25 1013 100 8000 1 0 15:42 24.04.2020
4209 Thunderstorm 25 1013 100 8000 1 0 15:21 24.04.2020
4210 Thunderstorm 25 1013 100 8000 1 0 14:59 24.04.2020
4211 Thunderstorm 25 1013 100 8000 1 0 14:38 24.04.2020
4212 Thunderstorm 25 1013 100 8000 1 0 14:19 24.04.2020
4213 Thunderstorm 25 1013 94 8000 1 0 13:42 24.04.2020
4214 Thunderstorm 25 1013 94 8000 1 0 13:22 24.04.2020
4215 Thunderstorm 25 1013 94 10000 1 0 12:59 24.04.2020
4216 Thunderstorm 25 1013 94 10000 1 0 12:40 24.04.2020
4217 Thunderstorm 25 1013 94 10000 1 0 12:20 24.04.2020
4218 Thunderstorm 25 1013 100 10000 1 0 11:55 24.04.2020
4219 Thunderstorm 25 1013 100 10000 1 0 11:36 24.04.2020
4220 Thunderstorm 25 1013 100 10000 1 0 11:18 24.04.2020
4221 Thunderstorm 25 1012 100 10000 1 0 10:38 24.04.2020
4222 Thunderstorm 26 1012 94 10000 1.5 240 10:20 24.04.2020
4223 Thunderstorm 26 1012 94 10000 1.5 240 09:57 24.04.2020
4224 Thunderstorm 26 1012 94 10000 1.5 240 09:39 24.04.2020
4225 Thunderstorm 26 1012 94 10000 1.5 240 09:20 24.04.2020
4226 Thunderstorm 26 1011 94 10000 1 0 08:43 24.04.2020
4227 Thunderstorm 26 1011 94 10000 1 0 08:21 24.04.2020
4228 Clouds 26 1010 94 10000 1.5 80 07:58 24.04.2020
4229 Clouds 26 1010 94 10000 1.5 80 07:40 24.04.2020
4230 Clouds 26 1010 94 10000 1.5 80 07:21 24.04.2020
4231 Clouds 27 1010 88 10000 2.6 80 06:44 24.04.2020
4232 Thunderstorm 28 1010 78 10000 2.6 140 05:51 24.04.2020
4233 Rain 28 1010 78 10000 2.6 140 05:23 24.04.2020
4234 Clouds 31 1010 74 10000 2.1 290 03:39 24.04.2020
4235 Clouds 30 1011 64 0 1.17 208 02:50 24.04.2020
4236 Clouds 31 1012 66 10000 2.6 340 02:30 24.04.2020
4237 Clouds 31 1012 66 10000 2.6 340 01:46 24.04.2020
4238 Clouds 29 1012 79 10000 1.5 270 00:50 24.04.2020
4239 Clouds 29 1012 79 10000 1.5 270 00:19 24.04.2020
4240 Clouds 28 1012 83 10000 1.43 277 23:46 23.04.2020
4241 Clouds 28 1012 83 10000 1.43 277 23:27 23.04.2020
4242 Clouds 24 1012 100 10000 1.43 277 22:57 23.04.2020
4243 Clouds 24 1012 100 10000 1.43 277 22:39 23.04.2020
4244 Clouds 24 1012 100 10000 1.43 277 22:20 23.04.2020
4245 Clouds 28 1012 78 0 1.43 277 21:57 23.04.2020
4246 Clouds 28 1012 78 0 1.43 277 21:39 23.04.2020
4247 Clouds 24 1011 88 0 1.1 318 21:20 23.04.2020
4248 Clouds 24 1011 88 0 1.1 318 20:56 23.04.2020
4249 Clouds 24 1011 88 0 1.1 318 20:38 23.04.2020
4250 Clouds 24 1011 88 0 1.1 318 20:18 23.04.2020
4251 Clouds 24 1011 88 0 1.1 318 19:55 23.04.2020
4252 Fog 24 1010 100 500 1.1 318 19:37 23.04.2020
4253 Fog 24 1010 100 500 1.1 318 19:19 23.04.2020
4254 Fog 24 1010 100 500 1.1 318 18:40 23.04.2020
4255 Fog 24 1010 100 500 1 353 18:22 23.04.2020
4256 Fog 24 1010 100 200 1 353 17:57 23.04.2020
4257 Fog 24 1010 100 200 1 353 17:39 23.04.2020
4258 Fog 24 1010 100 200 1 353 17:20 23.04.2020
4259 Rain 24 1010 89 0 1 353 16:44 23.04.2020
4260 Rain 24 1010 89 0 1 353 16:44 23.04.2020
4261 Clouds 25 1012 100 10000 1 353 16:21 23.04.2020
4262 Clouds 25 1012 100 10000 1 353 15:59 23.04.2020
4263 Clouds 25 1012 100 10000 1 353 15:40 23.04.2020
4264 Clouds 25 1012 100 10000 0.5 304 15:21 23.04.2020
4265 Rain 25 1012 94 10000 0.65 289 14:41 23.04.2020
4266 Rain 25 1012 94 10000 0.65 289 14:22 23.04.2020
4267 Rain 25 1012 94 10000 0.65 289 13:59 23.04.2020
4268 Rain 25 1012 94 10000 0.65 289 13:40 23.04.2020
4269 Clouds 25 1012 100 10000 0.65 289 13:22 23.04.2020
4270 Clouds 25 1012 100 10000 0.65 289 12:57 23.04.2020
4271 Clouds 25 1012 100 10000 0.65 289 12:38 23.04.2020
4272 Clouds 25 1012 100 10000 1.14 253 12:20 23.04.2020
4273 Clouds 25 1012 100 10000 1.14 253 11:47 23.04.2020
4274 Clouds 25 1012 100 10000 1.14 253 11:27 23.04.2020
4275 Clouds 26 1012 94 10000 1.14 253 10:58 23.04.2020
4276 Clouds 26 1012 94 10000 1.14 253 10:39 23.04.2020
4277 Clouds 26 1011 94 10000 1.14 253 10:20 23.04.2020
4278 Clouds 26 1011 94 10000 1.14 253 09:40 23.04.2020
4279 Clouds 26 1011 94 10000 2.17 212 09:18 23.04.2020
4280 Rain 26 1011 87 0 2.17 212 08:48 23.04.2020
4281 Clouds 27 1010 88 10000 2.17 212 08:29 23.04.2020
4282 Clouds 27 1010 88 10000 2.17 212 07:56 23.04.2020
4283 Clouds 27 1010 88 10000 2.17 212 07:38 23.04.2020
4284 Clouds 27 1010 88 10000 2.17 212 07:18 23.04.2020
4285 Clouds 27 1010 88 10000 2.17 212 06:42 23.04.2020
4286 Clouds 30 1010 79 10000 3.6 100 05:37 23.04.2020
4287 Rain 31 1010 66 10000 4.6 100 05:18 23.04.2020
4288 Rain 30 1012 64 0 1.12 168 02:48 23.04.2020
4289 Clouds 30 1012 70 10000 1.5 180 02:22 23.04.2020
4290 Clouds 30 1012 70 10000 1.5 180 01:38 23.04.2020
4291 Clouds 30 1012 70 10000 1.5 280 00:50 23.04.2020
4292 Clouds 30 1012 70 10000 1.5 280 00:26 23.04.2020
4293 Clouds 28 1012 83 10000 2.6 330 23:53 22.04.2020
4294 Clouds 28 1012 83 10000 2.6 330 23:26 22.04.2020
4295 Clouds 26 1012 94 10000 1.23 324 22:59 22.04.2020
4296 Clouds 26 1012 94 10000 1.23 324 22:39 22.04.2020
4297 Clouds 26 1012 94 10000 1.23 324 22:39 22.04.2020
4298 Clouds 24 1011 100 10000 1.23 324 22:19 22.04.2020
4299 Clouds 24 1011 100 10000 1.23 324 21:57 22.04.2020
4300 Clouds 24 1011 100 10000 1.23 324 21:39 22.04.2020
4301 Rain 24 1011 88 0 1.16 7 21:20 22.04.2020
4302 Clouds 24 1011 100 10000 1.16 7 21:20 22.04.2020
4303 Rain 24 1011 88 0 1.16 7 20:55 22.04.2020
4304 Clouds 24 1010 100 10000 1.16 7 20:37 22.04.2020
4305 Clouds 24 1010 100 10000 1.16 7 20:18 22.04.2020
4306 Clouds 24 1010 100 10000 1.16 7 19:55 22.04.2020
4307 Clouds 24 1010 100 10000 1.16 7 19:36 22.04.2020
4308 Clouds 24 1010 100 10000 1.16 7 19:18 22.04.2020
4309 Clouds 24 1010 100 10000 1.16 7 19:18 22.04.2020
4310 Clouds 24 1010 100 10000 1.16 7 18:55 22.04.2020
4311 Clouds 24 1010 100 10000 1.16 7 18:36 22.04.2020
4312 Clouds 25 1010 94 10000 0.79 346 18:18 22.04.2020
4313 Clouds 25 1010 94 10000 0.79 346 17:42 22.04.2020
4314 Clouds 25 1011 100 10000 0.79 346 17:23 22.04.2020
4315 Clouds 25 1011 100 10000 0.79 346 16:46 22.04.2020
4316 Clouds 25 1011 100 10000 0.79 346 16:28 22.04.2020
4317 Clouds 25 1011 100 10000 0.79 346 15:54 22.04.2020
4318 Clouds 25 1011 100 10000 0.79 346 15:54 22.04.2020
4319 Clouds 25 1011 100 10000 0.79 346 15:36 22.04.2020
4320 Rain 25 1011 89 0 1.06 262 15:18 22.04.2020
4321 Rain 25 1011 89 0 1.06 262 14:41 22.04.2020
4322 Clouds 25 1012 100 10000 1.5 340 14:21 22.04.2020
4323 Clouds 25 1012 100 10000 1.5 340 13:59 22.04.2020
4324 Clouds 25 1012 100 10000 1.5 340 13:40 22.04.2020
4325 Rain 25 1011 89 0 1.47 265 13:19 22.04.2020
4326 Rain 25 1011 89 0 1.47 265 12:42 22.04.2020
4327 Rain 25 1011 89 0 1.02 296 12:23 22.04.2020
4328 Rain 25 1011 89 0 1.02 296 11:57 22.04.2020
4329 Rain 25 1011 100 10000 1.02 296 11:37 22.04.2020
4330 Rain 25 1011 100 10000 1.02 296 11:18 22.04.2020
4331 Rain 25 1011 100 10000 1.02 296 11:18 22.04.2020
4332 Rain 25 1011 100 10000 1.02 296 10:41 22.04.2020
4333 Rain 25 1011 100 10000 1.02 296 10:21 22.04.2020
4334 Rain 25 1011 89 0 1.02 296 09:42 22.04.2020
4335 Rain 26 1010 87 0 2.58 28 09:23 22.04.2020
4336 Rain 26 1010 87 0 2.58 28 08:59 22.04.2020
4337 Rain 26 1010 87 0 2.58 28 08:41 22.04.2020
4338 Rain 26 1010 87 0 2.58 28 08:22 22.04.2020
4339 Rain 26 1010 87 0 2.58 28 07:53 22.04.2020
4340 Rain 26 1010 87 0 2.58 28 07:33 22.04.2020
4341 Rain 26 1010 87 0 2.58 28 06:53 22.04.2020
4342 Rain 27 1009 87 0 2.44 33 06:23 22.04.2020
4343 Rain 27 1009 87 0 2.44 33 05:38 22.04.2020
4344 Rain 27 1009 87 0 2.44 33 04:34 22.04.2020
4345 Rain 30 1011 68 0 2.23 22 02:59 22.04.2020
4346 Rain 27 1012 88 8000 4.1 340 01:55 22.04.2020
4347 Rain 27 1012 88 8000 4.1 340 01:28 22.04.2020
4348 Clouds 28 1012 83 10000 3.1 330 00:59 22.04.2020
4349 Clouds 28 1012 83 10000 3.1 330 00:41 22.04.2020
4350 Clouds 28 1012 83 10000 3.1 330 00:19 22.04.2020
4351 Clouds 27 1012 83 10000 2.76 3 23:43 21.04.2020
4352 Clouds 27 1012 83 10000 2.76 3 23:19 21.04.2020
4353 Clouds 27 1011 88 10000 2.76 3 22:41 21.04.2020
4354 Clouds 27 1011 88 10000 2.76 3 22:22 21.04.2020
4355 Clouds 25 1011 94 10000 2.76 3 21:59 21.04.2020
4356 Clouds 25 1011 94 10000 2.76 3 21:59 21.04.2020
4357 Clouds 25 1011 94 10000 2.76 3 21:59 21.04.2020
4358 Clouds 25 1011 94 10000 2.76 3 21:41 21.04.2020
4359 Clouds 25 1011 94 10000 2.19 1 21:23 21.04.2020
4360 Clouds 24 1011 90 0 2.1 1 20:57 21.04.2020
4361 Clouds 25 1010 94 10000 1.5 20 20:39 21.04.2020
4362 Clouds 25 1010 94 10000 1.5 20 20:21 21.04.2020
4363 Clouds 25 1010 94 10000 1.5 20 19:41 21.04.2020
4364 Clouds 25 1010 94 10000 1.5 20 19:20 21.04.2020
4365 Clouds 24 1010 100 10000 2.1 10 18:58 21.04.2020
4366 Clouds 24 1010 100 10000 2.1 10 18:39 21.04.2020
4367 Clouds 24 1010 100 10000 2.1 10 18:39 21.04.2020
4368 Clouds 24 1010 100 10000 2.1 10 18:19 21.04.2020
4369 Clouds 24 1010 100 10000 2.13 3 17:57 21.04.2020
4370 Clouds 24 1010 100 10000 2.24 359 17:38 21.04.2020
4371 Clouds 24 1010 100 10000 2.13 3 17:18 21.04.2020
4372 Clouds 24 1011 100 10000 2.24 359 16:39 21.04.2020
4373 Clouds 24 1011 100 10000 2.24 359 16:19 21.04.2020
4374 Rain 25 1011 94 10000 2.13 3 16:19 21.04.2020
4375 Clouds 24 1011 100 10000 2.13 3 16:19 21.04.2020
4376 Rain 25 1011 94 10000 2.13 3 15:57 21.04.2020
4377 Rain 25 1011 94 10000 2.13 3 15:39 21.04.2020
4378 Rain 25 1011 94 10000 2.44 23 15:21 21.04.2020
4379 Rain 25 1012 91 0 2.44 23 14:57 21.04.2020
4380 Rain 25 1012 91 0 2.44 23 14:57 21.04.2020
4381 Clouds 25 1013 100 10000 2.44 23 14:39 21.04.2020
4382 Clouds 25 1013 100 10000 2.44 23 14:20 21.04.2020
4383 Clouds 25 1013 100 10000 2.44 23 13:40 21.04.2020
4384 Clouds 25 1013 100 10000 2.44 23 13:22 21.04.2020
4385 Clouds 25 1013 100 10000 2.44 23 12:55 21.04.2020
4386 Clouds 25 1013 100 10000 2.44 23 12:37 21.04.2020
4387 Clouds 25 1013 100 10000 2.48 42 12:18 21.04.2020
4388 Rain 25 1013 100 10000 2.48 42 11:55 21.04.2020
4389 Rain 25 1013 100 10000 2.48 42 11:55 21.04.2020
4390 Rain 25 1013 100 10000 2.48 42 11:36 21.04.2020
4391 Clouds 26 1012 94 10000 2.48 42 11:18 21.04.2020
4392 Clouds 26 1012 94 10000 2.48 42 10:55 21.04.2020
4393 Clouds 26 1012 94 10000 2.48 42 10:36 21.04.2020
4394 Clouds 26 1012 94 10000 2.48 42 10:36 21.04.2020
4395 Rain 27 1012 94 10000 2.48 42 10:18 21.04.2020
4396 Rain 27 1012 94 10000 2.48 42 09:37 21.04.2020
4397 Rain 27 1012 94 10000 3.2 41 09:18 21.04.2020
4398 Rain 26 1011 89 0 3.2 41 08:55 21.04.2020
4399 Clouds 28 1011 83 10000 3.6 40 08:37 21.04.2020
4400 Clouds 28 1011 83 10000 3.6 40 08:18 21.04.2020
4401 Clouds 28 1011 83 10000 3.6 40 07:43 21.04.2020
4402 Clouds 28 1011 83 10000 3.6 40 07:20 21.04.2020
4403 Clouds 28 1010 83 10000 3.2 41 06:44 21.04.2020
4404 Clouds 28 1010 83 10000 4.01 51 06:19 21.04.2020
4405 Rain 26 1010 94 10000 3.1 20 05:45 21.04.2020
4406 Clouds 29 1012 74 10000 5.7 30 03:48 21.04.2020
4407 Clouds 29 1012 74 10000 5.7 30 03:27 21.04.2020
4408 Clouds 29 1013 79 10000 5.1 40 01:40 21.04.2020
4409 Clouds 28 1014 78 10000 5.7 30 00:52 21.04.2020
4410 Clouds 28 1014 78 10000 5.7 30 00:31 21.04.2020
4411 Clouds 28 1014 78 10000 2.6 70 23:44 20.04.2020
4412 Clouds 28 1014 78 10000 2.6 70 23:23 20.04.2020
4413 Clouds 27 1014 83 10000 3.6 60 22:57 20.04.2020
4414 Clouds 27 1014 83 10000 3.6 60 22:38 20.04.2020
4415 Clouds 24 1013 100 10000 4.65 55 22:19 20.04.2020
4416 Clouds 27 1014 83 10000 3.6 60 22:19 20.04.2020
4417 Clouds 27 1014 83 10000 3.6 60 22:19 20.04.2020
4418 Clouds 24 1013 100 10000 4.65 55 21:55 20.04.2020
4419 Clouds 24 1013 100 10000 4.75 58 21:37 20.04.2020
4420 Rain 25 1014 89 0 5.08 59 21:19 20.04.2020
4421 Rain 25 1014 89 0 5.08 59 20:56 20.04.2020
4422 Clouds 25 1013 100 10000 5.08 59 20:37 20.04.2020
4423 Clouds 25 1013 100 10000 5.08 59 20:18 20.04.2020
4424 Clouds 25 1013 100 10000 5.08 59 19:41 20.04.2020
4425 Clouds 25 1013 100 10000 5.08 59 19:23 20.04.2020
4426 Clouds 25 1012 100 10000 5.08 59 18:59 20.04.2020
4427 Clouds 25 1012 100 10000 5.08 59 18:41 20.04.2020
4428 Clouds 25 1012 100 10000 4.81 63 18:21 20.04.2020
4429 Clouds 25 1013 100 10000 4.81 63 17:55 20.04.2020
4430 Clouds 25 1013 100 10000 4.81 63 17:37 20.04.2020
4431 Clouds 25 1013 100 10000 4.81 63 17:19 20.04.2020
4432 Clouds 25 1013 94 10000 4.81 63 16:43 20.04.2020
4433 Clouds 25 1013 94 10000 4.81 63 16:21 20.04.2020
4434 Clouds 25 1014 94 10000 4.81 63 15:57 20.04.2020
4435 Clouds 25 1014 94 10000 4.81 63 15:39 20.04.2020
4436 Clouds 25 1014 94 10000 5.06 69 15:21 20.04.2020
4437 Rain 25 1014 89 0 5.06 69 14:54 20.04.2020
4438 Clouds 25 1015 94 10000 2.1 40 14:36 20.04.2020
4439 Clouds 25 1015 94 10000 2.1 40 14:18 20.04.2020
4440 Clouds 25 1015 94 10000 2.1 40 13:40 20.04.2020
4441 Clouds 25 1015 94 10000 2.1 40 13:22 20.04.2020
4442 Clouds 26 1015 94 10000 4.82 67 12:44 20.04.2020
4443 Clouds 26 1015 94 10000 4.22 68 12:25 20.04.2020
4444 Clouds 26 1015 94 10000 4.22 68 11:58 20.04.2020
4445 Clouds 26 1015 94 10000 4.22 68 11:39 20.04.2020
4446 Clouds 26 1015 94 10000 4.22 68 11:20 20.04.2020
4447 Clouds 27 1015 88 10000 4.22 68 10:55 20.04.2020
4448 Clouds 27 1015 88 10000 4.22 68 10:37 20.04.2020
4449 Clouds 27 1015 88 10000 4.22 68 10:37 20.04.2020
4450 Clouds 27 1015 88 10000 4.22 68 10:18 20.04.2020
4451 Clouds 27 1014 88 10000 3.23 60 09:44 20.04.2020
4452 Rain 26 1014 87 0 4.52 58 09:26 20.04.2020
4453 Rain 26 1014 87 0 4.52 58 08:59 20.04.2020
4454 Clouds 28 1012 83 10000 4.52 58 08:40 20.04.2020
4455 Clouds 28 1012 83 10000 4.52 58 08:19 20.04.2020
4456 Clouds 28 1012 83 10000 4.52 58 07:52 20.04.2020
4457 Clouds 28 1012 83 10000 4.52 58 07:28 20.04.2020
4458 Clouds 29 1012 79 10000 2.6 100 06:54 20.04.2020
4459 Clouds 29 1012 79 10000 2.6 100 06:35 20.04.2020
4460 Clouds 29 1012 74 10000 2.6 80 05:25 20.04.2020
4461 Clouds 27 1014 94 10000 1.5 70 03:30 20.04.2020
4462 Rain 27 1016 94 10000 4.1 60 02:38 20.04.2020
4463 Rain 27 1016 94 10000 4.1 60 01:31 20.04.2020
4464 Rain 27 1017 88 10000 4.1 100 00:57 20.04.2020
4465 Rain 27 1017 88 10000 4.1 100 00:27 20.04.2020
4466 Clouds 28 1016 83 10000 4.6 100 23:54 19.04.2020
4467 Clouds 28 1016 83 10000 4.6 100 23:36 19.04.2020
4468 Clouds 27 1016 88 10000 4.14 74 23:18 19.04.2020
4469 Clouds 27 1016 88 10000 4.14 74 22:39 19.04.2020
4470 Clouds 27 1016 88 10000 4.14 74 22:21 19.04.2020
4471 Clouds 25 1015 94 10000 4.14 74 21:55 19.04.2020
4472 Clouds 25 1015 94 10000 4.14 74 21:37 19.04.2020
4473 Rain 24 1015 90 0 2.91 62 21:18 19.04.2020
4474 Clouds 25 1014 94 10000 2.91 62 20:41 19.04.2020
4475 Clouds 25 1014 94 10000 2.91 62 20:21 19.04.2020
4476 Clouds 25 1014 94 10000 2.91 62 19:58 19.04.2020
4477 Clouds 25 1014 94 10000 2.91 62 19:40 19.04.2020
4478 Clouds 25 1014 94 10000 2.91 62 19:22 19.04.2020
4479 Clouds 25 1014 94 10000 2.91 62 18:58 19.04.2020
4480 Clouds 25 1014 94 10000 2.91 62 18:39 19.04.2020
4481 Clouds 25 1014 94 10000 1.95 72 18:19 19.04.2020
4482 Clouds 25 1014 94 10000 1.95 72 18:19 19.04.2020
4483 Clouds 25 1015 94 10000 1.95 72 17:56 19.04.2020
4484 Clouds 25 1015 94 10000 1.95 72 17:56 19.04.2020
4485 Clouds 25 1015 94 10000 1.95 72 17:38 19.04.2020
4486 Clouds 25 1015 94 10000 1.95 72 17:20 19.04.2020
4487 Clouds 25 1015 94 10000 1.95 72 16:56 19.04.2020
4488 Clouds 25 1015 94 10000 1.95 72 16:36 19.04.2020
4489 Clouds 25 1015 94 10000 1.95 72 16:18 19.04.2020
4490 Clouds 25 1016 94 10000 1.95 72 15:42 19.04.2020
4491 Rain 25 1016 89 0 2.41 73 15:21 19.04.2020
4492 Rain 25 1016 89 0 2.41 73 14:54 19.04.2020
4493 Clouds 26 1016 88 10000 3.1 50 14:36 19.04.2020
4494 Clouds 26 1016 88 10000 3.1 50 14:18 19.04.2020
4495 Clouds 26 1016 88 10000 3.1 50 13:38 19.04.2020
4496 Clouds 26 1016 88 10000 3.1 50 13:19 19.04.2020
4497 Rain 26 1017 88 10000 5.1 70 12:49 19.04.2020
4498 Rain 26 1017 88 10000 5.1 70 12:49 19.04.2020
4499 Rain 26 1017 88 10000 5.1 70 12:25 19.04.2020
4500 Clouds 26 1016 94 10000 1.5 100 11:55 19.04.2020
4501 Clouds 26 1016 94 10000 1.5 100 11:37 19.04.2020
4502 Clouds 26 1016 94 10000 1.5 100 11:18 19.04.2020
4503 Clouds 26 1016 88 10000 2.1 100 10:55 19.04.2020
4504 Clouds 26 1016 88 10000 2.1 100 10:55 19.04.2020
4505 Clouds 26 1016 88 10000 2.1 100 10:37 19.04.2020
4506 Clouds 26 1015 94 10000 2.56 92 10:18 19.04.2020
4507 Clouds 26 1015 94 10000 2.56 92 09:43 19.04.2020
4508 Clouds 26 1015 94 10000 2.82 81 09:25 19.04.2020
4509 Clouds 29 1013 74 10000 3.6 60 08:40 19.04.2020
4510 Clouds 29 1013 74 10000 3.6 60 08:21 19.04.2020
4511 Clouds 29 1013 74 10000 3.6 60 07:58 19.04.2020
4512 Clouds 29 1013 74 10000 3.6 60 07:39 19.04.2020
4513 Clouds 29 1013 74 10000 3.6 60 07:20 19.04.2020
4514 Clouds 29 1013 74 10000 4.1 70 06:27 19.04.2020
4515 Clouds 29 1013 79 10000 3.6 80 05:43 19.04.2020
4516 Clouds 30 1014 70 10000 3.6 90 04:22 19.04.2020
4517 Rain 28 1014 78 0 4.87 85 02:52 19.04.2020
4518 Clouds 28 1015 83 10000 3.6 90 02:19 19.04.2020
4519 Clouds 28 1015 83 10000 3.6 90 01:31 19.04.2020
4520 Clouds 28 1016 83 10000 4.1 80 00:41 19.04.2020
4521 Clouds 28 1016 83 10000 4.1 80 00:20 19.04.2020
4522 Rain 26 1016 94 10000 2.6 120 23:44 18.04.2020
4523 Rain 26 1016 94 10000 2.6 120 23:21 18.04.2020
4524 Clouds 27 1015 83 10000 3.1 110 22:56 18.04.2020
4525 Clouds 27 1015 83 10000 3.1 110 22:38 18.04.2020
4526 Clouds 27 1015 83 10000 3.1 110 22:19 18.04.2020
4527 Clouds 24 1015 100 10000 4.4 99 21:55 18.04.2020
4528 Clouds 24 1015 100 10000 4.4 99 21:36 18.04.2020
4529 Rain 24 1014 91 0 2.75 104 21:18 18.04.2020
4530 Rain 24 1014 91 0 2.75 104 20:40 18.04.2020
4531 Clouds 26 1014 88 10000 2.75 104 20:21 18.04.2020
4532 Clouds 26 1014 88 10000 2.75 104 19:43 18.04.2020
4533 Clouds 26 1014 88 10000 2.75 104 19:25 18.04.2020
4534 Rain 26 1013 88 10000 2.75 104 18:58 18.04.2020
4535 Rain 26 1013 88 10000 2.75 104 18:36 18.04.2020
4536 Rain 26 1013 88 10000 2.82 100 18:18 18.04.2020
4537 Clouds 25 1014 94 10000 2.82 100 17:41 18.04.2020
4538 Clouds 25 1014 94 10000 2.82 100 17:21 18.04.2020
4539 Clouds 25 1014 94 10000 2.82 100 16:56 18.04.2020
4540 Clouds 25 1014 94 10000 2.82 100 16:36 18.04.2020
4541 Clouds 25 1014 94 10000 2.82 100 16:36 18.04.2020
4542 Clouds 25 1014 94 10000 2.82 100 16:18 18.04.2020
4543 Rain 24 1014 91 0 2.82 100 15:38 18.04.2020
4544 Rain 24 1015 90 0 2.15 97 15:20 18.04.2020
4545 Rain 24 1015 90 0 2.15 97 14:44 18.04.2020
4546 Clouds 26 1015 88 10000 2.14 104 14:25 18.04.2020
4547 Clouds 26 1015 88 10000 2.14 104 13:55 18.04.2020
4548 Clouds 26 1015 88 10000 2.14 104 13:36 18.04.2020
4549 Clouds 26 1015 88 10000 2.14 104 13:18 18.04.2020
4550 Clouds 26 1016 88 10000 2.14 104 12:41 18.04.2020
4551 Clouds 26 1016 88 10000 3.01 92 12:22 18.04.2020
4552 Clouds 26 1015 88 10000 3.01 92 11:43 18.04.2020
4553 Clouds 26 1015 88 10000 3.01 92 11:23 18.04.2020
4554 Clouds 26 1014 83 10000 3.01 92 10:57 18.04.2020
4555 Clouds 26 1014 83 10000 3.01 92 10:37 18.04.2020
4556 Clouds 26 1014 83 10000 3.01 92 10:18 18.04.2020
4557 Clouds 27 1014 78 10000 2.6 140 09:41 18.04.2020
4558 Clouds 27 1014 78 10000 2.6 140 09:23 18.04.2020
4559 Rain 25 1013 85 0 3.04 101 08:44 18.04.2020
4560 Clouds 28 1013 78 10000 2.6 90 08:26 18.04.2020
4561 Clouds 28 1013 78 10000 2.6 90 07:54 18.04.2020
4562 Clouds 28 1013 78 10000 2.6 90 07:34 18.04.2020
4563 Clouds 28 1013 78 10000 3.1 120 06:55 18.04.2020
4564 Clouds 28 1013 78 10000 4.1 120 06:19 18.04.2020
4565 Clouds 28 1013 78 10000 4.1 120 05:35 18.04.2020
4566 Clouds 29 1013 74 10000 5.1 100 04:46 18.04.2020
4567 Clouds 29 1013 74 10000 5.1 100 04:24 18.04.2020
4568 Clouds 27 1014 72 0 3.4 92 02:47 18.04.2020
4569 Clouds 29 1014 70 10000 4.6 120 02:22 18.04.2020
4570 Clouds 29 1014 70 10000 4.6 120 01:53 18.04.2020
4571 Clouds 29 1014 70 10000 4.6 120 01:33 18.04.2020
4572 Clouds 29 1015 70 10000 3.6 120 00:41 18.04.2020
4573 Clouds 28 1014 78 10000 4.1 120 00:20 18.04.2020
4574 Clouds 28 1014 78 10000 4.1 120 23:55 17.04.2020
4575 Clouds 28 1014 78 10000 4.1 120 23:36 17.04.2020
4576 Clouds 26 1014 88 10000 2.6 120 23:18 17.04.2020
4577 Clouds 26 1014 88 10000 2.6 120 22:54 17.04.2020
4578 Clouds 26 1014 88 10000 2.6 120 22:36 17.04.2020
4579 Clouds 26 1014 88 10000 2.6 120 22:18 17.04.2020
4580 Clouds 25 1013 94 10000 3.85 100 21:41 17.04.2020
4581 Clouds 25 1013 94 10000 3.24 103 21:21 17.04.2020
4582 Clouds 25 1013 94 10000 3.24 103 21:21 17.04.2020
4583 Rain 24 1013 87 0 3.24 103 20:56 17.04.2020
4584 Clouds 24 1013 100 10000 3.24 103 20:37 17.04.2020
4585 Clouds 24 1013 100 10000 3.24 103 20:18 17.04.2020
4586 Clouds 24 1013 100 10000 3.24 103 19:56 17.04.2020
4587 Clouds 24 1013 100 10000 3.24 103 19:38 17.04.2020
4588 Clouds 24 1013 94 10000 3.24 103 19:19 17.04.2020
4589 Clouds 24 1013 94 10000 3.24 103 18:42 17.04.2020
4590 Clouds 24 1013 94 10000 2.45 111 18:22 17.04.2020
4591 Clouds 24 1013 94 10000 2.45 111 17:38 17.04.2020
4592 Clouds 24 1013 94 10000 2.45 111 17:20 17.04.2020
4593 Clouds 25 1013 88 10000 2.45 111 16:59 17.04.2020
4594 Clouds 25 1013 88 10000 2.45 111 16:41 17.04.2020
4595 Clouds 25 1013 88 10000 2.45 111 16:22 17.04.2020
4596 Rain 24 1013 87 0 2.45 111 15:40 17.04.2020
4597 Clouds 23 1014 88 0 2.43 103 15:22 17.04.2020
4598 Clouds 23 1014 88 0 2.43 103 14:55 17.04.2020
4599 Clouds 26 1014 78 10000 2.6 130 14:36 17.04.2020
4600 Clouds 26 1014 78 10000 2.6 130 14:18 17.04.2020
4601 Clouds 26 1014 78 10000 2.6 130 13:40 17.04.2020
4602 Clouds 26 1014 78 10000 2.6 130 13:40 17.04.2020
4603 Clouds 26 1014 78 10000 2.6 130 13:20 17.04.2020
4604 Clouds 26 1014 83 10000 2.41 100 12:48 17.04.2020
4605 Clouds 26 1014 83 10000 2.75 101 12:28 17.04.2020
4606 Clouds 26 1014 83 10000 2.75 101 11:59 17.04.2020
4607 Clouds 26 1014 83 10000 2.75 101 11:40 17.04.2020
4608 Clouds 26 1013 83 10000 2.75 101 11:19 17.04.2020
4609 Clouds 26 1013 83 10000 2.75 101 10:40 17.04.2020
4610 Clouds 26 1013 83 10000 2.75 101 10:21 17.04.2020
4611 Clouds 26 1013 83 10000 2.75 101 09:55 17.04.2020
4612 Clouds 26 1013 83 10000 2.8 101 09:37 17.04.2020
4613 Clouds 26 1013 83 10000 3.31 115 09:18 17.04.2020
4614 Clouds 25 1012 83 0 3.31 115 08:47 17.04.2020
4615 Clouds 25 1012 83 0 3.31 115 08:46 17.04.2020
4616 Clouds 28 1012 74 10000 4.1 180 08:27 17.04.2020
4617 Clouds 28 1012 74 10000 4.1 180 07:57 17.04.2020
4618 Clouds 28 1012 74 10000 4.1 180 07:39 17.04.2020
4619 Clouds 29 1012 70 10000 4.1 210 07:18 17.04.2020
4620 Clouds 25 1012 83 0 3.31 115 06:43 17.04.2020
4621 Clouds 30 1011 66 10000 3.6 150 05:58 17.04.2020
4622 Rain 28 1013 68 0 3.79 129 03:23 17.04.2020
4623 Rain 28 1013 68 0 3.79 129 02:50 17.04.2020
4624 Clouds 29 1014 70 10000 2.6 150 01:30 17.04.2020
4625 Clouds 29 1014 70 10000 3.6 130 00:59 17.04.2020
4626 Clouds 29 1014 70 10000 3.6 130 00:21 17.04.2020
4627 Clouds 28 1015 78 10000 2.6 140 23:47 16.04.2020
4628 Clouds 28 1015 78 10000 2.6 140 23:24 16.04.2020
4629 Clouds 25 1014 94 10000 3.52 129 22:59 16.04.2020
4630 Clouds 25 1014 94 10000 3.52 129 22:59 16.04.2020
4631 Clouds 25 1014 94 10000 3.52 129 22:59 16.04.2020
4632 Clouds 25 1014 94 10000 3.52 129 22:39 16.04.2020
4633 Clouds 25 1014 94 10000 3.52 129 22:20 16.04.2020
4634 Clouds 24 1013 100 10000 3.52 129 21:57 16.04.2020
4635 Clouds 24 1013 100 10000 3.52 129 21:57 16.04.2020
4636 Clouds 24 1013 100 10000 3.52 129 21:38 16.04.2020
4637 Clouds 24 1013 100 10000 2.83 132 21:19 16.04.2020
4638 Clouds 24 1012 94 10000 2.83 132 20:42 16.04.2020
4639 Clouds 24 1012 94 10000 2.83 132 20:22 16.04.2020
4640 Rain 24 1013 89 0 2.83 132 19:58 16.04.2020
4641 Rain 24 1013 89 0 2.83 132 19:39 16.04.2020
4642 Rain 24 1013 89 0 2.83 132 19:19 16.04.2020
4643 Rain 24 1013 89 0 2.83 132 18:46 16.04.2020
4644 Clouds 24 1012 100 10000 2.26 127 18:27 16.04.2020
4645 Clouds 24 1012 100 10000 2.26 127 18:00 16.04.2020
4646 Clouds 24 1012 100 10000 2.26 127 17:41 16.04.2020
4647 Clouds 24 1012 100 10000 2.26 127 17:21 16.04.2020
4648 Clouds 24 1012 90 0 2.26 127 16:45 16.04.2020
4649 Clouds 24 1012 90 0 2.26 127 16:26 16.04.2020
4650 Clouds 24 1012 90 0 2.26 127 15:59 16.04.2020
4651 Clouds 25 1013 94 10000 2.26 127 15:39 16.04.2020
4652 Clouds 25 1013 94 10000 2.63 128 15:19 16.04.2020
4653 Clouds 25 1013 94 10000 2.63 128 14:55 16.04.2020
4654 Clouds 25 1013 94 10000 2.63 128 14:37 16.04.2020
4655 Clouds 25 1013 94 10000 2.34 127 14:18 16.04.2020
4656 Rain 25 1013 90 0 2.34 127 13:41 16.04.2020
4657 Rain 25 1013 90 0 2.34 127 13:23 16.04.2020
4658 Rain 25 1013 90 0 2.34 127 12:58 16.04.2020
4659 Clouds 26 1014 88 10000 1.5 150 12:39 16.04.2020
4660 Clouds 26 1014 88 10000 1.5 150 12:20 16.04.2020
4661 Clouds 26 1014 88 10000 1.5 150 12:20 16.04.2020
4662 Clouds 26 1014 88 10000 1.5 150 11:59 16.04.2020
4663 Clouds 26 1014 88 10000 1.5 150 11:59 16.04.2020
4664 Clouds 26 1014 88 10000 1.5 150 11:40 16.04.2020
4665 Clouds 26 1014 88 10000 1.5 150 11:21 16.04.2020
4666 Rain 25 1014 91 0 2.64 135 10:55 16.04.2020
4667 Rain 25 1014 91 0 2.64 135 10:37 16.04.2020
4668 Rain 25 1014 91 0 2.64 135 10:18 16.04.2020
4669 Rain 27 1013 88 10000 1.5 170 09:39 16.04.2020
4670 Rain 27 1013 88 10000 1.5 170 09:20 16.04.2020
4671 Rain 27 1013 88 10000 1.5 170 09:20 16.04.2020
4672 Rain 27 1013 88 10000 1.5 170 08:56 16.04.2020
4673 Rain 27 1013 88 10000 1.5 170 08:37 16.04.2020
4674 Rain 27 1013 88 10000 1.5 170 08:19 16.04.2020
4675 Rain 25 1013 91 0 3.12 151 07:43 16.04.2020
4676 Rain 25 1013 91 0 3.12 151 07:21 16.04.2020
4677 Rain 25 1013 89 0 2.58 140 06:41 16.04.2020
4678 Rain 29 1011 74 10000 3.6 150 06:23 16.04.2020
4679 Clouds 30 1012 74 10000 3.1 170 04:54 16.04.2020
4680 Rain 30 1012 74 10000 2.6 150 03:29 16.04.2020
4681 Clouds 29 1013 79 10000 2.6 130 02:59 16.04.2020
4682 Clouds 29 1013 79 10000 2.6 130 02:39 16.04.2020
4683 Rain 29 1014 79 10000 3.1 120 01:40 16.04.2020
4684 Clouds 28 1014 83 10000 2.6 110 00:57 16.04.2020
4685 Clouds 28 1014 83 10000 2.6 110 00:25 16.04.2020
4686 Rain 28 1014 83 10000 1.5 130 23:55 15.04.2020
4687 Rain 28 1014 83 10000 1.5 130 23:36 15.04.2020
4688 Rain 28 1014 83 10000 1.5 130 23:18 15.04.2020
4689 Clouds 26 1014 94 10000 2.5 130 22:39 15.04.2020
4690 Clouds 26 1014 94 10000 2.5 130 22:20 15.04.2020
4691 Clouds 25 1013 100 0 2.5 130 21:56 15.04.2020
4692 Clouds 25 1013 100 0 2.5 130 21:37 15.04.2020
4693 Clouds 25 1013 100 0 2.5 130 21:37 15.04.2020
4694 Clouds 25 1013 100 0 2.08 112 21:19 15.04.2020
4695 Clouds 25 1013 100 0 2.08 112 20:54 15.04.2020
4696 Clouds 25 1013 100 0 2.08 112 20:54 15.04.2020
4697 Clouds 25 1013 100 0 2.08 112 20:36 15.04.2020
4698 Clouds 25 1013 100 0 2.08 112 20:18 15.04.2020
4699 Rain 24 1013 91 0 2.08 112 19:41 15.04.2020
4700 Rain 24 1013 91 0 2.08 112 19:20 15.04.2020
4701 Rain 24 1013 91 0 2.08 112 18:42 15.04.2020
4702 Rain 25 1013 100 0 2.35 114 18:23 15.04.2020
4703 Rain 25 1013 100 0 2.35 114 17:58 15.04.2020
4704 Rain 25 1013 100 0 2.35 114 17:39 15.04.2020
4705 Rain 25 1013 100 0 2.35 114 17:20 15.04.2020
4706 Rain 24 1012 91 0 2.35 114 16:56 15.04.2020
4707 Rain 24 1012 91 0 2.35 114 16:37 15.04.2020
4708 Rain 24 1012 91 0 2.35 114 16:37 15.04.2020
4709 Rain 24 1012 91 0 2.35 114 16:19 15.04.2020
4710 Rain 24 1012 91 0 2.35 114 15:57 15.04.2020
4711 Clouds 26 1014 94 0 2.35 114 15:38 15.04.2020
4712 Clouds 26 1014 94 0 2.94 115 15:19 15.04.2020
4713 Clouds 26 1014 94 0 2.94 115 14:56 15.04.2020
4714 Clouds 26 1014 94 0 2.94 115 14:38 15.04.2020
4715 Clouds 26 1014 94 0 2.37 113 14:20 15.04.2020
4716 Rain 25 1015 89 0 2.37 113 13:56 15.04.2020
4717 Rain 25 1015 89 0 2.37 113 13:37 15.04.2020
4718 Rain 25 1015 89 0 2.37 113 13:18 15.04.2020
4719 Rain 25 1015 89 0 2.37 113 12:42 15.04.2020
4720 Clouds 26 1015 88 0 2.8 121 12:23 15.04.2020
4721 Clouds 26 1015 88 0 2.8 121 11:58 15.04.2020
4722 Clouds 26 1015 88 0 2.8 121 11:39 15.04.2020
4723 Clouds 26 1015 88 0 2.8 121 11:21 15.04.2020
4724 Rain 25 1015 89 0 2.8 121 10:39 15.04.2020
4725 Rain 25 1015 89 0 2.8 121 10:21 15.04.2020
4726 Rain 25 1015 89 0 2.8 121 09:57 15.04.2020
4727 Clouds 27 1014 83 0 3.1 150 09:39 15.04.2020
4728 Clouds 27 1014 83 0 3.1 150 09:21 15.04.2020
4729 Clouds 27 1014 83 0 3.1 150 08:55 15.04.2020
4730 Clouds 27 1014 83 0 3.1 150 08:37 15.04.2020
4731 Clouds 27 1014 83 0 3.1 150 08:19 15.04.2020
4732 Clouds 25 1014 86 0 3.17 123 07:49 15.04.2020
4733 Clouds 25 1014 86 0 3.17 123 07:30 15.04.2020
4734 Clouds 29 1013 74 0 3.1 120 06:33 15.04.2020
4735 Clouds 29 1013 74 0 3.1 120 05:50 15.04.2020
4736 Clouds 29 1013 79 0 4.6 110 04:49 15.04.2020
4737 Clouds 29 1013 79 0 4.6 110 04:24 15.04.2020
4738 Clouds 30 1013 79 0 2.6 100 03:23 15.04.2020
4739 Clouds 30 1015 79 0 2.6 140 02:52 15.04.2020
4740 Clouds 30 1016 79 0 2.6 120 01:54 15.04.2020
4741 Clouds 30 1016 79 0 2.6 120 01:25 15.04.2020
4742 Clouds 29 1016 74 0 2.6 140 00:51 15.04.2020
4743 Clouds 29 1016 74 0 2.6 140 00:30 15.04.2020
4744 Clouds 28 1016 78 0 1.5 130 23:57 14.04.2020
4745 Clouds 28 1016 78 0 1.5 130 23:38 14.04.2020
4746 Clouds 28 1016 78 0 1.5 130 23:20 14.04.2020
4747 Clouds 25 1016 94 0 1 320 22:58 14.04.2020
4748 Clouds 25 1016 94 0 1 320 22:39 14.04.2020
4749 Clouds 25 1016 94 0 1 320 22:21 14.04.2020
4750 Clouds 22 1015 100 0 3.34 110 21:57 14.04.2020
4751 Clouds 22 1015 100 0 3.34 110 21:39 14.04.2020
4752 Clouds 22 1015 100 0 2.53 103 21:20 14.04.2020
4753 Clouds 22 1015 100 0 2.51 103 20:58 14.04.2020
4754 Clouds 22 1015 100 0 2.51 103 20:39 14.04.2020
4755 Clouds 22 1015 100 0 2.53 103 20:21 14.04.2020
4756 Clouds 22 1015 100 0 2.53 103 20:21 14.04.2020
4757 Clouds 24 1015 88 0 2.51 103 19:41 14.04.2020
4758 Clouds 24 1015 88 0 2.53 103 19:23 14.04.2020
4759 Clouds 24 1015 88 0 2.51 103 18:58 14.04.2020
4760 Clouds 23 1014 94 0 2.53 103 18:40 14.04.2020
4761 Clouds 23 1014 94 0 2.23 110 18:21 14.04.2020
4762 Clouds 23 1014 94 0 2.14 111 17:58 14.04.2020
4763 Clouds 23 1014 94 0 2.14 111 17:38 14.04.2020
4764 Clouds 23 1014 94 0 2.23 110 17:19 14.04.2020
4765 Clouds 24 1014 88 0 2.14 111 16:56 14.04.2020
4766 Clouds 23 1014 88 0 2.23 110 16:38 14.04.2020
4767 Clouds 24 1014 88 0 2.14 111 16:19 14.04.2020
4768 Clouds 23 1014 88 0 2.23 110 15:55 14.04.2020
4769 Clouds 24 1015 94 0 1 320 15:37 14.04.2020
4770 Clouds 24 1015 94 0 1 320 15:18 14.04.2020
4771 Clouds 24 1015 94 0 1 320 14:55 14.04.2020
4772 Clouds 24 1015 94 0 1 320 14:37 14.04.2020
4773 Clouds 24 1015 94 0 1 320 14:18 14.04.2020
4774 Clouds 24 1015 94 0 1 320 14:18 14.04.2020
4775 Clouds 24 1016 87 0 2 105 13:40 14.04.2020
4776 Clouds 24 1016 87 0 2 105 13:22 14.04.2020
4777 Clouds 24 1016 87 0 2 105 12:42 14.04.2020
4778 Clouds 25 1017 94 0 0.5 300 12:22 14.04.2020
4779 Clouds 25 1017 94 0 0.5 300 11:57 14.04.2020
4780 Clouds 25 1017 94 0 0.5 300 11:39 14.04.2020
4781 Clouds 25 1017 94 0 0.5 300 11:20 14.04.2020
4782 Clouds 25 1017 94 0 0.5 300 11:20 14.04.2020
4783 Clouds 24 1016 87 0 2.47 96 10:47 14.04.2020
4784 Clouds 24 1016 87 0 2.47 96 10:28 14.04.2020
4785 Clouds 24 1016 87 0 2.47 96 09:58 14.04.2020
4786 Clouds 24 1016 88 0 2.38 101 09:40 14.04.2020
4787 Clouds 27 1015 78 0 2.1 110 09:22 14.04.2020
4788 Clouds 27 1015 78 0 2.1 110 08:44 14.04.2020
4789 Clouds 27 1015 78 0 2.1 110 08:24 14.04.2020
4790 Rain 25 1015 86 0 3.22 112 07:57 14.04.2020
4791 Rain 25 1015 86 0 3.22 112 07:34 14.04.2020
4792 Rain 25 1015 86 0 3.22 112 06:57 14.04.2020
4793 Clouds 29 1014 66 0 3.6 130 06:33 14.04.2020
4794 Clouds 28 1013 74 0 4.09 104 04:49 14.04.2020
4795 Clouds 30 1016 70 0 4.6 110 03:22 14.04.2020
4796 Clouds 29 1016 70 0 4.6 110 02:18 14.04.2020
4797 Clouds 29 1017 89 0 4.6 110 01:25 14.04.2020
4798 Clouds 28 1017 83 0 5.1 100 00:42 14.04.2020
4799 Clouds 28 1017 83 0 5.1 100 00:19 14.04.2020
4800 Clouds 28 1017 78 0 4.6 110 23:47 13.04.2020
4801 Clouds 28 1017 78 0 4.6 110 23:27 13.04.2020
4802 Clouds 25 1017 100 0 0.5 280 22:59 13.04.2020
4803 Clouds 25 1017 100 0 0.5 280 22:41 13.04.2020
4804 Clouds 25 1017 100 0 0.5 280 22:22 13.04.2020
4805 Clouds 23 1016 100 0 2.39 98 21:57 13.04.2020
4806 Clouds 23 1016 100 0 2.39 98 21:37 13.04.2020
4807 Clouds 23 1016 100 0 1.86 80 21:19 13.04.2020
4808 Clouds 23 1016 100 0 1.86 80 20:56 13.04.2020
4809 Clouds 23 1016 100 0 1.86 80 20:38 13.04.2020
4810 Clouds 23 1016 100 0 1.86 80 20:38 13.04.2020
4811 Clouds 23 1016 100 0 1.86 80 20:18 13.04.2020
4812 Clouds 24 1016 85 0 1.86 80 19:39 13.04.2020
4813 Clouds 24 1016 85 0 1.86 80 19:20 13.04.2020
4814 Clouds 24 1016 85 0 1.86 80 18:59 13.04.2020
4815 Clouds 25 1015 94 0 1.86 80 18:39 13.04.2020
4816 Clouds 25 1015 94 0 2.31 84 18:20 13.04.2020
4817 Clouds 25 1015 94 0 2.31 84 17:58 13.04.2020
4818 Clouds 25 1015 94 0 2.31 84 17:39 13.04.2020
4819 Clouds 25 1015 94 0 2.31 84 17:20 13.04.2020
4820 Clouds 24 1015 87 0 2.31 84 16:59 13.04.2020
4821 Clouds 24 1015 87 0 2.31 84 16:41 13.04.2020
4822 Clouds 24 1015 87 0 2.31 84 16:21 13.04.2020
4823 Clouds 24 1015 87 0 2.31 84 15:58 13.04.2020
4824 Clouds 25 1016 94 0 2.31 84 15:40 13.04.2020
4825 Clouds 25 1016 94 0 2.09 73 15:21 13.04.2020
4826 Clouds 25 1016 94 0 2.09 73 14:56 13.04.2020
4827 Clouds 25 1016 94 0 2.09 73 14:38 13.04.2020
4828 Clouds 25 1016 94 0 2.09 73 14:38 13.04.2020
4829 Clouds 25 1016 94 0 2.27 76 14:20 13.04.2020
4830 Rain 25 1017 86 0 2.27 76 13:55 13.04.2020
4831 Rain 24 1017 86 0 2.56 75 13:37 13.04.2020
4832 Rain 24 1017 86 0 2.56 75 13:37 13.04.2020
4833 Rain 25 1017 86 0 2.27 76 13:18 13.04.2020
4834 Rain 25 1017 86 0 2.27 76 12:56 13.04.2020
4835 Rain 25 1017 86 0 2.27 76 12:38 13.04.2020
4836 Rain 25 1017 87 0 3.16 78 12:19 13.04.2020
4837 Rain 25 1017 86 0 3.12 72 11:42 13.04.2020
4838 Rain 25 1017 87 0 3.16 78 11:19 13.04.2020
4839 Rain 25 1017 86 0 3.12 72 10:56 13.04.2020
4840 Rain 27 1015 88 0 2.1 70 10:37 13.04.2020
4841 Rain 27 1015 88 0 2.1 70 10:19 13.04.2020
4842 Rain 25 1017 87 0 3.16 78 09:46 13.04.2020
4843 Clouds 28 1014 83 0 2.1 110 09:26 13.04.2020
4844 Clouds 28 1014 83 0 2.1 110 08:52 13.04.2020
4845 Clouds 28 1014 83 0 2.1 110 08:31 13.04.2020
4846 Clouds 29 1014 79 0 4.6 70 07:59 13.04.2020
4847 Clouds 29 1014 79 0 4.6 70 07:39 13.04.2020
4848 Clouds 29 1014 79 0 4.6 70 07:20 13.04.2020
4849 Clouds 30 1014 70 0 5.1 80 06:47 13.04.2020
4850 Clouds 30 1014 79 0 3.6 90 06:24 13.04.2020
4851 Clouds 30 1014 79 0 3.6 90 05:31 13.04.2020
4852 Clouds 30 1014 84 0 6.2 90 04:53 13.04.2020
4853 Clouds 30 1014 84 0 6.2 90 04:23 13.04.2020
4854 Clouds 31 1014 84 0 5.7 90 03:47 13.04.2020
4855 Clouds 30 1015 79 10000 4.6 140 02:59 13.04.2020
4856 Clouds 30 1016 74 0 4.1 140 01:56 13.04.2020
4857 Clouds 30 1016 74 0 4.1 140 01:37 13.04.2020
4858 Clouds 29 1017 74 0 4.21 70 00:58 13.04.2020
4859 Clouds 29 1017 74 0 4.21 70 00:39 13.04.2020
4860 Clouds 29 1017 74 0 3.86 63 00:18 13.04.2020
4861 Clouds 29 1016 79 0 3.86 63 23:45 12.04.2020
4862 Clouds 29 1016 79 0 3.86 63 23:22 12.04.2020
4863 Clouds 25 1016 94 0 2.1 310 22:57 12.04.2020
4864 Clouds 25 1016 94 0 2.1 310 22:37 12.04.2020
4865 Clouds 25 1016 94 0 2.1 310 22:19 12.04.2020
4866 Clouds 25 1016 94 0 2.1 310 22:19 12.04.2020
4867 Rain 23 1016 94 0 1.5 310 21:40 12.04.2020
4868 Rain 23 1016 94 0 1.5 310 21:21 12.04.2020
4869 Clouds 23 1015 94 0 0.5 230 20:56 12.04.2020
4870 Clouds 23 1015 94 0 0.5 230 20:38 12.04.2020
4871 Clouds 23 1015 94 0 0.5 230 20:19 12.04.2020
4872 Rain 24 1015 90 0 2.63 66 19:55 12.04.2020
4873 Rain 24 1015 90 0 2.63 66 19:36 12.04.2020
4874 Rain 24 1015 90 0 2.63 66 19:18 12.04.2020
4875 Rain 24 1015 90 0 2.63 66 18:40 12.04.2020
4876 Rain 24 1014 91 0 1.82 56 18:20 12.04.2020
4877 Rain 24 1014 91 0 1.82 56 17:56 12.04.2020
4878 Rain 24 1014 91 0 1.82 56 17:38 12.04.2020
4879 Rain 24 1014 91 0 1.82 56 17:18 12.04.2020
4880 Rain 24 1014 91 0 1.82 56 16:54 12.04.2020
4881 Rain 24 1014 91 0 1.82 56 16:54 12.04.2020
4882 Rain 24 1014 91 0 1.82 56 16:36 12.04.2020
4883 Rain 24 1014 91 0 1.82 56 16:18 12.04.2020
4884 Clouds 25 1016 94 0 1 230 15:41 12.04.2020
4885 Clouds 25 1016 94 0 1 230 15:21 12.04.2020
4886 Clouds 25 1016 94 0 1 230 14:39 12.04.2020
4887 Clouds 25 1016 94 0 1 230 14:21 12.04.2020
4888 Rain 24 1016 91 0 2.42 64 13:57 12.04.2020
4889 Rain 24 1016 91 0 2.42 64 13:37 12.04.2020
4890 Rain 24 1016 91 0 2.42 64 13:37 12.04.2020
4891 Rain 24 1016 91 0 2.42 64 13:18 12.04.2020
4892 Rain 24 1016 91 0 2.42 64 12:45 12.04.2020
4893 Rain 25 1015 94 0 3.1 110 12:21 12.04.2020
4894 Rain 25 1015 94 0 3.1 110 11:58 12.04.2020
4895 Rain 25 1015 94 0 3.1 110 11:38 12.04.2020
4896 Rain 25 1015 94 0 3.1 110 11:19 12.04.2020
4897 Rain 24 1015 90 0 2.89 69 10:56 12.04.2020
4898 Rain 24 1015 90 0 2.89 69 10:38 12.04.2020
4899 Rain 24 1015 90 0 2.89 69 10:19 12.04.2020
4900 Rain 24 1015 90 0 2.89 69 09:56 12.04.2020
4901 Rain 27 1013 83 0 2.6 90 09:37 12.04.2020
4902 Rain 27 1013 83 0 2.6 90 09:19 12.04.2020
4903 Rain 27 1013 83 0 2.6 90 09:19 12.04.2020
4904 Rain 27 1013 83 0 2.6 90 08:47 12.04.2020
4905 Rain 27 1013 83 0 2.6 90 08:29 12.04.2020
4906 Rain 25 1014 90 0 3.6 82 07:47 12.04.2020
4907 Rain 25 1014 90 0 3.6 82 07:19 12.04.2020
4908 Rain 25 1014 90 0 3.6 82 06:42 12.04.2020
4909 Clouds 30 1013 74 0 4.1 90 06:22 12.04.2020
4910 Clouds 30 1013 74 0 4.1 90 05:42 12.04.2020
4911 Clouds 30 1013 70 0 4.1 90 04:25 12.04.2020
4912 Clouds 30 1013 70 0 4.1 70 03:25 12.04.2020
4913 Clouds 30 1014 66 10000 4.6 60 02:47 12.04.2020
4914 Clouds 30 1014 66 10000 4.6 60 02:27 12.04.2020
4915 Clouds 29 1014 70 0 3.6 60 01:21 12.04.2020
4916 Clouds 28 1015 74 0 1 30 00:42 12.04.2020
4917 Clouds 28 1015 74 0 1 30 00:20 12.04.2020
4918 Clouds 26 1015 83 0 1 280 23:47 11.04.2020
4919 Clouds 26 1015 83 0 1 280 23:26 11.04.2020
4920 Clouds 24 1014 88 10000 3.43 68 22:57 11.04.2020
4921 Clouds 24 1014 88 10000 3.43 68 22:36 11.04.2020
4922 Clouds 24 1014 88 10000 3.43 68 22:18 11.04.2020
4923 Clouds 22 1014 94 10000 3.43 68 21:54 11.04.2020
4924 Clouds 22 1014 94 10000 3.43 68 21:36 11.04.2020
4925 Clouds 22 1014 94 10000 2.29 82 21:18 11.04.2020
4926 Clouds 23 1013 100 10000 2.29 82 20:54 11.04.2020
4927 Clouds 23 1013 100 10000 2.29 82 20:36 11.04.2020
4928 Clouds 23 1013 100 10000 2.29 82 20:18 11.04.2020
4929 Rain 23 1013 89 0 2.29 82 19:54 11.04.2020
4930 Rain 23 1013 89 0 2.29 82 19:54 11.04.2020
4931 Rain 23 1013 89 0 2.29 82 19:36 11.04.2020
4932 Rain 23 1013 89 0 2.29 82 19:18 11.04.2020
4933 Rain 23 1013 89 0 2.29 82 18:55 11.04.2020
4934 Clouds 23 1013 100 10000 2.29 82 18:36 11.04.2020
4935 Clouds 23 1013 100 10000 2.14 71 18:18 11.04.2020
4936 Clouds 23 1013 100 10000 2.14 71 18:18 11.04.2020
4937 Clouds 23 1013 100 10000 2.14 71 17:56 11.04.2020
4938 Rain 23 1013 88 0 2.14 71 17:36 11.04.2020
4939 Rain 23 1013 88 0 2.14 71 17:18 11.04.2020
4940 Rain 23 1013 88 0 2.14 71 16:41 11.04.2020
4941 Rain 23 1013 88 0 2.14 71 16:21 11.04.2020
4942 Rain 23 1013 88 0 2.14 71 15:40 11.04.2020
4943 Rain 23 1013 88 0 2.14 71 15:40 11.04.2020
4944 Clouds 24 1014 94 10000 2.22 64 15:20 11.04.2020
4945 Clouds 24 1014 94 10000 2.22 64 14:57 11.04.2020
4946 Clouds 24 1014 94 10000 2.17 66 14:39 11.04.2020
4947 Clouds 24 1014 94 10000 2.17 66 14:20 11.04.2020
4948 Rain 23 1014 87 0 2.17 66 13:41 11.04.2020
4949 Rain 23 1014 87 0 2.17 66 13:23 11.04.2020
4950 Clouds 23 1015 94 10000 1.5 130 12:43 11.04.2020
4951 Clouds 23 1015 94 10000 1.5 130 12:22 11.04.2020
4952 Clouds 23 1015 94 10000 1.5 130 11:59 11.04.2020
4953 Clouds 23 1015 94 10000 1.5 130 11:40 11.04.2020
4954 Clouds 23 1015 94 10000 1.5 130 11:20 11.04.2020
4955 Rain 23 1015 87 0 2.26 105 10:56 11.04.2020
4956 Rain 23 1015 87 0 2.26 105 10:36 11.04.2020
4957 Rain 23 1015 87 0 2.26 105 10:18 11.04.2020
4958 Rain 23 1015 87 0 2.26 105 09:41 11.04.2020
4959 Rain 23 1013 94 10000 2.1 150 09:22 11.04.2020
4960 Rain 23 1013 94 10000 2.1 150 08:59 11.04.2020
4961 Rain 23 1013 94 10000 2.1 150 08:41 11.04.2020
4962 Rain 23 1013 94 10000 2.1 150 08:23 11.04.2020
4963 Rain 24 1013 86 0 2.4 122 07:42 11.04.2020
4964 Rain 24 1013 86 0 2.4 122 07:23 11.04.2020
4965 Rain 25 1012 94 10000 2.1 140 06:37 11.04.2020
4966 Rain 25 1012 94 10000 2.1 140 05:57 11.04.2020
4967 Clouds 28 1012 65 10000 2.6 140 03:57 11.04.2020
4968 Clouds 28 1013 74 10000 3.6 150 02:52 11.04.2020
4969 Clouds 27 1014 74 0 2.6 160 01:26 11.04.2020
4970 Clouds 26 1014 83 0 3.32 128 00:56 11.04.2020
4971 Clouds 26 1014 83 0 3.32 128 00:38 11.04.2020
4972 Clouds 26 1014 83 0 2.71 137 00:18 11.04.2020
4973 Clouds 26 1014 83 0 2.71 137 00:18 11.04.2020
4974 Clouds 25 1013 88 0 2.71 137 23:42 10.04.2020
4975 Clouds 25 1013 88 0 2.71 137 23:19 10.04.2020
4976 Clouds 24 1013 94 0 1.5 310 22:58 10.04.2020
4977 Clouds 24 1013 94 0 1.5 310 22:37 10.04.2020
4978 Clouds 24 1013 94 0 1.5 310 22:19 10.04.2020
4979 Clouds 22 1013 94 0 1.5 310 21:42 10.04.2020
4980 Clouds 22 1013 94 0 1.5 310 21:21 10.04.2020
4981 Clouds 22 1012 94 0 1.57 154 20:58 10.04.2020
4982 Clouds 22 1012 94 0 1.57 154 20:39 10.04.2020
4983 Clouds 22 1012 94 0 1.57 154 20:19 10.04.2020
4984 Rain 23 1011 85 0 1.57 154 19:55 10.04.2020
4985 Rain 23 1011 85 0 1.57 154 19:37 10.04.2020
4986 Rain 23 1011 85 0 1.57 154 19:18 10.04.2020
4987 Rain 23 1011 85 0 1.57 154 18:55 10.04.2020
4988 Clouds 22 1011 94 0 1.57 154 18:37 10.04.2020
4989 Clouds 22 1011 94 0 1.32 164 18:18 10.04.2020
4990 Clouds 22 1011 94 0 1.32 164 17:56 10.04.2020
4991 Clouds 22 1011 94 0 1.32 164 17:38 10.04.2020
4992 Clouds 22 1011 94 0 1.32 164 17:18 10.04.2020
4993 Rain 23 1011 85 0 1.32 164 16:42 10.04.2020
4994 Rain 23 1011 85 0 1.32 164 16:23 10.04.2020
4995 Rain 23 1011 85 0 1.32 164 15:58 10.04.2020
4996 Clouds 24 1013 94 0 1.32 164 15:39 10.04.2020
4997 Clouds 24 1013 94 0 1.73 163 15:20 10.04.2020
4998 Clouds 24 1013 94 0 1.73 163 14:58 10.04.2020
4999 Clouds 24 1013 94 0 1.73 163 14:39 10.04.2020
5000 Clouds 24 1013 94 0 1.93 161 14:20 10.04.2020
5001 Rain 23 1013 85 0 1.93 161 13:45 10.04.2020
5002 Rain 23 1013 85 0 1.93 161 13:23 10.04.2020
5003 Rain 23 1013 85 0 1.93 161 12:55 10.04.2020
5004 Clouds 24 1013 94 0 1 10 12:37 10.04.2020
5005 Clouds 24 1013 94 0 1 10 12:19 10.04.2020
5006 Clouds 24 1013 94 0 1 10 11:42 10.04.2020
5007 Clouds 24 1013 94 0 1 10 11:23 10.04.2020
5008 Rain 24 1013 86 0 2.8 158 10:56 10.04.2020
5009 Rain 24 1013 86 0 2.8 158 10:37 10.04.2020
5010 Rain 24 1013 86 0 2.8 158 10:19 10.04.2020
5011 Rain 23 1013 84 0 2.9 155 09:43 10.04.2020
5012 Clouds 24 1012 94 0 2.1 120 09:20 10.04.2020
5013 Clouds 24 1012 94 0 2.1 120 09:20 10.04.2020
5014 Clouds 24 1012 94 0 2.1 120 08:47 10.04.2020
5015 Clouds 24 1012 94 0 2.1 120 08:27 10.04.2020
5016 Rain 24 1011 86 0 3.86 166 07:49 10.04.2020
5017 Rain 24 1011 86 0 3.86 166 07:30 10.04.2020
5018 Rain 24 1011 86 0 3.86 166 06:59 10.04.2020
5019 Clouds 26 1011 83 0 3.6 140 06:30 10.04.2020
5020 Clouds 26 1011 83 0 3.6 140 05:59 10.04.2020
5021 Clouds 26 1011 83 0 3.6 140 05:22 10.04.2020
5022 Rain 25 1011 88 0 3.6 180 04:42 10.04.2020
5023 Rain 26 1011 83 0 3.6 160 03:32 10.04.2020
5024 Clouds 26 1012 83 0 2.6 160 02:50 10.04.2020
5025 Clouds 26 1012 83 0 2.6 160 02:31 10.04.2020
5026 Rain 25 1012 88 0 3.6 210 01:31 10.04.2020
5027 Clouds 27 1012 78 0 3.6 160 00:55 10.04.2020
5028 Clouds 27 1012 83 0 2.6 160 00:37 10.04.2020
5029 Clouds 27 1012 83 0 2.6 160 00:18 10.04.2020
5030 Clouds 27 1012 83 0 2.6 160 23:41 09.04.2020
5031 Clouds 27 1012 83 0 2.6 160 23:41 09.04.2020
5032 Clouds 27 1012 83 0 2.6 160 23:22 09.04.2020
5033 Rain 25 1012 94 10000 3.6 170 22:56 09.04.2020
5034 Rain 25 1012 94 10000 3.6 170 22:38 09.04.2020
5035 Rain 25 1012 94 10000 3.6 170 22:19 09.04.2020
5036 Drizzle 24 1011 94 0 1 0 21:38 09.04.2020
5037 Drizzle 24 1011 94 0 1 0 21:19 09.04.2020
5038 Rain 25 1011 94 0 2.1 210 20:47 09.04.2020
5039 Rain 25 1011 94 0 2.1 210 20:22 09.04.2020
5040 Rain 24 1011 89 0 3.19 160 19:59 09.04.2020
5041 Rain 24 1011 89 0 3.19 160 19:59 09.04.2020
5042 Rain 24 1011 89 0 3.19 160 19:38 09.04.2020
5043 Rain 24 1011 89 0 3.19 160 19:19 09.04.2020
5044 Rain 24 1011 89 0 3.19 160 18:42 09.04.2020
5045 Rain 24 1011 89 0 3.19 160 18:42 09.04.2020
5046 Clouds 24 1010 100 0 3.14 166 18:20 09.04.2020
5047 Clouds 24 1010 100 0 3.14 166 17:43 09.04.2020
5048 Clouds 24 1010 100 0 2.1 330 17:24 09.04.2020
5049 Clouds 24 1010 100 0 2.1 330 16:58 09.04.2020
5050 Clouds 24 1010 100 0 2.1 330 16:39 09.04.2020
5051 Clouds 24 1010 100 0 2.1 330 16:19 09.04.2020
5052 Rain 24 1010 90 0 3.14 166 15:55 09.04.2020
5053 Rain 24 1010 90 0 3.14 166 15:55 09.04.2020
5054 Clouds 25 1011 100 0 3.14 166 15:37 09.04.2020
5055 Clouds 25 1011 100 0 3.14 166 15:37 09.04.2020
5056 Clouds 25 1011 100 0 2.9 171 15:18 09.04.2020
5057 Clouds 25 1011 100 0 2.9 171 14:42 09.04.2020
5058 Clouds 25 1011 100 0 2.7 178 14:21 09.04.2020
5059 Clouds 25 1011 100 0 0.5 0 13:56 09.04.2020
5060 Clouds 25 1011 100 0 0.5 0 13:37 09.04.2020
5061 Clouds 25 1011 100 0 0.5 0 13:18 09.04.2020
5062 Rain 24 1011 90 0 2.7 178 12:42 09.04.2020
5063 Clouds 26 1010 88 0 1.5 240 12:23 09.04.2020
5064 Clouds 26 1010 88 0 1.5 240 11:58 09.04.2020
5065 Clouds 26 1010 88 0 1.5 240 11:38 09.04.2020
5066 Clouds 26 1010 88 0 1.5 240 11:20 09.04.2020
5067 Clear 25 1011 90 0 2.78 193 10:57 09.04.2020
5068 Clear 25 1011 90 0 2.78 193 10:38 09.04.2020
5069 Clear 25 1011 90 0 2.78 193 10:19 09.04.2020
5070 Clear 25 1011 90 0 2.78 193 10:19 09.04.2020
5071 Clear 25 1011 90 0 2.78 193 09:55 09.04.2020
5072 Clouds 28 1008 83 0 1 0 09:37 09.04.2020
5073 Clouds 28 1008 83 0 1 0 09:19 09.04.2020
5074 Clouds 28 1008 83 0 1 0 08:42 09.04.2020
5075 Clouds 28 1008 83 0 1 0 08:23 09.04.2020
5076 Rain 26 1009 84 0 3.8 204 07:52 09.04.2020
5077 Rain 26 1009 84 0 3.8 204 07:24 09.04.2020
5078 Rain 26 1009 84 0 3.8 204 06:51 09.04.2020
5079 Clouds 30 1007 70 0 7.7 250 05:56 09.04.2020
5080 Clouds 30 1007 70 0 7.7 250 05:37 09.04.2020
5081 Clouds 29 1008 83 10000 7.2 260 02:37 09.04.2020
5082 Clouds 29 1008 83 10000 7.2 260 02:18 09.04.2020
5083 Clouds 29 1009 79 0 6.2 260 01:39 09.04.2020
5084 Clouds 29 1009 79 0 6.2 260 01:19 09.04.2020
5085 Clouds 29 1009 79 0 6.2 250 00:38 09.04.2020
5086 Clouds 29 1009 79 0 6.2 250 00:18 09.04.2020
5087 Clouds 28 1008 74 0 4.6 280 23:44 08.04.2020
5088 Clouds 28 1008 74 0 4.6 280 23:24 08.04.2020
5089 Clouds 27 1008 83 10000 4.37 237 22:57 08.04.2020
5090 Clouds 27 1008 83 10000 4.37 237 22:39 08.04.2020
5091 Clouds 28 1010 78 0 4.37 237 22:21 08.04.2020
5092 Clouds 28 1010 78 0 4.37 237 21:55 08.04.2020
5093 Rain 28 1010 77 0 4.08 247 21:37 08.04.2020
5094 Rain 24 1007 90 0 3.54 255 21:19 08.04.2020
5095 Rain 24 1007 90 0 3.54 255 20:41 08.04.2020
5096 Rain 24 1007 90 0 3.54 255 20:22 08.04.2020
5097 Rain 24 1007 90 0 3.54 255 19:59 08.04.2020
5098 Rain 24 1007 90 0 3.54 255 19:40 08.04.2020
5099 Rain 24 1007 90 0 3.54 255 19:21 08.04.2020
5100 Rain 24 1007 90 0 3.54 255 18:55 08.04.2020
5101 Rain 24 1007 90 0 3.54 255 18:55 08.04.2020
5102 Rain 24 1007 90 0 3.54 255 18:36 08.04.2020
5103 Rain 25 1005 89 0 4.23 259 18:18 08.04.2020
5104 Rain 25 1005 89 0 4.23 259 17:42 08.04.2020
5105 Rain 25 1005 89 0 4.23 259 17:20 08.04.2020
5106 Rain 25 1005 89 0 4.23 259 16:56 08.04.2020
5107 Rain 25 1005 89 0 4.23 259 16:37 08.04.2020
5108 Rain 25 1005 89 0 4.23 259 16:19 08.04.2020
5109 Rain 25 1005 89 0 4.23 259 15:38 08.04.2020
5110 Rain 25 1006 88 0 4.72 266 15:20 08.04.2020
5111 Rain 25 1006 88 0 4.72 266 14:55 08.04.2020
5112 Rain 25 1006 88 0 4.72 266 14:55 08.04.2020
5113 Rain 25 1006 88 0 4.72 266 14:55 08.04.2020
5114 Rain 25 1005 90 0 4.55 270 14:37 08.04.2020
5115 Rain 25 1005 90 0 4.55 270 14:19 08.04.2020
5116 Rain 25 1005 90 0 4.55 270 13:44 08.04.2020
5117 Rain 25 1005 90 0 4.55 270 13:21 08.04.2020
5118 Rain 25 1005 90 0 4.55 270 12:43 08.04.2020
5119 Rain 25 1006 90 0 5.8 254 12:19 08.04.2020
5120 Rain 25 1006 90 0 5.8 254 12:19 08.04.2020
5121 Rain 25 1006 90 0 5.8 254 11:59 08.04.2020
5122 Rain 25 1006 90 0 5.8 254 11:41 08.04.2020
5123 Rain 25 1006 90 0 5.8 254 11:22 08.04.2020
5124 Rain 25 1006 90 0 5.8 254 10:58 08.04.2020
5125 Rain 25 1006 90 0 5.8 254 10:39 08.04.2020
5126 Rain 25 1006 90 0 5.8 254 10:20 08.04.2020
5127 Rain 25 1006 90 0 5.8 254 09:56 08.04.2020
5128 Clouds 27 999 83 10000 4.6 290 09:38 08.04.2020
5129 Clouds 27 999 83 10000 4.6 290 09:18 08.04.2020
5130 Clouds 27 999 83 10000 4.6 290 08:42 08.04.2020
5131 Rain 26 998 87 0 7.41 284 08:23 08.04.2020
5132 Rain 26 998 87 0 7.41 284 07:57 08.04.2020
5133 Clouds 28 994 78 0 9.8 310 07:39 08.04.2020
5134 Clouds 28 994 78 0 9.8 310 07:19 08.04.2020
5135 Clouds 28 994 78 0 9.8 310 06:21 08.04.2020
5136 Thunderstorm 27 989 83 10000 12.9 340 04:20 08.04.2020
5137 Thunderstorm 27 992 94 8000 13.4 360 02:49 08.04.2020
5138 Rain 26 993 100 8000 10.8 20 02:21 08.04.2020
5139 Rain 26 993 100 8000 10.8 20 01:51 08.04.2020
5140 Rain 26 993 100 8000 10.8 20 01:27 08.04.2020
5141 Thunderstorm 26 996 100 1500 14.4 10 00:41 08.04.2020
5142 Thunderstorm 26 996 100 1500 14.4 10 00:22 08.04.2020
5143 Rain 27 996 88 5000 10.3 30 23:40 07.04.2020
5144 Rain 27 996 88 5000 10.3 30 23:40 07.04.2020
5145 Rain 27 996 88 5000 10.3 30 23:21 07.04.2020
5146 Rain 26 999 94 5000 10.8 20 22:57 07.04.2020
5147 Rain 26 999 94 5000 10.8 20 22:39 07.04.2020
5148 Rain 26 999 94 5000 10.8 20 22:19 07.04.2020
5149 Rain 26 996 85 0 11.97 5 21:56 07.04.2020
5150 Thunderstorm 27 997 94 9000 11.3 60 21:38 07.04.2020
5151 Thunderstorm 27 997 94 9000 11.3 60 21:20 07.04.2020
5152 Thunderstorm 27 997 94 9000 11.3 60 20:56 07.04.2020
5153 Thunderstorm 27 997 94 9000 11.3 60 20:38 07.04.2020
5154 Thunderstorm 27 997 94 9000 11.3 60 20:20 07.04.2020
5155 Rain 26 999 88 0 9.43 15 19:56 07.04.2020
5156 Rain 26 999 88 0 9.43 15 19:56 07.04.2020
5157 Rain 26 999 88 0 9.43 15 19:36 07.04.2020
5158 Rain 26 999 88 0 9.43 15 19:18 07.04.2020
5159 Rain 26 999 88 0 9.43 15 18:54 07.04.2020
5160 Thunderstorm 26 1001 94 0 8.2 170 18:36 07.04.2020
5161 Thunderstorm 26 1001 94 0 8.2 170 18:18 07.04.2020
5162 Thunderstorm 26 1001 94 0 8.2 170 17:41 07.04.2020
5163 Thunderstorm 26 1001 94 0 8.2 170 17:20 07.04.2020
5164 Rain 26 1002 85 0 7.26 29 16:45 07.04.2020
5165 Rain 26 1002 85 0 7.26 29 16:26 07.04.2020
5166 Rain 26 1002 85 0 7.26 29 15:47 07.04.2020
5167 Clouds 26 1004 94 0 2.1 360 15:27 07.04.2020
5168 Clouds 26 1004 94 0 2.1 360 14:58 07.04.2020
5169 Clouds 26 1004 94 0 2.1 360 14:39 07.04.2020
5170 Clouds 26 1004 94 0 2.1 360 14:20 07.04.2020
5171 Rain 25 1006 90 0 6.13 32 13:43 07.04.2020
5172 Rain 25 1006 90 0 6.13 32 13:21 07.04.2020
5173 Rain 25 1006 90 0 6.13 32 12:59 07.04.2020
5174 Rain 25 1006 90 0 6.13 32 12:40 07.04.2020
5175 Clouds 26 1006 88 0 1 0 12:21 07.04.2020
5176 Clouds 26 1006 88 0 1 0 11:59 07.04.2020
5177 Clouds 26 1006 88 0 1 0 11:59 07.04.2020
5178 Clouds 26 1006 88 0 1 0 11:41 07.04.2020
5179 Clouds 26 1006 88 0 1 0 11:21 07.04.2020
5180 Clouds 25 1006 94 0 1 0 10:55 07.04.2020
5181 Clouds 25 1006 94 0 1 0 10:36 07.04.2020
5182 Clouds 25 1006 94 0 1 0 10:18 07.04.2020
5183 Clouds 24 1005 100 0 1 0 09:43 07.04.2020
5184 Clouds 25 1005 94 0 2.1 30 09:18 07.04.2020
5185 Clouds 25 1005 94 0 2.1 30 08:40 07.04.2020
5186 Clouds 25 1005 94 0 3.6 30 08:22 07.04.2020
5187 Clouds 25 1005 94 0 3.6 30 07:55 07.04.2020
5188 Clouds 25 1005 94 0 3.6 30 07:37 07.04.2020
5189 Clouds 25 1005 94 0 3.6 30 07:18 07.04.2020
5190 Rain 28 1005 88 0 3.6 50 06:39 07.04.2020
5191 Rain 28 1005 88 0 3.6 50 06:18 07.04.2020
5192 Rain 26 1003 86 0 3.33 51 05:26 07.04.2020
5193 Rain 26 1003 86 0 3.33 51 04:31 07.04.2020
5194 Rain 28 1005 75 0 1.7 20 03:23 07.04.2020
5195 Rain 28 1005 75 0 1.7 20 02:47 07.04.2020
5196 Rain 27 1006 75 0 2.55 23 01:43 07.04.2020
5197 Rain 27 1006 75 0 2.55 23 01:22 07.04.2020
5198 Rain 23 1008 93 0 1.72 359 00:26 07.04.2020
5199 Rain 23 1008 93 0 1.72 359 23:44 06.04.2020
5200 Rain 23 1008 93 0 1.72 359 23:23 06.04.2020
5201 Rain 23 1008 93 0 1.72 359 22:56 06.04.2020
5202 Rain 23 1008 93 0 1.72 359 22:37 06.04.2020
5203 Rain 23 1008 93 0 1.72 359 22:19 06.04.2020
5204 Rain 23 1008 93 0 1.72 359 21:56 06.04.2020
5205 Rain 23 1008 93 0 1.72 359 21:37 06.04.2020
5206 Rain 23 1007 92 0 1.6 352 21:18 06.04.2020
5207 Rain 23 1007 92 0 1.6 352 20:41 06.04.2020
5208 Rain 23 1007 92 0 1.6 352 20:21 06.04.2020
5209 Rain 23 1007 92 0 1.6 352 19:58 06.04.2020
5210 Rain 23 1007 92 0 1.6 352 19:39 06.04.2020
5211 Rain 23 1007 92 0 1.6 352 19:20 06.04.2020
5212 Rain 23 1007 92 0 1.6 352 18:45 06.04.2020
5213 Rain 24 1005 90 0 0.74 53 18:24 06.04.2020
5214 Rain 24 1005 90 0 0.74 53 17:59 06.04.2020
5215 Rain 24 1005 90 0 0.74 53 17:41 06.04.2020
5216 Rain 24 1005 90 0 0.74 53 17:19 06.04.2020
5217 Rain 24 1005 90 0 0.74 53 16:49 06.04.2020
5218 Rain 24 1005 90 0 0.74 53 16:30 06.04.2020
5219 Rain 24 1007 90 0 0.68 74 15:00 06.04.2020
5220 Rain 24 1007 91 0 1.45 71 13:45 06.04.2020
5221 Rain 24 1007 91 0 1.45 71 13:45 06.04.2020
5222 Rain 24 1007 91 0 1.45 71 13:23 06.04.2020
5223 Rain 24 1007 91 0 1.45 71 12:50 06.04.2020
5224 Rain 24 1007 91 0 1.45 71 12:50 06.04.2020
5225 Rain 24 1007 91 0 1.45 71 12:50 06.04.2020
5226 Rain 24 1007 91 0 1.45 71 12:50 06.04.2020
5227 Rain 24 1007 91 0 1.45 71 12:50 06.04.2020
5228 Rain 24 1008 91 0 1.78 49 12:20 06.04.2020
5229 Rain 24 1008 91 0 1.78 49 11:53 06.04.2020
5230 Rain 24 1008 91 0 1.78 49 11:53 06.04.2020
5231 Rain 24 1008 91 0 1.78 49 11:51 06.04.2020
5232 Rain 24 1008 91 0 1.78 49 11:50 06.04.2020
5233 Rain 24 1008 91 0 1.78 49 11:50 06.04.2020
5234 Rain 24 1008 91 0 1.78 49 11:28 06.04.2020
5235 Rain 24 1008 91 0 1.78 49 11:28 06.04.2020
5236 Rain 24 1008 91 0 1.78 49 11:28 06.04.2020
5237 Rain 24 1008 91 0 1.78 49 11:28 06.04.2020
5238 Rain 24 1008 91 0 1.78 49 11:28 06.04.2020
5239 Rain 24 1008 91 0 1.78 49 10:49 06.04.2020
5240 Rain 24 1008 91 0 1.78 49 10:49 06.04.2020
5241 Rain 24 1008 91 0 1.78 49 10:49 06.04.2020
5242 Rain 24 1008 91 0 1.78 49 10:49 06.04.2020
5243 Rain 24 1008 91 0 1.78 49 10:49 06.04.2020
5244 Rain 24 1008 91 0 1.78 49 10:21 06.04.2020
5245 Rain 24 1008 91 0 1.78 49 10:21 06.04.2020
5246 Rain 24 1008 91 0 1.78 49 09:42 06.04.2020
5247 Rain 24 1008 91 0 1.78 49 09:42 06.04.2020
5248 Rain 24 1008 91 0 1.78 49 09:42 06.04.2020
5249 Rain 24 1008 91 0 1.78 49 09:42 06.04.2020
5250 Rain 24 1008 91 0 1.78 49 09:42 06.04.2020
5251 Clouds 25 1006 100 0 1 0 09:20 06.04.2020
5252 Rain 24 1007 91 0 2.04 76 08:49 06.04.2020
5253 Rain 26 1006 100 0 1 80 08:29 06.04.2020
5254 Rain 26 1006 100 0 1 80 08:29 06.04.2020
5255 Rain 26 1006 100 0 1 80 08:29 06.04.2020
5256 Rain 26 1006 100 0 1 80 07:24 06.04.2020
5257 Rain 26 1006 100 0 1 80 07:24 06.04.2020
5258 Rain 26 1006 100 0 1 80 07:24 06.04.2020
5259 Rain 24 1007 91 0 2.04 76 06:28 06.04.2020
5260 Rain 25 1006 90 0 1.65 80 05:57 06.04.2020
5261 Rain 25 1006 90 0 1.65 80 05:57 06.04.2020
5262 Rain 25 1006 90 0 1.65 80 04:18 06.04.2020
5263 Rain 27 1008 87 0 2.36 77 02:54 06.04.2020
5264 Rain 27 1008 87 0 2.19 83 01:56 06.04.2020
5265 Rain 27 1008 87 0 2.19 83 00:58 06.04.2020
5266 Rain 27 1008 87 0 2.19 83 00:28 06.04.2020
5267 Rain 26 1010 90 0 2.23 85 23:55 05.04.2020
5268 Rain 26 1010 90 0 2.23 85 23:37 05.04.2020
5269 Rain 26 1010 90 0 2.23 85 23:19 05.04.2020
5270 Rain 26 1010 90 0 2.23 85 22:54 05.04.2020
5271 Rain 26 1010 90 0 2.23 85 22:36 05.04.2020
5272 Rain 26 1010 90 0 2.23 85 22:18 05.04.2020
5273 Rain 26 1010 90 0 2.23 85 21:41 05.04.2020
5274 Rain 26 1010 88 0 2.66 107 21:23 05.04.2020
5275 Rain 24 1009 90 0 2.3 105 20:24 05.04.2020
5276 Rain 24 1009 90 0 2.3 105 20:24 05.04.2020
5277 Rain 24 1009 90 0 2.3 105 20:24 05.04.2020
5278 Rain 24 1009 90 0 2.3 105 19:43 05.04.2020
5279 Rain 24 1009 90 0 2.3 105 19:23 05.04.2020
5280 Rain 24 1009 90 0 2.3 105 18:48 05.04.2020
5281 Rain 24 1009 90 0 2.3 105 18:48 05.04.2020
5282 Rain 24 1008 90 0 2.75 106 18:18 05.04.2020
5283 Rain 24 1008 90 0 2.75 106 17:47 05.04.2020
5284 Rain 24 1008 90 0 2.75 106 17:47 05.04.2020
5285 Rain 24 1008 90 0 2.75 106 17:47 05.04.2020
5286 Rain 24 1008 90 0 2.75 106 17:47 05.04.2020
5287 Rain 24 1008 90 0 2.75 106 17:46 05.04.2020
5288 Rain 24 1008 90 0 2.75 106 17:22 05.04.2020
5289 Rain 24 1008 90 0 2.75 106 16:47 05.04.2020
5290 Rain 24 1008 90 0 2.75 106 16:19 05.04.2020
5291 Rain 24 1008 90 0 2.75 106 15:45 05.04.2020
5292 Rain 24 1008 90 0 2.75 106 15:25 05.04.2020
5293 Rain 25 1010 90 0 3.29 103 14:48 05.04.2020
5294 Rain 25 1010 90 0 3.29 103 14:48 05.04.2020
5295 Rain 25 1010 90 0 3.29 103 14:48 05.04.2020
5296 Rain 25 1010 90 0 3.29 103 14:48 05.04.2020
5297 Rain 25 1010 90 0 3.29 103 14:48 05.04.2020
5298 Rain 25 1009 90 0 3 102 13:59 05.04.2020
5299 Rain 25 1009 90 0 3 102 13:40 05.04.2020
5300 Rain 25 1009 90 0 3 102 13:40 05.04.2020
5301 Rain 25 1009 90 0 3 102 13:40 05.04.2020
5302 Rain 25 1009 90 0 3 102 13:40 05.04.2020
5303 Rain 25 1009 90 0 3 102 13:40 05.04.2020
5304 Rain 25 1010 90 0 4.43 108 12:20 05.04.2020
5305 Rain 25 1010 90 0 4.43 108 12:20 05.04.2020
5306 Rain 25 1010 90 0 4.43 108 12:20 05.04.2020
5307 Rain 25 1010 90 0 4.43 108 11:39 05.04.2020
5308 Rain 25 1010 90 0 4.43 108 11:19 05.04.2020
5309 Rain 25 1010 90 0 4.43 108 10:47 05.04.2020
5310 Rain 25 1010 90 0 4.43 108 10:22 05.04.2020
5311 Rain 25 1010 90 0 4.43 108 10:22 05.04.2020
5312 Rain 25 1010 90 0 4.43 108 09:53 05.04.2020
5313 Rain 25 1010 90 0 4.29 105 09:26 05.04.2020
5314 Rain 25 1010 90 0 4.29 105 09:26 05.04.2020
5315 Rain 25 1010 90 0 4.29 105 09:26 05.04.2020
5316 Rain 25 1008 89 0 4.35 114 08:31 05.04.2020
5317 Rain 25 1008 89 0 4.35 114 08:31 05.04.2020
5318 Rain 25 1008 89 0 4.35 114 08:31 05.04.2020
5319 Rain 25 1008 89 0 4.35 114 08:23 05.04.2020
5320 Rain 25 1008 89 0 4.35 114 08:23 05.04.2020
5321 Rain 26 1007 89 0 3.82 112 05:48 05.04.2020
5322 Rain 26 1007 89 0 3.82 112 05:48 05.04.2020
5323 Rain 26 1007 89 0 3.82 112 04:29 05.04.2020
5324 Rain 26 1007 89 0 3.82 112 04:29 05.04.2020
5325 Rain 26 1007 89 0 3.82 112 03:27 05.04.2020
5326 Rain 27 1009 82 0 2.08 116 02:18 05.04.2020
5327 Rain 27 1009 82 0 2.08 116 01:42 05.04.2020
5328 Rain 27 1009 82 0 2.08 116 01:18 05.04.2020
5329 Rain 27 1009 82 0 2.08 116 01:18 05.04.2020
5330 Rain 27 1009 82 0 2.08 116 00:37 05.04.2020
5331 Rain 26 1011 86 0 2.91 102 00:18 05.04.2020
5332 Rain 26 1011 86 0 2.91 102 23:41 04.04.2020
5333 Rain 26 1011 86 0 2.91 102 23:21 04.04.2020
5334 Rain 26 1011 86 0 2.91 102 22:57 04.04.2020
5335 Rain 26 1011 86 0 2.91 102 22:39 04.04.2020
5336 Rain 26 1011 86 0 2.91 102 22:20 04.04.2020
5337 Rain 26 1011 86 0 2.91 102 21:57 04.04.2020
5338 Rain 26 1011 86 0 2.91 102 21:38 04.04.2020
5339 Rain 24 1009 90 0 1.3 104 21:19 04.04.2020
5340 Rain 24 1009 90 0 1.3 104 20:54 04.04.2020
5341 Rain 24 1009 90 0 1.3 104 20:36 04.04.2020
5342 Clouds 24 1009 100 0 1 0 20:18 04.04.2020
5343 Clouds 24 1009 100 0 1 0 19:40 04.04.2020
5344 Rain 24 1009 90 0 1.3 104 19:20 04.04.2020
5345 Rain 24 1009 90 0 0.98 66 18:59 04.04.2020
5346 Rain 24 1009 90 0 1.3 104 18:39 04.04.2020
5347 Rain 24 1008 90 0 1.6 91 18:20 04.04.2020
5348 Rain 24 1008 90 0 1.6 91 17:58 04.04.2020
5349 Rain 24 1008 90 0 1.6 91 17:38 04.04.2020
5350 Rain 24 1008 90 0 1.6 91 17:19 04.04.2020
5351 Rain 24 1008 90 0 1.6 91 16:42 04.04.2020
5352 Rain 24 1008 90 0 1.13 73 16:24 04.04.2020
5353 Rain 24 1008 90 0 1.6 91 15:58 04.04.2020
5354 Rain 24 1008 90 0 1.13 73 15:38 04.04.2020
5355 Clouds 23 1010 100 0 0.5 0 15:19 04.04.2020
5356 Clouds 23 1010 100 0 0.5 0 15:19 04.04.2020
5357 Clouds 23 1010 100 0 0.5 0 15:19 04.04.2020
5358 Clouds 23 1010 100 0 0.5 0 14:46 04.04.2020
5359 Clouds 23 1010 100 0 0.5 0 14:25 04.04.2020
5360 Rain 24 1009 91 0 1.49 76 13:58 04.04.2020
5361 Rain 24 1009 91 0 1.49 76 13:40 04.04.2020
5362 Clouds 24 1010 100 0 2.6 320 13:20 04.04.2020
5363 Clouds 24 1010 100 0 2.6 320 12:55 04.04.2020
5364 Clouds 24 1010 100 0 2.6 320 12:55 04.04.2020
5365 Clouds 24 1010 100 0 2.6 320 12:36 04.04.2020
5366 Clouds 24 1010 100 0 2.6 320 12:18 04.04.2020
5367 Rain 24 1011 91 0 2.41 97 11:41 04.04.2020
5368 Rain 24 1011 91 0 2.41 97 11:23 04.04.2020
5369 Rain 24 1011 91 0 2.41 97 10:58 04.04.2020
5370 Rain 24 1011 91 0 2.41 97 10:40 04.04.2020
5371 Clouds 24 1009 100 0 0.5 0 10:21 04.04.2020
5372 Clouds 24 1009 100 0 0.5 0 09:55 04.04.2020
5373 Clouds 24 1009 100 0 0.5 0 09:37 04.04.2020
5374 Rain 24 1008 87 0 0.38 205 09:19 04.04.2020
5375 Rain 24 1008 87 0 0.38 205 08:42 04.04.2020
5376 Clouds 24 1008 100 0 1 0 08:23 04.04.2020
5377 Clouds 24 1008 100 0 1 0 07:47 04.04.2020
5378 Rain 24 1008 87 0 0.38 205 07:29 04.04.2020
5379 Rain 24 1008 87 0 0.38 205 06:58 04.04.2020
5380 Rain 24 1008 87 0 0.38 205 06:21 04.04.2020
5381 Rain 24 1008 89 0 0.92 334 05:51 04.04.2020
5382 Rain 24 1008 89 0 0.92 334 05:32 04.04.2020
5383 Rain 24 1008 89 0 0.92 334 04:33 04.04.2020
5384 Rain 24 1008 89 0 0.92 334 03:55 04.04.2020
5385 Rain 24 1008 89 0 0.92 334 03:27 04.04.2020
5386 Rain 25 1009 88 0 1.37 342 02:40 04.04.2020
5387 Rain 25 1009 88 0 1.37 342 02:22 04.04.2020
5388 Rain 24 1009 88 0 1.2 323 01:27 04.04.2020
5389 Rain 24 1009 88 0 1.2 323 00:55 04.04.2020
5390 Rain 24 1009 88 0 1.2 323 00:30 04.04.2020
5391 Rain 24 1011 90 0 0.95 312 23:55 03.04.2020
5392 Rain 24 1011 90 0 0.95 312 23:36 03.04.2020
5393 Rain 24 1011 90 0 0.95 312 23:18 03.04.2020
5394 Rain 24 1011 90 0 0.95 312 22:40 03.04.2020
5395 Rain 24 1011 90 0 0.95 312 22:19 03.04.2020
5396 Rain 24 1011 90 0 0.95 312 22:19 03.04.2020
5397 Rain 24 1011 90 0 0.95 312 21:56 03.04.2020
5398 Rain 24 1011 90 0 0.95 312 21:37 03.04.2020
5399 Rain 24 1008 91 0 0.85 331 21:19 03.04.2020
5400 Rain 24 1008 91 0 0.85 331 20:54 03.04.2020
5401 Rain 24 1008 91 0 0.85 331 20:36 03.04.2020
5402 Rain 24 1008 91 0 0.85 331 20:18 03.04.2020
5403 Rain 24 1008 91 0 0.85 331 19:54 03.04.2020
5404 Rain 24 1008 91 0 0.85 331 19:36 03.04.2020
5405 Rain 24 1008 91 0 0.85 331 19:36 03.04.2020
5406 Rain 24 1008 91 0 0.85 331 19:18 03.04.2020
5407 Rain 24 1008 91 0 0.85 331 18:42 03.04.2020
5408 Rain 24 1008 91 0 0.85 331 18:23 03.04.2020
5409 Rain 24 1008 91 0 0.85 331 18:23 03.04.2020
5410 Rain 23 1008 91 0 0.69 227 17:58 03.04.2020
5411 Rain 23 1008 91 0 0.69 227 17:40 03.04.2020
5412 Rain 23 1008 91 0 0.69 227 17:40 03.04.2020
5413 Rain 23 1008 91 0 0.69 227 17:19 03.04.2020
5414 Rain 23 1008 91 0 0.69 227 17:19 03.04.2020
5415 Rain 23 1008 91 0 0.69 227 16:54 03.04.2020
5416 Rain 23 1008 91 0 0.69 227 16:36 03.04.2020
5417 Rain 24 1009 100 0 1 0 16:18 03.04.2020
5418 Rain 24 1009 100 0 1 0 15:41 03.04.2020
5419 Rain 24 1009 100 0 1 0 15:22 03.04.2020
5420 Rain 24 1009 89 0 0.24 50 14:57 03.04.2020
5421 Rain 24 1009 89 0 0.24 50 14:39 03.04.2020
5422 Rain 24 1009 89 0 0.24 50 14:21 03.04.2020
5423 Rain 24 1009 90 0 0.44 201 13:46 03.04.2020
5424 Rain 24 1009 90 0 0.44 201 13:26 03.04.2020
5425 Rain 24 1009 90 0 0.44 201 12:56 03.04.2020
5426 Rain 24 1009 90 0 0.44 201 12:38 03.04.2020
5427 Rain 24 1010 88 0 0.67 105 12:18 03.04.2020
5428 Rain 24 1010 88 0 0.67 105 11:55 03.04.2020
5429 Rain 24 1010 88 0 0.67 105 11:37 03.04.2020
5430 Rain 24 1010 88 0 0.67 105 11:18 03.04.2020
5431 Rain 24 1010 88 0 0.67 105 11:18 03.04.2020
5432 Rain 24 1010 88 0 0.67 105 10:55 03.04.2020
5433 Rain 24 1010 88 0 0.67 105 10:36 03.04.2020
5434 Rain 24 1010 88 0 0.67 105 10:18 03.04.2020
5435 Rain 24 1010 88 0 0.67 105 09:40 03.04.2020
5436 Rain 24 1009 88 0 0.72 181 09:22 03.04.2020
5437 Rain 25 1007 86 0 1.08 195 08:59 03.04.2020
5438 Rain 25 1007 86 0 1.08 195 08:40 03.04.2020
5439 Rain 25 1007 86 0 1.08 195 08:40 03.04.2020
5440 Rain 25 1007 86 0 1.08 195 08:22 03.04.2020
5441 Rain 25 1007 86 0 1.08 195 07:50 03.04.2020
5442 Rain 25 1007 86 0 1.08 195 07:32 03.04.2020
5443 Rain 25 1007 86 0 1.08 195 06:50 03.04.2020
5444 Rain 25 1007 86 0 1.08 195 06:25 03.04.2020
5445 Rain 26 1006 86 0 0.41 252 05:40 03.04.2020
5446 Rain 26 1006 86 0 0.41 252 03:45 03.04.2020
5447 Rain 26 1006 86 0 0.41 252 03:23 03.04.2020
5448 Rain 26 1008 87 0 1.42 238 02:28 03.04.2020
5449 Rain 26 1008 87 0 1.42 238 01:23 03.04.2020
5450 Rain 26 1008 87 0 1.42 238 00:40 03.04.2020
5451 Rain 25 1009 87 0 1.37 295 00:20 03.04.2020
5452 Rain 25 1009 87 0 1.37 295 23:42 02.04.2020
5453 Rain 25 1009 87 0 1.37 295 23:23 02.04.2020
5454 Rain 25 1009 87 0 1.37 295 22:58 02.04.2020
5455 Rain 25 1009 87 0 1.37 295 22:39 02.04.2020
5456 Rain 25 1009 87 0 1.37 295 22:20 02.04.2020
5457 Rain 25 1009 87 0 1.37 295 21:54 02.04.2020
5458 Rain 25 1009 87 0 1.37 295 21:36 02.04.2020
5459 Clouds 24 1008 89 0 1.24 292 21:18 02.04.2020
5460 Rain 24 1008 88 0 1.35 293 20:42 02.04.2020
5461 Rain 24 1008 88 0 1.35 293 20:22 02.04.2020
5462 Rain 24 1008 88 0 1.35 293 19:45 02.04.2020
5463 Rain 24 1008 88 0 1.35 293 19:21 02.04.2020
5464 Rain 24 1008 88 0 1.35 293 19:00 02.04.2020
5465 Rain 24 1008 88 0 1.35 293 18:41 02.04.2020
5466 Rain 24 1007 89 0 1.19 269 18:20 02.04.2020
5467 Rain 24 1007 89 0 1.19 269 17:57 02.04.2020
5468 Rain 24 1007 89 0 1.19 269 17:39 02.04.2020
5469 Rain 24 1007 89 0 1.19 269 17:20 02.04.2020
5470 Rain 24 1007 89 0 1.19 269 16:56 02.04.2020
5471 Rain 24 1007 89 0 1.19 269 16:37 02.04.2020
5472 Rain 24 1007 89 0 1.19 269 16:19 02.04.2020
5473 Rain 24 1007 89 0 1.19 269 15:45 02.04.2020
5474 Rain 25 1008 88 0 1.49 218 15:22 02.04.2020
5475 Rain 25 1008 88 0 1.49 218 14:59 02.04.2020
5476 Rain 25 1008 88 0 1.49 218 14:40 02.04.2020
5477 Rain 25 1008 88 0 1.7 243 14:20 02.04.2020
5478 Rain 25 1008 88 0 1.7 243 13:58 02.04.2020
5479 Rain 25 1008 88 0 1.7 243 13:38 02.04.2020
5480 Rain 25 1008 88 0 1.7 243 13:20 02.04.2020
5481 Rain 25 1008 88 0 1.7 243 12:56 02.04.2020
5482 Rain 25 1008 88 0 1.7 243 12:37 02.04.2020
5483 Rain 25 1009 87 0 2 253 12:19 02.04.2020
5484 Rain 25 1009 87 0 2 253 11:56 02.04.2020
5485 Rain 25 1009 87 0 2 253 11:37 02.04.2020
5486 Rain 25 1009 87 0 2 253 11:37 02.04.2020
5487 Rain 25 1009 87 0 2 253 11:19 02.04.2020
5488 Rain 25 1009 87 0 2 253 10:54 02.04.2020
5489 Rain 25 1009 87 0 2 253 10:36 02.04.2020
5490 Rain 25 1009 87 0 2 253 10:18 02.04.2020
5491 Rain 25 1009 87 0 2 253 09:43 02.04.2020
5492 Rain 25 1009 87 0 2 253 09:24 02.04.2020
5493 Rain 26 1007 87 0 1.62 0 08:58 02.04.2020
5494 Rain 26 1007 87 0 1.62 0 08:40 02.04.2020
5495 Rain 26 1007 87 0 1.62 0 08:20 02.04.2020
5496 Rain 26 1007 87 0 1.62 0 07:43 02.04.2020
5497 Rain 26 1007 87 0 1.62 0 07:20 02.04.2020
5498 Rain 26 1007 87 0 1.62 0 06:57 02.04.2020
5499 Rain 26 1007 87 0 1.62 0 06:21 02.04.2020
5500 Rain 28 1007 80 0 2.55 30 05:42 02.04.2020
5501 Rain 28 1007 80 0 2.55 30 03:24 02.04.2020
5502 Clouds 28 1011 83 10000 2.1 20 01:31 02.04.2020
5503 Clouds 28 1011 83 10000 2.1 20 00:42 02.04.2020
5504 Clouds 27 1011 88 10000 2.1 310 00:24 02.04.2020
5505 Clouds 27 1011 88 10000 2.1 310 23:41 01.04.2020
5506 Clouds 25 1010 100 10000 1.5 340 23:20 01.04.2020
5507 Clouds 25 1010 100 10000 1.5 340 22:58 01.04.2020
5508 Clouds 25 1010 100 10000 1.5 340 22:39 01.04.2020
5509 Clouds 25 1010 100 10000 1.5 340 22:39 01.04.2020
5510 Clouds 24 1010 100 10000 1 340 22:21 01.04.2020
5511 Clouds 24 1010 100 10000 1 340 21:42 01.04.2020
5512 Clouds 24 1010 100 10000 1 340 21:42 01.04.2020
5513 Rain 27 1011 80 0 1.53 19 21:22 01.04.2020
5514 Rain 27 1011 80 0 1.53 19 21:22 01.04.2020
5515 Clouds 24 1010 90 0 0.38 45 20:58 01.04.2020
5516 Clouds 24 1010 90 0 0.38 45 20:58 01.04.2020
5517 Clouds 24 1010 90 0 0.38 45 20:40 01.04.2020
5518 Clouds 24 1009 100 10000 0.38 45 20:21 01.04.2020
5519 Clouds 24 1009 100 10000 0.38 45 20:00 01.04.2020
5520 Clouds 24 1009 100 10000 0.38 45 19:41 01.04.2020
5521 Clouds 24 1009 100 10000 0.38 45 19:21 01.04.2020
5522 Clouds 24 1009 100 10000 0.38 45 18:46 01.04.2020
5523 Clouds 24 1009 100 10000 0.38 45 18:26 01.04.2020
5524 Clouds 24 1009 100 10000 1 330 17:58 01.04.2020
5525 Clouds 24 1009 100 10000 1 330 17:38 01.04.2020
5526 Clouds 24 1009 100 10000 1 340 17:20 01.04.2020
5527 Clouds 24 1009 100 10000 1 340 16:59 01.04.2020
5528 Clouds 24 1009 100 10000 1 340 16:40 01.04.2020
5529 Clouds 24 1010 100 10000 1.5 330 16:21 01.04.2020
5530 Clouds 24 1010 100 10000 1.5 330 15:58 01.04.2020
5531 Clouds 24 1010 100 10000 1.5 330 15:38 01.04.2020
5532 Rain 24 1011 90 0 2.09 235 15:19 01.04.2020
5533 Rain 24 1011 90 0 2.09 235 14:55 01.04.2020
5534 Rain 24 1011 90 0 2.09 235 14:55 01.04.2020
5535 Rain 24 1011 90 0 2.09 235 14:37 01.04.2020
5536 Clouds 25 1012 100 10000 2.09 235 14:19 01.04.2020
5537 Clouds 25 1012 100 10000 1.34 236 13:56 01.04.2020
5538 Clouds 25 1012 100 10000 1.34 236 13:37 01.04.2020
5539 Clouds 25 1012 100 10000 1.34 236 13:18 01.04.2020
5540 Clouds 25 1012 100 10000 1.34 236 12:42 01.04.2020
5541 Clouds 25 1012 100 10000 1.34 236 12:24 01.04.2020
5542 Clouds 25 1012 100 10000 1.88 250 11:59 01.04.2020
5543 Clouds 25 1012 100 10000 1.88 250 11:40 01.04.2020
5544 Clouds 25 1012 100 10000 1.88 250 11:21 01.04.2020
5545 Clouds 25 1012 100 10000 1.88 250 10:56 01.04.2020
5546 Clouds 25 1012 100 10000 1.88 250 10:37 01.04.2020
5547 Clouds 25 1012 100 10000 1.88 250 10:37 01.04.2020
5548 Clouds 25 1011 100 10000 1.88 250 10:18 01.04.2020
5549 Clouds 25 1011 100 10000 1.88 250 09:40 01.04.2020
5550 Rain 25 1012 87 0 1.3 40 09:22 01.04.2020
5551 Rain 25 1010 94 10000 2.6 150 08:59 01.04.2020
5552 Rain 25 1010 94 10000 2.6 150 08:40 01.04.2020
5553 Rain 25 1010 94 10000 2.6 150 08:18 01.04.2020
5554 Rain 25 1010 94 10000 2.6 150 07:42 01.04.2020
5555 Rain 25 1011 94 1000 4.6 140 07:19 01.04.2020
5556 Rain 26 1010 94 1000 3.1 180 06:47 01.04.2020
5557 Clouds 29 1010 79 10000 2.85 63 06:21 01.04.2020
5558 Clouds 29 1010 79 10000 2.85 63 05:53 01.04.2020
5559 Clouds 29 1011 79 10000 1.5 350 04:30 01.04.2020
5560 Rain 29 1009 75 0 2.85 63 03:27 01.04.2020
5561 Rain 29 1011 71 0 2.55 51 02:46 01.04.2020
5562 Rain 29 1011 71 0 2.21 44 01:53 01.04.2020
5563 Clouds 26 1012 94 10000 1.5 330 01:27 01.04.2020
5564 Clouds 26 1012 94 10000 1.5 330 00:47 01.04.2020
5565 Clouds 25 1012 94 10000 1.5 340 00:24 01.04.2020
5566 Clouds 25 1012 94 10000 1.5 340 23:59 31.03.2020
5567 Clouds 25 1012 94 10000 1.5 340 23:41 31.03.2020
5568 Clouds 25 1012 94 10000 1.5 340 23:22 31.03.2020
5569 Clouds 25 1012 94 10000 2.24 31 22:41 31.03.2020
5570 Clouds 25 1012 94 10000 2.24 31 22:22 31.03.2020
5571 Clouds 24 1011 100 10000 2.24 31 21:58 31.03.2020
5572 Clouds 24 1011 100 10000 2.24 31 21:40 31.03.2020
5573 Clouds 24 1011 100 10000 2.24 31 21:21 31.03.2020
5574 Rain 24 1011 90 0 1.66 13 20:58 31.03.2020
5575 Rain 24 1011 90 0 1.66 13 20:37 31.03.2020
5576 Clouds 24 1011 100 10000 1.66 13 20:19 31.03.2020
5577 Clouds 24 1011 100 10000 1.66 13 19:57 31.03.2020
5578 Clouds 24 1011 100 10000 1.66 13 19:38 31.03.2020
5579 Clouds 24 1011 100 10000 1.66 13 19:19 31.03.2020
5580 Clouds 25 1010 100 10000 1.66 13 18:44 31.03.2020
5581 Clouds 25 1010 100 10000 1.66 13 18:21 31.03.2020
5582 Clouds 25 1010 100 10000 1.68 17 17:58 31.03.2020
5583 Clouds 25 1010 100 10000 1.68 17 17:39 31.03.2020
5584 Clouds 25 1011 100 10000 1.68 17 17:21 31.03.2020
5585 Clouds 25 1011 100 10000 1.68 17 16:56 31.03.2020
5586 Clouds 25 1011 100 10000 1.68 17 16:37 31.03.2020
5587 Clouds 25 1011 100 10000 1.68 17 16:18 31.03.2020
5588 Clouds 25 1011 100 10000 1.68 17 15:56 31.03.2020
5589 Clouds 25 1011 100 10000 1.68 17 15:37 31.03.2020
5590 Clouds 25 1011 100 10000 1.68 17 15:37 31.03.2020
5591 Clouds 24 1012 90 0 1.55 11 15:18 31.03.2020
5592 Clouds 24 1012 90 0 1.55 11 14:42 31.03.2020
5593 Clouds 25 1012 100 10000 1.21 13 14:23 31.03.2020
5594 Clouds 25 1012 100 10000 1.21 13 13:59 31.03.2020
5595 Clouds 25 1012 100 10000 1.21 13 13:40 31.03.2020
5596 Clouds 26 1012 94 10000 1.21 13 13:19 31.03.2020
5597 Clouds 26 1012 94 10000 1.21 13 12:46 31.03.2020
5598 Clouds 26 1011 94 10000 1.21 13 12:20 31.03.2020
5599 Clouds 26 1011 94 10000 2.08 28 11:58 31.03.2020
5600 Clouds 26 1011 94 10000 2.08 28 11:37 31.03.2020
5601 Rain 26 1011 94 10000 2.08 28 11:19 31.03.2020
5602 Rain 26 1011 94 10000 2.08 28 10:55 31.03.2020
5603 Rain 26 1011 94 10000 2.08 28 10:55 31.03.2020
5604 Rain 26 1011 94 10000 2.08 28 10:37 31.03.2020
5605 Clouds 27 1010 88 10000 2.08 28 10:18 31.03.2020
5606 Clouds 27 1010 88 10000 2.08 28 09:43 31.03.2020
5607 Rain 24 1011 91 0 2.08 28 09:25 31.03.2020
5608 Rain 24 1010 93 0 1.68 101 08:58 31.03.2020
5609 Rain 24 1010 93 0 1.68 101 08:40 31.03.2020
5610 Rain 28 1009 83 10000 1.5 120 08:20 31.03.2020
5611 Rain 28 1009 83 10000 1.5 120 08:20 31.03.2020
5612 Rain 28 1009 83 10000 1.5 120 07:57 31.03.2020
5613 Rain 28 1009 83 10000 1.5 120 07:38 31.03.2020
5614 Rain 28 1009 83 10000 1.5 120 07:20 31.03.2020
5615 Rain 28 1009 83 10000 1.68 101 06:51 31.03.2020
5616 Rain 28 1009 83 10000 1.68 101 06:30 31.03.2020
5617 Clouds 29 1008 74 10000 2.42 178 05:40 31.03.2020
5618 Clouds 29 1010 74 10000 1 0 03:43 31.03.2020
5619 Clouds 27 1011 88 10000 1.5 270 02:25 31.03.2020
5620 Clouds 27 1011 88 10000 1.5 270 01:46 31.03.2020
5621 -273 0 0 0 0 0 00:52 31.03.2020
5622 Rain 25 1011 100 10000 2.55 208 00:25 31.03.2020
5623 Rain 25 1011 100 10000 2.04 241 23:59 30.03.2020
5624 Rain 25 1011 100 10000 2.04 241 23:38 30.03.2020
5625 Clouds 25 1011 100 10000 2.04 241 23:18 30.03.2020
5626 Clouds 25 1011 100 10000 2.04 241 22:56 30.03.2020
5627 Clouds 25 1011 100 10000 2.04 241 22:37 30.03.2020
5628 Clouds 25 1010 94 10000 2.04 241 22:18 30.03.2020
5629 Clouds 25 1010 94 10000 2.04 241 21:55 30.03.2020
5630 Clouds 25 1010 94 10000 2.04 241 21:36 30.03.2020
5631 Rain 24 1009 89 0 2.35 293 21:18 30.03.2020
5632 Rain 24 1009 89 0 2.35 293 20:42 30.03.2020
5633 Clouds 25 1008 94 10000 2.35 293 20:24 30.03.2020
5634 Clouds 25 1008 94 10000 2.35 293 20:24 30.03.2020
5635 Clouds 25 1008 94 10000 2.35 293 19:59 30.03.2020
5636 Clouds 25 1008 94 10000 2.35 293 19:59 30.03.2020
5637 Clouds 25 1008 94 10000 2.35 293 19:40 30.03.2020
5638 Clouds 24 1008 100 10000 2.35 293 19:21 30.03.2020
5639 Clouds 24 1008 100 10000 2.35 293 18:56 30.03.2020
5640 Clouds 24 1008 100 10000 2.35 293 18:38 30.03.2020
5641 Clouds 24 1008 100 10000 2.35 293 18:38 30.03.2020
5642 Clouds 24 1008 100 10000 2.01 355 18:19 30.03.2020
5643 Clouds 25 1008 94 10000 2.01 355 17:56 30.03.2020
5644 Clouds 25 1008 94 10000 2.01 355 17:56 30.03.2020
5645 Clouds 25 1008 94 10000 2.01 355 17:56 30.03.2020
5646 Rain 25 1008 90 0 2.01 355 17:37 30.03.2020
5647 Rain 25 1008 90 0 2.01 355 17:37 30.03.2020
5648 Clouds 25 1008 94 10000 2.01 355 17:18 30.03.2020
5649 Clouds 25 1008 94 10000 2.01 355 16:54 30.03.2020
5650 Clouds 25 1008 94 10000 2.01 355 16:36 30.03.2020
5651 Clouds 25 1008 94 10000 2.01 355 16:36 30.03.2020
5652 Rain 25 1009 94 8000 2.01 355 16:18 30.03.2020
5653 Rain 25 1009 94 8000 2.01 355 15:41 30.03.2020
5654 Rain 25 1009 94 8000 2.01 355 15:22 30.03.2020
5655 Rain 25 1009 100 3000 2.77 30 14:59 30.03.2020
5656 Rain 25 1009 100 3000 2.77 30 14:38 30.03.2020
5657 Rain 25 1009 100 3000 2.77 30 14:19 30.03.2020
5658 Rain 25 1009 100 10000 3.04 45 13:58 30.03.2020
5659 Rain 25 1009 100 10000 3.04 45 13:39 30.03.2020
5660 Clouds 26 1010 94 10000 3.04 45 13:20 30.03.2020
5661 Clouds 26 1010 94 10000 3.04 45 12:45 30.03.2020
5662 Clouds 26 1010 94 10000 2.96 48 12:22 30.03.2020
5663 Clouds 26 1010 94 10000 2.96 48 11:59 30.03.2020
5664 Clouds 26 1010 94 10000 2.96 48 11:41 30.03.2020
5665 Clouds 26 1009 94 10000 2.96 48 11:22 30.03.2020
5666 Clouds 26 1009 94 10000 2.96 48 10:57 30.03.2020
5667 Clouds 26 1009 94 10000 2.96 48 10:37 30.03.2020
5668 Clouds 27 1009 88 10000 2.96 48 10:19 30.03.2020
5669 Clouds 27 1009 88 10000 2.96 48 09:40 30.03.2020
5670 Clouds 27 1009 88 10000 2.96 48 09:40 30.03.2020
5671 Rain 26 1008 87 0 2.71 55 09:20 30.03.2020
5672 Rain 26 1008 87 0 2.71 55 08:57 30.03.2020
5673 Rain 26 1008 87 0 2.71 55 08:38 30.03.2020
5674 Clouds 29 1007 74 10000 3.6 50 08:19 30.03.2020
5675 Clouds 29 1007 74 10000 3.6 50 07:43 30.03.2020
5676 Clouds 28 1007 78 10000 3.1 60 07:21 30.03.2020
5677 Clouds 28 1007 78 10000 3.1 60 06:43 30.03.2020
5678 Clouds 28 1007 78 10000 3.1 60 06:25 30.03.2020
5679 Clouds 28 1007 78 10000 3.6 60 05:43 30.03.2020
5680 Clouds 29 1009 74 10000 3.1 100 04:29 30.03.2020
5681 Clouds 29 1009 74 10000 3.1 100 03:54 30.03.2020
5682 Rain 28 1009 78 0 3.25 52 02:45 30.03.2020
5683 Rain 27 1010 94 10000 3.1 100 01:57 30.03.2020
5684 Clouds 29 1011 79 10000 3.34 64 00:59 30.03.2020
5685 Clouds 28 1011 83 10000 3.34 64 00:28 30.03.2020
5686 Clouds 28 1011 83 10000 3.08 60 23:56 29.03.2020
5687 Clouds 28 1011 83 10000 3.08 60 23:37 29.03.2020
5688 Clouds 26 1010 94 10000 3.08 60 23:18 29.03.2020
5689 Clouds 26 1010 94 10000 3.08 60 22:40 29.03.2020
5690 Clouds 25 1010 100 10000 3.08 60 22:20 29.03.2020
5691 Clouds 25 1010 100 10000 3.08 60 21:59 29.03.2020
5692 Clouds 25 1010 100 10000 3.08 60 21:38 29.03.2020
5693 Rain 25 1010 88 0 2 61 21:20 29.03.2020
5694 Rain 25 1010 88 0 2 61 20:55 29.03.2020
5695 Rain 25 1010 88 0 2 61 20:55 29.03.2020
5696 Rain 25 1010 88 0 2 61 20:37 29.03.2020
5697 Clouds 24 1009 100 10000 2 61 20:18 29.03.2020
5698 Clouds 24 1009 100 10000 2 61 19:55 29.03.2020
5699 Clouds 24 1009 100 10000 2 61 19:55 29.03.2020
5700 Clouds 24 1009 100 10000 2 61 19:37 29.03.2020
5701 Clouds 24 1009 100 10000 2 61 19:19 29.03.2020
5702 Clouds 25 1009 94 10000 2 61 18:55 29.03.2020
5703 Clouds 25 1009 94 10000 2 61 18:55 29.03.2020
5704 Clouds 25 1009 94 10000 2 61 18:37 29.03.2020
5705 Clouds 25 1009 94 10000 1.52 39 18:18 29.03.2020
5706 Clouds 25 1009 100 10000 1.52 39 17:54 29.03.2020
5707 Rain 25 1009 89 0 1.52 39 17:36 29.03.2020
5708 Rain 25 1009 100 10000 1.52 39 17:18 29.03.2020
5709 Rain 25 1009 100 10000 1.52 39 17:18 29.03.2020
5710 Rain 25 1009 100 10000 1.52 39 16:55 29.03.2020
5711 Rain 25 1009 100 10000 1.52 39 16:36 29.03.2020
5712 Rain 25 1009 100 10000 1.52 39 16:36 29.03.2020
5713 Clouds 25 1009 94 10000 1.52 39 16:18 29.03.2020
5714 Clouds 25 1009 94 10000 1.52 39 15:40 29.03.2020
5715 Rain 25 1009 89 0 1.52 39 15:21 29.03.2020
5716 Rain 25 1010 90 0 2.39 41 14:57 29.03.2020
5717 Rain 25 1010 90 0 2.39 41 14:57 29.03.2020
5718 Rain 25 1010 90 0 2.39 41 14:37 29.03.2020
5719 Rain 24 1010 100 10000 2.39 41 14:19 29.03.2020
5720 Rain 24 1010 100 10000 2.02 38 13:55 29.03.2020
5721 Rain 24 1010 100 10000 2.02 38 13:37 29.03.2020
5722 Rain 24 1010 100 10000 2.02 38 13:19 29.03.2020
5723 Clouds 27 1011 94 10000 2.02 38 12:54 29.03.2020
5724 Clouds 27 1011 94 10000 2.02 38 12:36 29.03.2020
5725 Clouds 27 1011 94 10000 2.16 44 12:18 29.03.2020
5726 Rain 27 1010 94 10000 2.16 44 11:38 29.03.2020
5727 Clouds 27 1010 100 10000 2.16 44 11:20 29.03.2020
5728 Clouds 27 1010 100 10000 2.16 44 10:40 29.03.2020
5729 Clouds 28 1009 88 10000 2.16 44 10:21 29.03.2020
5730 Clouds 28 1009 88 10000 2.16 44 09:59 29.03.2020
5731 Clouds 28 1009 88 10000 2.16 44 09:38 29.03.2020
5732 Clouds 27 1009 82 0 2.78 52 09:19 29.03.2020
5733 Clouds 27 1009 82 0 2.78 52 08:48 29.03.2020
5734 Clouds 28 1009 88 10000 2.78 52 08:27 29.03.2020
5735 Clouds 28 1009 88 10000 2.78 52 07:56 29.03.2020
5736 Clouds 28 1009 88 10000 2.78 52 07:37 29.03.2020
5737 Clouds 28 1009 88 10000 2.78 52 07:19 29.03.2020
5738 Clouds 30 1009 74 10000 2.6 60 04:58 29.03.2020
5739 Clouds 30 1009 70 10000 3.1 70 03:42 29.03.2020
5740 Rain 29 1008 71 0 3.74 46 03:23 29.03.2020
5741 Rain 29 1010 70 0 4.45 58 01:50 29.03.2020
5742 Clouds 30 1011 70 10000 4.45 58 01:23 29.03.2020
5743 Clouds 30 1011 70 10000 4.45 56 00:48 29.03.2020
5744 Clouds 30 1011 70 10000 4.45 56 00:29 29.03.2020
5745 Clouds 28 1011 83 10000 4.45 56 23:41 28.03.2020
5746 Clouds 28 1011 83 10000 4.45 56 23:41 28.03.2020
5747 Clouds 28 1011 83 10000 4.45 56 23:23 28.03.2020
5748 Clouds 26 1011 94 10000 3.99 47 22:56 28.03.2020
5749 Clouds 26 1011 94 10000 3.99 47 22:37 28.03.2020
5750 Clouds 25 1010 94 10000 3.99 47 22:18 28.03.2020
5751 Clouds 25 1010 94 10000 3.99 47 21:41 28.03.2020
5752 Clouds 25 1010 94 10000 3.99 47 21:23 28.03.2020
5753 Clouds 25 1010 94 10000 3.99 47 20:58 28.03.2020
5754 Clouds 25 1010 94 10000 3.99 47 20:39 28.03.2020
5755 Rain 28 1011 80 0 4.18 50 20:20 28.03.2020
5756 Rain 25 1010 88 0 3.17 33 19:56 28.03.2020
5757 Rain 25 1010 88 0 3.17 33 19:36 28.03.2020
5758 Clouds 24 1008 94 10000 3.6 320 19:18 28.03.2020
5759 Clouds 24 1008 94 10000 3.6 320 18:42 28.03.2020
5760 Clouds 24 1008 94 10000 3.6 320 18:22 28.03.2020
5761 Clouds 24 1008 94 10000 3.6 330 17:56 28.03.2020
5762 Clouds 24 1008 94 10000 3.6 330 17:36 28.03.2020
5763 Clouds 24 1008 94 10000 3.6 330 17:18 28.03.2020
5764 Clouds 24 1008 94 10000 3.6 330 16:40 28.03.2020
5765 Clouds 25 1009 88 0 3.08 31 16:20 28.03.2020
5766 Clouds 25 1009 88 0 3.08 31 15:55 28.03.2020
5767 Clouds 25 1009 88 0 3.08 31 15:37 28.03.2020
5768 Clouds 25 1009 88 0 3.08 31 15:18 28.03.2020
5769 Clouds 25 1009 88 0 3.08 31 14:41 28.03.2020
5770 Clouds 25 1009 88 0 3.08 31 14:22 28.03.2020
5771 Rain 25 1010 88 0 3.47 36 13:44 28.03.2020
5772 Clouds 24 1011 100 10000 3.28 32 13:25 28.03.2020
5773 Clouds 24 1011 100 10000 3.28 32 12:57 28.03.2020
5774 Clouds 24 1011 100 10000 3.28 32 12:37 28.03.2020
5775 Clouds 25 1011 94 10000 3.28 32 12:18 28.03.2020
5776 Clouds 25 1011 94 10000 3.28 32 11:41 28.03.2020
5777 Clouds 25 1011 94 10000 3.96 46 11:21 28.03.2020
5778 Rain 25 1011 94 10000 3.96 46 10:40 28.03.2020
5779 Rain 25 1011 94 10000 3.96 46 10:22 28.03.2020
5780 Rain 25 1011 94 10000 3.96 46 09:43 28.03.2020
5781 Rain 25 1011 94 10000 3.96 46 09:24 28.03.2020
5782 Thunderstorm 25 1009 94 10000 3.96 46 08:59 28.03.2020
5783 Thunderstorm 25 1009 94 10000 3.96 46 08:41 28.03.2020
5784 Thunderstorm 25 1009 94 10000 3.96 46 08:22 28.03.2020
5785 Thunderstorm 26 1009 94 10000 1.5 50 07:46 28.03.2020
5786 Thunderstorm 26 1009 94 10000 1.5 50 07:28 28.03.2020
5787 Thunderstorm 26 1009 94 8000 1.5 250 06:36 28.03.2020
5788 Thunderstorm 28 1008 83 5000 1.5 250 05:54 28.03.2020
5789 Rain 28 1008 83 5000 2.6 280 05:21 28.03.2020
5790 Clouds 28 1008 83 10000 2.1 50 04:42 28.03.2020
5791 Rain 28 1008 83 10000 4.1 40 03:54 28.03.2020
5792 Rain 27 1008 86 0 4.24 66 02:25 28.03.2020
5793 Rain 28 1010 85 0 3.99 67 01:41 28.03.2020
5794 Rain 28 1010 83 10000 3.6 60 01:18 28.03.2020
5795 Rain 28 1010 83 10000 3.6 60 00:45 28.03.2020
5796 Clouds 29 1010 79 10000 1.5 40 23:59 27.03.2020
5797 Clouds 29 1010 79 10000 1.5 40 23:41 27.03.2020
5798 Clouds 29 1010 79 10000 1.5 40 23:41 27.03.2020
5799 Clouds 29 1010 79 10000 1.5 40 23:21 27.03.2020
5800 Clouds 29 1010 83 10000 2.1 320 22:56 27.03.2020
5801 Clouds 29 1010 83 10000 2.1 320 22:37 27.03.2020
5802 Clouds 26 1010 94 10000 3.36 54 22:19 27.03.2020
5803 Clouds 26 1010 94 10000 3.36 54 21:44 27.03.2020
5804 Clouds 24 1009 100 10000 3.36 54 21:25 27.03.2020
5805 Clouds 24 1009 100 10000 3.36 54 21:25 27.03.2020
5806 Clouds 24 1009 100 10000 3.36 54 20:59 27.03.2020
5807 Clouds 24 1009 100 10000 4.4 64 20:41 27.03.2020
5808 Rain 25 1010 89 0 2.87 57 20:20 27.03.2020
5809 Rain 24 1009 90 0 2.55 35 20:20 27.03.2020
5810 Rain 25 1010 89 0 2.87 57 19:57 27.03.2020
5811 Rain 25 1010 89 0 2.87 57 19:39 27.03.2020
5812 Rain 25 1010 89 0 2.87 57 19:39 27.03.2020
5813 Clouds 24 1009 100 10000 2.87 57 19:20 27.03.2020
5814 Clouds 24 1009 100 10000 2.87 57 18:44 27.03.2020
5815 Clouds 24 1009 100 10000 2.87 57 18:24 27.03.2020
5816 Clouds 24 1008 100 10000 2.6 300 17:57 27.03.2020
5817 Clouds 24 1008 100 10000 2.6 300 17:39 27.03.2020
5818 Clouds 24 1008 100 10000 2.6 300 17:19 27.03.2020
5819 Clouds 25 1009 100 10000 2.12 46 16:44 27.03.2020
5820 Clouds 25 1009 100 10000 2.12 46 16:25 27.03.2020
5821 Clouds 25 1009 100 10000 2.12 46 15:46 27.03.2020
5822 Rain 25 1010 100 10000 2.12 46 15:27 27.03.2020
5823 Rain 25 1010 100 10000 2.12 46 14:59 27.03.2020
5824 Rain 25 1010 100 10000 2.12 46 14:40 27.03.2020
5825 Rain 25 1009 88 0 2.12 46 14:22 27.03.2020
5826 Rain 25 1010 88 0 2.48 43 13:54 27.03.2020
5827 Rain 25 1010 88 0 2.48 43 13:36 27.03.2020
5828 Rain 26 1011 94 10000 2.57 48 13:18 27.03.2020
5829 Rain 26 1011 94 10000 2.57 48 13:18 27.03.2020
5830 Rain 26 1011 94 10000 2.57 48 12:42 27.03.2020
5831 Rain 26 1011 94 10000 2.57 48 12:19 27.03.2020
5832 Clouds 26 1011 94 10000 1 0 11:44 27.03.2020
5833 Clouds 26 1011 94 10000 1 0 11:25 27.03.2020
5834 Clouds 27 1011 88 10000 3.6 60 10:59 27.03.2020
5835 Clouds 27 1011 88 10000 3.6 60 10:41 27.03.2020
5836 Clouds 27 1010 88 10000 3.25 64 10:22 27.03.2020
5837 Clouds 27 1010 88 10000 3.25 64 09:58 27.03.2020
5838 Clouds 27 1010 88 10000 3.25 64 09:40 27.03.2020
5839 Rain 25 1011 89 0 3.25 64 09:21 27.03.2020
5840 Rain 25 1011 89 0 3.25 64 08:58 27.03.2020
5841 Rain 25 1011 89 0 3.25 64 08:39 27.03.2020
5842 Rain 25 1011 89 0 3.25 64 08:21 27.03.2020
5843 Rain 27 1009 85 0 3.15 68 07:53 27.03.2020
5844 Clouds 29 1008 79 10000 3.15 68 07:28 27.03.2020
5845 Clouds 29 1008 79 10000 3.15 68 06:59 27.03.2020
5846 Clouds 29 1008 79 10000 3.15 68 06:37 27.03.2020
5847 Clouds 30 1009 74 10000 4.1 90 05:38 27.03.2020
5848 Rain 29 1008 72 0 3.68 70 02:51 27.03.2020
5849 Rain 30 1011 68 0 3.55 73 01:50 27.03.2020
5850 Clouds 32 1011 66 10000 2.6 130 00:56 27.03.2020
5851 Clouds 32 1011 66 10000 2.6 130 00:32 27.03.2020
5852 Clouds 30 1011 79 10000 3.6 130 23:45 26.03.2020
5853 Clouds 30 1011 79 10000 3.6 130 23:25 26.03.2020
5854 Clouds 27 1012 83 10000 2.6 130 22:59 26.03.2020
5855 Clouds 27 1012 83 10000 2.6 130 22:39 26.03.2020
5856 Clouds 25 1011 83 10000 2.61 58 22:21 26.03.2020
5857 Clouds 25 1011 83 10000 2.61 58 21:59 26.03.2020
5858 Clouds 25 1011 83 10000 2.61 58 21:39 26.03.2020
5859 Clouds 23 1011 100 10000 2.61 58 21:21 26.03.2020
5860 Clouds 23 1011 100 10000 2.61 58 20:58 26.03.2020
5861 Clouds 23 1011 100 10000 2.61 58 20:38 26.03.2020
5862 Clouds 23 1011 100 10000 2.61 58 20:38 26.03.2020
5863 Clouds 28 1012 78 0 2.45 61 20:20 26.03.2020
5864 Rain 24 1010 87 0 1.26 40 19:56 26.03.2020
5865 Rain 24 1010 87 0 1.26 40 19:38 26.03.2020
5866 Clouds 23 1010 100 10000 1.26 40 19:20 26.03.2020
5867 Clouds 23 1010 100 10000 1.26 40 18:56 26.03.2020
5868 Clouds 23 1010 100 10000 1.26 40 18:37 26.03.2020
5869 Clouds 23 1010 100 10000 1.26 40 18:19 26.03.2020
5870 Clouds 23 1010 100 10000 1.26 40 17:42 26.03.2020
5871 Clouds 23 1010 100 10000 0.69 33 17:19 26.03.2020
5872 Clouds 23 1010 100 10000 0.69 33 17:19 26.03.2020
5873 Clouds 24 1010 94 10000 0.69 33 16:45 26.03.2020
5874 Clouds 24 1011 100 10000 0.69 33 16:27 26.03.2020
5875 Clouds 24 1011 100 10000 0.69 33 15:59 26.03.2020
5876 Clouds 24 1011 100 10000 0.69 33 15:40 26.03.2020
5877 Clouds 24 1011 100 10000 0.69 33 15:21 26.03.2020
5878 Clouds 24 1011 100 10000 0.69 33 14:58 26.03.2020
5879 Clouds 24 1011 100 10000 0.69 33 14:38 26.03.2020
5880 Clouds 24 1011 100 10000 0.69 33 14:38 26.03.2020
5881 Rain 25 1011 88 0 1.12 31 14:19 26.03.2020
5882 Rain 25 1011 88 0 1.12 31 13:43 26.03.2020
5883 Clouds 25 1012 94 10000 3.1 270 13:23 26.03.2020
5884 Clouds 25 1012 94 10000 3.1 270 12:56 26.03.2020
5885 Clouds 25 1012 94 10000 3.1 270 12:37 26.03.2020
5886 Clouds 25 1012 94 10000 3.1 270 12:19 26.03.2020
5887 Rain 25 1013 94 10000 0.78 24 11:44 26.03.2020
5888 Rain 25 1013 94 10000 1.15 52 11:20 26.03.2020
5889 Clouds 25 1012 94 10000 1.15 52 10:56 26.03.2020
5890 Clouds 25 1012 94 10000 1.15 52 10:37 26.03.2020
5891 Clouds 25 1011 94 10000 1.15 52 10:18 26.03.2020
5892 Clouds 25 1011 94 10000 1.15 52 09:43 26.03.2020
5893 Clouds 26 1011 88 10000 1.15 52 09:19 26.03.2020
5894 Clouds 26 1011 88 10000 1.15 52 09:19 26.03.2020
5895 Clouds 26 1011 88 10000 1.15 52 08:54 26.03.2020
5896 Clouds 26 1011 88 10000 1.15 52 08:36 26.03.2020
5897 Rain 26 1010 86 0 2 68 08:18 26.03.2020
5898 Rain 26 1010 86 0 2 68 07:41 26.03.2020
5899 Clouds 28 1010 83 10000 2 68 07:20 26.03.2020
5900 Clouds 28 1010 83 10000 2 68 06:46 26.03.2020
5901 Clouds 29 1010 79 10000 2 68 05:52 26.03.2020
5902 Clouds 31 1010 66 10000 4.6 70 03:52 26.03.2020
5903 Clouds 31 1010 66 10000 4.6 70 03:33 26.03.2020
5904 Clouds 32 1010 62 10000 4.1 70 02:53 26.03.2020
5905 Clouds 31 1011 66 10000 4.1 50 01:20 26.03.2020
5906 Clouds 31 1011 66 10000 4.1 50 00:33 26.03.2020
5907 Clouds 30 1011 74 10000 2.1 40 23:44 25.03.2020
5908 Clouds 30 1011 74 10000 2.1 40 23:26 25.03.2020
5909 Clouds 29 1011 83 10000 3.1 340 22:56 25.03.2020
5910 Clouds 29 1011 83 10000 3.1 340 22:38 25.03.2020
5911 Clouds 26 1012 88 10000 1 340 22:19 25.03.2020
5912 Clouds 26 1012 88 10000 1 340 22:19 25.03.2020
5913 Clouds 26 1012 88 10000 1 340 21:54 25.03.2020
5914 Clouds 26 1012 88 10000 1 340 21:36 25.03.2020
5915 Clouds 24 1011 94 10000 2.07 21 21:18 25.03.2020
5916 Clouds 24 1011 94 10000 2.07 21 20:39 25.03.2020
5917 Rain 24 1010 89 0 1.92 359 20:19 25.03.2020
5918 Rain 24 1011 88 0 1.66 2 19:56 25.03.2020
5919 Rain 24 1011 88 0 1.66 2 19:38 25.03.2020
5920 Clouds 23 1011 100 10000 1 350 19:19 25.03.2020
5921 Clouds 23 1011 100 10000 1 350 18:43 25.03.2020
5922 Clouds 23 1011 100 10000 1 350 18:25 25.03.2020
5923 Clouds 24 1011 94 10000 1 340 17:59 25.03.2020
5924 Clouds 24 1011 94 10000 1 340 17:40 25.03.2020
5925 Clouds 24 1011 94 10000 1 340 17:22 25.03.2020
5926 Clouds 24 1010 94 10000 1 340 16:58 25.03.2020
5927 Clouds 24 1010 94 10000 1 340 16:39 25.03.2020
5928 Clouds 24 1011 94 10000 1.76 346 16:20 25.03.2020
5929 Clouds 24 1011 94 10000 1.76 346 15:42 25.03.2020
5930 Rain 24 1010 88 0 1.76 346 15:21 25.03.2020
5931 Rain 24 1010 88 0 1.76 346 14:57 25.03.2020
5932 Rain 24 1010 88 0 1.76 346 14:57 25.03.2020
5933 Rain 24 1010 88 0 1.76 346 14:39 25.03.2020
5934 Rain 24 1010 88 0 1.76 346 14:39 25.03.2020
5935 Rain 25 1012 88 0 2.19 9 14:19 25.03.2020
5936 Rain 25 1012 88 0 2.04 359 13:44 25.03.2020
5937 Clouds 25 1012 94 10000 1 310 13:24 25.03.2020
5938 Clouds 25 1012 94 10000 1 310 13:24 25.03.2020
5939 Clouds 25 1012 94 10000 1 310 12:39 25.03.2020
5940 Clouds 25 1012 94 10000 1 310 12:39 25.03.2020
5941 Clouds 25 1012 94 10000 1 310 12:21 25.03.2020
5942 Clouds 25 1012 94 10000 2.1 310 11:57 25.03.2020
5943 Clouds 25 1012 94 10000 2.1 310 11:39 25.03.2020
5944 Clouds 25 1012 94 10000 2.1 310 11:21 25.03.2020
5945 Clouds 25 1012 94 10000 2.1 310 11:21 25.03.2020
5946 Clouds 25 1012 94 10000 2.1 310 11:21 25.03.2020
5947 Clouds 25 1011 94 10000 2.6 330 10:58 25.03.2020
5948 Clouds 25 1011 94 10000 2.6 330 10:39 25.03.2020
5949 Clouds 25 1011 94 10000 2.6 330 10:39 25.03.2020
5950 Clouds 25 1011 94 10000 2.6 330 10:39 25.03.2020
5951 Clouds 26 1011 94 10000 3.1 330 10:18 25.03.2020
5952 Clouds 26 1011 94 10000 3.1 330 09:43 25.03.2020
5953 Rain 27 1010 94 10000 2.09 15 09:25 25.03.2020
5954 Rain 27 1010 94 10000 2.09 15 08:58 25.03.2020
5955 Rain 27 1010 94 10000 2.09 15 08:58 25.03.2020
5956 Rain 27 1010 94 10000 2.09 15 08:40 25.03.2020
5957 Rain 26 1010 85 0 1.94 32 08:20 25.03.2020
5958 Rain 26 1010 84 0 1.75 35 07:55 25.03.2020
5959 Rain 26 1010 84 0 1.75 35 07:36 25.03.2020
5960 Clouds 29 1010 79 10000 2.1 70 07:18 25.03.2020
5961 Clouds 29 1010 79 10000 2.1 70 06:41 25.03.2020
5962 Clouds 29 1010 79 10000 2.1 70 06:22 25.03.2020
5963 Clouds 30 1009 66 10000 3.6 60 05:47 25.03.2020
5964 Clouds 31 1009 70 10000 5.1 60 04:42 25.03.2020
5965 Clouds 31 1009 66 10000 4.6 70 03:57 25.03.2020
5966 Rain 29 1009 70 0 2.95 50 03:30 25.03.2020
5967 Rain 30 1011 65 0 2.66 40 01:40 25.03.2020
5968 Clouds 31 1012 66 10000 3.1 70 00:50 25.03.2020
5969 Clouds 31 1012 66 10000 3.1 70 00:27 25.03.2020
5970 Clouds 30 1012 79 10000 2.36 47 23:55 24.03.2020
5971 Clouds 30 1012 79 10000 2.36 47 23:28 24.03.2020
5972 Clouds 28 1012 78 10000 2.12 351 22:58 24.03.2020
5973 Clouds 28 1012 78 10000 2.12 351 22:38 24.03.2020
5974 Clouds 26 1010 88 10000 2.12 351 22:20 24.03.2020
5975 Clouds 26 1010 88 10000 2.12 351 22:20 24.03.2020
5976 Clouds 26 1010 88 10000 2.12 351 21:58 24.03.2020
5977 Clouds 26 1010 88 10000 2.12 351 21:40 24.03.2020
5978 Clouds 24 1011 94 10000 2.12 351 21:18 24.03.2020
5979 Clouds 24 1011 94 10000 2.12 351 21:18 24.03.2020
5980 Clouds 24 1011 94 10000 2.12 351 20:57 24.03.2020
5981 Clouds 24 1011 94 10000 2.12 351 20:39 24.03.2020
5982 Rain 24 1011 88 0 1.83 345 20:21 24.03.2020
5983 Rain 24 1011 88 0 1.9 340 19:46 24.03.2020
5984 Clouds 23 1010 100 10000 1.9 340 19:20 24.03.2020
5985 Clouds 23 1010 100 10000 1.9 340 18:56 24.03.2020
5986 Clouds 23 1010 100 10000 1.9 340 18:38 24.03.2020
5987 Clouds 23 1010 100 10000 1.9 340 18:19 24.03.2020
5988 Clouds 23 1010 100 10000 1.9 340 17:56 24.03.2020
5989 Clouds 23 1010 100 10000 1.9 340 17:37 24.03.2020
5990 Clouds 23 1010 100 10000 1.9 340 17:37 24.03.2020
5991 Clouds 23 1010 100 10000 1.15 5 17:19 24.03.2020
5992 Clouds 23 1010 100 10000 1.32 325 16:54 24.03.2020
5993 Clouds 23 1010 100 10000 1.32 325 16:36 24.03.2020
5994 Clouds 23 1010 100 10000 1.32 325 16:36 24.03.2020
5995 Clouds 24 1011 94 10000 1.32 325 16:18 24.03.2020
5996 Clouds 24 1011 94 10000 1.32 325 15:42 24.03.2020
5997 Clouds 23 1009 95 0 1.32 325 15:23 24.03.2020
5998 Clouds 23 1009 95 0 1.32 325 14:44 24.03.2020
5999 Rain 24 1009 87 0 1.15 5 14:22 24.03.2020
6000 Rain 25 1011 87 0 0.43 2 14:22 24.03.2020
6001 Rain 25 1011 87 0 0.43 2 13:56 24.03.2020
6002 Rain 25 1011 87 0 0.43 2 13:38 24.03.2020
6003 Clouds 24 1012 94 10000 0.44 354 13:20 24.03.2020
6004 Clouds 24 1012 94 10000 0.44 354 12:42 24.03.2020
6005 Clouds 24 1012 94 10000 0.44 354 12:23 24.03.2020
6006 Clouds 24 1012 100 10000 0.44 354 11:41 24.03.2020
6007 Clouds 24 1012 100 10000 1.35 251 11:21 24.03.2020
6008 Clouds 25 1011 94 10000 1.35 251 10:59 24.03.2020
6009 Clouds 25 1011 94 10000 1.35 251 10:40 24.03.2020
6010 Clouds 25 1011 94 10000 1.35 251 10:40 24.03.2020
6011 Clouds 26 1010 88 10000 1.35 251 10:18 24.03.2020
6012 Clouds 26 1010 88 10000 1.35 251 10:18 24.03.2020
6013 Clouds 26 1010 88 10000 1.35 251 09:44 24.03.2020
6014 Clouds 27 1010 88 10000 3.6 270 09:25 24.03.2020
6015 Clouds 27 1010 88 10000 3.6 270 08:57 24.03.2020
6016 Clouds 27 1010 88 10000 3.6 270 08:37 24.03.2020
6017 Rain 26 1009 91 0 0.54 21 08:18 24.03.2020
6018 Rain 26 1009 91 0 0.54 21 07:44 24.03.2020
6019 Clouds 29 1008 70 10000 3.1 60 07:22 24.03.2020
6020 Clouds 29 1008 70 10000 3.1 60 06:35 24.03.2020
6021 Clouds 30 1008 70 10000 2.6 60 05:36 24.03.2020
6022 Rain 29 1008 86 0 1.48 40 04:50 24.03.2020
6023 Rain 29 1008 86 0 1.48 40 03:19 24.03.2020
6024 Rain 29 1008 86 0 1.48 40 02:25 24.03.2020
6025 Clouds 31 1010 70 10000 2.6 330 00:53 24.03.2020
6026 Clouds 31 1010 70 10000 2.6 330 00:26 24.03.2020
6027 Clouds 30 1011 74 10000 1.5 350 23:55 23.03.2020
6028 Clouds 30 1011 74 10000 1.5 350 23:36 23.03.2020
6029 Clouds 30 1011 74 10000 1.5 350 23:18 23.03.2020
6030 Clouds 28 1011 78 10000 2.1 340 22:42 23.03.2020
6031 Clouds 26 1011 88 10000 0.9 318 22:22 23.03.2020
6032 Clouds 26 1011 88 10000 0.9 318 22:22 23.03.2020
6033 Clouds 26 1011 88 10000 0.9 318 21:54 23.03.2020
6034 Clouds 26 1011 88 10000 0.9 318 21:36 23.03.2020
6035 Clouds 24 1010 94 10000 2.6 330 21:18 23.03.2020
6036 Clouds 24 1010 94 10000 2.6 330 20:42 23.03.2020
6037 Clouds 28 1011 69 0 0.9 318 20:23 23.03.2020
6038 Clouds 22 1010 93 0 1.24 314 19:55 23.03.2020
6039 Clouds 22 1010 93 0 1.24 314 19:55 23.03.2020
6040 Clouds 22 1010 93 0 1.24 314 19:55 23.03.2020
6041 Clouds 22 1010 93 0 1.24 314 19:37 23.03.2020
6042 Clouds 24 1009 100 10000 1.24 314 19:18 23.03.2020
6043 Clouds 24 1009 100 10000 1.24 314 18:43 23.03.2020
6044 Clouds 24 1009 100 10000 1.24 314 18:24 23.03.2020
6045 Clouds 24 1009 100 10000 1.24 314 17:58 23.03.2020
6046 Clouds 24 1009 100 10000 1.24 314 17:39 23.03.2020
6047 Clouds 24 1009 100 10000 1.22 312 17:19 23.03.2020
6048 Clouds 24 1010 100 10000 1.22 312 16:43 23.03.2020
6049 Clouds 25 1010 88 10000 1.22 312 16:25 23.03.2020
6050 Clouds 25 1010 88 10000 1.22 312 15:44 23.03.2020
6051 Clouds 25 1010 88 10000 3.6 330 15:21 23.03.2020
6052 Clouds 25 1010 88 10000 3.6 330 14:57 23.03.2020
6053 Clouds 25 1010 88 10000 3.6 330 14:37 23.03.2020
6054 Clouds 24 1010 94 0 1.21 318 14:18 23.03.2020
6055 Clouds 24 1010 94 0 1.21 318 13:54 23.03.2020
6056 Clouds 24 1010 94 0 1.21 318 13:54 23.03.2020
6057 Clouds 24 1010 94 0 1.21 318 13:36 23.03.2020
6058 Clouds 24 1010 94 0 1.21 318 13:36 23.03.2020
6059 Clouds 25 1010 94 10000 1.21 316 13:18 23.03.2020
6060 Clouds 25 1010 94 10000 1.21 316 12:41 23.03.2020
6061 Clouds 25 1010 94 10000 1.21 316 12:22 23.03.2020
6062 Clouds 25 1010 94 10000 1.21 316 11:42 23.03.2020
6063 Clouds 25 1010 94 10000 1.21 316 11:22 23.03.2020
6064 Clouds 25 1010 94 10000 0.63 298 10:58 23.03.2020
6065 Clouds 25 1010 94 10000 0.63 298 10:40 23.03.2020
6066 Clouds 25 1010 94 10000 0.63 298 10:40 23.03.2020
6067 Clouds 25 1010 100 10000 0.63 298 10:22 23.03.2020
6068 Clouds 25 1010 100 10000 0.63 298 09:58 23.03.2020
6069 Clouds 25 1010 100 10000 0.63 298 09:40 23.03.2020
6070 Rain 24 1010 93 0 0.63 298 09:19 23.03.2020
6071 Rain 24 1010 93 0 0.63 298 08:38 23.03.2020
6072 Rain 25 1008 93 0 0.56 244 08:19 23.03.2020
6073 Rain 25 1008 93 0 1.87 8 07:50 23.03.2020
6074 Clouds 25 1008 100 10000 1.87 8 07:32 23.03.2020
6075 Clouds 25 1008 100 10000 1.87 8 06:54 23.03.2020
6076 Clouds 25 1008 100 10000 1.87 8 06:32 23.03.2020
6077 Rain 24 1008 100 10000 1.87 8 05:42 23.03.2020
6078 Clouds 30 1008 74 10000 4.6 60 03:45 23.03.2020
6079 Clouds 30 1009 74 10000 2.1 50 02:43 23.03.2020
6080 Rain 26 1009 85 0 1.18 46 01:38 23.03.2020
6081 Clouds 29 1010 74 10000 2.39 25 00:43 23.03.2020
6082 Clouds 27 1010 83 10000 2.39 25 23:54 22.03.2020
6083 Clouds 27 1010 83 10000 2.39 25 23:27 22.03.2020
6084 Clouds 26 1011 88 10000 0.68 15 22:59 22.03.2020
6085 Rain 24 1011 96 0 0.68 15 22:39 22.03.2020
6086 Clouds 24 1010 94 10000 0.68 15 22:18 22.03.2020
6087 Clouds 24 1010 94 10000 0.68 15 21:40 22.03.2020
6088 Clouds 24 1010 94 10000 0.68 15 21:20 22.03.2020
6089 Clouds 24 1010 94 10000 0.68 15 20:58 22.03.2020
6090 Clouds 24 1010 94 10000 0.68 15 20:39 22.03.2020
6091 Rain 22 1011 98 0 0.81 328 20:21 22.03.2020
6092 Clouds 22 1009 96 0 1.08 335 19:55 22.03.2020
6093 Clouds 22 1009 96 0 1.08 335 19:37 22.03.2020
6094 Clouds 23 1009 100 10000 1.08 335 19:19 22.03.2020
6095 Clouds 23 1009 100 10000 1.08 335 18:56 22.03.2020
6096 Clouds 23 1009 100 10000 1.08 335 18:37 22.03.2020
6097 Clouds 23 1009 100 10000 1.08 335 18:18 22.03.2020
6098 Clouds 23 1009 100 10000 1.08 335 17:56 22.03.2020
6099 Clouds 23 1009 100 10000 1.08 335 17:36 22.03.2020
6100 Clouds 23 1009 100 10000 1.08 335 17:36 22.03.2020
6101 Clouds 23 1009 100 10000 1.08 335 17:36 22.03.2020
6102 Clouds 23 1009 100 10000 1.22 4 17:18 22.03.2020
6103 Clouds 24 1009 94 10000 1.22 4 16:54 22.03.2020
6104 Clouds 24 1009 94 10000 1.22 4 16:36 22.03.2020
6105 Clouds 23 1009 96 0 1.22 4 16:36 22.03.2020
6106 Clouds 24 1010 94 10000 1.22 4 16:18 22.03.2020
6107 Clouds 24 1010 94 10000 1.22 4 15:39 22.03.2020
6108 Rain 24 1010 94 10000 1.22 4 14:48 22.03.2020
6109 Rain 23 1010 97 0 1.86 13 14:20 22.03.2020
6110 Rain 23 1010 97 0 1.86 13 13:58 22.03.2020
6111 Rain 23 1010 97 0 1.86 13 13:58 22.03.2020
6112 Rain 23 1010 97 0 1.86 13 13:40 22.03.2020
6113 Clouds 25 1010 94 10000 2.17 9 13:19 22.03.2020
6114 Clouds 25 1010 94 10000 2.17 9 12:44 22.03.2020
6115 Clouds 25 1010 94 10000 2.17 9 12:44 22.03.2020
6116 Clouds 25 1010 94 10000 2.17 9 12:22 22.03.2020
6117 Clouds 25 1010 94 10000 2.17 9 12:22 22.03.2020
6118 Rain 24 1011 94 10000 2.17 9 11:58 22.03.2020
6119 Rain 24 1011 94 10000 2.17 9 11:39 22.03.2020
6120 Rain 24 1011 94 10000 1.33 349 11:21 22.03.2020
6121 Rain 24 1012 94 10000 1.33 349 10:43 22.03.2020
6122 Rain 24 1012 94 10000 1.33 349 10:24 22.03.2020
6123 Rain 24 1012 94 10000 1.33 349 09:55 22.03.2020
6124 Rain 24 1012 94 10000 1.33 349 09:36 22.03.2020
6125 Rain 24 1012 94 10000 1.33 349 09:18 22.03.2020
6126 Rain 24 1012 94 10000 1.33 349 08:41 22.03.2020
6127 Rain 26 1010 82 0 2.33 350 08:21 22.03.2020
6128 Rain 26 1010 82 0 2.33 350 07:50 22.03.2020
6129 Rain 26 1010 88 10000 2.33 350 07:19 22.03.2020
6130 Drizzle 29 1009 79 10000 4.1 10 05:56 22.03.2020
6131 Clouds 30 1009 70 10000 2.92 21 04:58 22.03.2020
6132 Clouds 29 1011 74 10000 2.92 21 02:58 22.03.2020
6133 Clouds 28 1013 78 10000 1 0 01:22 22.03.2020
6134 Clouds 28 1013 78 10000 1 0 01:22 22.03.2020
6135 Clouds 28 1013 78 10000 1 0 00:39 22.03.2020
6136 Clouds 28 1013 78 10000 1 0 00:21 22.03.2020
6137 Clouds 27 1013 83 10000 3.62 36 23:41 21.03.2020
6138 Clouds 27 1013 83 10000 3.62 36 23:41 21.03.2020
6139 Clouds 27 1013 83 10000 2.35 13 23:19 21.03.2020
6140 Clouds 27 1013 83 10000 1 0 22:38 21.03.2020
6141 Clouds 25 1013 94 10000 3.1 310 22:20 21.03.2020
6142 Clouds 25 1013 94 10000 3.1 310 21:59 21.03.2020
6143 Clouds 25 1013 94 10000 3.1 310 21:40 21.03.2020
6144 Clouds 24 1012 94 10000 2.35 13 21:22 21.03.2020
6145 Clouds 24 1012 94 10000 2.35 13 20:46 21.03.2020
6146 Clouds 28 1013 75 0 2.35 13 20:23 21.03.2020
6147 Clouds 23 1012 95 0 1.2 350 19:57 21.03.2020
6148 Clouds 23 1012 95 0 1.2 350 19:39 21.03.2020
6149 Clouds 23 1011 100 10000 1.2 350 19:21 21.03.2020
6150 Clouds 23 1011 100 10000 1.2 350 18:54 21.03.2020
6151 Clouds 23 1011 100 10000 1.2 350 18:36 21.03.2020
6152 Clouds 23 1011 100 10000 1.2 350 18:18 21.03.2020
6153 Clouds 24 1011 94 10000 1.2 350 17:43 21.03.2020
6154 Clouds 24 1011 94 10000 1.2 350 17:43 21.03.2020
6155 Clouds 24 1011 94 10000 1.2 350 17:23 21.03.2020
6156 Clouds 24 1012 100 10000 1.16 349 16:57 21.03.2020
6157 Clouds 23 1011 94 0 1.16 349 16:38 21.03.2020
6158 Clouds 24 1012 100 10000 1.16 349 16:18 21.03.2020
6159 Clouds 24 1012 100 10000 1.16 349 16:18 21.03.2020
6160 Clouds 24 1012 100 10000 1.16 349 16:18 21.03.2020
6161 Clouds 24 1012 100 10000 1.16 349 15:42 21.03.2020
6162 Clouds 24 1012 100 10000 1.16 349 15:23 21.03.2020
6163 Clouds 24 1012 100 10000 1.16 349 14:58 21.03.2020
6164 Clouds 24 1012 100 10000 1.16 349 14:40 21.03.2020
6165 Clouds 23 1013 93 0 1.19 330 14:20 21.03.2020
6166 Clouds 23 1013 93 0 1.19 330 13:59 21.03.2020
6167 Clouds 23 1013 93 0 1.19 330 13:40 21.03.2020
6168 Clouds 25 1013 94 10000 1.19 330 13:22 21.03.2020
6169 Clouds 25 1013 94 10000 1.02 337 12:59 21.03.2020
6170 Clouds 25 1013 94 10000 1.02 337 12:38 21.03.2020
6171 Clouds 25 1013 94 10000 1.02 337 12:19 21.03.2020
6172 Clouds 25 1013 94 10000 1.02 337 12:19 21.03.2020
6173 Clouds 25 1014 94 10000 1.02 337 11:56 21.03.2020
6174 Clouds 25 1014 94 10000 1.02 337 11:38 21.03.2020
6175 Clouds 25 1014 94 10000 1.38 359 11:19 21.03.2020
6176 Clouds 25 1013 94 10000 1.38 359 10:57 21.03.2020
6177 Clouds 25 1013 94 10000 1.38 359 10:38 21.03.2020
6178 Clouds 25 1013 94 10000 1.38 359 10:19 21.03.2020
6179 Clouds 25 1013 94 10000 1.38 359 09:55 21.03.2020
6180 Clouds 25 1013 94 10000 1.38 359 09:37 21.03.2020
6181 Clouds 25 1013 94 10000 2.1 70 09:18 21.03.2020
6182 Clouds 25 1013 94 10000 2.1 70 08:43 21.03.2020
6183 Rain 24 1011 91 0 2.07 12 08:24 21.03.2020
6184 Clouds 24 1011 80 0 2.43 13 07:43 21.03.2020
6185 Rain 26 1011 88 10000 2.43 13 07:23 21.03.2020
6186 Rain 26 1011 88 10000 2.43 13 06:47 21.03.2020
6187 Rain 26 1011 88 10000 2.43 13 06:27 21.03.2020
6188 Clouds 27 1011 83 10000 2.43 13 05:46 21.03.2020
6189 Clouds 28 1011 74 10000 2.1 350 04:46 21.03.2020
6190 Clouds 27 1011 83 10000 3.6 330 02:48 21.03.2020
6191 Clouds 25 1010 88 0 3.61 16 02:30 21.03.2020
6192 Rain 26 1012 94 10000 4.6 330 01:32 21.03.2020
6193 Rain 26 1012 94 10000 4.6 330 00:48 21.03.2020
6194 Rain 26 1012 94 10000 4.6 330 00:25 21.03.2020
6195 Clouds 29 1012 74 10000 5.1 10 23:49 20.03.2020
6196 Clouds 29 1012 74 10000 5.1 10 23:26 20.03.2020
6197 Clouds 27 1012 88 10000 4.1 360 22:56 20.03.2020
6198 Clouds 27 1012 88 10000 4.1 360 22:37 20.03.2020
6199 Rain 25 1012 94 10000 2.6 20 22:19 20.03.2020
6200 Rain 25 1012 94 10000 2.6 20 21:54 20.03.2020
6201 Rain 25 1012 94 10000 2.6 20 21:36 20.03.2020
6202 Clouds 24 1011 100 10000 2.85 22 21:18 20.03.2020
6203 Clouds 24 1011 100 10000 2.85 22 21:18 20.03.2020
6204 Clouds 24 1011 100 10000 2.85 22 20:42 20.03.2020
6205 Rain 24 1012 97 0 2.2 22 20:21 20.03.2020
6206 Rain 22 1010 97 0 2.03 12 19:59 20.03.2020
6207 Rain 22 1010 97 0 2.03 12 19:40 20.03.2020
6208 Clouds 24 1010 100 10000 2.03 12 19:18 20.03.2020
6209 Clouds 24 1010 100 10000 2.03 12 18:39 20.03.2020
6210 Clouds 24 1010 100 10000 2.03 12 18:39 20.03.2020
6211 Clouds 24 1010 100 10000 2.03 12 18:20 20.03.2020
6212 Clouds 24 1009 94 10000 2.03 12 17:57 20.03.2020
6213 Clouds 24 1009 94 10000 2.03 12 17:39 20.03.2020
6214 Clouds 24 1009 94 10000 3.01 342 17:21 20.03.2020
6215 Clouds 24 1010 100 10000 3.01 342 16:43 20.03.2020
6216 Clouds 24 1010 100 10000 3.01 342 16:22 20.03.2020
6217 Clouds 24 1010 100 10000 3.01 342 15:59 20.03.2020
6218 Clouds 24 1010 100 10000 3.01 342 15:41 20.03.2020
6219 Clouds 25 1011 94 10000 3.01 342 15:21 20.03.2020
6220 Clouds 25 1011 94 10000 3.01 342 14:43 20.03.2020
6221 Rain 23 1009 96 0 3.01 342 14:23 20.03.2020
6222 Rain 23 1011 97 0 1.86 345 13:55 20.03.2020
6223 Rain 23 1011 97 0 1.86 345 13:55 20.03.2020
6224 Rain 23 1011 97 0 1.86 345 13:37 20.03.2020
6225 Clouds 25 1012 94 10000 0.97 0 13:19 20.03.2020
6226 Clouds 25 1012 94 10000 0.97 0 12:39 20.03.2020
6227 Clouds 25 1012 94 10000 0.97 0 12:20 20.03.2020
6228 Clouds 25 1012 94 10000 0.97 0 12:20 20.03.2020
6229 Clouds 25 1012 94 10000 0.97 0 12:20 20.03.2020
6230 Clouds 25 1012 94 10000 0.97 0 11:54 20.03.2020
6231 Clouds 25 1012 94 10000 0.97 0 11:36 20.03.2020
6232 Clouds 25 1011 94 10000 2.04 333 11:18 20.03.2020
6233 Clouds 25 1011 94 10000 2.04 333 10:41 20.03.2020
6234 Clouds 25 1011 94 10000 2.1 360 10:21 20.03.2020
6235 Clouds 25 1011 94 10000 2.1 360 10:21 20.03.2020
6236 Clouds 25 1011 94 10000 2.1 360 09:55 20.03.2020
6237 Clouds 25 1011 94 10000 2.1 360 09:37 20.03.2020
6238 Clouds 25 1011 100 10000 2.1 340 09:18 20.03.2020
6239 Clouds 25 1011 100 10000 2.1 340 08:41 20.03.2020
6240 Rain 24 1010 96 0 3.13 10 08:22 20.03.2020
6241 Rain 24 1010 96 0 3.13 10 07:48 20.03.2020
6242 Clouds 26 1009 94 10000 3.1 310 07:26 20.03.2020
6243 Clouds 26 1009 94 10000 3.1 310 06:51 20.03.2020
6244 Clouds 26 1009 94 10000 3.1 310 06:32 20.03.2020
6245 Rain 27 1009 88 10000 3.6 340 04:51 20.03.2020
6246 Clouds 27 1009 88 10000 4.1 340 03:20 20.03.2020
6247 Rain 28 1011 92 0 2.71 354 01:51 20.03.2020
6248 Rain 25 1012 94 5000 4.1 20 00:46 20.03.2020
6249 Rain 25 1012 94 5000 4.1 20 00:26 20.03.2020
6250 Clouds 27 1012 94 10000 1.14 341 23:45 19.03.2020
6251 Clouds 27 1012 94 10000 1.14 341 23:26 19.03.2020
6252 Clouds 27 1012 94 10000 1.14 341 23:26 19.03.2020
6253 Clouds 26 1012 94 10000 0.58 269 22:56 19.03.2020
6254 Clouds 26 1012 94 10000 0.58 269 22:38 19.03.2020
6255 Clouds 26 1012 94 10000 0.58 269 22:38 19.03.2020
6256 Clouds 25 1011 100 10000 0.58 269 22:18 19.03.2020
6257 Clouds 25 1011 100 10000 0.58 269 21:41 19.03.2020
6258 Rain 25 1011 94 10000 0.58 269 21:20 19.03.2020
6259 Rain 25 1011 94 10000 0.58 269 20:58 19.03.2020
6260 Rain 25 1011 94 10000 0.58 269 20:39 19.03.2020
6261 Rain 24 1010 96 0 0.75 25 20:20 19.03.2020
6262 Rain 24 1010 96 0 0.75 25 19:55 19.03.2020
6263 Rain 24 1010 96 0 0.75 25 19:37 19.03.2020
6264 Clouds 26 1010 94 10000 0.75 25 19:18 19.03.2020
6265 Clouds 26 1010 94 10000 0.75 25 18:42 19.03.2020
6266 Clouds 26 1010 94 10000 0.75 25 18:22 19.03.2020
6267 Rain 26 1010 94 10000 0.75 25 17:58 19.03.2020
6268 Rain 26 1010 94 10000 0.75 25 17:39 19.03.2020
6269 Rain 26 1010 94 10000 0.97 95 17:19 19.03.2020
6270 Clouds 26 1010 94 10000 0.97 95 16:43 19.03.2020
6271 Clouds 26 1011 94 10000 0.97 95 16:23 19.03.2020
6272 Clouds 26 1011 94 10000 0.97 95 15:45 19.03.2020
6273 Rain 24 1010 97 0 0.97 95 15:26 19.03.2020
6274 Rain 24 1010 97 0 0.97 95 14:55 19.03.2020
6275 Rain 24 1010 97 0 0.97 95 14:37 19.03.2020
6276 Rain 26 1012 94 8000 2.6 130 14:18 19.03.2020
6277 Rain 26 1012 94 8000 2.6 130 13:39 19.03.2020
6278 Rain 26 1012 94 8000 2.6 130 13:19 19.03.2020
6279 Rain 26 1012 94 8000 3.1 110 12:44 19.03.2020
6280 Rain 26 1012 94 8000 3.1 110 12:24 19.03.2020
6281 Rain 25 1012 100 8000 3.1 110 11:59 19.03.2020
6282 Rain 25 1012 100 8000 3.1 110 11:41 19.03.2020
6283 Rain 25 1012 100 8000 3.1 110 11:22 19.03.2020
6284 Rain 26 1012 94 10000 3.6 100 10:44 19.03.2020
6285 Rain 26 1012 94 10000 3.6 100 10:22 19.03.2020
6286 Rain 26 1011 94 10000 3.6 140 09:59 19.03.2020
6287 Rain 26 1011 94 10000 3.6 140 09:40 19.03.2020
6288 Rain 26 1011 94 10000 3.6 140 09:22 19.03.2020
6289 Rain 24 1012 96 0 1.26 113 08:47 19.03.2020
6290 Rain 25 1010 100 8000 2.23 110 08:23 19.03.2020
6291 Rain 25 1010 100 8000 1.96 116 07:49 19.03.2020
6292 Rain 25 1010 100 8000 1.96 116 07:31 19.03.2020
6293 Rain 25 1010 100 3000 1.96 116 06:55 19.03.2020
6294 Rain 25 1010 100 3000 1.96 116 06:18 19.03.2020
6295 Rain 25 1010 100 2000 3.1 140 05:23 19.03.2020
6296 Rain 25 1010 100 10000 3.1 140 04:41 19.03.2020
6297 Rain 26 1010 94 1000 3.1 140 03:39 19.03.2020
6298 Rain 27 1012 94 5000 2.6 150 01:45 19.03.2020
6299 Rain 27 1012 94 5000 2.6 150 00:38 19.03.2020
6300 Rain 27 1012 94 10000 1.22 109 23:58 18.03.2020
6301 Rain 27 1012 94 10000 1.22 109 23:39 18.03.2020
6302 Rain 27 1012 94 10000 1.79 99 23:18 18.03.2020
6303 Rain 26 1013 94 10000 1.79 99 22:42 18.03.2020
6304 Rain 25 1012 100 3000 2.1 120 22:22 18.03.2020
6305 Rain 25 1012 100 3000 2.1 120 21:55 18.03.2020
6306 Rain 25 1012 100 3000 2.1 120 21:37 18.03.2020
6307 Rain 25 1012 100 3000 2.1 120 21:18 18.03.2020
6308 Rain 25 1012 94 3000 2.6 120 20:54 18.03.2020
6309 Rain 25 1012 94 3000 2.6 120 20:36 18.03.2020
6310 Rain 25 1012 94 3000 2.6 120 20:18 18.03.2020
6311 Rain 24 1011 100 3000 1.06 162 19:40 18.03.2020
6312 Rain 24 1011 100 3000 1.06 162 19:21 18.03.2020
6313 Rain 24 1011 100 3000 1 0 18:56 18.03.2020
6314 Rain 24 1011 100 3000 1 0 18:37 18.03.2020
6315 Rain 24 1011 100 3000 1 0 18:18 18.03.2020
6316 Rain 25 1011 94 3000 1 0 17:41 18.03.2020
6317 Rain 25 1011 94 3000 1 0 17:22 18.03.2020
6318 Rain 25 1010 100 3000 0.65 139 16:59 18.03.2020
6319 Rain 25 1010 100 3000 0.65 139 16:40 18.03.2020
6320 Rain 25 1010 100 3000 0.65 139 16:20 18.03.2020
6321 Rain 25 1011 100 3000 2.6 130 15:56 18.03.2020
6322 Rain 25 1011 100 3000 2.6 130 15:37 18.03.2020
6323 Rain 25 1011 100 3000 2.6 130 15:18 18.03.2020
6324 Rain 25 1012 100 5000 0.65 139 14:42 18.03.2020
6325 Rain 25 1012 100 5000 3.61 152 14:21 18.03.2020
6326 Rain 24 1011 98 0 3.61 152 13:40 18.03.2020
6327 Clouds 26 1012 94 10000 3.61 152 13:19 18.03.2020
6328 Clouds 26 1012 94 10000 3.61 152 13:19 18.03.2020
6329 Clouds 26 1012 94 10000 5.48 191 12:42 18.03.2020
6330 Clouds 26 1012 94 10000 5.48 191 12:21 18.03.2020
6331 Clouds 26 1012 94 10000 5.48 191 11:57 18.03.2020
6332 Clouds 26 1012 94 10000 5.48 191 11:37 18.03.2020
6333 Clouds 26 1012 94 10000 0.89 267 11:18 18.03.2020
6334 Clouds 26 1011 94 10000 0.89 267 10:54 18.03.2020
6335 Clouds 26 1011 94 10000 0.89 267 10:36 18.03.2020
6336 Clouds 26 1011 94 10000 0.89 267 10:36 18.03.2020
6337 Clouds 26 1011 94 10000 0.89 267 10:18 18.03.2020
6338 Clouds 26 1011 94 10000 0.89 267 09:41 18.03.2020
6339 Rain 26 1011 94 10000 2.1 170 09:22 18.03.2020
6340 Rain 26 1011 94 10000 2.1 170 08:40 18.03.2020
6341 Rain 24 1009 96 0 0.63 236 08:21 18.03.2020
6342 Rain 24 1009 96 0 0.63 236 07:49 18.03.2020
6343 Rain 27 1010 94 10000 0.63 236 07:31 18.03.2020
6344 Rain 27 1010 94 10000 0.63 236 06:55 18.03.2020
6345 Rain 27 1010 94 10000 0.63 236 06:37 18.03.2020
6346 Rain 25 1009 100 10000 0.63 236 05:37 18.03.2020
6347 Clouds 27 1009 94 10000 1.14 176 04:32 18.03.2020
6348 Rain 26 1008 90 0 1.14 176 03:21 18.03.2020
6349 Rain 26 1008 90 0 1.14 176 02:36 18.03.2020
6350 Rain 25 1010 97 0 1.08 310 01:42 18.03.2020
6351 Clouds 29 1011 74 10000 1.05 7 00:42 18.03.2020
6352 Clouds 29 1011 74 10000 1.05 7 00:21 18.03.2020
6353 Clouds 29 1011 74 10000 1.05 7 23:41 17.03.2020
6354 Clouds 29 1011 83 10000 2.1 210 23:20 17.03.2020
6355 Clouds 29 1011 83 10000 2.1 210 22:42 17.03.2020
6356 Clouds 29 1011 83 10000 2.1 210 22:24 17.03.2020
6357 Clouds 27 1011 88 10000 0.92 16 21:43 17.03.2020
6358 Clouds 25 1010 94 10000 0.92 16 21:23 17.03.2020
6359 Clouds 25 1010 94 10000 0.63 307 20:57 17.03.2020
6360 Clouds 25 1010 94 10000 0.92 16 20:37 17.03.2020
6361 Rain 24 1009 97 0 2.01 274 20:19 17.03.2020
6362 Rain 24 1009 97 0 2.01 274 19:41 17.03.2020
6363 Clouds 25 1009 94 10000 2.01 274 19:19 17.03.2020
6364 Clouds 25 1009 94 10000 2.01 274 18:57 17.03.2020
6365 Clouds 25 1009 94 10000 2.01 274 18:39 17.03.2020
6366 Clouds 25 1009 94 10000 2.01 274 18:21 17.03.2020
6367 Clouds 25 1009 94 10000 2.01 274 17:56 17.03.2020
6368 Clouds 25 1009 94 10000 2.01 274 17:37 17.03.2020
6369 Clouds 25 1009 94 10000 0.98 311 17:18 17.03.2020
6370 Clouds 25 1009 94 10000 0.98 311 16:41 17.03.2020
6371 Clouds 25 1010 100 10000 0.98 311 16:19 17.03.2020
6372 Clouds 25 1010 100 10000 0.98 311 15:45 17.03.2020
6373 Clouds 25 1010 100 10000 0.98 311 15:22 17.03.2020
6374 Clouds 25 1010 100 10000 0.98 311 14:44 17.03.2020
6375 Rain 24 1009 96 0 0.98 311 14:25 17.03.2020
6376 Rain 24 1010 97 0 1.67 255 13:57 17.03.2020
6377 Rain 24 1010 97 0 1.67 255 13:39 17.03.2020
6378 Clouds 25 1011 100 10000 1.67 255 13:21 17.03.2020
6379 Clouds 25 1011 100 10000 1.15 266 12:44 17.03.2020
6380 Clouds 25 1011 100 10000 1.15 266 12:24 17.03.2020
6381 Clouds 26 1011 94 10000 1.15 266 11:48 17.03.2020
6382 Clouds 26 1011 94 10000 1.15 266 11:29 17.03.2020
6383 Clouds 26 1011 94 10000 1.35 272 10:58 17.03.2020
6384 Clouds 26 1011 94 10000 1.35 272 10:58 17.03.2020
6385 Clouds 26 1011 94 10000 1.43 304 10:40 17.03.2020
6386 Clouds 25 1010 100 10000 1.35 272 10:22 17.03.2020
6387 Clouds 25 1010 100 10000 1.35 272 09:59 17.03.2020
6388 Clouds 25 1010 100 10000 1.43 304 09:40 17.03.2020
6389 Drizzle 26 1010 94 10000 1.35 272 09:19 17.03.2020
6390 Drizzle 26 1010 94 10000 1.35 272 08:48 17.03.2020
6391 Rain 25 1011 94 0 1.35 272 08:23 17.03.2020
6392 Rain 26 1009 91 0 1.12 286 07:56 17.03.2020
6393 Rain 26 1009 91 0 1.12 286 07:38 17.03.2020
6394 Rain 26 1009 94 10000 1.12 286 07:19 17.03.2020
6395 Rain 26 1009 94 10000 1.12 286 06:38 17.03.2020
6396 Rain 26 1009 91 0 1.12 286 05:56 17.03.2020
6397 Clouds 31 1009 74 10000 1.22 316 03:56 17.03.2020
6398 Clouds 30 1010 79 10000 2.6 330 02:46 17.03.2020
6399 Clouds 32 1010 57 0 1.73 326 01:44 17.03.2020
6400 Clouds 29 1011 79 10000 3.6 320 01:25 17.03.2020
6401 Clouds 29 1011 79 10000 3.6 320 00:38 17.03.2020
6402 Clouds 27 1012 88 10000 1.67 323 23:45 16.03.2020
6403 Clouds 27 1012 88 10000 1.67 323 23:27 16.03.2020
6404 Clouds 26 1011 94 10000 1.34 349 22:41 16.03.2020
6405 Rain 25 1011 94 10000 1.34 349 22:23 16.03.2020
6406 Rain 25 1011 94 10000 1.34 349 21:57 16.03.2020
6407 Rain 25 1011 94 10000 1.34 349 21:39 16.03.2020
6408 Rain 25 1012 94 10000 1.34 349 21:21 16.03.2020
6409 Rain 25 1012 94 10000 1.34 349 20:55 16.03.2020
6410 Rain 25 1012 94 10000 1.34 349 20:37 16.03.2020
6411 Clouds 24 1011 88 0 1.43 350 20:18 16.03.2020
6412 Clouds 24 1011 88 0 1.43 350 19:40 16.03.2020
6413 Rain 25 1011 94 10000 1.43 350 19:20 16.03.2020
6414 Rain 25 1011 94 10000 1.43 350 18:43 16.03.2020
6415 Rain 25 1011 94 10000 1.43 350 18:21 16.03.2020
6416 Clouds 24 1011 88 0 1.43 350 17:55 16.03.2020
6417 Clouds 24 1011 88 0 1.43 350 17:37 16.03.2020
6418 Clouds 26 1011 94 10000 1.32 326 17:18 16.03.2020
6419 Clouds 26 1011 94 10000 1.32 326 16:42 16.03.2020
6420 Clouds 26 1011 94 10000 1.32 326 16:24 16.03.2020
6421 Clouds 26 1011 94 10000 1.32 326 15:44 16.03.2020
6422 Clouds 26 1011 88 10000 1.32 326 15:26 16.03.2020
6423 Clouds 26 1011 88 10000 1.32 326 14:49 16.03.2020
6424 Clouds 25 1010 87 0 1.32 326 14:27 16.03.2020
6425 Clouds 25 1012 87 0 1.95 344 13:57 16.03.2020
6426 Clouds 25 1012 87 0 1.95 344 13:38 16.03.2020
6427 Clouds 27 1012 83 10000 1.84 339 13:20 16.03.2020
6428 Clouds 27 1012 83 10000 1.84 339 12:44 16.03.2020
6429 Clouds 27 1012 83 10000 1.84 339 12:23 16.03.2020
6430 Clouds 27 1012 88 10000 1.84 339 11:46 16.03.2020
6431 Clouds 27 1012 88 10000 1.84 339 11:27 16.03.2020
6432 Clouds 27 1012 88 10000 1.5 335 10:55 16.03.2020
6433 Clouds 26 1012 85 0 1.5 335 10:37 16.03.2020
6434 Clouds 28 1012 83 10000 1.5 335 10:18 16.03.2020
6435 Clouds 28 1012 83 10000 1.5 335 09:40 16.03.2020
6436 Clouds 28 1010 83 10000 2.6 300 09:20 16.03.2020
6437 Clouds 28 1010 83 10000 2.6 300 08:47 16.03.2020
6438 Clouds 26 1012 85 0 1.43 325 08:24 16.03.2020
6439 Clouds 28 1010 80 0 1.69 350 07:45 16.03.2020
6440 Clouds 29 1010 83 10000 3.6 330 07:21 16.03.2020
6441 Clouds 29 1010 83 10000 3.6 330 06:46 16.03.2020
6442 Clouds 29 1010 83 10000 3.6 330 06:23 16.03.2020
6443 Clouds 31 1009 70 10000 6.2 300 04:53 16.03.2020
6444 Clouds 33 1011 57 0 4.6 345 01:49 16.03.2020
6445 Rain 31 1011 70 10000 4.6 360 00:48 16.03.2020
6446 Rain 31 1011 70 10000 4.6 360 00:28 16.03.2020
6447 Clouds 30 1011 79 10000 3.6 350 23:41 15.03.2020
6448 Clouds 27 1012 94 10000 3.59 348 23:19 15.03.2020
6449 Clouds 27 1012 94 10000 3.59 348 22:42 15.03.2020
6450 Clouds 27 1012 94 10000 3.59 348 22:42 15.03.2020
6451 Clouds 26 1011 94 10000 3.59 348 22:22 15.03.2020
6452 Clouds 26 1011 94 10000 3.59 348 21:40 15.03.2020
6453 Clouds 26 1011 94 10000 3.59 348 21:22 15.03.2020
6454 Clouds 26 1011 94 10000 3.59 348 20:58 15.03.2020
6455 Clouds 26 1011 94 10000 3.59 348 20:58 15.03.2020
6456 Clouds 26 1011 94 10000 3.59 348 20:40 15.03.2020
6457 Clouds 24 1011 95 0 1.81 346 20:20 15.03.2020
6458 Clouds 24 1011 95 0 1.81 346 19:55 15.03.2020
6459 Clouds 24 1011 95 0 1.81 346 19:55 15.03.2020
6460 Clouds 24 1011 95 0 1.81 346 19:37 15.03.2020
6461 Clouds 25 1009 100 10000 1.81 346 19:18 15.03.2020
6462 Clouds 25 1009 100 10000 1.81 346 18:42 15.03.2020
6463 Clouds 25 1009 100 10000 1.81 346 18:24 15.03.2020
6464 Clouds 25 1009 100 10000 1.81 346 17:59 15.03.2020
6465 Clouds 25 1009 100 10000 1.81 346 17:39 15.03.2020
6466 Clouds 25 1009 100 10000 1.63 339 17:20 15.03.2020
6467 Clouds 26 1009 94 10000 1.63 339 16:55 15.03.2020
6468 Clouds 26 1009 94 10000 1.63 339 16:37 15.03.2020
6469 Clouds 26 1009 94 10000 1.63 339 16:18 15.03.2020
6470 Clouds 26 1009 94 10000 1.63 339 15:42 15.03.2020
6471 Clouds 26 1010 94 10000 1.63 339 15:22 15.03.2020
6472 Clouds 26 1010 94 10000 1.63 339 14:47 15.03.2020
6473 Clouds 24 1010 95 0 1.63 339 14:28 15.03.2020
6474 Clouds 24 1011 94 0 1.92 345 13:59 15.03.2020
6475 Clouds 24 1011 94 0 1.92 345 13:39 15.03.2020
6476 Clouds 27 1011 88 10000 1.92 345 13:21 15.03.2020
6477 Clouds 27 1011 88 10000 1.81 344 12:57 15.03.2020
6478 Clouds 27 1011 88 10000 1.81 344 12:38 15.03.2020
6479 Clouds 27 1011 88 10000 1.81 344 12:20 15.03.2020
6480 Clouds 26 1011 100 10000 1.81 344 11:40 15.03.2020
6481 Clouds 26 1011 100 10000 1.81 344 11:22 15.03.2020
6482 Clouds 26 1011 100 10000 2.12 339 10:56 15.03.2020
6483 Clouds 26 1011 100 10000 2.12 339 10:37 15.03.2020
6484 Clouds 27 1010 94 10000 2.12 339 10:19 15.03.2020
6485 Clouds 27 1010 94 10000 2.12 339 09:40 15.03.2020
6486 Clouds 27 1010 94 10000 2.12 339 09:22 15.03.2020
6487 Clouds 27 1010 94 10000 2.12 339 08:44 15.03.2020
6488 Clouds 25 1011 92 0 1.68 338 08:21 15.03.2020
6489 Clouds 28 1009 79 0 3.25 359 07:51 15.03.2020
6490 Clouds 28 1009 88 10000 2.6 10 07:32 15.03.2020
6491 Clouds 28 1009 88 10000 2.6 10 06:53 15.03.2020
6492 Clouds 28 1009 88 10000 2.6 10 06:18 15.03.2020
6493 Clouds 27 1009 94 10000 3.1 360 05:19 15.03.2020
6494 Rain 25 1009 100 10000 5.1 350 04:43 15.03.2020
6495 Rain 25 1009 100 5000 7.7 340 04:24 15.03.2020
6496 Clouds 33 1008 66 10000 5.1 360 03:48 15.03.2020
6497 Clouds 32 1008 66 10000 5.1 10 02:38 15.03.2020
6498 Clouds 32 1010 60 0 4.11 20 01:34 15.03.2020
6499 Clouds 31 1010 74 10000 5.1 10 00:46 15.03.2020
6500 Clouds 31 1010 74 10000 5.1 10 00:24 15.03.2020
6501 Clouds 30 1010 74 10000 3.6 10 23:55 14.03.2020
6502 Clouds 30 1010 74 10000 3.6 10 23:36 14.03.2020
6503 Clouds 30 1010 74 10000 3.6 10 23:18 14.03.2020
6504 Clouds 29 1010 83 10000 3.6 10 22:42 14.03.2020
6505 Clouds 25 1010 94 10000 2.45 357 22:23 14.03.2020
6506 Clouds 25 1010 94 10000 2.45 357 21:56 14.03.2020
6507 Clouds 29 1011 78 0 2.45 357 21:36 14.03.2020
6508 Clouds 25 1010 94 10000 2.45 357 21:36 14.03.2020
6509 Clouds 25 1010 94 10000 2.45 357 21:18 14.03.2020
6510 Clouds 25 1010 94 10000 2.45 357 20:58 14.03.2020
6511 Clouds 25 1010 94 10000 2.45 357 20:40 14.03.2020
6512 Clouds 23 1010 95 0 1.64 351 20:19 14.03.2020
6513 Clouds 23 1010 95 0 1.64 351 19:43 14.03.2020
6514 Clouds 25 1009 100 10000 1.64 351 19:25 14.03.2020
6515 Clouds 25 1009 100 10000 1.64 351 18:42 14.03.2020
6516 Clouds 25 1009 100 10000 1.64 351 18:23 14.03.2020
6517 Clouds 25 1009 100 10000 1.64 351 17:56 14.03.2020
6518 Clouds 25 1009 100 10000 1.64 351 17:38 14.03.2020
6519 Clouds 25 1009 100 10000 1.74 328 17:20 14.03.2020
6520 Clouds 25 1009 100 10000 1.74 328 16:40 14.03.2020
6521 Clouds 25 1009 100 10000 1.74 328 16:22 14.03.2020
6522 Clouds 25 1009 100 10000 1.74 328 15:56 14.03.2020
6523 Clouds 25 1009 100 10000 1.74 328 15:26 14.03.2020
6524 Clouds 25 1009 100 10000 1.74 328 14:55 14.03.2020
6525 Clouds 25 1009 100 10000 1.74 328 14:36 14.03.2020
6526 Clouds 24 1010 95 0 1.73 326 14:18 14.03.2020
6527 Clouds 24 1010 95 0 1.73 326 13:42 14.03.2020
6528 Clouds 26 1010 94 10000 1.53 328 13:23 14.03.2020
6529 Clouds 26 1010 94 10000 1.53 328 12:47 14.03.2020
6530 Clouds 26 1010 94 10000 1.53 328 12:27 14.03.2020
6531 Clouds 26 1010 94 10000 1.53 328 12:27 14.03.2020
6532 Clouds 26 1010 88 10000 1.53 328 11:57 14.03.2020
6533 Clouds 26 1010 88 10000 1.53 328 11:38 14.03.2020
6534 Clouds 26 1010 88 10000 1.16 325 11:20 14.03.2020
6535 Clouds 26 1009 88 10000 1.16 325 10:45 14.03.2020
6536 Clouds 26 1008 88 10000 1 0 10:27 14.03.2020
6537 Clouds 26 1008 88 10000 1 0 09:57 14.03.2020
6538 Clouds 26 1008 88 10000 1 0 09:39 14.03.2020
6539 Clouds 26 1008 88 10000 1 0 09:39 14.03.2020
6540 Clouds 28 1008 83 10000 1.16 325 09:19 14.03.2020
6541 Clouds 28 1008 83 10000 1.16 325 08:42 14.03.2020
6542 Clouds 25 1010 93 0 1.42 337 08:21 14.03.2020
6543 Rain 27 1007 91 0 0.92 2 07:39 14.03.2020
6544 Clouds 26 1007 94 10000 0.92 2 07:20 14.03.2020
6545 Clouds 26 1007 94 10000 0.92 2 06:41 14.03.2020
6546 Clouds 26 1007 94 10000 0.92 2 05:47 14.03.2020
6547 Clouds 26 1007 94 10000 0.92 2 05:47 14.03.2020
6548 Rain 25 1007 100 10000 1 320 04:42 14.03.2020
6549 Clouds 31 1007 70 10000 6.2 30 03:24 14.03.2020
6550 Rain 31 1006 70 0 1.77 355 02:25 14.03.2020
6551 Clouds 32 1008 66 10000 3.6 140 00:57 14.03.2020
6552 Clouds 31 1008 70 10000 2.6 130 23:51 13.03.2020
6553 Clouds 31 1008 70 10000 2.6 130 23:30 13.03.2020
6554 Clouds 30 1009 74 10000 2.6 10 22:52 13.03.2020
6555 Clouds 30 1009 74 10000 2.6 10 22:52 13.03.2020
6556 Clouds 28 1009 83 10000 1 0 22:26 13.03.2020
6557 Clouds 28 1009 83 10000 1 0 21:44 13.03.2020
6558 Clouds 28 1009 83 10000 1 0 21:22 13.03.2020
6559 Clouds 25 1008 94 10000 2.22 341 20:59 13.03.2020
6560 Clouds 25 1008 94 10000 2.22 341 20:41 13.03.2020
6561 Clouds 26 1009 88 0 2.22 341 20:21 13.03.2020
6562 Rain 23 1008 97 0 1.42 316 19:49 13.03.2020
6563 Clouds 24 1007 100 10000 1.42 316 19:30 13.03.2020
6564 Clouds 24 1007 100 10000 1.42 316 18:51 13.03.2020
6565 Clouds 24 1007 100 10000 1.42 316 18:32 13.03.2020
6566 Clouds 24 1007 100 10000 1.42 316 17:59 13.03.2020
6567 Clouds 24 1007 100 10000 1.42 316 17:41 13.03.2020
6568 Clouds 24 1007 100 10000 1.44 328 17:20 13.03.2020
6569 Clouds 23 1007 95 0 1.44 328 16:42 13.03.2020
6570 Clouds 25 1007 94 10000 1.44 328 16:24 13.03.2020
6571 Clouds 25 1007 94 10000 1.44 328 15:59 13.03.2020
6572 Clouds 25 1007 94 10000 1.44 328 15:39 13.03.2020
6573 Clouds 25 1008 100 10000 1.44 328 15:20 13.03.2020
6574 Clouds 25 1008 100 10000 1.44 328 14:43 13.03.2020
6575 Clouds 23 1007 95 0 1.44 328 14:23 13.03.2020
6576 Clouds 24 1009 94 0 1.73 326 13:58 13.03.2020
6577 Clouds 24 1009 94 0 1.73 326 13:39 13.03.2020
6578 Clouds 26 1009 94 10000 1.7 325 13:20 13.03.2020
6579 Clouds 26 1009 94 10000 1.7 325 12:55 13.03.2020
6580 Clouds 26 1009 94 10000 1.7 325 12:36 13.03.2020
6581 Clouds 26 1009 94 10000 1.7 325 12:18 13.03.2020
6582 Clouds 27 1009 88 10000 1.7 325 11:42 13.03.2020
6583 Clouds 27 1009 88 10000 1.7 325 11:24 13.03.2020
6584 Rain 27 1009 94 10000 1.4 317 10:57 13.03.2020
6585 Rain 27 1009 94 10000 1.4 317 10:38 13.03.2020
6586 Clouds 26 1008 94 10000 1.4 317 10:20 13.03.2020
6587 Clouds 26 1008 94 10000 1.4 317 09:43 13.03.2020
6588 Clouds 29 1008 79 10000 1 290 09:24 13.03.2020
6589 Clouds 29 1008 79 10000 1 290 08:46 13.03.2020
6590 Rain 25 1007 95 0 0.45 329 08:23 13.03.2020
6591 Rain 25 1007 95 0 0.45 329 07:52 13.03.2020
6592 Clouds 30 1006 74 10000 2.1 350 07:28 13.03.2020
6593 Clouds 30 1006 74 10000 2.1 350 06:57 13.03.2020
6594 Clouds 30 1006 74 10000 2.1 350 06:32 13.03.2020
6595 Clouds 30 1007 70 10000 3.1 360 05:55 13.03.2020
6596 Clouds 30 1007 70 10000 3.1 360 05:24 13.03.2020
6597 Clouds 30 1007 74 10000 3.6 350 04:38 13.03.2020
6598 Clouds 30 1008 70 10000 2.6 360 03:42 13.03.2020
6599 Rain 28 1009 90 0 2.01 335 01:47 13.03.2020
6600 Clouds 28 1010 83 10000 1.97 326 01:19 13.03.2020
6601 Clouds 28 1010 83 10000 1.97 326 00:54 13.03.2020
6602 Clouds 28 1010 83 10000 1.97 326 00:27 13.03.2020
6603 Clouds 28 1010 88 10000 1.97 326 23:55 12.03.2020
6604 Clouds 28 1010 88 10000 1.97 326 23:28 12.03.2020
6605 Clouds 27 1010 88 10000 1.64 337 22:57 12.03.2020
6606 Clouds 27 1010 88 10000 1.64 337 22:39 12.03.2020
6607 -273 0 0 0 0 0 22:21 12.03.2020
6608 Clouds 25 1010 94 10000 1 0 21:44 12.03.2020
6609 Clouds 25 1009 100 10000 1 0 21:26 12.03.2020
6610 Clouds 25 1009 100 10000 1 0 20:57 12.03.2020
6611 Clouds 25 1009 100 10000 1 0 20:38 12.03.2020
6612 Rain 23 1008 96 0 1.35 323 20:19 12.03.2020
6613 Rain 23 1008 95 0 1.41 325 19:40 12.03.2020
6614 Clouds 25 1008 94 10000 1.41 325 19:20 12.03.2020
6615 Clouds 25 1008 94 10000 1.41 325 18:44 12.03.2020
6616 Clouds 25 1008 94 10000 1.41 325 18:24 12.03.2020
6617 Clouds 25 1008 94 10000 1.41 325 17:57 12.03.2020
6618 Clouds 25 1008 94 10000 1.41 325 17:38 12.03.2020
6619 Clouds 25 1008 94 10000 1.41 337 17:19 12.03.2020
6620 Clouds 25 1009 94 10000 1.41 337 16:55 12.03.2020
6621 Rain 23 1008 95 0 1.41 337 16:37 12.03.2020
6622 Clouds 25 1009 94 10000 1.41 337 16:18 12.03.2020
6623 Clouds 25 1009 94 10000 1.41 337 15:44 12.03.2020
6624 Clouds 25 1010 100 10000 1.41 337 15:26 12.03.2020
6625 Clouds 25 1010 100 10000 1.41 337 14:40 12.03.2020
6626 Rain 23 1008 95 0 1.41 337 14:21 12.03.2020
6627 Rain 23 1010 97 0 1.49 345 13:42 12.03.2020
6628 Clouds 25 1010 100 10000 1.49 345 13:23 12.03.2020
6629 Clouds 25 1010 100 10000 1.43 328 12:56 12.03.2020
6630 Clouds 25 1010 100 10000 1.43 328 12:38 12.03.2020
6631 Clouds 25 1010 100 10000 1.43 328 12:20 12.03.2020
6632 Clouds 25 1010 100 10000 1.43 328 11:56 12.03.2020
6633 Clouds 25 1010 100 10000 1.43 328 11:37 12.03.2020
6634 Clouds 25 1010 100 10000 1.38 346 11:19 12.03.2020
6635 Rain 25 1010 100 10000 1.38 346 10:58 12.03.2020
6636 Rain 25 1010 100 10000 1.38 346 10:40 12.03.2020
6637 Rain 25 1010 100 10000 1.38 346 10:22 12.03.2020
6638 Rain 25 1010 100 10000 1.38 346 09:45 12.03.2020
6639 Rain 25 1010 100 10000 1.38 346 09:25 12.03.2020
6640 Rain 25 1010 100 10000 1.38 346 08:43 12.03.2020
6641 Rain 25 1008 97 0 0.35 11 08:20 12.03.2020
6642 Rain 25 1008 97 0 0.35 11 07:53 12.03.2020
6643 Rain 26 1009 94 10000 3.1 10 07:24 12.03.2020
6644 Rain 26 1009 94 10000 3.1 10 06:59 12.03.2020
6645 Clouds 27 1009 88 10000 2.6 20 05:43 12.03.2020
6646 Clouds 27 1009 88 10000 2.6 20 05:21 12.03.2020
6647 Clouds 32 1009 62 10000 3.1 340 02:38 12.03.2020
6648 Clouds 30 1011 79 10000 2.1 280 01:31 12.03.2020
6649 Clouds 30 1011 79 10000 2.1 280 00:44 12.03.2020
6650 Clouds 30 1011 79 10000 2.1 280 00:26 12.03.2020
6651 Clouds 29 1011 83 10000 2.1 280 23:45 11.03.2020
6652 Clouds 29 1011 83 10000 2.1 280 23:24 11.03.2020
6653 Clouds 27 1012 88 10000 2.1 280 22:48 11.03.2020
6654 Clouds 26 1012 94 10000 2.62 331 22:29 11.03.2020
6655 Clouds 26 1012 94 10000 2.62 331 21:59 11.03.2020
6656 Clouds 26 1012 94 10000 2.62 331 21:41 11.03.2020
6657 Clouds 25 1011 94 10000 2.62 331 21:22 11.03.2020
6658 Clouds 25 1011 94 10000 2.62 331 21:22 11.03.2020
6659 Clouds 25 1011 94 10000 2.62 331 20:58 11.03.2020
6660 Clouds 25 1011 94 10000 2.62 331 20:39 11.03.2020
6661 Rain 23 1010 96 0 1.86 329 20:19 11.03.2020
6662 Clouds 23 1010 96 0 1.71 334 19:44 11.03.2020
6663 Clouds 25 1010 94 10000 1.71 334 19:25 11.03.2020
6664 Clouds 25 1010 94 10000 1.71 334 18:58 11.03.2020
6665 Clouds 25 1010 94 10000 1.71 334 18:40 11.03.2020
6666 Clouds 25 1010 94 10000 1.71 334 18:21 11.03.2020
6667 Clouds 25 1010 94 10000 1.71 334 17:57 11.03.2020
6668 Clouds 25 1010 94 10000 1.71 334 17:39 11.03.2020
6669 Clouds 25 1010 94 10000 1.63 339 17:20 11.03.2020
6670 Clouds 25 1010 100 10000 1.63 339 16:46 11.03.2020
6671 Clouds 25 1011 100 10000 1.63 339 16:22 11.03.2020
6672 Clouds 25 1011 100 10000 1.63 339 15:45 11.03.2020
6673 Clouds 25 1011 100 10000 1.63 339 15:24 11.03.2020
6674 Clouds 25 1011 100 10000 1.63 339 14:58 11.03.2020
6675 Clouds 25 1011 100 10000 1.63 339 14:40 11.03.2020
6676 Rain 24 1011 96 0 1.47 334 14:21 11.03.2020
6677 Rain 24 1011 96 0 1.47 334 13:44 11.03.2020
6678 Clouds 26 1012 94 10000 1.47 334 13:26 11.03.2020
6679 Clouds 26 1012 94 10000 1.51 336 12:58 11.03.2020
6680 Clouds 26 1012 94 10000 1.51 336 12:39 11.03.2020
6681 Clouds 26 1012 94 10000 1.51 336 12:19 11.03.2020
6682 Clouds 26 1012 94 10000 1.51 336 11:42 11.03.2020
6683 Clouds 26 1012 94 10000 1.51 336 11:24 11.03.2020
6684 Clouds 26 1012 94 10000 0.71 14 10:57 11.03.2020
6685 Clouds 26 1012 94 10000 0.71 14 10:39 11.03.2020
6686 Clouds 26 1012 94 10000 0.71 14 10:18 11.03.2020
6687 Clouds 26 1012 94 10000 0.71 14 09:41 11.03.2020
6688 Clouds 26 1011 94 10000 0.71 14 09:23 11.03.2020
6689 Clouds 26 1011 94 10000 0.71 14 08:45 11.03.2020
6690 Rain 24 1012 94 0 0.95 282 08:26 11.03.2020
6691 Rain 26 1010 94 0 0.47 248 07:48 11.03.2020
6692 Rain 26 1010 94 0 0.47 248 07:22 11.03